<?xml version="1.0" encoding="UTF-8" standalone="no" ?>
<gpx xmlns="http://www.topografix.com/GPX/1/1" xmlns:xsi="http://www.w3.org/2001/XMLSchema-instance" xsi:schemaLocation="http://www.topografix.com/GPX/1/1 http://www.topografix.com/GPX/1/1/gpx.xsd" version="1.1" creator="VisuGPX - https://www.visugpx.com">
  <metadata>
    <name>Garde d'enfants.</name>
  </metadata>
  <trk>
    <name><![CDATA[Garde d'enfants.]]></name>
    <trkseg>
      <trkpt lat="49.29686" lon="-0.31636">
        <ele>11</ele>
        <time>2021-04-18T12:03:05Z</time>
      </trkpt>
      <trkpt lat="49.2969" lon="-0.3164">
        <ele>11</ele>
        <time>2021-04-18T12:03:06Z</time>
      </trkpt>
      <trkpt lat="49.29692" lon="-0.31643">
        <ele>11</ele>
        <time>2021-04-18T12:03:07Z</time>
      </trkpt>
      <trkpt lat="49.29694" lon="-0.31646">
        <ele>11</ele>
        <time>2021-04-18T12:03:08Z</time>
      </trkpt>
      <trkpt lat="49.29695" lon="-0.31647">
        <ele>11</ele>
        <time>2021-04-18T12:03:09Z</time>
      </trkpt>
      <trkpt lat="49.29698" lon="-0.31649">
        <ele>11</ele>
        <time>2021-04-18T12:03:11Z</time>
      </trkpt>
      <trkpt lat="49.29699" lon="-0.3165">
        <ele>11</ele>
        <time>2021-04-18T12:03:12Z</time>
      </trkpt>
      <trkpt lat="49.29701" lon="-0.31651">
        <ele>11</ele>
        <time>2021-04-18T12:03:13Z</time>
      </trkpt>
      <trkpt lat="49.29702" lon="-0.31652">
        <ele>11</ele>
        <time>2021-04-18T12:03:14Z</time>
      </trkpt>
      <trkpt lat="49.29706" lon="-0.31653">
        <ele>10.9</ele>
        <time>2021-04-18T12:03:16Z</time>
      </trkpt>
      <trkpt lat="49.29706" lon="-0.31654">
        <ele>10.9</ele>
        <time>2021-04-18T12:03:17Z</time>
      </trkpt>
      <trkpt lat="49.29709" lon="-0.31655">
        <ele>10.9</ele>
        <time>2021-04-18T12:03:18Z</time>
      </trkpt>
      <trkpt lat="49.29712" lon="-0.31657">
        <ele>10.9</ele>
        <time>2021-04-18T12:03:20Z</time>
      </trkpt>
      <trkpt lat="49.29713" lon="-0.31657">
        <ele>10.9</ele>
        <time>2021-04-18T12:03:21Z</time>
      </trkpt>
      <trkpt lat="49.29715" lon="-0.31658">
        <ele>10.9</ele>
        <time>2021-04-18T12:03:22Z</time>
      </trkpt>
      <trkpt lat="49.29717" lon="-0.31659">
        <ele>10.9</ele>
        <time>2021-04-18T12:03:23Z</time>
      </trkpt>
      <trkpt lat="49.29718" lon="-0.3166">
        <ele>10.9</ele>
        <time>2021-04-18T12:03:25Z</time>
      </trkpt>
      <trkpt lat="49.2972" lon="-0.31661">
        <ele>10.8</ele>
        <time>2021-04-18T12:03:26Z</time>
      </trkpt>
      <trkpt lat="49.29721" lon="-0.31662">
        <ele>10.8</ele>
        <time>2021-04-18T12:03:27Z</time>
      </trkpt>
      <trkpt lat="49.29723" lon="-0.31664">
        <ele>10.8</ele>
        <time>2021-04-18T12:03:29Z</time>
      </trkpt>
      <trkpt lat="49.29724" lon="-0.31665">
        <ele>10.8</ele>
        <time>2021-04-18T12:03:30Z</time>
      </trkpt>
      <trkpt lat="49.29726" lon="-0.31666">
        <ele>10.8</ele>
        <time>2021-04-18T12:03:31Z</time>
      </trkpt>
      <trkpt lat="49.29728" lon="-0.31667">
        <ele>10.8</ele>
        <time>2021-04-18T12:03:32Z</time>
      </trkpt>
      <trkpt lat="49.29731" lon="-0.31668">
        <ele>10.7</ele>
        <time>2021-04-18T12:03:34Z</time>
      </trkpt>
      <trkpt lat="49.29735" lon="-0.3167">
        <ele>10.7</ele>
        <time>2021-04-18T12:03:35Z</time>
      </trkpt>
      <trkpt lat="49.29736" lon="-0.31671">
        <ele>10.7</ele>
        <time>2021-04-18T12:03:36Z</time>
      </trkpt>
      <trkpt lat="49.29739" lon="-0.31673">
        <ele>10.6</ele>
        <time>2021-04-18T12:03:37Z</time>
      </trkpt>
      <trkpt lat="49.29742" lon="-0.31675">
        <ele>10.6</ele>
        <time>2021-04-18T12:03:39Z</time>
      </trkpt>
      <trkpt lat="49.29745" lon="-0.31677">
        <ele>10.6</ele>
        <time>2021-04-18T12:03:40Z</time>
      </trkpt>
      <trkpt lat="49.29748" lon="-0.3168">
        <ele>10.5</ele>
        <time>2021-04-18T12:03:42Z</time>
      </trkpt>
      <trkpt lat="49.29751" lon="-0.31681">
        <ele>10.5</ele>
        <time>2021-04-18T12:03:43Z</time>
      </trkpt>
      <trkpt lat="49.29754" lon="-0.31684">
        <ele>10.5</ele>
        <time>2021-04-18T12:03:45Z</time>
      </trkpt>
      <trkpt lat="49.29755" lon="-0.31685">
        <ele>10.5</ele>
        <time>2021-04-18T12:03:46Z</time>
      </trkpt>
      <trkpt lat="49.29757" lon="-0.31688">
        <ele>10.4</ele>
        <time>2021-04-18T12:03:47Z</time>
      </trkpt>
      <trkpt lat="49.29759" lon="-0.3169">
        <ele>10.4</ele>
        <time>2021-04-18T12:03:49Z</time>
      </trkpt>
      <trkpt lat="49.2976" lon="-0.31691">
        <ele>10.4</ele>
        <time>2021-04-18T12:03:50Z</time>
      </trkpt>
      <trkpt lat="49.29763" lon="-0.31693">
        <ele>10.3</ele>
        <time>2021-04-18T12:03:52Z</time>
      </trkpt>
      <trkpt lat="49.29767" lon="-0.31697">
        <ele>10.3</ele>
        <time>2021-04-18T12:03:54Z</time>
      </trkpt>
      <trkpt lat="49.29768" lon="-0.31698">
        <ele>10.3</ele>
        <time>2021-04-18T12:03:55Z</time>
      </trkpt>
      <trkpt lat="49.29769" lon="-0.31699">
        <ele>10.2</ele>
        <time>2021-04-18T12:03:56Z</time>
      </trkpt>
      <trkpt lat="49.29772" lon="-0.317">
        <ele>10.2</ele>
        <time>2021-04-18T12:03:57Z</time>
      </trkpt>
      <trkpt lat="49.29773" lon="-0.31701">
        <ele>10.2</ele>
        <time>2021-04-18T12:03:59Z</time>
      </trkpt>
      <trkpt lat="49.29774" lon="-0.31701">
        <ele>10.2</ele>
        <time>2021-04-18T12:04:00Z</time>
      </trkpt>
      <trkpt lat="49.29774" lon="-0.31702">
        <ele>10.2</ele>
        <time>2021-04-18T12:04:01Z</time>
      </trkpt>
      <trkpt lat="49.29775" lon="-0.31702">
        <ele>10.2</ele>
        <time>2021-04-18T12:04:02Z</time>
      </trkpt>
      <trkpt lat="49.29778" lon="-0.31705">
        <ele>10.1</ele>
        <time>2021-04-18T12:04:04Z</time>
      </trkpt>
      <trkpt lat="49.29778" lon="-0.31707">
        <ele>10.1</ele>
        <time>2021-04-18T12:04:06Z</time>
      </trkpt>
      <trkpt lat="49.29779" lon="-0.31709">
        <ele>10.1</ele>
        <time>2021-04-18T12:04:07Z</time>
      </trkpt>
      <trkpt lat="49.2978" lon="-0.3171">
        <ele>10.1</ele>
        <time>2021-04-18T12:04:08Z</time>
      </trkpt>
      <trkpt lat="49.2978" lon="-0.31712">
        <ele>10.1</ele>
        <time>2021-04-18T12:04:10Z</time>
      </trkpt>
      <trkpt lat="49.29781" lon="-0.31714">
        <ele>10</ele>
        <time>2021-04-18T12:04:12Z</time>
      </trkpt>
      <trkpt lat="49.29782" lon="-0.31715">
        <ele>10</ele>
        <time>2021-04-18T12:04:13Z</time>
      </trkpt>
      <trkpt lat="49.29784" lon="-0.31719">
        <ele>10</ele>
        <time>2021-04-18T12:04:14Z</time>
      </trkpt>
      <trkpt lat="49.29787" lon="-0.31725">
        <ele>9.9</ele>
        <time>2021-04-18T12:04:16Z</time>
      </trkpt>
      <trkpt lat="49.29788" lon="-0.31726">
        <ele>9.9</ele>
        <time>2021-04-18T12:04:17Z</time>
      </trkpt>
      <trkpt lat="49.29788" lon="-0.31727">
        <ele>9.9</ele>
        <time>2021-04-18T12:04:18Z</time>
      </trkpt>
      <trkpt lat="49.29791" lon="-0.3173">
        <ele>9.9</ele>
        <time>2021-04-18T12:04:19Z</time>
      </trkpt>
      <trkpt lat="49.29793" lon="-0.31733">
        <ele>9.8</ele>
        <time>2021-04-18T12:04:21Z</time>
      </trkpt>
      <trkpt lat="49.29794" lon="-0.31735">
        <ele>9.8</ele>
        <time>2021-04-18T12:04:22Z</time>
      </trkpt>
      <trkpt lat="49.29797" lon="-0.31738">
        <ele>9.7</ele>
        <time>2021-04-18T12:04:24Z</time>
      </trkpt>
      <trkpt lat="49.29798" lon="-0.31739">
        <ele>9.7</ele>
        <time>2021-04-18T12:04:25Z</time>
      </trkpt>
      <trkpt lat="49.29799" lon="-0.31741">
        <ele>9.7</ele>
        <time>2021-04-18T12:04:26Z</time>
      </trkpt>
      <trkpt lat="49.29801" lon="-0.31743">
        <ele>9.6</ele>
        <time>2021-04-18T12:04:27Z</time>
      </trkpt>
      <trkpt lat="49.29804" lon="-0.31746">
        <ele>9.5</ele>
        <time>2021-04-18T12:04:29Z</time>
      </trkpt>
      <trkpt lat="49.29807" lon="-0.31748">
        <ele>9.5</ele>
        <time>2021-04-18T12:04:31Z</time>
      </trkpt>
      <trkpt lat="49.29809" lon="-0.3175">
        <ele>9.4</ele>
        <time>2021-04-18T12:04:32Z</time>
      </trkpt>
      <trkpt lat="49.2981" lon="-0.31751">
        <ele>9.4</ele>
        <time>2021-04-18T12:04:33Z</time>
      </trkpt>
      <trkpt lat="49.29814" lon="-0.31754">
        <ele>9.3</ele>
        <time>2021-04-18T12:04:35Z</time>
      </trkpt>
      <trkpt lat="49.29816" lon="-0.31754">
        <ele>9.3</ele>
        <time>2021-04-18T12:04:36Z</time>
      </trkpt>
      <trkpt lat="49.29817" lon="-0.31755">
        <ele>9.2</ele>
        <time>2021-04-18T12:04:37Z</time>
      </trkpt>
      <trkpt lat="49.29819" lon="-0.31757">
        <ele>9.2</ele>
        <time>2021-04-18T12:04:39Z</time>
      </trkpt>
      <trkpt lat="49.29822" lon="-0.31759">
        <ele>9.1</ele>
        <time>2021-04-18T12:04:41Z</time>
      </trkpt>
      <trkpt lat="49.29823" lon="-0.3176">
        <ele>9.1</ele>
        <time>2021-04-18T12:04:42Z</time>
      </trkpt>
      <trkpt lat="49.29824" lon="-0.31762">
        <ele>9</ele>
        <time>2021-04-18T12:04:43Z</time>
      </trkpt>
      <trkpt lat="49.29826" lon="-0.31764">
        <ele>9</ele>
        <time>2021-04-18T12:04:44Z</time>
      </trkpt>
      <trkpt lat="49.29827" lon="-0.31764">
        <ele>8.9</ele>
        <time>2021-04-18T12:04:45Z</time>
      </trkpt>
      <trkpt lat="49.29828" lon="-0.31765">
        <ele>8.9</ele>
        <time>2021-04-18T12:04:46Z</time>
      </trkpt>
      <trkpt lat="49.2983" lon="-0.31767">
        <ele>8.8</ele>
        <time>2021-04-18T12:04:48Z</time>
      </trkpt>
      <trkpt lat="49.29831" lon="-0.31767">
        <ele>8.8</ele>
        <time>2021-04-18T12:04:49Z</time>
      </trkpt>
      <trkpt lat="49.29836" lon="-0.3177">
        <ele>8.7</ele>
        <time>2021-04-18T12:04:51Z</time>
      </trkpt>
      <trkpt lat="49.29838" lon="-0.31769">
        <ele>8.6</ele>
        <time>2021-04-18T12:04:52Z</time>
      </trkpt>
      <trkpt lat="49.29839" lon="-0.31769">
        <ele>8.6</ele>
        <time>2021-04-18T12:04:53Z</time>
      </trkpt>
      <trkpt lat="49.29842" lon="-0.3177">
        <ele>8.6</ele>
        <time>2021-04-18T12:04:55Z</time>
      </trkpt>
      <trkpt lat="49.29843" lon="-0.31771">
        <ele>8.6</ele>
        <time>2021-04-18T12:04:56Z</time>
      </trkpt>
      <trkpt lat="49.29844" lon="-0.31771">
        <ele>8.5</ele>
        <time>2021-04-18T12:04:57Z</time>
      </trkpt>
      <trkpt lat="49.29846" lon="-0.31772">
        <ele>8.5</ele>
        <time>2021-04-18T12:04:59Z</time>
      </trkpt>
      <trkpt lat="49.29847" lon="-0.31773">
        <ele>8.4</ele>
        <time>2021-04-18T12:05:00Z</time>
      </trkpt>
      <trkpt lat="49.29848" lon="-0.31775">
        <ele>8.4</ele>
        <time>2021-04-18T12:05:01Z</time>
      </trkpt>
      <trkpt lat="49.2985" lon="-0.31776">
        <ele>8.3</ele>
        <time>2021-04-18T12:05:03Z</time>
      </trkpt>
      <trkpt lat="49.29852" lon="-0.31777">
        <ele>8.3</ele>
        <time>2021-04-18T12:05:04Z</time>
      </trkpt>
      <trkpt lat="49.29855" lon="-0.31778">
        <ele>8.2</ele>
        <time>2021-04-18T12:05:06Z</time>
      </trkpt>
      <trkpt lat="49.29858" lon="-0.31781">
        <ele>8.1</ele>
        <time>2021-04-18T12:05:07Z</time>
      </trkpt>
      <trkpt lat="49.29859" lon="-0.31782">
        <ele>8.1</ele>
        <time>2021-04-18T12:05:08Z</time>
      </trkpt>
      <trkpt lat="49.29862" lon="-0.31784">
        <ele>8</ele>
        <time>2021-04-18T12:05:10Z</time>
      </trkpt>
      <trkpt lat="49.29863" lon="-0.31785">
        <ele>7.9</ele>
        <time>2021-04-18T12:05:11Z</time>
      </trkpt>
      <trkpt lat="49.29867" lon="-0.31786">
        <ele>7.8</ele>
        <time>2021-04-18T12:05:12Z</time>
      </trkpt>
      <trkpt lat="49.29868" lon="-0.31786">
        <ele>7.8</ele>
        <time>2021-04-18T12:05:13Z</time>
      </trkpt>
      <trkpt lat="49.29872" lon="-0.31787">
        <ele>7.7</ele>
        <time>2021-04-18T12:05:15Z</time>
      </trkpt>
      <trkpt lat="49.29873" lon="-0.31788">
        <ele>7.7</ele>
        <time>2021-04-18T12:05:16Z</time>
      </trkpt>
      <trkpt lat="49.29874" lon="-0.31787">
        <ele>7.6</ele>
        <time>2021-04-18T12:05:17Z</time>
      </trkpt>
      <trkpt lat="49.29877" lon="-0.31786">
        <ele>7.5</ele>
        <time>2021-04-18T12:05:19Z</time>
      </trkpt>
      <trkpt lat="49.29878" lon="-0.31786">
        <ele>7.5</ele>
        <time>2021-04-18T12:05:20Z</time>
      </trkpt>
      <trkpt lat="49.2988" lon="-0.31785">
        <ele>7.5</ele>
        <time>2021-04-18T12:05:22Z</time>
      </trkpt>
      <trkpt lat="49.29884" lon="-0.31783">
        <ele>7.3</ele>
        <time>2021-04-18T12:05:23Z</time>
      </trkpt>
      <trkpt lat="49.29885" lon="-0.31782">
        <ele>7.3</ele>
        <time>2021-04-18T12:05:24Z</time>
      </trkpt>
      <trkpt lat="49.29887" lon="-0.31779">
        <ele>7.1</ele>
        <time>2021-04-18T12:05:25Z</time>
      </trkpt>
      <trkpt lat="49.29887" lon="-0.31778">
        <ele>7.1</ele>
        <time>2021-04-18T12:05:26Z</time>
      </trkpt>
      <trkpt lat="49.29889" lon="-0.31775">
        <ele>7.1</ele>
        <time>2021-04-18T12:05:27Z</time>
      </trkpt>
      <trkpt lat="49.29891" lon="-0.31772">
        <ele>7</ele>
        <time>2021-04-18T12:05:29Z</time>
      </trkpt>
      <trkpt lat="49.29894" lon="-0.31768">
        <ele>7</ele>
        <time>2021-04-18T12:05:30Z</time>
      </trkpt>
      <trkpt lat="49.29895" lon="-0.31766">
        <ele>7</ele>
        <time>2021-04-18T12:05:31Z</time>
      </trkpt>
      <trkpt lat="49.29898" lon="-0.31762">
        <ele>7</ele>
        <time>2021-04-18T12:05:33Z</time>
      </trkpt>
      <trkpt lat="49.29899" lon="-0.31761">
        <ele>7</ele>
        <time>2021-04-18T12:05:34Z</time>
      </trkpt>
      <trkpt lat="49.29902" lon="-0.31758">
        <ele>7</ele>
        <time>2021-04-18T12:05:36Z</time>
      </trkpt>
      <trkpt lat="49.29905" lon="-0.31755">
        <ele>7</ele>
        <time>2021-04-18T12:05:38Z</time>
      </trkpt>
      <trkpt lat="49.29908" lon="-0.31752">
        <ele>7</ele>
        <time>2021-04-18T12:05:39Z</time>
      </trkpt>
      <trkpt lat="49.2991" lon="-0.31748">
        <ele>7</ele>
        <time>2021-04-18T12:05:41Z</time>
      </trkpt>
      <trkpt lat="49.29911" lon="-0.31747">
        <ele>7</ele>
        <time>2021-04-18T12:05:42Z</time>
      </trkpt>
      <trkpt lat="49.29914" lon="-0.31742">
        <ele>7</ele>
        <time>2021-04-18T12:05:44Z</time>
      </trkpt>
      <trkpt lat="49.29916" lon="-0.31739">
        <ele>7</ele>
        <time>2021-04-18T12:05:45Z</time>
      </trkpt>
      <trkpt lat="49.29918" lon="-0.31737">
        <ele>7</ele>
        <time>2021-04-18T12:05:46Z</time>
      </trkpt>
      <trkpt lat="49.2992" lon="-0.31735">
        <ele>7</ele>
        <time>2021-04-18T12:05:48Z</time>
      </trkpt>
      <trkpt lat="49.29923" lon="-0.31731">
        <ele>7</ele>
        <time>2021-04-18T12:05:49Z</time>
      </trkpt>
      <trkpt lat="49.29923" lon="-0.31729">
        <ele>7</ele>
        <time>2021-04-18T12:05:50Z</time>
      </trkpt>
      <trkpt lat="49.29926" lon="-0.31726">
        <ele>7</ele>
        <time>2021-04-18T12:05:51Z</time>
      </trkpt>
      <trkpt lat="49.29929" lon="-0.31721">
        <ele>7</ele>
        <time>2021-04-18T12:05:53Z</time>
      </trkpt>
      <trkpt lat="49.29931" lon="-0.31719">
        <ele>7</ele>
        <time>2021-04-18T12:05:55Z</time>
      </trkpt>
      <trkpt lat="49.29932" lon="-0.31717">
        <ele>7</ele>
        <time>2021-04-18T12:05:56Z</time>
      </trkpt>
      <trkpt lat="49.29933" lon="-0.31714">
        <ele>7</ele>
        <time>2021-04-18T12:05:57Z</time>
      </trkpt>
      <trkpt lat="49.29935" lon="-0.31711">
        <ele>7</ele>
        <time>2021-04-18T12:05:58Z</time>
      </trkpt>
      <trkpt lat="49.29937" lon="-0.31708">
        <ele>7</ele>
        <time>2021-04-18T12:06:00Z</time>
      </trkpt>
      <trkpt lat="49.29939" lon="-0.31704">
        <ele>7</ele>
        <time>2021-04-18T12:06:01Z</time>
      </trkpt>
      <trkpt lat="49.29942" lon="-0.31701">
        <ele>7</ele>
        <time>2021-04-18T12:06:03Z</time>
      </trkpt>
      <trkpt lat="49.29943" lon="-0.317">
        <ele>7</ele>
        <time>2021-04-18T12:06:04Z</time>
      </trkpt>
      <trkpt lat="49.29946" lon="-0.31697">
        <ele>7</ele>
        <time>2021-04-18T12:06:05Z</time>
      </trkpt>
      <trkpt lat="49.29947" lon="-0.31696">
        <ele>6.9</ele>
        <time>2021-04-18T12:06:06Z</time>
      </trkpt>
      <trkpt lat="49.2995" lon="-0.31692">
        <ele>6.9</ele>
        <time>2021-04-18T12:06:08Z</time>
      </trkpt>
      <trkpt lat="49.29951" lon="-0.31691">
        <ele>6.9</ele>
        <time>2021-04-18T12:06:09Z</time>
      </trkpt>
      <trkpt lat="49.29953" lon="-0.3169">
        <ele>6.8</ele>
        <time>2021-04-18T12:06:11Z</time>
      </trkpt>
      <trkpt lat="49.29956" lon="-0.31688">
        <ele>6.8</ele>
        <time>2021-04-18T12:06:12Z</time>
      </trkpt>
      <trkpt lat="49.29959" lon="-0.31686">
        <ele>6.8</ele>
        <time>2021-04-18T12:06:14Z</time>
      </trkpt>
      <trkpt lat="49.2996" lon="-0.31686">
        <ele>6.7</ele>
        <time>2021-04-18T12:06:15Z</time>
      </trkpt>
      <trkpt lat="49.29963" lon="-0.31685">
        <ele>6.7</ele>
        <time>2021-04-18T12:06:16Z</time>
      </trkpt>
      <trkpt lat="49.29965" lon="-0.31684">
        <ele>6.7</ele>
        <time>2021-04-18T12:06:18Z</time>
      </trkpt>
      <trkpt lat="49.29968" lon="-0.31682">
        <ele>6.6</ele>
        <time>2021-04-18T12:06:19Z</time>
      </trkpt>
      <trkpt lat="49.29969" lon="-0.31681">
        <ele>6.6</ele>
        <time>2021-04-18T12:06:20Z</time>
      </trkpt>
      <trkpt lat="49.29971" lon="-0.31681">
        <ele>6.6</ele>
        <time>2021-04-18T12:06:22Z</time>
      </trkpt>
      <trkpt lat="49.29974" lon="-0.31681">
        <ele>6.5</ele>
        <time>2021-04-18T12:06:24Z</time>
      </trkpt>
      <trkpt lat="49.29978" lon="-0.31681">
        <ele>6.5</ele>
        <time>2021-04-18T12:06:25Z</time>
      </trkpt>
      <trkpt lat="49.29979" lon="-0.31682">
        <ele>6.4</ele>
        <time>2021-04-18T12:06:26Z</time>
      </trkpt>
      <trkpt lat="49.29982" lon="-0.31682">
        <ele>6.4</ele>
        <time>2021-04-18T12:06:28Z</time>
      </trkpt>
      <trkpt lat="49.29983" lon="-0.31683">
        <ele>6.4</ele>
        <time>2021-04-18T12:06:29Z</time>
      </trkpt>
      <trkpt lat="49.29985" lon="-0.31683">
        <ele>6.3</ele>
        <time>2021-04-18T12:06:30Z</time>
      </trkpt>
      <trkpt lat="49.29986" lon="-0.31684">
        <ele>6.3</ele>
        <time>2021-04-18T12:06:31Z</time>
      </trkpt>
      <trkpt lat="49.29988" lon="-0.31686">
        <ele>6.3</ele>
        <time>2021-04-18T12:06:32Z</time>
      </trkpt>
      <trkpt lat="49.29991" lon="-0.31687">
        <ele>6.3</ele>
        <time>2021-04-18T12:06:34Z</time>
      </trkpt>
      <trkpt lat="49.29994" lon="-0.31689">
        <ele>6.2</ele>
        <time>2021-04-18T12:06:36Z</time>
      </trkpt>
      <trkpt lat="49.29995" lon="-0.3169">
        <ele>6.2</ele>
        <time>2021-04-18T12:06:37Z</time>
      </trkpt>
      <trkpt lat="49.29997" lon="-0.31692">
        <ele>6.2</ele>
        <time>2021-04-18T12:06:39Z</time>
      </trkpt>
      <trkpt lat="49.3" lon="-0.31694">
        <ele>6.2</ele>
        <time>2021-04-18T12:06:40Z</time>
      </trkpt>
      <trkpt lat="49.30001" lon="-0.31695">
        <ele>6.2</ele>
        <time>2021-04-18T12:06:41Z</time>
      </trkpt>
      <trkpt lat="49.30004" lon="-0.31697">
        <ele>6.1</ele>
        <time>2021-04-18T12:06:42Z</time>
      </trkpt>
      <trkpt lat="49.30006" lon="-0.317">
        <ele>6.1</ele>
        <time>2021-04-18T12:06:44Z</time>
      </trkpt>
      <trkpt lat="49.30008" lon="-0.31702">
        <ele>6.1</ele>
        <time>2021-04-18T12:06:45Z</time>
      </trkpt>
      <trkpt lat="49.30011" lon="-0.31705">
        <ele>6.1</ele>
        <time>2021-04-18T12:06:47Z</time>
      </trkpt>
      <trkpt lat="49.30013" lon="-0.31707">
        <ele>6</ele>
        <time>2021-04-18T12:06:48Z</time>
      </trkpt>
      <trkpt lat="49.30015" lon="-0.3171">
        <ele>6</ele>
        <time>2021-04-18T12:06:50Z</time>
      </trkpt>
      <trkpt lat="49.30017" lon="-0.31712">
        <ele>6</ele>
        <time>2021-04-18T12:06:51Z</time>
      </trkpt>
      <trkpt lat="49.30019" lon="-0.31714">
        <ele>6</ele>
        <time>2021-04-18T12:06:52Z</time>
      </trkpt>
      <trkpt lat="49.30022" lon="-0.31716">
        <ele>6</ele>
        <time>2021-04-18T12:06:54Z</time>
      </trkpt>
      <trkpt lat="49.30024" lon="-0.31718">
        <ele>6</ele>
        <time>2021-04-18T12:06:55Z</time>
      </trkpt>
      <trkpt lat="49.30025" lon="-0.31719">
        <ele>5.9</ele>
        <time>2021-04-18T12:06:56Z</time>
      </trkpt>
      <trkpt lat="49.30026" lon="-0.31721">
        <ele>5.9</ele>
        <time>2021-04-18T12:06:57Z</time>
      </trkpt>
      <trkpt lat="49.30028" lon="-0.31723">
        <ele>5.9</ele>
        <time>2021-04-18T12:06:59Z</time>
      </trkpt>
      <trkpt lat="49.30029" lon="-0.31725">
        <ele>5.9</ele>
        <time>2021-04-18T12:07:00Z</time>
      </trkpt>
      <trkpt lat="49.30031" lon="-0.31727">
        <ele>5.9</ele>
        <time>2021-04-18T12:07:02Z</time>
      </trkpt>
      <trkpt lat="49.30033" lon="-0.31728">
        <ele>5.9</ele>
        <time>2021-04-18T12:07:03Z</time>
      </trkpt>
      <trkpt lat="49.30035" lon="-0.31728">
        <ele>5.9</ele>
        <time>2021-04-18T12:07:04Z</time>
      </trkpt>
      <trkpt lat="49.30037" lon="-0.31727">
        <ele>5.9</ele>
        <time>2021-04-18T12:07:05Z</time>
      </trkpt>
      <trkpt lat="49.30039" lon="-0.31725">
        <ele>6</ele>
        <time>2021-04-18T12:07:07Z</time>
      </trkpt>
      <trkpt lat="49.30041" lon="-0.31723">
        <ele>6</ele>
        <time>2021-04-18T12:07:08Z</time>
      </trkpt>
      <trkpt lat="49.30042" lon="-0.31722">
        <ele>6</ele>
        <time>2021-04-18T12:07:09Z</time>
      </trkpt>
      <trkpt lat="49.30045" lon="-0.31719">
        <ele>6</ele>
        <time>2021-04-18T12:07:11Z</time>
      </trkpt>
      <trkpt lat="49.30046" lon="-0.31718">
        <ele>6</ele>
        <time>2021-04-18T12:07:12Z</time>
      </trkpt>
      <trkpt lat="49.30048" lon="-0.31716">
        <ele>6</ele>
        <time>2021-04-18T12:07:14Z</time>
      </trkpt>
      <trkpt lat="49.30051" lon="-0.31714">
        <ele>6</ele>
        <time>2021-04-18T12:07:15Z</time>
      </trkpt>
      <trkpt lat="49.30052" lon="-0.31713">
        <ele>6</ele>
        <time>2021-04-18T12:07:16Z</time>
      </trkpt>
      <trkpt lat="49.30055" lon="-0.31711">
        <ele>6</ele>
        <time>2021-04-18T12:07:18Z</time>
      </trkpt>
      <trkpt lat="49.30056" lon="-0.31711">
        <ele>6.1</ele>
        <time>2021-04-18T12:07:19Z</time>
      </trkpt>
      <trkpt lat="49.30058" lon="-0.31709">
        <ele>6.1</ele>
        <time>2021-04-18T12:07:20Z</time>
      </trkpt>
      <trkpt lat="49.3006" lon="-0.31707">
        <ele>6.1</ele>
        <time>2021-04-18T12:07:22Z</time>
      </trkpt>
      <trkpt lat="49.30062" lon="-0.31705">
        <ele>6.1</ele>
        <time>2021-04-18T12:07:23Z</time>
      </trkpt>
      <trkpt lat="49.30064" lon="-0.31703">
        <ele>6.1</ele>
        <time>2021-04-18T12:07:25Z</time>
      </trkpt>
      <trkpt lat="49.30066" lon="-0.31699">
        <ele>6.2</ele>
        <time>2021-04-18T12:07:26Z</time>
      </trkpt>
      <trkpt lat="49.30066" lon="-0.31698">
        <ele>6.2</ele>
        <time>2021-04-18T12:07:27Z</time>
      </trkpt>
      <trkpt lat="49.30068" lon="-0.31695">
        <ele>6.2</ele>
        <time>2021-04-18T12:07:29Z</time>
      </trkpt>
      <trkpt lat="49.30069" lon="-0.31693">
        <ele>6.2</ele>
        <time>2021-04-18T12:07:31Z</time>
      </trkpt>
      <trkpt lat="49.3007" lon="-0.31691">
        <ele>6.2</ele>
        <time>2021-04-18T12:07:32Z</time>
      </trkpt>
      <trkpt lat="49.30071" lon="-0.31689">
        <ele>6.3</ele>
        <time>2021-04-18T12:07:33Z</time>
      </trkpt>
      <trkpt lat="49.30072" lon="-0.31687">
        <ele>6.3</ele>
        <time>2021-04-18T12:07:34Z</time>
      </trkpt>
      <trkpt lat="49.30073" lon="-0.31686">
        <ele>6.3</ele>
        <time>2021-04-18T12:07:35Z</time>
      </trkpt>
      <trkpt lat="49.30075" lon="-0.31683">
        <ele>6.3</ele>
        <time>2021-04-18T12:07:37Z</time>
      </trkpt>
      <trkpt lat="49.30076" lon="-0.31683">
        <ele>6.3</ele>
        <time>2021-04-18T12:07:38Z</time>
      </trkpt>
      <trkpt lat="49.30076" lon="-0.31682">
        <ele>6.3</ele>
        <time>2021-04-18T12:07:39Z</time>
      </trkpt>
      <trkpt lat="49.30078" lon="-0.3168">
        <ele>6.4</ele>
        <time>2021-04-18T12:07:40Z</time>
      </trkpt>
      <trkpt lat="49.3008" lon="-0.31678">
        <ele>6.3</ele>
        <time>2021-04-18T12:07:42Z</time>
      </trkpt>
      <trkpt lat="49.30082" lon="-0.31676">
        <ele>6.3</ele>
        <time>2021-04-18T12:07:43Z</time>
      </trkpt>
      <trkpt lat="49.30083" lon="-0.31675">
        <ele>6.2</ele>
        <time>2021-04-18T12:07:44Z</time>
      </trkpt>
      <trkpt lat="49.30085" lon="-0.31671">
        <ele>6.1</ele>
        <time>2021-04-18T12:07:46Z</time>
      </trkpt>
      <trkpt lat="49.30087" lon="-0.3167">
        <ele>6.1</ele>
        <time>2021-04-18T12:07:47Z</time>
      </trkpt>
      <trkpt lat="49.30088" lon="-0.31668">
        <ele>6</ele>
        <time>2021-04-18T12:07:49Z</time>
      </trkpt>
      <trkpt lat="49.30091" lon="-0.31665">
        <ele>6</ele>
        <time>2021-04-18T12:07:50Z</time>
      </trkpt>
      <trkpt lat="49.30093" lon="-0.31664">
        <ele>6</ele>
        <time>2021-04-18T12:07:51Z</time>
      </trkpt>
      <trkpt lat="49.30096" lon="-0.31661">
        <ele>6</ele>
        <time>2021-04-18T12:07:53Z</time>
      </trkpt>
      <trkpt lat="49.30097" lon="-0.3166">
        <ele>6</ele>
        <time>2021-04-18T12:07:54Z</time>
      </trkpt>
      <trkpt lat="49.301" lon="-0.31657">
        <ele>6</ele>
        <time>2021-04-18T12:07:55Z</time>
      </trkpt>
      <trkpt lat="49.301" lon="-0.31656">
        <ele>6</ele>
        <time>2021-04-18T12:07:56Z</time>
      </trkpt>
      <trkpt lat="49.30104" lon="-0.31652">
        <ele>6</ele>
        <time>2021-04-18T12:07:58Z</time>
      </trkpt>
      <trkpt lat="49.30105" lon="-0.31651">
        <ele>6</ele>
        <time>2021-04-18T12:07:59Z</time>
      </trkpt>
      <trkpt lat="49.30107" lon="-0.3165">
        <ele>5.9</ele>
        <time>2021-04-18T12:08:00Z</time>
      </trkpt>
      <trkpt lat="49.30109" lon="-0.31648">
        <ele>5.9</ele>
        <time>2021-04-18T12:08:02Z</time>
      </trkpt>
      <trkpt lat="49.30112" lon="-0.31646">
        <ele>5.9</ele>
        <time>2021-04-18T12:08:03Z</time>
      </trkpt>
      <trkpt lat="49.30115" lon="-0.31643">
        <ele>5.9</ele>
        <time>2021-04-18T12:08:04Z</time>
      </trkpt>
      <trkpt lat="49.30116" lon="-0.31642">
        <ele>6</ele>
        <time>2021-04-18T12:08:05Z</time>
      </trkpt>
      <trkpt lat="49.30121" lon="-0.31638">
        <ele>6</ele>
        <time>2021-04-18T12:08:07Z</time>
      </trkpt>
      <trkpt lat="49.30122" lon="-0.31636">
        <ele>6</ele>
        <time>2021-04-18T12:08:08Z</time>
      </trkpt>
      <trkpt lat="49.30124" lon="-0.31635">
        <ele>6</ele>
        <time>2021-04-18T12:08:09Z</time>
      </trkpt>
      <trkpt lat="49.30126" lon="-0.31632">
        <ele>6</ele>
        <time>2021-04-18T12:08:11Z</time>
      </trkpt>
      <trkpt lat="49.30128" lon="-0.3163">
        <ele>6</ele>
        <time>2021-04-18T12:08:12Z</time>
      </trkpt>
      <trkpt lat="49.30133" lon="-0.31626">
        <ele>6</ele>
        <time>2021-04-18T12:08:14Z</time>
      </trkpt>
      <trkpt lat="49.30134" lon="-0.31624">
        <ele>6</ele>
        <time>2021-04-18T12:08:15Z</time>
      </trkpt>
      <trkpt lat="49.30136" lon="-0.31623">
        <ele>6</ele>
        <time>2021-04-18T12:08:16Z</time>
      </trkpt>
      <trkpt lat="49.30138" lon="-0.31621">
        <ele>6</ele>
        <time>2021-04-18T12:08:18Z</time>
      </trkpt>
      <trkpt lat="49.30139" lon="-0.3162">
        <ele>6</ele>
        <time>2021-04-18T12:08:19Z</time>
      </trkpt>
      <trkpt lat="49.30142" lon="-0.31617">
        <ele>6.1</ele>
        <time>2021-04-18T12:08:21Z</time>
      </trkpt>
      <trkpt lat="49.30142" lon="-0.31616">
        <ele>6.1</ele>
        <time>2021-04-18T12:08:22Z</time>
      </trkpt>
      <trkpt lat="49.30144" lon="-0.31614">
        <ele>6.1</ele>
        <time>2021-04-18T12:08:23Z</time>
      </trkpt>
      <trkpt lat="49.30145" lon="-0.31612">
        <ele>6.1</ele>
        <time>2021-04-18T12:08:25Z</time>
      </trkpt>
      <trkpt lat="49.30147" lon="-0.3161">
        <ele>6.1</ele>
        <time>2021-04-18T12:08:26Z</time>
      </trkpt>
      <trkpt lat="49.30148" lon="-0.31609">
        <ele>6.1</ele>
        <time>2021-04-18T12:08:27Z</time>
      </trkpt>
      <trkpt lat="49.30151" lon="-0.31606">
        <ele>6.1</ele>
        <time>2021-04-18T12:08:28Z</time>
      </trkpt>
      <trkpt lat="49.30152" lon="-0.31605">
        <ele>6.1</ele>
        <time>2021-04-18T12:08:29Z</time>
      </trkpt>
      <trkpt lat="49.30156" lon="-0.31601">
        <ele>6.3</ele>
        <time>2021-04-18T12:08:31Z</time>
      </trkpt>
      <trkpt lat="49.30157" lon="-0.31599">
        <ele>6.3</ele>
        <time>2021-04-18T12:08:33Z</time>
      </trkpt>
      <trkpt lat="49.30158" lon="-0.31598">
        <ele>6.3</ele>
        <time>2021-04-18T12:08:34Z</time>
      </trkpt>
      <trkpt lat="49.30161" lon="-0.31596">
        <ele>6.4</ele>
        <time>2021-04-18T12:08:36Z</time>
      </trkpt>
      <trkpt lat="49.30163" lon="-0.31594">
        <ele>6.4</ele>
        <time>2021-04-18T12:08:37Z</time>
      </trkpt>
      <trkpt lat="49.30165" lon="-0.31592">
        <ele>6.4</ele>
        <time>2021-04-18T12:08:39Z</time>
      </trkpt>
      <trkpt lat="49.30166" lon="-0.3159">
        <ele>6.4</ele>
        <time>2021-04-18T12:08:40Z</time>
      </trkpt>
      <trkpt lat="49.30169" lon="-0.31588">
        <ele>6.4</ele>
        <time>2021-04-18T12:08:42Z</time>
      </trkpt>
      <trkpt lat="49.30172" lon="-0.31585">
        <ele>6.4</ele>
        <time>2021-04-18T12:08:43Z</time>
      </trkpt>
      <trkpt lat="49.30173" lon="-0.31584">
        <ele>6.4</ele>
        <time>2021-04-18T12:08:44Z</time>
      </trkpt>
      <trkpt lat="49.30176" lon="-0.31582">
        <ele>6.4</ele>
        <time>2021-04-18T12:08:46Z</time>
      </trkpt>
      <trkpt lat="49.30178" lon="-0.31581">
        <ele>6.4</ele>
        <time>2021-04-18T12:08:47Z</time>
      </trkpt>
      <trkpt lat="49.3018" lon="-0.31579">
        <ele>6.5</ele>
        <time>2021-04-18T12:08:49Z</time>
      </trkpt>
      <trkpt lat="49.30182" lon="-0.31577">
        <ele>6.5</ele>
        <time>2021-04-18T12:08:50Z</time>
      </trkpt>
      <trkpt lat="49.30184" lon="-0.31574">
        <ele>6.5</ele>
        <time>2021-04-18T12:08:52Z</time>
      </trkpt>
      <trkpt lat="49.30187" lon="-0.31572">
        <ele>6.5</ele>
        <time>2021-04-18T12:08:53Z</time>
      </trkpt>
      <trkpt lat="49.30187" lon="-0.31571">
        <ele>6.5</ele>
        <time>2021-04-18T12:08:54Z</time>
      </trkpt>
      <trkpt lat="49.30192" lon="-0.31567">
        <ele>6.5</ele>
        <time>2021-04-18T12:08:56Z</time>
      </trkpt>
      <trkpt lat="49.30193" lon="-0.31565">
        <ele>6.5</ele>
        <time>2021-04-18T12:08:58Z</time>
      </trkpt>
      <trkpt lat="49.30194" lon="-0.31563">
        <ele>6.6</ele>
        <time>2021-04-18T12:08:59Z</time>
      </trkpt>
      <trkpt lat="49.30195" lon="-0.31561">
        <ele>6.6</ele>
        <time>2021-04-18T12:09:00Z</time>
      </trkpt>
      <trkpt lat="49.30196" lon="-0.31558">
        <ele>6.6</ele>
        <time>2021-04-18T12:09:02Z</time>
      </trkpt>
      <trkpt lat="49.30197" lon="-0.31555">
        <ele>6.6</ele>
        <time>2021-04-18T12:09:04Z</time>
      </trkpt>
      <trkpt lat="49.30198" lon="-0.31553">
        <ele>6.6</ele>
        <time>2021-04-18T12:09:05Z</time>
      </trkpt>
      <trkpt lat="49.302" lon="-0.31551">
        <ele>6.6</ele>
        <time>2021-04-18T12:09:07Z</time>
      </trkpt>
      <trkpt lat="49.30201" lon="-0.31549">
        <ele>6.6</ele>
        <time>2021-04-18T12:09:08Z</time>
      </trkpt>
      <trkpt lat="49.30202" lon="-0.31548">
        <ele>6.6</ele>
        <time>2021-04-18T12:09:09Z</time>
      </trkpt>
      <trkpt lat="49.30203" lon="-0.31546">
        <ele>6.7</ele>
        <time>2021-04-18T12:09:11Z</time>
      </trkpt>
      <trkpt lat="49.30204" lon="-0.31544">
        <ele>6.7</ele>
        <time>2021-04-18T12:09:12Z</time>
      </trkpt>
      <trkpt lat="49.30205" lon="-0.31543">
        <ele>6.7</ele>
        <time>2021-04-18T12:09:13Z</time>
      </trkpt>
      <trkpt lat="49.30207" lon="-0.3154">
        <ele>6.7</ele>
        <time>2021-04-18T12:09:15Z</time>
      </trkpt>
      <trkpt lat="49.30208" lon="-0.31539">
        <ele>6.7</ele>
        <time>2021-04-18T12:09:16Z</time>
      </trkpt>
      <trkpt lat="49.30209" lon="-0.31537">
        <ele>6.7</ele>
        <time>2021-04-18T12:09:17Z</time>
      </trkpt>
      <trkpt lat="49.30211" lon="-0.31533">
        <ele>6.7</ele>
        <time>2021-04-18T12:09:19Z</time>
      </trkpt>
      <trkpt lat="49.30211" lon="-0.31532">
        <ele>6.7</ele>
        <time>2021-04-18T12:09:20Z</time>
      </trkpt>
      <trkpt lat="49.30213" lon="-0.31529">
        <ele>6.8</ele>
        <time>2021-04-18T12:09:21Z</time>
      </trkpt>
      <trkpt lat="49.30214" lon="-0.31527">
        <ele>6.8</ele>
        <time>2021-04-18T12:09:23Z</time>
      </trkpt>
      <trkpt lat="49.30214" lon="-0.31525">
        <ele>6.8</ele>
        <time>2021-04-18T12:09:24Z</time>
      </trkpt>
      <trkpt lat="49.30215" lon="-0.31523">
        <ele>6.8</ele>
        <time>2021-04-18T12:09:25Z</time>
      </trkpt>
      <trkpt lat="49.30218" lon="-0.3152">
        <ele>6.8</ele>
        <time>2021-04-18T12:09:27Z</time>
      </trkpt>
      <trkpt lat="49.30218" lon="-0.31519">
        <ele>6.8</ele>
        <time>2021-04-18T12:09:28Z</time>
      </trkpt>
      <trkpt lat="49.30219" lon="-0.31517">
        <ele>6.8</ele>
        <time>2021-04-18T12:09:29Z</time>
      </trkpt>
      <trkpt lat="49.3022" lon="-0.31515">
        <ele>6.8</ele>
        <time>2021-04-18T12:09:30Z</time>
      </trkpt>
      <trkpt lat="49.30222" lon="-0.31512">
        <ele>6.8</ele>
        <time>2021-04-18T12:09:31Z</time>
      </trkpt>
      <trkpt lat="49.30223" lon="-0.31511">
        <ele>6.8</ele>
        <time>2021-04-18T12:09:32Z</time>
      </trkpt>
      <trkpt lat="49.30224" lon="-0.31508">
        <ele>6.8</ele>
        <time>2021-04-18T12:09:33Z</time>
      </trkpt>
      <trkpt lat="49.30226" lon="-0.31505">
        <ele>6.8</ele>
        <time>2021-04-18T12:09:35Z</time>
      </trkpt>
      <trkpt lat="49.30227" lon="-0.31503">
        <ele>6.8</ele>
        <time>2021-04-18T12:09:36Z</time>
      </trkpt>
      <trkpt lat="49.30229" lon="-0.31501">
        <ele>6.7</ele>
        <time>2021-04-18T12:09:38Z</time>
      </trkpt>
      <trkpt lat="49.30232" lon="-0.31497">
        <ele>6.7</ele>
        <time>2021-04-18T12:09:39Z</time>
      </trkpt>
      <trkpt lat="49.30233" lon="-0.31495">
        <ele>6.6</ele>
        <time>2021-04-18T12:09:40Z</time>
      </trkpt>
      <trkpt lat="49.30236" lon="-0.31492">
        <ele>6.5</ele>
        <time>2021-04-18T12:09:42Z</time>
      </trkpt>
      <trkpt lat="49.30239" lon="-0.31487">
        <ele>6.4</ele>
        <time>2021-04-18T12:09:43Z</time>
      </trkpt>
      <trkpt lat="49.30242" lon="-0.31483">
        <ele>6.3</ele>
        <time>2021-04-18T12:09:44Z</time>
      </trkpt>
      <trkpt lat="49.30245" lon="-0.3148">
        <ele>6.2</ele>
        <time>2021-04-18T12:09:46Z</time>
      </trkpt>
      <trkpt lat="49.30249" lon="-0.31476">
        <ele>6.1</ele>
        <time>2021-04-18T12:09:47Z</time>
      </trkpt>
      <trkpt lat="49.30252" lon="-0.31471">
        <ele>5.8</ele>
        <time>2021-04-18T12:09:49Z</time>
      </trkpt>
      <trkpt lat="49.30254" lon="-0.31469">
        <ele>5.7</ele>
        <time>2021-04-18T12:09:50Z</time>
      </trkpt>
      <trkpt lat="49.30255" lon="-0.31467">
        <ele>5.6</ele>
        <time>2021-04-18T12:09:51Z</time>
      </trkpt>
      <trkpt lat="49.30258" lon="-0.31465">
        <ele>5.4</ele>
        <time>2021-04-18T12:09:53Z</time>
      </trkpt>
      <trkpt lat="49.3026" lon="-0.31462">
        <ele>5.2</ele>
        <time>2021-04-18T12:09:54Z</time>
      </trkpt>
      <trkpt lat="49.30262" lon="-0.3146">
        <ele>5</ele>
        <time>2021-04-18T12:09:56Z</time>
      </trkpt>
      <trkpt lat="49.30264" lon="-0.31458">
        <ele>4.9</ele>
        <time>2021-04-18T12:09:57Z</time>
      </trkpt>
      <trkpt lat="49.30266" lon="-0.31455">
        <ele>4.7</ele>
        <time>2021-04-18T12:09:59Z</time>
      </trkpt>
      <trkpt lat="49.30269" lon="-0.31451">
        <ele>4.5</ele>
        <time>2021-04-18T12:10:00Z</time>
      </trkpt>
      <trkpt lat="49.30269" lon="-0.31448">
        <ele>4.5</ele>
        <time>2021-04-18T12:10:01Z</time>
      </trkpt>
      <trkpt lat="49.30271" lon="-0.31441">
        <ele>4.5</ele>
        <time>2021-04-18T12:10:03Z</time>
      </trkpt>
      <trkpt lat="49.30271" lon="-0.31439">
        <ele>4.5</ele>
        <time>2021-04-18T12:10:05Z</time>
      </trkpt>
      <trkpt lat="49.30271" lon="-0.31436">
        <ele>4.5</ele>
        <time>2021-04-18T12:10:06Z</time>
      </trkpt>
      <trkpt lat="49.30271" lon="-0.31433">
        <ele>4.5</ele>
        <time>2021-04-18T12:10:07Z</time>
      </trkpt>
      <trkpt lat="49.30271" lon="-0.3143">
        <ele>4.5</ele>
        <time>2021-04-18T12:10:08Z</time>
      </trkpt>
      <trkpt lat="49.3027" lon="-0.31429">
        <ele>4.5</ele>
        <time>2021-04-18T12:10:10Z</time>
      </trkpt>
      <trkpt lat="49.30269" lon="-0.31427">
        <ele>4.5</ele>
        <time>2021-04-18T12:10:11Z</time>
      </trkpt>
      <trkpt lat="49.30269" lon="-0.31426">
        <ele>4.5</ele>
        <time>2021-04-18T12:10:12Z</time>
      </trkpt>
      <trkpt lat="49.30268" lon="-0.31425">
        <ele>4.5</ele>
        <time>2021-04-18T12:10:13Z</time>
      </trkpt>
      <trkpt lat="49.30267" lon="-0.31424">
        <ele>4.5</ele>
        <time>2021-04-18T12:10:15Z</time>
      </trkpt>
      <trkpt lat="49.30267" lon="-0.31423">
        <ele>4.5</ele>
        <time>2021-04-18T12:10:16Z</time>
      </trkpt>
      <trkpt lat="49.30266" lon="-0.31421">
        <ele>4.5</ele>
        <time>2021-04-18T12:10:17Z</time>
      </trkpt>
      <trkpt lat="49.30264" lon="-0.31421">
        <ele>4.5</ele>
        <time>2021-04-18T12:10:18Z</time>
      </trkpt>
      <trkpt lat="49.30263" lon="-0.3142">
        <ele>4.5</ele>
        <time>2021-04-18T12:10:19Z</time>
      </trkpt>
      <trkpt lat="49.30259" lon="-0.31418">
        <ele>4.5</ele>
        <time>2021-04-18T12:10:21Z</time>
      </trkpt>
      <trkpt lat="49.30259" lon="-0.31418">
        <ele>4.5</ele>
        <time>2021-04-18T12:10:22Z</time>
      </trkpt>
      <trkpt lat="49.30256" lon="-0.31416">
        <ele>4.5</ele>
        <time>2021-04-18T12:10:23Z</time>
      </trkpt>
      <trkpt lat="49.30255" lon="-0.31415">
        <ele>4.5</ele>
        <time>2021-04-18T12:10:24Z</time>
      </trkpt>
      <trkpt lat="49.30253" lon="-0.31413">
        <ele>4.5</ele>
        <time>2021-04-18T12:10:26Z</time>
      </trkpt>
      <trkpt lat="49.30252" lon="-0.31412">
        <ele>4.5</ele>
        <time>2021-04-18T12:10:27Z</time>
      </trkpt>
      <trkpt lat="49.3025" lon="-0.31411">
        <ele>4.5</ele>
        <time>2021-04-18T12:10:28Z</time>
      </trkpt>
      <trkpt lat="49.30249" lon="-0.3141">
        <ele>4.5</ele>
        <time>2021-04-18T12:10:30Z</time>
      </trkpt>
      <trkpt lat="49.30247" lon="-0.31409">
        <ele>4.5</ele>
        <time>2021-04-18T12:10:31Z</time>
      </trkpt>
      <trkpt lat="49.30246" lon="-0.31408">
        <ele>4.5</ele>
        <time>2021-04-18T12:10:32Z</time>
      </trkpt>
      <trkpt lat="49.30244" lon="-0.31408">
        <ele>4.5</ele>
        <time>2021-04-18T12:10:33Z</time>
      </trkpt>
      <trkpt lat="49.30243" lon="-0.31407">
        <ele>4.5</ele>
        <time>2021-04-18T12:10:34Z</time>
      </trkpt>
      <trkpt lat="49.30238" lon="-0.31409">
        <ele>4.5</ele>
        <time>2021-04-18T12:10:36Z</time>
      </trkpt>
      <trkpt lat="49.30237" lon="-0.3141">
        <ele>4.5</ele>
        <time>2021-04-18T12:10:38Z</time>
      </trkpt>
      <trkpt lat="49.30236" lon="-0.31411">
        <ele>4.5</ele>
        <time>2021-04-18T12:10:39Z</time>
      </trkpt>
      <trkpt lat="49.30237" lon="-0.31413">
        <ele>4.4</ele>
        <time>2021-04-18T12:10:40Z</time>
      </trkpt>
      <trkpt lat="49.30236" lon="-0.31413">
        <ele>4.4</ele>
        <time>2021-04-18T12:10:42Z</time>
      </trkpt>
      <trkpt lat="49.30236" lon="-0.31413">
        <ele>4.4</ele>
        <time>2021-04-18T12:10:44Z</time>
      </trkpt>
      <trkpt lat="49.30236" lon="-0.31413">
        <ele>4.4</ele>
        <time>2021-04-18T12:10:45Z</time>
      </trkpt>
      <trkpt lat="49.30237" lon="-0.31414">
        <ele>4.4</ele>
        <time>2021-04-18T12:10:47Z</time>
      </trkpt>
      <trkpt lat="49.30237" lon="-0.31414">
        <ele>4.4</ele>
        <time>2021-04-18T12:10:48Z</time>
      </trkpt>
      <trkpt lat="49.30237" lon="-0.31414">
        <ele>4.4</ele>
        <time>2021-04-18T12:10:50Z</time>
      </trkpt>
      <trkpt lat="49.30237" lon="-0.31413">
        <ele>4.4</ele>
        <time>2021-04-18T12:10:52Z</time>
      </trkpt>
      <trkpt lat="49.30237" lon="-0.31412">
        <ele>4.4</ele>
        <time>2021-04-18T12:10:53Z</time>
      </trkpt>
      <trkpt lat="49.30237" lon="-0.31411">
        <ele>4.4</ele>
        <time>2021-04-18T12:10:55Z</time>
      </trkpt>
      <trkpt lat="49.30237" lon="-0.31411">
        <ele>4.4</ele>
        <time>2021-04-18T12:10:56Z</time>
      </trkpt>
      <trkpt lat="49.30237" lon="-0.31411">
        <ele>4.4</ele>
        <time>2021-04-18T12:10:58Z</time>
      </trkpt>
      <trkpt lat="49.30236" lon="-0.31411">
        <ele>4.4</ele>
        <time>2021-04-18T12:11:00Z</time>
      </trkpt>
      <trkpt lat="49.30236" lon="-0.31411">
        <ele>4.4</ele>
        <time>2021-04-18T12:11:01Z</time>
      </trkpt>
      <trkpt lat="49.30237" lon="-0.31411">
        <ele>4.4</ele>
        <time>2021-04-18T12:11:03Z</time>
      </trkpt>
      <trkpt lat="49.30236" lon="-0.3141">
        <ele>4.4</ele>
        <time>2021-04-18T12:11:04Z</time>
      </trkpt>
      <trkpt lat="49.30235" lon="-0.31411">
        <ele>4.4</ele>
        <time>2021-04-18T12:11:05Z</time>
      </trkpt>
      <trkpt lat="49.30233" lon="-0.31414">
        <ele>4.4</ele>
        <time>2021-04-18T12:11:07Z</time>
      </trkpt>
      <trkpt lat="49.30232" lon="-0.31415">
        <ele>4.4</ele>
        <time>2021-04-18T12:11:08Z</time>
      </trkpt>
      <trkpt lat="49.30231" lon="-0.31416">
        <ele>4.4</ele>
        <time>2021-04-18T12:11:10Z</time>
      </trkpt>
      <trkpt lat="49.3023" lon="-0.31417">
        <ele>4.4</ele>
        <time>2021-04-18T12:11:11Z</time>
      </trkpt>
      <trkpt lat="49.30232" lon="-0.31415">
        <ele>4.4</ele>
        <time>2021-04-18T12:11:13Z</time>
      </trkpt>
      <trkpt lat="49.30233" lon="-0.31414">
        <ele>4.4</ele>
        <time>2021-04-18T12:11:15Z</time>
      </trkpt>
      <trkpt lat="49.30234" lon="-0.31413">
        <ele>4.4</ele>
        <time>2021-04-18T12:11:16Z</time>
      </trkpt>
      <trkpt lat="49.30235" lon="-0.31411">
        <ele>4.4</ele>
        <time>2021-04-18T12:11:18Z</time>
      </trkpt>
      <trkpt lat="49.30235" lon="-0.31411">
        <ele>4.4</ele>
        <time>2021-04-18T12:11:19Z</time>
      </trkpt>
      <trkpt lat="49.30236" lon="-0.31411">
        <ele>4.4</ele>
        <time>2021-04-18T12:11:20Z</time>
      </trkpt>
      <trkpt lat="49.30236" lon="-0.31411">
        <ele>4.4</ele>
        <time>2021-04-18T12:11:22Z</time>
      </trkpt>
      <trkpt lat="49.30236" lon="-0.3141">
        <ele>4.4</ele>
        <time>2021-04-18T12:11:24Z</time>
      </trkpt>
      <trkpt lat="49.30236" lon="-0.3141">
        <ele>4.4</ele>
        <time>2021-04-18T12:11:26Z</time>
      </trkpt>
      <trkpt lat="49.30236" lon="-0.3141">
        <ele>4.4</ele>
        <time>2021-04-18T12:11:27Z</time>
      </trkpt>
      <trkpt lat="49.30236" lon="-0.3141">
        <ele>4.4</ele>
        <time>2021-04-18T12:11:29Z</time>
      </trkpt>
      <trkpt lat="49.30236" lon="-0.3141">
        <ele>4.4</ele>
        <time>2021-04-18T12:11:30Z</time>
      </trkpt>
      <trkpt lat="49.30236" lon="-0.3141">
        <ele>4.4</ele>
        <time>2021-04-18T12:11:32Z</time>
      </trkpt>
      <trkpt lat="49.30236" lon="-0.3141">
        <ele>4.4</ele>
        <time>2021-04-18T12:11:34Z</time>
      </trkpt>
      <trkpt lat="49.30236" lon="-0.3141">
        <ele>4.4</ele>
        <time>2021-04-18T12:11:36Z</time>
      </trkpt>
      <trkpt lat="49.30236" lon="-0.3141">
        <ele>4.4</ele>
        <time>2021-04-18T12:11:37Z</time>
      </trkpt>
      <trkpt lat="49.30236" lon="-0.31411">
        <ele>4.4</ele>
        <time>2021-04-18T12:11:38Z</time>
      </trkpt>
      <trkpt lat="49.30236" lon="-0.31411">
        <ele>4.4</ele>
        <time>2021-04-18T12:11:39Z</time>
      </trkpt>
      <trkpt lat="49.30236" lon="-0.3141">
        <ele>4.4</ele>
        <time>2021-04-18T12:11:40Z</time>
      </trkpt>
      <trkpt lat="49.30236" lon="-0.3141">
        <ele>4.4</ele>
        <time>2021-04-18T12:11:42Z</time>
      </trkpt>
      <trkpt lat="49.30236" lon="-0.3141">
        <ele>4.4</ele>
        <time>2021-04-18T12:11:43Z</time>
      </trkpt>
      <trkpt lat="49.30236" lon="-0.3141">
        <ele>4.4</ele>
        <time>2021-04-18T12:11:44Z</time>
      </trkpt>
      <trkpt lat="49.30236" lon="-0.3141">
        <ele>4.4</ele>
        <time>2021-04-18T12:11:45Z</time>
      </trkpt>
      <trkpt lat="49.30236" lon="-0.3141">
        <ele>4.4</ele>
        <time>2021-04-18T12:11:47Z</time>
      </trkpt>
      <trkpt lat="49.30236" lon="-0.3141">
        <ele>4.4</ele>
        <time>2021-04-18T12:11:49Z</time>
      </trkpt>
      <trkpt lat="49.30236" lon="-0.3141">
        <ele>4.4</ele>
        <time>2021-04-18T12:11:50Z</time>
      </trkpt>
      <trkpt lat="49.30236" lon="-0.3141">
        <ele>4.4</ele>
        <time>2021-04-18T12:11:51Z</time>
      </trkpt>
      <trkpt lat="49.30236" lon="-0.3141">
        <ele>4.4</ele>
        <time>2021-04-18T12:11:52Z</time>
      </trkpt>
      <trkpt lat="49.30236" lon="-0.3141">
        <ele>4.4</ele>
        <time>2021-04-18T12:11:53Z</time>
      </trkpt>
      <trkpt lat="49.30236" lon="-0.3141">
        <ele>4.4</ele>
        <time>2021-04-18T12:11:55Z</time>
      </trkpt>
      <trkpt lat="49.30236" lon="-0.3141">
        <ele>4.4</ele>
        <time>2021-04-18T12:11:57Z</time>
      </trkpt>
      <trkpt lat="49.30236" lon="-0.3141">
        <ele>4.4</ele>
        <time>2021-04-18T12:11:59Z</time>
      </trkpt>
      <trkpt lat="49.30236" lon="-0.3141">
        <ele>4.4</ele>
        <time>2021-04-18T12:12:01Z</time>
      </trkpt>
      <trkpt lat="49.30236" lon="-0.3141">
        <ele>4.4</ele>
        <time>2021-04-18T12:12:02Z</time>
      </trkpt>
      <trkpt lat="49.30236" lon="-0.3141">
        <ele>4.4</ele>
        <time>2021-04-18T12:12:03Z</time>
      </trkpt>
      <trkpt lat="49.30238" lon="-0.3141">
        <ele>4.4</ele>
        <time>2021-04-18T12:12:05Z</time>
      </trkpt>
      <trkpt lat="49.30238" lon="-0.31408">
        <ele>4.4</ele>
        <time>2021-04-18T12:12:07Z</time>
      </trkpt>
      <trkpt lat="49.30238" lon="-0.31408">
        <ele>4.4</ele>
        <time>2021-04-18T12:12:08Z</time>
      </trkpt>
      <trkpt lat="49.30238" lon="-0.31407">
        <ele>4.4</ele>
        <time>2021-04-18T12:12:09Z</time>
      </trkpt>
      <trkpt lat="49.30239" lon="-0.31407">
        <ele>4.4</ele>
        <time>2021-04-18T12:12:11Z</time>
      </trkpt>
      <trkpt lat="49.30239" lon="-0.31407">
        <ele>4.4</ele>
        <time>2021-04-18T12:12:12Z</time>
      </trkpt>
      <trkpt lat="49.30239" lon="-0.31407">
        <ele>4.4</ele>
        <time>2021-04-18T12:12:13Z</time>
      </trkpt>
      <trkpt lat="49.30239" lon="-0.31407">
        <ele>4.4</ele>
        <time>2021-04-18T12:12:14Z</time>
      </trkpt>
      <trkpt lat="49.3024" lon="-0.31406">
        <ele>4.4</ele>
        <time>2021-04-18T12:12:16Z</time>
      </trkpt>
      <trkpt lat="49.3024" lon="-0.31406">
        <ele>4.4</ele>
        <time>2021-04-18T12:12:18Z</time>
      </trkpt>
      <trkpt lat="49.3024" lon="-0.31406">
        <ele>4.4</ele>
        <time>2021-04-18T12:12:19Z</time>
      </trkpt>
      <trkpt lat="49.3024" lon="-0.31406">
        <ele>4.4</ele>
        <time>2021-04-18T12:12:20Z</time>
      </trkpt>
      <trkpt lat="49.30241" lon="-0.31406">
        <ele>4.4</ele>
        <time>2021-04-18T12:12:22Z</time>
      </trkpt>
      <trkpt lat="49.30241" lon="-0.31405">
        <ele>4.4</ele>
        <time>2021-04-18T12:12:23Z</time>
      </trkpt>
      <trkpt lat="49.30241" lon="-0.31405">
        <ele>4.4</ele>
        <time>2021-04-18T12:12:24Z</time>
      </trkpt>
      <trkpt lat="49.30241" lon="-0.31405">
        <ele>4.4</ele>
        <time>2021-04-18T12:12:26Z</time>
      </trkpt>
      <trkpt lat="49.30242" lon="-0.31405">
        <ele>4.4</ele>
        <time>2021-04-18T12:12:27Z</time>
      </trkpt>
      <trkpt lat="49.30242" lon="-0.31405">
        <ele>4.4</ele>
        <time>2021-04-18T12:12:29Z</time>
      </trkpt>
      <trkpt lat="49.30242" lon="-0.31404">
        <ele>4.4</ele>
        <time>2021-04-18T12:12:32Z</time>
      </trkpt>
      <trkpt lat="49.30242" lon="-0.31404">
        <ele>4.4</ele>
        <time>2021-04-18T12:12:33Z</time>
      </trkpt>
      <trkpt lat="49.30243" lon="-0.31404">
        <ele>4.4</ele>
        <time>2021-04-18T12:12:35Z</time>
      </trkpt>
      <trkpt lat="49.30243" lon="-0.31404">
        <ele>4.4</ele>
        <time>2021-04-18T12:12:37Z</time>
      </trkpt>
      <trkpt lat="49.30243" lon="-0.31404">
        <ele>4.4</ele>
        <time>2021-04-18T12:12:38Z</time>
      </trkpt>
      <trkpt lat="49.30244" lon="-0.31403">
        <ele>4.4</ele>
        <time>2021-04-18T12:12:40Z</time>
      </trkpt>
      <trkpt lat="49.30244" lon="-0.31403">
        <ele>4.4</ele>
        <time>2021-04-18T12:12:42Z</time>
      </trkpt>
      <trkpt lat="49.30244" lon="-0.31403">
        <ele>4.4</ele>
        <time>2021-04-18T12:12:43Z</time>
      </trkpt>
      <trkpt lat="49.30244" lon="-0.31403">
        <ele>4.4</ele>
        <time>2021-04-18T12:12:45Z</time>
      </trkpt>
      <trkpt lat="49.30245" lon="-0.31402">
        <ele>4.4</ele>
        <time>2021-04-18T12:12:46Z</time>
      </trkpt>
      <trkpt lat="49.30245" lon="-0.31402">
        <ele>4.4</ele>
        <time>2021-04-18T12:12:47Z</time>
      </trkpt>
      <trkpt lat="49.30245" lon="-0.31402">
        <ele>4.4</ele>
        <time>2021-04-18T12:12:49Z</time>
      </trkpt>
      <trkpt lat="49.30245" lon="-0.31402">
        <ele>4.4</ele>
        <time>2021-04-18T12:12:50Z</time>
      </trkpt>
      <trkpt lat="49.30246" lon="-0.31402">
        <ele>4.4</ele>
        <time>2021-04-18T12:12:51Z</time>
      </trkpt>
      <trkpt lat="49.30246" lon="-0.31401">
        <ele>4.4</ele>
        <time>2021-04-18T12:12:52Z</time>
      </trkpt>
      <trkpt lat="49.30246" lon="-0.31401">
        <ele>4.4</ele>
        <time>2021-04-18T12:12:53Z</time>
      </trkpt>
      <trkpt lat="49.30246" lon="-0.31401">
        <ele>4.4</ele>
        <time>2021-04-18T12:12:54Z</time>
      </trkpt>
      <trkpt lat="49.30246" lon="-0.31399">
        <ele>4.4</ele>
        <time>2021-04-18T12:12:56Z</time>
      </trkpt>
      <trkpt lat="49.30246" lon="-0.31398">
        <ele>4.4</ele>
        <time>2021-04-18T12:12:57Z</time>
      </trkpt>
      <trkpt lat="49.30246" lon="-0.31398">
        <ele>4.4</ele>
        <time>2021-04-18T12:12:58Z</time>
      </trkpt>
      <trkpt lat="49.30246" lon="-0.31397">
        <ele>4.4</ele>
        <time>2021-04-18T12:13:00Z</time>
      </trkpt>
      <trkpt lat="49.30246" lon="-0.31398">
        <ele>4.4</ele>
        <time>2021-04-18T12:13:01Z</time>
      </trkpt>
      <trkpt lat="49.30246" lon="-0.31398">
        <ele>4.4</ele>
        <time>2021-04-18T12:13:03Z</time>
      </trkpt>
      <trkpt lat="49.30246" lon="-0.31398">
        <ele>4.4</ele>
        <time>2021-04-18T12:13:04Z</time>
      </trkpt>
      <trkpt lat="49.30246" lon="-0.31398">
        <ele>4.4</ele>
        <time>2021-04-18T12:13:05Z</time>
      </trkpt>
      <trkpt lat="49.30246" lon="-0.31397">
        <ele>4.4</ele>
        <time>2021-04-18T12:13:06Z</time>
      </trkpt>
      <trkpt lat="49.30247" lon="-0.31395">
        <ele>4.4</ele>
        <time>2021-04-18T12:13:08Z</time>
      </trkpt>
      <trkpt lat="49.30247" lon="-0.31394">
        <ele>4.4</ele>
        <time>2021-04-18T12:13:09Z</time>
      </trkpt>
      <trkpt lat="49.30248" lon="-0.31393">
        <ele>4.4</ele>
        <time>2021-04-18T12:13:10Z</time>
      </trkpt>
      <trkpt lat="49.30248" lon="-0.31391">
        <ele>4.4</ele>
        <time>2021-04-18T12:13:11Z</time>
      </trkpt>
      <trkpt lat="49.30249" lon="-0.31388">
        <ele>4.4</ele>
        <time>2021-04-18T12:13:12Z</time>
      </trkpt>
      <trkpt lat="49.30249" lon="-0.31387">
        <ele>4.4</ele>
        <time>2021-04-18T12:13:13Z</time>
      </trkpt>
      <trkpt lat="49.30249" lon="-0.31385">
        <ele>4.4</ele>
        <time>2021-04-18T12:13:14Z</time>
      </trkpt>
      <trkpt lat="49.30248" lon="-0.31383">
        <ele>4.4</ele>
        <time>2021-04-18T12:13:16Z</time>
      </trkpt>
      <trkpt lat="49.30246" lon="-0.31381">
        <ele>4.4</ele>
        <time>2021-04-18T12:13:18Z</time>
      </trkpt>
      <trkpt lat="49.30244" lon="-0.31379">
        <ele>4.4</ele>
        <time>2021-04-18T12:13:20Z</time>
      </trkpt>
      <trkpt lat="49.30244" lon="-0.31378">
        <ele>4.4</ele>
        <time>2021-04-18T12:13:21Z</time>
      </trkpt>
      <trkpt lat="49.30243" lon="-0.31378">
        <ele>4.4</ele>
        <time>2021-04-18T12:13:22Z</time>
      </trkpt>
      <trkpt lat="49.30243" lon="-0.31376">
        <ele>4.4</ele>
        <time>2021-04-18T12:13:24Z</time>
      </trkpt>
      <trkpt lat="49.30242" lon="-0.31374">
        <ele>4.4</ele>
        <time>2021-04-18T12:13:25Z</time>
      </trkpt>
      <trkpt lat="49.30242" lon="-0.31373">
        <ele>4.4</ele>
        <time>2021-04-18T12:13:26Z</time>
      </trkpt>
      <trkpt lat="49.30242" lon="-0.31372">
        <ele>4.4</ele>
        <time>2021-04-18T12:13:27Z</time>
      </trkpt>
      <trkpt lat="49.30241" lon="-0.3137">
        <ele>4.4</ele>
        <time>2021-04-18T12:13:28Z</time>
      </trkpt>
      <trkpt lat="49.30241" lon="-0.31366">
        <ele>4.4</ele>
        <time>2021-04-18T12:13:30Z</time>
      </trkpt>
      <trkpt lat="49.30241" lon="-0.31363">
        <ele>4.3</ele>
        <time>2021-04-18T12:13:31Z</time>
      </trkpt>
      <trkpt lat="49.3024" lon="-0.31359">
        <ele>4.3</ele>
        <time>2021-04-18T12:13:33Z</time>
      </trkpt>
      <trkpt lat="49.3024" lon="-0.31353">
        <ele>4.3</ele>
        <time>2021-04-18T12:13:35Z</time>
      </trkpt>
      <trkpt lat="49.3024" lon="-0.31348">
        <ele>4.3</ele>
        <time>2021-04-18T12:13:36Z</time>
      </trkpt>
      <trkpt lat="49.3024" lon="-0.31347">
        <ele>4.3</ele>
        <time>2021-04-18T12:13:37Z</time>
      </trkpt>
      <trkpt lat="49.30238" lon="-0.31341">
        <ele>4.3</ele>
        <time>2021-04-18T12:13:39Z</time>
      </trkpt>
      <trkpt lat="49.30238" lon="-0.3134">
        <ele>4.3</ele>
        <time>2021-04-18T12:13:40Z</time>
      </trkpt>
      <trkpt lat="49.30236" lon="-0.31334">
        <ele>4.3</ele>
        <time>2021-04-18T12:13:42Z</time>
      </trkpt>
      <trkpt lat="49.30235" lon="-0.31332">
        <ele>4.3</ele>
        <time>2021-04-18T12:13:43Z</time>
      </trkpt>
      <trkpt lat="49.30232" lon="-0.31328">
        <ele>4.3</ele>
        <time>2021-04-18T12:13:45Z</time>
      </trkpt>
      <trkpt lat="49.30231" lon="-0.31327">
        <ele>4.3</ele>
        <time>2021-04-18T12:13:46Z</time>
      </trkpt>
      <trkpt lat="49.30229" lon="-0.31323">
        <ele>4.4</ele>
        <time>2021-04-18T12:13:48Z</time>
      </trkpt>
      <trkpt lat="49.30228" lon="-0.31322">
        <ele>4.4</ele>
        <time>2021-04-18T12:13:49Z</time>
      </trkpt>
      <trkpt lat="49.30226" lon="-0.31318">
        <ele>4.4</ele>
        <time>2021-04-18T12:13:50Z</time>
      </trkpt>
      <trkpt lat="49.30226" lon="-0.31317">
        <ele>4.4</ele>
        <time>2021-04-18T12:13:51Z</time>
      </trkpt>
      <trkpt lat="49.30223" lon="-0.31314">
        <ele>4.4</ele>
        <time>2021-04-18T12:13:53Z</time>
      </trkpt>
      <trkpt lat="49.30222" lon="-0.31312">
        <ele>4.4</ele>
        <time>2021-04-18T12:13:54Z</time>
      </trkpt>
      <trkpt lat="49.3022" lon="-0.31308">
        <ele>4.4</ele>
        <time>2021-04-18T12:13:56Z</time>
      </trkpt>
      <trkpt lat="49.30217" lon="-0.31306">
        <ele>4.4</ele>
        <time>2021-04-18T12:13:57Z</time>
      </trkpt>
      <trkpt lat="49.30216" lon="-0.31305">
        <ele>4.4</ele>
        <time>2021-04-18T12:13:58Z</time>
      </trkpt>
      <trkpt lat="49.30213" lon="-0.31301">
        <ele>4.4</ele>
        <time>2021-04-18T12:14:00Z</time>
      </trkpt>
      <trkpt lat="49.30212" lon="-0.313">
        <ele>4.4</ele>
        <time>2021-04-18T12:14:01Z</time>
      </trkpt>
      <trkpt lat="49.30211" lon="-0.31298">
        <ele>4.4</ele>
        <time>2021-04-18T12:14:02Z</time>
      </trkpt>
      <trkpt lat="49.30209" lon="-0.31294">
        <ele>4.4</ele>
        <time>2021-04-18T12:14:04Z</time>
      </trkpt>
      <trkpt lat="49.30207" lon="-0.31291">
        <ele>4.4</ele>
        <time>2021-04-18T12:14:05Z</time>
      </trkpt>
      <trkpt lat="49.30206" lon="-0.31288">
        <ele>4.4</ele>
        <time>2021-04-18T12:14:07Z</time>
      </trkpt>
      <trkpt lat="49.30204" lon="-0.31284">
        <ele>4.4</ele>
        <time>2021-04-18T12:14:08Z</time>
      </trkpt>
      <trkpt lat="49.30203" lon="-0.31283">
        <ele>4.4</ele>
        <time>2021-04-18T12:14:09Z</time>
      </trkpt>
      <trkpt lat="49.30201" lon="-0.31279">
        <ele>4.4</ele>
        <time>2021-04-18T12:14:10Z</time>
      </trkpt>
      <trkpt lat="49.302" lon="-0.31276">
        <ele>4.4</ele>
        <time>2021-04-18T12:14:12Z</time>
      </trkpt>
      <trkpt lat="49.30199" lon="-0.31274">
        <ele>4.4</ele>
        <time>2021-04-18T12:14:13Z</time>
      </trkpt>
      <trkpt lat="49.30199" lon="-0.31273">
        <ele>4.4</ele>
        <time>2021-04-18T12:14:14Z</time>
      </trkpt>
      <trkpt lat="49.30197" lon="-0.31269">
        <ele>4.4</ele>
        <time>2021-04-18T12:14:16Z</time>
      </trkpt>
      <trkpt lat="49.30196" lon="-0.31266">
        <ele>4.4</ele>
        <time>2021-04-18T12:14:17Z</time>
      </trkpt>
      <trkpt lat="49.30195" lon="-0.31263">
        <ele>4.4</ele>
        <time>2021-04-18T12:14:19Z</time>
      </trkpt>
      <trkpt lat="49.30194" lon="-0.31261">
        <ele>4.4</ele>
        <time>2021-04-18T12:14:20Z</time>
      </trkpt>
      <trkpt lat="49.30194" lon="-0.31259">
        <ele>4.4</ele>
        <time>2021-04-18T12:14:21Z</time>
      </trkpt>
      <trkpt lat="49.30192" lon="-0.31254">
        <ele>4.4</ele>
        <time>2021-04-18T12:14:23Z</time>
      </trkpt>
      <trkpt lat="49.30191" lon="-0.31253">
        <ele>4.4</ele>
        <time>2021-04-18T12:14:24Z</time>
      </trkpt>
      <trkpt lat="49.30189" lon="-0.31249">
        <ele>4.4</ele>
        <time>2021-04-18T12:14:26Z</time>
      </trkpt>
      <trkpt lat="49.30188" lon="-0.31248">
        <ele>4.4</ele>
        <time>2021-04-18T12:14:27Z</time>
      </trkpt>
      <trkpt lat="49.30186" lon="-0.31244">
        <ele>4.4</ele>
        <time>2021-04-18T12:14:29Z</time>
      </trkpt>
      <trkpt lat="49.30186" lon="-0.31243">
        <ele>4.4</ele>
        <time>2021-04-18T12:14:30Z</time>
      </trkpt>
      <trkpt lat="49.30184" lon="-0.31241">
        <ele>4.4</ele>
        <time>2021-04-18T12:14:32Z</time>
      </trkpt>
      <trkpt lat="49.30184" lon="-0.31239">
        <ele>4.4</ele>
        <time>2021-04-18T12:14:33Z</time>
      </trkpt>
      <trkpt lat="49.30183" lon="-0.31238">
        <ele>4.4</ele>
        <time>2021-04-18T12:14:34Z</time>
      </trkpt>
      <trkpt lat="49.30183" lon="-0.31234">
        <ele>4.4</ele>
        <time>2021-04-18T12:14:36Z</time>
      </trkpt>
      <trkpt lat="49.30183" lon="-0.3123">
        <ele>4.4</ele>
        <time>2021-04-18T12:14:37Z</time>
      </trkpt>
      <trkpt lat="49.30182" lon="-0.31228">
        <ele>4.4</ele>
        <time>2021-04-18T12:14:38Z</time>
      </trkpt>
      <trkpt lat="49.30182" lon="-0.31225">
        <ele>4.4</ele>
        <time>2021-04-18T12:14:40Z</time>
      </trkpt>
      <trkpt lat="49.30182" lon="-0.31223">
        <ele>4.4</ele>
        <time>2021-04-18T12:14:41Z</time>
      </trkpt>
      <trkpt lat="49.30182" lon="-0.3122">
        <ele>4.4</ele>
        <time>2021-04-18T12:14:42Z</time>
      </trkpt>
      <trkpt lat="49.30182" lon="-0.31216">
        <ele>4.4</ele>
        <time>2021-04-18T12:14:44Z</time>
      </trkpt>
      <trkpt lat="49.30181" lon="-0.31214">
        <ele>4.4</ele>
        <time>2021-04-18T12:14:45Z</time>
      </trkpt>
      <trkpt lat="49.30181" lon="-0.31212">
        <ele>4.5</ele>
        <time>2021-04-18T12:14:46Z</time>
      </trkpt>
      <trkpt lat="49.30181" lon="-0.31209">
        <ele>4.5</ele>
        <time>2021-04-18T12:14:47Z</time>
      </trkpt>
      <trkpt lat="49.3018" lon="-0.31205">
        <ele>4.5</ele>
        <time>2021-04-18T12:14:49Z</time>
      </trkpt>
      <trkpt lat="49.30179" lon="-0.31202">
        <ele>4.5</ele>
        <time>2021-04-18T12:14:50Z</time>
      </trkpt>
      <trkpt lat="49.30178" lon="-0.31199">
        <ele>4.5</ele>
        <time>2021-04-18T12:14:52Z</time>
      </trkpt>
      <trkpt lat="49.30177" lon="-0.31196">
        <ele>4.5</ele>
        <time>2021-04-18T12:14:53Z</time>
      </trkpt>
      <trkpt lat="49.30176" lon="-0.31193">
        <ele>4.5</ele>
        <time>2021-04-18T12:14:55Z</time>
      </trkpt>
      <trkpt lat="49.30175" lon="-0.31188">
        <ele>4.5</ele>
        <time>2021-04-18T12:14:57Z</time>
      </trkpt>
      <trkpt lat="49.30174" lon="-0.31186">
        <ele>4.5</ele>
        <time>2021-04-18T12:14:58Z</time>
      </trkpt>
      <trkpt lat="49.30173" lon="-0.31182">
        <ele>4.6</ele>
        <time>2021-04-18T12:15:00Z</time>
      </trkpt>
      <trkpt lat="49.30172" lon="-0.3118">
        <ele>4.6</ele>
        <time>2021-04-18T12:15:01Z</time>
      </trkpt>
      <trkpt lat="49.3017" lon="-0.31175">
        <ele>4.6</ele>
        <time>2021-04-18T12:15:03Z</time>
      </trkpt>
      <trkpt lat="49.30169" lon="-0.31172">
        <ele>4.6</ele>
        <time>2021-04-18T12:15:04Z</time>
      </trkpt>
      <trkpt lat="49.30167" lon="-0.31167">
        <ele>4.6</ele>
        <time>2021-04-18T12:15:06Z</time>
      </trkpt>
      <trkpt lat="49.30165" lon="-0.31163">
        <ele>4.6</ele>
        <time>2021-04-18T12:15:07Z</time>
      </trkpt>
      <trkpt lat="49.30162" lon="-0.31158">
        <ele>4.7</ele>
        <time>2021-04-18T12:15:09Z</time>
      </trkpt>
      <trkpt lat="49.30161" lon="-0.31156">
        <ele>4.7</ele>
        <time>2021-04-18T12:15:10Z</time>
      </trkpt>
      <trkpt lat="49.3016" lon="-0.31154">
        <ele>4.7</ele>
        <time>2021-04-18T12:15:11Z</time>
      </trkpt>
      <trkpt lat="49.30159" lon="-0.31151">
        <ele>4.7</ele>
        <time>2021-04-18T12:15:12Z</time>
      </trkpt>
      <trkpt lat="49.30158" lon="-0.31148">
        <ele>4.7</ele>
        <time>2021-04-18T12:15:14Z</time>
      </trkpt>
      <trkpt lat="49.30157" lon="-0.31146">
        <ele>4.7</ele>
        <time>2021-04-18T12:15:15Z</time>
      </trkpt>
      <trkpt lat="49.30156" lon="-0.31144">
        <ele>4.7</ele>
        <time>2021-04-18T12:15:16Z</time>
      </trkpt>
      <trkpt lat="49.30155" lon="-0.31142">
        <ele>4.7</ele>
        <time>2021-04-18T12:15:18Z</time>
      </trkpt>
      <trkpt lat="49.30153" lon="-0.31138">
        <ele>4.7</ele>
        <time>2021-04-18T12:15:20Z</time>
      </trkpt>
      <trkpt lat="49.30152" lon="-0.31136">
        <ele>4.8</ele>
        <time>2021-04-18T12:15:21Z</time>
      </trkpt>
      <trkpt lat="49.30151" lon="-0.31133">
        <ele>4.8</ele>
        <time>2021-04-18T12:15:23Z</time>
      </trkpt>
      <trkpt lat="49.30149" lon="-0.31129">
        <ele>4.8</ele>
        <time>2021-04-18T12:15:24Z</time>
      </trkpt>
      <trkpt lat="49.30149" lon="-0.31127">
        <ele>4.8</ele>
        <time>2021-04-18T12:15:25Z</time>
      </trkpt>
      <trkpt lat="49.30147" lon="-0.31123">
        <ele>4.8</ele>
        <time>2021-04-18T12:15:26Z</time>
      </trkpt>
      <trkpt lat="49.30147" lon="-0.31122">
        <ele>4.8</ele>
        <time>2021-04-18T12:15:27Z</time>
      </trkpt>
      <trkpt lat="49.30146" lon="-0.31118">
        <ele>4.8</ele>
        <time>2021-04-18T12:15:29Z</time>
      </trkpt>
      <trkpt lat="49.30145" lon="-0.31114">
        <ele>4.8</ele>
        <time>2021-04-18T12:15:30Z</time>
      </trkpt>
      <trkpt lat="49.30143" lon="-0.31109">
        <ele>4.8</ele>
        <time>2021-04-18T12:15:32Z</time>
      </trkpt>
      <trkpt lat="49.30142" lon="-0.31107">
        <ele>4.8</ele>
        <time>2021-04-18T12:15:33Z</time>
      </trkpt>
      <trkpt lat="49.30141" lon="-0.31102">
        <ele>4.8</ele>
        <time>2021-04-18T12:15:35Z</time>
      </trkpt>
      <trkpt lat="49.30141" lon="-0.31101">
        <ele>4.8</ele>
        <time>2021-04-18T12:15:36Z</time>
      </trkpt>
      <trkpt lat="49.3014" lon="-0.31098">
        <ele>4.8</ele>
        <time>2021-04-18T12:15:37Z</time>
      </trkpt>
      <trkpt lat="49.30139" lon="-0.31095">
        <ele>4.8</ele>
        <time>2021-04-18T12:15:38Z</time>
      </trkpt>
      <trkpt lat="49.30139" lon="-0.31092">
        <ele>4.8</ele>
        <time>2021-04-18T12:15:39Z</time>
      </trkpt>
      <trkpt lat="49.30138" lon="-0.31089">
        <ele>4.8</ele>
        <time>2021-04-18T12:15:41Z</time>
      </trkpt>
      <trkpt lat="49.30136" lon="-0.31085">
        <ele>4.8</ele>
        <time>2021-04-18T12:15:42Z</time>
      </trkpt>
      <trkpt lat="49.30136" lon="-0.31084">
        <ele>4.8</ele>
        <time>2021-04-18T12:15:43Z</time>
      </trkpt>
      <trkpt lat="49.30135" lon="-0.31079">
        <ele>4.8</ele>
        <time>2021-04-18T12:15:44Z</time>
      </trkpt>
      <trkpt lat="49.30135" lon="-0.31078">
        <ele>4.8</ele>
        <time>2021-04-18T12:15:45Z</time>
      </trkpt>
      <trkpt lat="49.30134" lon="-0.31074">
        <ele>4.8</ele>
        <time>2021-04-18T12:15:46Z</time>
      </trkpt>
      <trkpt lat="49.30133" lon="-0.3107">
        <ele>4.7</ele>
        <time>2021-04-18T12:15:48Z</time>
      </trkpt>
      <trkpt lat="49.30132" lon="-0.31065">
        <ele>4.7</ele>
        <time>2021-04-18T12:15:50Z</time>
      </trkpt>
      <trkpt lat="49.30131" lon="-0.31062">
        <ele>4.7</ele>
        <time>2021-04-18T12:15:51Z</time>
      </trkpt>
      <trkpt lat="49.3013" lon="-0.31058">
        <ele>4.7</ele>
        <time>2021-04-18T12:15:53Z</time>
      </trkpt>
      <trkpt lat="49.30127" lon="-0.31052">
        <ele>4.7</ele>
        <time>2021-04-18T12:15:55Z</time>
      </trkpt>
      <trkpt lat="49.30127" lon="-0.3105">
        <ele>4.7</ele>
        <time>2021-04-18T12:15:56Z</time>
      </trkpt>
      <trkpt lat="49.30126" lon="-0.31048">
        <ele>4.7</ele>
        <time>2021-04-18T12:15:57Z</time>
      </trkpt>
      <trkpt lat="49.30124" lon="-0.31044">
        <ele>4.7</ele>
        <time>2021-04-18T12:15:59Z</time>
      </trkpt>
      <trkpt lat="49.30123" lon="-0.31043">
        <ele>4.7</ele>
        <time>2021-04-18T12:16:00Z</time>
      </trkpt>
      <trkpt lat="49.3012" lon="-0.3104">
        <ele>4.7</ele>
        <time>2021-04-18T12:16:02Z</time>
      </trkpt>
      <trkpt lat="49.3012" lon="-0.31039">
        <ele>4.7</ele>
        <time>2021-04-18T12:16:03Z</time>
      </trkpt>
      <trkpt lat="49.30117" lon="-0.31037">
        <ele>4.7</ele>
        <time>2021-04-18T12:16:05Z</time>
      </trkpt>
      <trkpt lat="49.30115" lon="-0.31035">
        <ele>4.7</ele>
        <time>2021-04-18T12:16:06Z</time>
      </trkpt>
      <trkpt lat="49.30112" lon="-0.31032">
        <ele>4.7</ele>
        <time>2021-04-18T12:16:07Z</time>
      </trkpt>
      <trkpt lat="49.30111" lon="-0.31031">
        <ele>4.7</ele>
        <time>2021-04-18T12:16:08Z</time>
      </trkpt>
      <trkpt lat="49.30109" lon="-0.31028">
        <ele>4.7</ele>
        <time>2021-04-18T12:16:10Z</time>
      </trkpt>
      <trkpt lat="49.30108" lon="-0.31027">
        <ele>4.7</ele>
        <time>2021-04-18T12:16:11Z</time>
      </trkpt>
      <trkpt lat="49.30106" lon="-0.31023">
        <ele>4.7</ele>
        <time>2021-04-18T12:16:13Z</time>
      </trkpt>
      <trkpt lat="49.30105" lon="-0.3102">
        <ele>4.7</ele>
        <time>2021-04-18T12:16:14Z</time>
      </trkpt>
      <trkpt lat="49.30103" lon="-0.31017">
        <ele>4.7</ele>
        <time>2021-04-18T12:16:16Z</time>
      </trkpt>
      <trkpt lat="49.30102" lon="-0.31015">
        <ele>4.7</ele>
        <time>2021-04-18T12:16:17Z</time>
      </trkpt>
      <trkpt lat="49.30101" lon="-0.31011">
        <ele>4.7</ele>
        <time>2021-04-18T12:16:19Z</time>
      </trkpt>
      <trkpt lat="49.30099" lon="-0.31008">
        <ele>4.7</ele>
        <time>2021-04-18T12:16:20Z</time>
      </trkpt>
      <trkpt lat="49.30098" lon="-0.31005">
        <ele>4.7</ele>
        <time>2021-04-18T12:16:22Z</time>
      </trkpt>
      <trkpt lat="49.30097" lon="-0.31004">
        <ele>4.7</ele>
        <time>2021-04-18T12:16:23Z</time>
      </trkpt>
      <trkpt lat="49.30096" lon="-0.31001">
        <ele>4.7</ele>
        <time>2021-04-18T12:16:24Z</time>
      </trkpt>
      <trkpt lat="49.30095" lon="-0.30998">
        <ele>4.7</ele>
        <time>2021-04-18T12:16:26Z</time>
      </trkpt>
      <trkpt lat="49.30093" lon="-0.30994">
        <ele>4.7</ele>
        <time>2021-04-18T12:16:27Z</time>
      </trkpt>
      <trkpt lat="49.30093" lon="-0.30993">
        <ele>4.7</ele>
        <time>2021-04-18T12:16:28Z</time>
      </trkpt>
      <trkpt lat="49.30092" lon="-0.30989">
        <ele>4.7</ele>
        <time>2021-04-18T12:16:29Z</time>
      </trkpt>
      <trkpt lat="49.3009" lon="-0.30986">
        <ele>4.7</ele>
        <time>2021-04-18T12:16:31Z</time>
      </trkpt>
      <trkpt lat="49.30089" lon="-0.30984">
        <ele>4.7</ele>
        <time>2021-04-18T12:16:32Z</time>
      </trkpt>
      <trkpt lat="49.30088" lon="-0.30981">
        <ele>4.7</ele>
        <time>2021-04-18T12:16:33Z</time>
      </trkpt>
      <trkpt lat="49.30087" lon="-0.30977">
        <ele>4.7</ele>
        <time>2021-04-18T12:16:35Z</time>
      </trkpt>
      <trkpt lat="49.30086" lon="-0.30976">
        <ele>4.7</ele>
        <time>2021-04-18T12:16:36Z</time>
      </trkpt>
      <trkpt lat="49.30085" lon="-0.30971">
        <ele>4.7</ele>
        <time>2021-04-18T12:16:38Z</time>
      </trkpt>
      <trkpt lat="49.30084" lon="-0.3097">
        <ele>4.7</ele>
        <time>2021-04-18T12:16:39Z</time>
      </trkpt>
      <trkpt lat="49.30083" lon="-0.30967">
        <ele>4.7</ele>
        <time>2021-04-18T12:16:40Z</time>
      </trkpt>
      <trkpt lat="49.30082" lon="-0.30964">
        <ele>4.7</ele>
        <time>2021-04-18T12:16:42Z</time>
      </trkpt>
      <trkpt lat="49.30081" lon="-0.30961">
        <ele>4.7</ele>
        <time>2021-04-18T12:16:43Z</time>
      </trkpt>
      <trkpt lat="49.3008" lon="-0.30958">
        <ele>4.7</ele>
        <time>2021-04-18T12:16:45Z</time>
      </trkpt>
      <trkpt lat="49.30079" lon="-0.30954">
        <ele>4.7</ele>
        <time>2021-04-18T12:16:46Z</time>
      </trkpt>
      <trkpt lat="49.30078" lon="-0.3095">
        <ele>4.7</ele>
        <time>2021-04-18T12:16:48Z</time>
      </trkpt>
      <trkpt lat="49.30077" lon="-0.30947">
        <ele>4.7</ele>
        <time>2021-04-18T12:16:49Z</time>
      </trkpt>
      <trkpt lat="49.30075" lon="-0.30943">
        <ele>4.7</ele>
        <time>2021-04-18T12:16:51Z</time>
      </trkpt>
      <trkpt lat="49.30075" lon="-0.3094">
        <ele>4.7</ele>
        <time>2021-04-18T12:16:52Z</time>
      </trkpt>
      <trkpt lat="49.30074" lon="-0.30936">
        <ele>4.7</ele>
        <time>2021-04-18T12:16:54Z</time>
      </trkpt>
      <trkpt lat="49.30073" lon="-0.30929">
        <ele>4.7</ele>
        <time>2021-04-18T12:16:56Z</time>
      </trkpt>
      <trkpt lat="49.30073" lon="-0.30927">
        <ele>4.7</ele>
        <time>2021-04-18T12:16:57Z</time>
      </trkpt>
      <trkpt lat="49.30072" lon="-0.30925">
        <ele>4.7</ele>
        <time>2021-04-18T12:16:58Z</time>
      </trkpt>
      <trkpt lat="49.30071" lon="-0.30921">
        <ele>4.7</ele>
        <time>2021-04-18T12:16:59Z</time>
      </trkpt>
      <trkpt lat="49.3007" lon="-0.30919">
        <ele>4.7</ele>
        <time>2021-04-18T12:17:00Z</time>
      </trkpt>
      <trkpt lat="49.3007" lon="-0.30915">
        <ele>4.7</ele>
        <time>2021-04-18T12:17:02Z</time>
      </trkpt>
      <trkpt lat="49.30069" lon="-0.30912">
        <ele>4.7</ele>
        <time>2021-04-18T12:17:03Z</time>
      </trkpt>
      <trkpt lat="49.30068" lon="-0.30908">
        <ele>4.7</ele>
        <time>2021-04-18T12:17:05Z</time>
      </trkpt>
      <trkpt lat="49.30067" lon="-0.30906">
        <ele>3.5</ele>
        <time>2021-04-18T12:17:06Z</time>
      </trkpt>
      <trkpt lat="49.30067" lon="-0.30903">
        <ele>3.5</ele>
        <time>2021-04-18T12:17:07Z</time>
      </trkpt>
      <trkpt lat="49.30066" lon="-0.30901">
        <ele>3.5</ele>
        <time>2021-04-18T12:17:08Z</time>
      </trkpt>
      <trkpt lat="49.30064" lon="-0.30898">
        <ele>3.5</ele>
        <time>2021-04-18T12:17:10Z</time>
      </trkpt>
      <trkpt lat="49.30064" lon="-0.30896">
        <ele>3.4</ele>
        <time>2021-04-18T12:17:11Z</time>
      </trkpt>
      <trkpt lat="49.30063" lon="-0.30893">
        <ele>3.4</ele>
        <time>2021-04-18T12:17:12Z</time>
      </trkpt>
      <trkpt lat="49.30062" lon="-0.30889">
        <ele>3.4</ele>
        <time>2021-04-18T12:17:14Z</time>
      </trkpt>
      <trkpt lat="49.30062" lon="-0.30887">
        <ele>3.4</ele>
        <time>2021-04-18T12:17:15Z</time>
      </trkpt>
      <trkpt lat="49.3006" lon="-0.30883">
        <ele>3.4</ele>
        <time>2021-04-18T12:17:16Z</time>
      </trkpt>
      <trkpt lat="49.30059" lon="-0.30882">
        <ele>3.4</ele>
        <time>2021-04-18T12:17:17Z</time>
      </trkpt>
      <trkpt lat="49.30057" lon="-0.30878">
        <ele>3.4</ele>
        <time>2021-04-18T12:17:19Z</time>
      </trkpt>
      <trkpt lat="49.30057" lon="-0.30877">
        <ele>3.4</ele>
        <time>2021-04-18T12:17:20Z</time>
      </trkpt>
      <trkpt lat="49.30055" lon="-0.30875">
        <ele>3.4</ele>
        <time>2021-04-18T12:17:21Z</time>
      </trkpt>
      <trkpt lat="49.30054" lon="-0.30871">
        <ele>3.3</ele>
        <time>2021-04-18T12:17:23Z</time>
      </trkpt>
      <trkpt lat="49.30052" lon="-0.30868">
        <ele>3.3</ele>
        <time>2021-04-18T12:17:24Z</time>
      </trkpt>
      <trkpt lat="49.30052" lon="-0.30866">
        <ele>3.3</ele>
        <time>2021-04-18T12:17:25Z</time>
      </trkpt>
      <trkpt lat="49.3005" lon="-0.30863">
        <ele>3.3</ele>
        <time>2021-04-18T12:17:26Z</time>
      </trkpt>
      <trkpt lat="49.30049" lon="-0.30861">
        <ele>3.3</ele>
        <time>2021-04-18T12:17:28Z</time>
      </trkpt>
      <trkpt lat="49.30048" lon="-0.30858">
        <ele>3.3</ele>
        <time>2021-04-18T12:17:29Z</time>
      </trkpt>
      <trkpt lat="49.30047" lon="-0.30855">
        <ele>3.3</ele>
        <time>2021-04-18T12:17:31Z</time>
      </trkpt>
      <trkpt lat="49.30046" lon="-0.30853">
        <ele>3.3</ele>
        <time>2021-04-18T12:17:32Z</time>
      </trkpt>
      <trkpt lat="49.30045" lon="-0.30849">
        <ele>3.3</ele>
        <time>2021-04-18T12:17:34Z</time>
      </trkpt>
      <trkpt lat="49.30044" lon="-0.30846">
        <ele>3.3</ele>
        <time>2021-04-18T12:17:35Z</time>
      </trkpt>
      <trkpt lat="49.30043" lon="-0.30843">
        <ele>3.2</ele>
        <time>2021-04-18T12:17:37Z</time>
      </trkpt>
      <trkpt lat="49.30042" lon="-0.30841">
        <ele>3.2</ele>
        <time>2021-04-18T12:17:38Z</time>
      </trkpt>
      <trkpt lat="49.30041" lon="-0.30839">
        <ele>3.2</ele>
        <time>2021-04-18T12:17:39Z</time>
      </trkpt>
      <trkpt lat="49.30039" lon="-0.30834">
        <ele>3.2</ele>
        <time>2021-04-18T12:17:40Z</time>
      </trkpt>
      <trkpt lat="49.30039" lon="-0.30832">
        <ele>3.2</ele>
        <time>2021-04-18T12:17:41Z</time>
      </trkpt>
      <trkpt lat="49.30038" lon="-0.3083">
        <ele>3.2</ele>
        <time>2021-04-18T12:17:42Z</time>
      </trkpt>
      <trkpt lat="49.30036" lon="-0.30827">
        <ele>3.2</ele>
        <time>2021-04-18T12:17:44Z</time>
      </trkpt>
      <trkpt lat="49.30034" lon="-0.30824">
        <ele>3.2</ele>
        <time>2021-04-18T12:17:45Z</time>
      </trkpt>
      <trkpt lat="49.30034" lon="-0.30823">
        <ele>3.2</ele>
        <time>2021-04-18T12:17:46Z</time>
      </trkpt>
      <trkpt lat="49.30032" lon="-0.30819">
        <ele>3.2</ele>
        <time>2021-04-18T12:17:48Z</time>
      </trkpt>
      <trkpt lat="49.30031" lon="-0.30818">
        <ele>3.2</ele>
        <time>2021-04-18T12:17:49Z</time>
      </trkpt>
      <trkpt lat="49.30029" lon="-0.30814">
        <ele>3.1</ele>
        <time>2021-04-18T12:17:51Z</time>
      </trkpt>
      <trkpt lat="49.30028" lon="-0.30813">
        <ele>3.1</ele>
        <time>2021-04-18T12:17:52Z</time>
      </trkpt>
      <trkpt lat="49.30027" lon="-0.30812">
        <ele>3.1</ele>
        <time>2021-04-18T12:17:53Z</time>
      </trkpt>
      <trkpt lat="49.30026" lon="-0.3081">
        <ele>3.1</ele>
        <time>2021-04-18T12:17:54Z</time>
      </trkpt>
      <trkpt lat="49.30024" lon="-0.30808">
        <ele>3.1</ele>
        <time>2021-04-18T12:17:55Z</time>
      </trkpt>
      <trkpt lat="49.30023" lon="-0.30804">
        <ele>3.1</ele>
        <time>2021-04-18T12:17:57Z</time>
      </trkpt>
      <trkpt lat="49.30021" lon="-0.308">
        <ele>3.1</ele>
        <time>2021-04-18T12:17:58Z</time>
      </trkpt>
      <trkpt lat="49.30021" lon="-0.30799">
        <ele>3.1</ele>
        <time>2021-04-18T12:17:59Z</time>
      </trkpt>
      <trkpt lat="49.30019" lon="-0.30793">
        <ele>3.1</ele>
        <time>2021-04-18T12:18:01Z</time>
      </trkpt>
      <trkpt lat="49.30018" lon="-0.3079">
        <ele>3.1</ele>
        <time>2021-04-18T12:18:02Z</time>
      </trkpt>
      <trkpt lat="49.30016" lon="-0.30786">
        <ele>3.1</ele>
        <time>2021-04-18T12:18:04Z</time>
      </trkpt>
      <trkpt lat="49.30016" lon="-0.30784">
        <ele>3.1</ele>
        <time>2021-04-18T12:18:05Z</time>
      </trkpt>
      <trkpt lat="49.30014" lon="-0.3078">
        <ele>3.1</ele>
        <time>2021-04-18T12:18:07Z</time>
      </trkpt>
      <trkpt lat="49.30014" lon="-0.30777">
        <ele>3.1</ele>
        <time>2021-04-18T12:18:08Z</time>
      </trkpt>
      <trkpt lat="49.30013" lon="-0.30775">
        <ele>3.1</ele>
        <time>2021-04-18T12:18:09Z</time>
      </trkpt>
      <trkpt lat="49.30012" lon="-0.30772">
        <ele>3.1</ele>
        <time>2021-04-18T12:18:10Z</time>
      </trkpt>
      <trkpt lat="49.3001" lon="-0.30769">
        <ele>3.1</ele>
        <time>2021-04-18T12:18:12Z</time>
      </trkpt>
      <trkpt lat="49.30009" lon="-0.30766">
        <ele>3.1</ele>
        <time>2021-04-18T12:18:13Z</time>
      </trkpt>
      <trkpt lat="49.30008" lon="-0.30762">
        <ele>3.1</ele>
        <time>2021-04-18T12:18:15Z</time>
      </trkpt>
      <trkpt lat="49.30007" lon="-0.30759">
        <ele>3.1</ele>
        <time>2021-04-18T12:18:16Z</time>
      </trkpt>
      <trkpt lat="49.30005" lon="-0.30753">
        <ele>3.1</ele>
        <time>2021-04-18T12:18:18Z</time>
      </trkpt>
      <trkpt lat="49.30003" lon="-0.3075">
        <ele>3.1</ele>
        <time>2021-04-18T12:18:19Z</time>
      </trkpt>
      <trkpt lat="49.30003" lon="-0.30748">
        <ele>3.1</ele>
        <time>2021-04-18T12:18:20Z</time>
      </trkpt>
      <trkpt lat="49.30001" lon="-0.30744">
        <ele>3.1</ele>
        <time>2021-04-18T12:18:22Z</time>
      </trkpt>
      <trkpt lat="49.30001" lon="-0.30744">
        <ele>3.1</ele>
        <time>2021-04-18T12:18:23Z</time>
      </trkpt>
      <trkpt lat="49.29999" lon="-0.3074">
        <ele>3.1</ele>
        <time>2021-04-18T12:18:25Z</time>
      </trkpt>
      <trkpt lat="49.29998" lon="-0.30737">
        <ele>3.1</ele>
        <time>2021-04-18T12:18:27Z</time>
      </trkpt>
      <trkpt lat="49.29996" lon="-0.30733">
        <ele>3.1</ele>
        <time>2021-04-18T12:18:28Z</time>
      </trkpt>
      <trkpt lat="49.29995" lon="-0.30731">
        <ele>3.1</ele>
        <time>2021-04-18T12:18:29Z</time>
      </trkpt>
      <trkpt lat="49.29992" lon="-0.30726">
        <ele>3.1</ele>
        <time>2021-04-18T12:18:31Z</time>
      </trkpt>
      <trkpt lat="49.29991" lon="-0.30724">
        <ele>3.1</ele>
        <time>2021-04-18T12:18:33Z</time>
      </trkpt>
      <trkpt lat="49.2999" lon="-0.30722">
        <ele>3.1</ele>
        <time>2021-04-18T12:18:34Z</time>
      </trkpt>
      <trkpt lat="49.29988" lon="-0.30718">
        <ele>3.1</ele>
        <time>2021-04-18T12:18:35Z</time>
      </trkpt>
      <trkpt lat="49.29988" lon="-0.30717">
        <ele>3.1</ele>
        <time>2021-04-18T12:18:36Z</time>
      </trkpt>
      <trkpt lat="49.29986" lon="-0.30714">
        <ele>3.1</ele>
        <time>2021-04-18T12:18:37Z</time>
      </trkpt>
      <trkpt lat="49.29985" lon="-0.30712">
        <ele>3.1</ele>
        <time>2021-04-18T12:18:38Z</time>
      </trkpt>
      <trkpt lat="49.29984" lon="-0.3071">
        <ele>3.1</ele>
        <time>2021-04-18T12:18:39Z</time>
      </trkpt>
      <trkpt lat="49.29982" lon="-0.30707">
        <ele>3.1</ele>
        <time>2021-04-18T12:18:41Z</time>
      </trkpt>
      <trkpt lat="49.29981" lon="-0.30703">
        <ele>3.1</ele>
        <time>2021-04-18T12:18:43Z</time>
      </trkpt>
      <trkpt lat="49.29979" lon="-0.307">
        <ele>3.1</ele>
        <time>2021-04-18T12:18:44Z</time>
      </trkpt>
      <trkpt lat="49.29978" lon="-0.30697">
        <ele>3.1</ele>
        <time>2021-04-18T12:18:46Z</time>
      </trkpt>
      <trkpt lat="49.29977" lon="-0.30693">
        <ele>3.1</ele>
        <time>2021-04-18T12:18:47Z</time>
      </trkpt>
      <trkpt lat="49.29976" lon="-0.30692">
        <ele>3.1</ele>
        <time>2021-04-18T12:18:48Z</time>
      </trkpt>
      <trkpt lat="49.29975" lon="-0.30687">
        <ele>3.2</ele>
        <time>2021-04-18T12:18:49Z</time>
      </trkpt>
      <trkpt lat="49.29973" lon="-0.30683">
        <ele>3.2</ele>
        <time>2021-04-18T12:18:51Z</time>
      </trkpt>
      <trkpt lat="49.29972" lon="-0.30682">
        <ele>3.2</ele>
        <time>2021-04-18T12:18:52Z</time>
      </trkpt>
      <trkpt lat="49.29971" lon="-0.30679">
        <ele>3.2</ele>
        <time>2021-04-18T12:18:53Z</time>
      </trkpt>
      <trkpt lat="49.2997" lon="-0.30675">
        <ele>3.2</ele>
        <time>2021-04-18T12:18:55Z</time>
      </trkpt>
      <trkpt lat="49.29969" lon="-0.3067">
        <ele>3.2</ele>
        <time>2021-04-18T12:18:56Z</time>
      </trkpt>
      <trkpt lat="49.29969" lon="-0.30669">
        <ele>3.2</ele>
        <time>2021-04-18T12:18:57Z</time>
      </trkpt>
      <trkpt lat="49.29969" lon="-0.30665">
        <ele>3.2</ele>
        <time>2021-04-18T12:18:58Z</time>
      </trkpt>
      <trkpt lat="49.29968" lon="-0.30662">
        <ele>3.2</ele>
        <time>2021-04-18T12:19:00Z</time>
      </trkpt>
      <trkpt lat="49.29967" lon="-0.30657">
        <ele>3.2</ele>
        <time>2021-04-18T12:19:01Z</time>
      </trkpt>
      <trkpt lat="49.29967" lon="-0.30655">
        <ele>3.2</ele>
        <time>2021-04-18T12:19:02Z</time>
      </trkpt>
      <trkpt lat="49.29966" lon="-0.30652">
        <ele>3.2</ele>
        <time>2021-04-18T12:19:04Z</time>
      </trkpt>
      <trkpt lat="49.29965" lon="-0.30647">
        <ele>3.2</ele>
        <time>2021-04-18T12:19:06Z</time>
      </trkpt>
      <trkpt lat="49.29964" lon="-0.30646">
        <ele>3.2</ele>
        <time>2021-04-18T12:19:07Z</time>
      </trkpt>
      <trkpt lat="49.29962" lon="-0.30644">
        <ele>3.2</ele>
        <time>2021-04-18T12:19:08Z</time>
      </trkpt>
      <trkpt lat="49.29961" lon="-0.30642">
        <ele>3.2</ele>
        <time>2021-04-18T12:19:10Z</time>
      </trkpt>
      <trkpt lat="49.2996" lon="-0.3064">
        <ele>3.2</ele>
        <time>2021-04-18T12:19:11Z</time>
      </trkpt>
      <trkpt lat="49.2996" lon="-0.30637">
        <ele>3.2</ele>
        <time>2021-04-18T12:19:12Z</time>
      </trkpt>
      <trkpt lat="49.29959" lon="-0.30634">
        <ele>3.2</ele>
        <time>2021-04-18T12:19:14Z</time>
      </trkpt>
      <trkpt lat="49.29958" lon="-0.30631">
        <ele>3.2</ele>
        <time>2021-04-18T12:19:15Z</time>
      </trkpt>
      <trkpt lat="49.29958" lon="-0.30629">
        <ele>3.2</ele>
        <time>2021-04-18T12:19:16Z</time>
      </trkpt>
      <trkpt lat="49.29959" lon="-0.30625">
        <ele>3.1</ele>
        <time>2021-04-18T12:19:17Z</time>
      </trkpt>
      <trkpt lat="49.29959" lon="-0.30622">
        <ele>3.1</ele>
        <time>2021-04-18T12:19:19Z</time>
      </trkpt>
      <trkpt lat="49.29959" lon="-0.3062">
        <ele>3.1</ele>
        <time>2021-04-18T12:19:20Z</time>
      </trkpt>
      <trkpt lat="49.29959" lon="-0.30617">
        <ele>3.1</ele>
        <time>2021-04-18T12:19:22Z</time>
      </trkpt>
      <trkpt lat="49.29959" lon="-0.30614">
        <ele>3.1</ele>
        <time>2021-04-18T12:19:23Z</time>
      </trkpt>
      <trkpt lat="49.29958" lon="-0.30611">
        <ele>3.1</ele>
        <time>2021-04-18T12:19:25Z</time>
      </trkpt>
      <trkpt lat="49.29956" lon="-0.30607">
        <ele>3.1</ele>
        <time>2021-04-18T12:19:26Z</time>
      </trkpt>
      <trkpt lat="49.29956" lon="-0.30606">
        <ele>3.1</ele>
        <time>2021-04-18T12:19:27Z</time>
      </trkpt>
      <trkpt lat="49.29954" lon="-0.30601">
        <ele>3.1</ele>
        <time>2021-04-18T12:19:29Z</time>
      </trkpt>
      <trkpt lat="49.29954" lon="-0.306">
        <ele>3.1</ele>
        <time>2021-04-18T12:19:30Z</time>
      </trkpt>
      <trkpt lat="49.29953" lon="-0.30597">
        <ele>3.1</ele>
        <time>2021-04-18T12:19:31Z</time>
      </trkpt>
      <trkpt lat="49.29953" lon="-0.30595">
        <ele>3.1</ele>
        <time>2021-04-18T12:19:32Z</time>
      </trkpt>
      <trkpt lat="49.29951" lon="-0.30591">
        <ele>3.1</ele>
        <time>2021-04-18T12:19:34Z</time>
      </trkpt>
      <trkpt lat="49.2995" lon="-0.3059">
        <ele>3.1</ele>
        <time>2021-04-18T12:19:35Z</time>
      </trkpt>
      <trkpt lat="49.29949" lon="-0.30586">
        <ele>3.1</ele>
        <time>2021-04-18T12:19:37Z</time>
      </trkpt>
      <trkpt lat="49.29948" lon="-0.30582">
        <ele>3.1</ele>
        <time>2021-04-18T12:19:38Z</time>
      </trkpt>
      <trkpt lat="49.29947" lon="-0.30579">
        <ele>3.1</ele>
        <time>2021-04-18T12:19:40Z</time>
      </trkpt>
      <trkpt lat="49.29946" lon="-0.30576">
        <ele>3.1</ele>
        <time>2021-04-18T12:19:41Z</time>
      </trkpt>
      <trkpt lat="49.29944" lon="-0.30571">
        <ele>3.1</ele>
        <time>2021-04-18T12:19:43Z</time>
      </trkpt>
      <trkpt lat="49.29943" lon="-0.30568">
        <ele>3.1</ele>
        <time>2021-04-18T12:19:44Z</time>
      </trkpt>
      <trkpt lat="49.29941" lon="-0.30564">
        <ele>3.1</ele>
        <time>2021-04-18T12:19:46Z</time>
      </trkpt>
      <trkpt lat="49.2994" lon="-0.30557">
        <ele>3</ele>
        <time>2021-04-18T12:19:48Z</time>
      </trkpt>
      <trkpt lat="49.29939" lon="-0.30554">
        <ele>3</ele>
        <time>2021-04-18T12:19:49Z</time>
      </trkpt>
      <trkpt lat="49.29939" lon="-0.30552">
        <ele>3</ele>
        <time>2021-04-18T12:19:50Z</time>
      </trkpt>
      <trkpt lat="49.29938" lon="-0.30548">
        <ele>3</ele>
        <time>2021-04-18T12:19:51Z</time>
      </trkpt>
      <trkpt lat="49.29936" lon="-0.30543">
        <ele>3</ele>
        <time>2021-04-18T12:19:53Z</time>
      </trkpt>
      <trkpt lat="49.29936" lon="-0.30542">
        <ele>3</ele>
        <time>2021-04-18T12:19:54Z</time>
      </trkpt>
      <trkpt lat="49.29934" lon="-0.30536">
        <ele>3</ele>
        <time>2021-04-18T12:19:56Z</time>
      </trkpt>
      <trkpt lat="49.29933" lon="-0.30534">
        <ele>3</ele>
        <time>2021-04-18T12:19:57Z</time>
      </trkpt>
      <trkpt lat="49.29933" lon="-0.30532">
        <ele>3</ele>
        <time>2021-04-18T12:19:58Z</time>
      </trkpt>
      <trkpt lat="49.29932" lon="-0.30529">
        <ele>3</ele>
        <time>2021-04-18T12:19:59Z</time>
      </trkpt>
      <trkpt lat="49.29931" lon="-0.30527">
        <ele>3</ele>
        <time>2021-04-18T12:20:00Z</time>
      </trkpt>
      <trkpt lat="49.2993" lon="-0.30523">
        <ele>3</ele>
        <time>2021-04-18T12:20:02Z</time>
      </trkpt>
      <trkpt lat="49.29929" lon="-0.30522">
        <ele>3</ele>
        <time>2021-04-18T12:20:03Z</time>
      </trkpt>
      <trkpt lat="49.29928" lon="-0.30519">
        <ele>3</ele>
        <time>2021-04-18T12:20:04Z</time>
      </trkpt>
      <trkpt lat="49.29927" lon="-0.30516">
        <ele>3</ele>
        <time>2021-04-18T12:20:06Z</time>
      </trkpt>
      <trkpt lat="49.29926" lon="-0.30513">
        <ele>3</ele>
        <time>2021-04-18T12:20:07Z</time>
      </trkpt>
      <trkpt lat="49.29924" lon="-0.3051">
        <ele>3</ele>
        <time>2021-04-18T12:20:09Z</time>
      </trkpt>
      <trkpt lat="49.29923" lon="-0.30506">
        <ele>3</ele>
        <time>2021-04-18T12:20:10Z</time>
      </trkpt>
      <trkpt lat="49.29922" lon="-0.30505">
        <ele>3</ele>
        <time>2021-04-18T12:20:11Z</time>
      </trkpt>
      <trkpt lat="49.29921" lon="-0.30502">
        <ele>3</ele>
        <time>2021-04-18T12:20:12Z</time>
      </trkpt>
      <trkpt lat="49.2992" lon="-0.30498">
        <ele>3</ele>
        <time>2021-04-18T12:20:14Z</time>
      </trkpt>
      <trkpt lat="49.29919" lon="-0.30494">
        <ele>3</ele>
        <time>2021-04-18T12:20:16Z</time>
      </trkpt>
      <trkpt lat="49.29918" lon="-0.30491">
        <ele>3</ele>
        <time>2021-04-18T12:20:17Z</time>
      </trkpt>
      <trkpt lat="49.29916" lon="-0.30488">
        <ele>3</ele>
        <time>2021-04-18T12:20:19Z</time>
      </trkpt>
      <trkpt lat="49.29916" lon="-0.30485">
        <ele>3</ele>
        <time>2021-04-18T12:20:20Z</time>
      </trkpt>
      <trkpt lat="49.29915" lon="-0.30483">
        <ele>3</ele>
        <time>2021-04-18T12:20:21Z</time>
      </trkpt>
      <trkpt lat="49.29914" lon="-0.3048">
        <ele>3</ele>
        <time>2021-04-18T12:20:22Z</time>
      </trkpt>
      <trkpt lat="49.29912" lon="-0.30476">
        <ele>3</ele>
        <time>2021-04-18T12:20:24Z</time>
      </trkpt>
      <trkpt lat="49.29911" lon="-0.30473">
        <ele>3</ele>
        <time>2021-04-18T12:20:25Z</time>
      </trkpt>
      <trkpt lat="49.2991" lon="-0.3047">
        <ele>3</ele>
        <time>2021-04-18T12:20:26Z</time>
      </trkpt>
      <trkpt lat="49.29909" lon="-0.30466">
        <ele>3</ele>
        <time>2021-04-18T12:20:28Z</time>
      </trkpt>
      <trkpt lat="49.29907" lon="-0.30462">
        <ele>3</ele>
        <time>2021-04-18T12:20:30Z</time>
      </trkpt>
      <trkpt lat="49.29906" lon="-0.30459">
        <ele>3</ele>
        <time>2021-04-18T12:20:31Z</time>
      </trkpt>
      <trkpt lat="49.29906" lon="-0.30457">
        <ele>3</ele>
        <time>2021-04-18T12:20:32Z</time>
      </trkpt>
      <trkpt lat="49.29905" lon="-0.30452">
        <ele>3</ele>
        <time>2021-04-18T12:20:34Z</time>
      </trkpt>
      <trkpt lat="49.29905" lon="-0.3045">
        <ele>3</ele>
        <time>2021-04-18T12:20:35Z</time>
      </trkpt>
      <trkpt lat="49.29904" lon="-0.30448">
        <ele>3</ele>
        <time>2021-04-18T12:20:36Z</time>
      </trkpt>
      <trkpt lat="49.29904" lon="-0.30445">
        <ele>3</ele>
        <time>2021-04-18T12:20:37Z</time>
      </trkpt>
      <trkpt lat="49.29903" lon="-0.30442">
        <ele>3</ele>
        <time>2021-04-18T12:20:38Z</time>
      </trkpt>
      <trkpt lat="49.29902" lon="-0.30438">
        <ele>3</ele>
        <time>2021-04-18T12:20:40Z</time>
      </trkpt>
      <trkpt lat="49.29901" lon="-0.30435">
        <ele>3</ele>
        <time>2021-04-18T12:20:41Z</time>
      </trkpt>
      <trkpt lat="49.299" lon="-0.3043">
        <ele>3</ele>
        <time>2021-04-18T12:20:43Z</time>
      </trkpt>
      <trkpt lat="49.29898" lon="-0.30428">
        <ele>3</ele>
        <time>2021-04-18T12:20:44Z</time>
      </trkpt>
      <trkpt lat="49.29898" lon="-0.30426">
        <ele>3</ele>
        <time>2021-04-18T12:20:45Z</time>
      </trkpt>
      <trkpt lat="49.29896" lon="-0.30422">
        <ele>3</ele>
        <time>2021-04-18T12:20:47Z</time>
      </trkpt>
      <trkpt lat="49.29896" lon="-0.30421">
        <ele>3</ele>
        <time>2021-04-18T12:20:48Z</time>
      </trkpt>
      <trkpt lat="49.29895" lon="-0.30418">
        <ele>3</ele>
        <time>2021-04-18T12:20:49Z</time>
      </trkpt>
      <trkpt lat="49.29894" lon="-0.30415">
        <ele>3</ele>
        <time>2021-04-18T12:20:51Z</time>
      </trkpt>
      <trkpt lat="49.29894" lon="-0.30414">
        <ele>3</ele>
        <time>2021-04-18T12:20:52Z</time>
      </trkpt>
      <trkpt lat="49.29893" lon="-0.30413">
        <ele>3</ele>
        <time>2021-04-18T12:20:53Z</time>
      </trkpt>
      <trkpt lat="49.29892" lon="-0.30411">
        <ele>3</ele>
        <time>2021-04-18T12:20:54Z</time>
      </trkpt>
      <trkpt lat="49.29891" lon="-0.30409">
        <ele>3</ele>
        <time>2021-04-18T12:20:56Z</time>
      </trkpt>
      <trkpt lat="49.29891" lon="-0.30407">
        <ele>3</ele>
        <time>2021-04-18T12:20:57Z</time>
      </trkpt>
      <trkpt lat="49.2989" lon="-0.30403">
        <ele>3</ele>
        <time>2021-04-18T12:20:58Z</time>
      </trkpt>
      <trkpt lat="49.29889" lon="-0.30401">
        <ele>3</ele>
        <time>2021-04-18T12:20:59Z</time>
      </trkpt>
      <trkpt lat="49.29888" lon="-0.30397">
        <ele>3</ele>
        <time>2021-04-18T12:21:01Z</time>
      </trkpt>
      <trkpt lat="49.29887" lon="-0.30394">
        <ele>3</ele>
        <time>2021-04-18T12:21:02Z</time>
      </trkpt>
      <trkpt lat="49.29886" lon="-0.30391">
        <ele>3</ele>
        <time>2021-04-18T12:21:04Z</time>
      </trkpt>
      <trkpt lat="49.29885" lon="-0.30387">
        <ele>3</ele>
        <time>2021-04-18T12:21:05Z</time>
      </trkpt>
      <trkpt lat="49.29884" lon="-0.30386">
        <ele>3</ele>
        <time>2021-04-18T12:21:06Z</time>
      </trkpt>
      <trkpt lat="49.29882" lon="-0.30381">
        <ele>3</ele>
        <time>2021-04-18T12:21:08Z</time>
      </trkpt>
      <trkpt lat="49.29881" lon="-0.3038">
        <ele>3</ele>
        <time>2021-04-18T12:21:09Z</time>
      </trkpt>
      <trkpt lat="49.2988" lon="-0.30377">
        <ele>3</ele>
        <time>2021-04-18T12:21:10Z</time>
      </trkpt>
      <trkpt lat="49.29879" lon="-0.30374">
        <ele>3</ele>
        <time>2021-04-18T12:21:12Z</time>
      </trkpt>
      <trkpt lat="49.29877" lon="-0.3037">
        <ele>2.9</ele>
        <time>2021-04-18T12:21:13Z</time>
      </trkpt>
      <trkpt lat="49.29876" lon="-0.30369">
        <ele>2.9</ele>
        <time>2021-04-18T12:21:14Z</time>
      </trkpt>
      <trkpt lat="49.29875" lon="-0.30366">
        <ele>2.9</ele>
        <time>2021-04-18T12:21:16Z</time>
      </trkpt>
      <trkpt lat="49.29874" lon="-0.30362">
        <ele>2.9</ele>
        <time>2021-04-18T12:21:18Z</time>
      </trkpt>
      <trkpt lat="49.29873" lon="-0.3036">
        <ele>2.9</ele>
        <time>2021-04-18T12:21:19Z</time>
      </trkpt>
      <trkpt lat="49.29872" lon="-0.30357">
        <ele>2.9</ele>
        <time>2021-04-18T12:21:21Z</time>
      </trkpt>
      <trkpt lat="49.2987" lon="-0.30353">
        <ele>2.9</ele>
        <time>2021-04-18T12:21:22Z</time>
      </trkpt>
      <trkpt lat="49.2987" lon="-0.30352">
        <ele>2.9</ele>
        <time>2021-04-18T12:21:23Z</time>
      </trkpt>
      <trkpt lat="49.29868" lon="-0.30349">
        <ele>2.9</ele>
        <time>2021-04-18T12:21:24Z</time>
      </trkpt>
      <trkpt lat="49.29867" lon="-0.30346">
        <ele>2.9</ele>
        <time>2021-04-18T12:21:26Z</time>
      </trkpt>
      <trkpt lat="49.29866" lon="-0.30343">
        <ele>2.9</ele>
        <time>2021-04-18T12:21:27Z</time>
      </trkpt>
      <trkpt lat="49.29865" lon="-0.30339">
        <ele>2.9</ele>
        <time>2021-04-18T12:21:29Z</time>
      </trkpt>
      <trkpt lat="49.29863" lon="-0.30335">
        <ele>2.9</ele>
        <time>2021-04-18T12:21:31Z</time>
      </trkpt>
      <trkpt lat="49.29864" lon="-0.30334">
        <ele>2.9</ele>
        <time>2021-04-18T12:21:33Z</time>
      </trkpt>
      <trkpt lat="49.29866" lon="-0.30335">
        <ele>2.9</ele>
        <time>2021-04-18T12:21:35Z</time>
      </trkpt>
      <trkpt lat="49.29867" lon="-0.30335">
        <ele>2.9</ele>
        <time>2021-04-18T12:21:36Z</time>
      </trkpt>
      <trkpt lat="49.29866" lon="-0.30333">
        <ele>2.9</ele>
        <time>2021-04-18T12:21:38Z</time>
      </trkpt>
      <trkpt lat="49.29866" lon="-0.30332">
        <ele>2.9</ele>
        <time>2021-04-18T12:21:39Z</time>
      </trkpt>
      <trkpt lat="49.29865" lon="-0.30331">
        <ele>2.9</ele>
        <time>2021-04-18T12:21:41Z</time>
      </trkpt>
      <trkpt lat="49.29865" lon="-0.30329">
        <ele>2.9</ele>
        <time>2021-04-18T12:21:42Z</time>
      </trkpt>
      <trkpt lat="49.29864" lon="-0.30323">
        <ele>2.9</ele>
        <time>2021-04-18T12:21:44Z</time>
      </trkpt>
      <trkpt lat="49.29863" lon="-0.30317">
        <ele>2.9</ele>
        <time>2021-04-18T12:21:46Z</time>
      </trkpt>
      <trkpt lat="49.29861" lon="-0.30313">
        <ele>2.9</ele>
        <time>2021-04-18T12:21:47Z</time>
      </trkpt>
      <trkpt lat="49.29861" lon="-0.30312">
        <ele>2.9</ele>
        <time>2021-04-18T12:21:48Z</time>
      </trkpt>
      <trkpt lat="49.29859" lon="-0.30308">
        <ele>2.9</ele>
        <time>2021-04-18T12:21:49Z</time>
      </trkpt>
      <trkpt lat="49.29857" lon="-0.30304">
        <ele>2.9</ele>
        <time>2021-04-18T12:21:51Z</time>
      </trkpt>
      <trkpt lat="49.29856" lon="-0.30303">
        <ele>2.9</ele>
        <time>2021-04-18T12:21:52Z</time>
      </trkpt>
      <trkpt lat="49.29855" lon="-0.30301">
        <ele>2.9</ele>
        <time>2021-04-18T12:21:53Z</time>
      </trkpt>
      <trkpt lat="49.29853" lon="-0.30298">
        <ele>2.9</ele>
        <time>2021-04-18T12:21:55Z</time>
      </trkpt>
      <trkpt lat="49.29852" lon="-0.30295">
        <ele>2.9</ele>
        <time>2021-04-18T12:21:56Z</time>
      </trkpt>
      <trkpt lat="49.2985" lon="-0.30293">
        <ele>2.9</ele>
        <time>2021-04-18T12:21:58Z</time>
      </trkpt>
      <trkpt lat="49.29849" lon="-0.30289">
        <ele>3</ele>
        <time>2021-04-18T12:21:59Z</time>
      </trkpt>
      <trkpt lat="49.29849" lon="-0.30288">
        <ele>3</ele>
        <time>2021-04-18T12:22:00Z</time>
      </trkpt>
      <trkpt lat="49.29848" lon="-0.30285">
        <ele>3</ele>
        <time>2021-04-18T12:22:02Z</time>
      </trkpt>
      <trkpt lat="49.29847" lon="-0.30283">
        <ele>3</ele>
        <time>2021-04-18T12:22:03Z</time>
      </trkpt>
      <trkpt lat="49.29846" lon="-0.3028">
        <ele>3</ele>
        <time>2021-04-18T12:22:04Z</time>
      </trkpt>
      <trkpt lat="49.29844" lon="-0.30276">
        <ele>3</ele>
        <time>2021-04-18T12:22:06Z</time>
      </trkpt>
      <trkpt lat="49.29843" lon="-0.30272">
        <ele>3</ele>
        <time>2021-04-18T12:22:07Z</time>
      </trkpt>
      <trkpt lat="49.29842" lon="-0.30268">
        <ele>3</ele>
        <time>2021-04-18T12:22:09Z</time>
      </trkpt>
      <trkpt lat="49.29841" lon="-0.30263">
        <ele>3</ele>
        <time>2021-04-18T12:22:10Z</time>
      </trkpt>
      <trkpt lat="49.2984" lon="-0.30261">
        <ele>3.1</ele>
        <time>2021-04-18T12:22:11Z</time>
      </trkpt>
      <trkpt lat="49.29839" lon="-0.30256">
        <ele>3.1</ele>
        <time>2021-04-18T12:22:13Z</time>
      </trkpt>
      <trkpt lat="49.29838" lon="-0.30255">
        <ele>3.1</ele>
        <time>2021-04-18T12:22:14Z</time>
      </trkpt>
      <trkpt lat="49.29837" lon="-0.30253">
        <ele>3.1</ele>
        <time>2021-04-18T12:22:15Z</time>
      </trkpt>
      <trkpt lat="49.29834" lon="-0.30251">
        <ele>3.5</ele>
        <time>2021-04-18T12:22:17Z</time>
      </trkpt>
      <trkpt lat="49.29831" lon="-0.3025">
        <ele>3.9</ele>
        <time>2021-04-18T12:22:18Z</time>
      </trkpt>
      <trkpt lat="49.2983" lon="-0.30249">
        <ele>3.9</ele>
        <time>2021-04-18T12:22:20Z</time>
      </trkpt>
      <trkpt lat="49.29829" lon="-0.30248">
        <ele>3.9</ele>
        <time>2021-04-18T12:22:21Z</time>
      </trkpt>
      <trkpt lat="49.29828" lon="-0.30247">
        <ele>3.9</ele>
        <time>2021-04-18T12:22:22Z</time>
      </trkpt>
      <trkpt lat="49.29826" lon="-0.30244">
        <ele>3.9</ele>
        <time>2021-04-18T12:22:24Z</time>
      </trkpt>
      <trkpt lat="49.29823" lon="-0.30241">
        <ele>3.9</ele>
        <time>2021-04-18T12:22:26Z</time>
      </trkpt>
      <trkpt lat="49.29822" lon="-0.3024">
        <ele>4.1</ele>
        <time>2021-04-18T12:22:27Z</time>
      </trkpt>
      <trkpt lat="49.2982" lon="-0.30239">
        <ele>4.2</ele>
        <time>2021-04-18T12:22:28Z</time>
      </trkpt>
      <trkpt lat="49.29817" lon="-0.3024">
        <ele>4.3</ele>
        <time>2021-04-18T12:22:30Z</time>
      </trkpt>
      <trkpt lat="49.29816" lon="-0.3024">
        <ele>4.3</ele>
        <time>2021-04-18T12:22:31Z</time>
      </trkpt>
      <trkpt lat="49.29814" lon="-0.30241">
        <ele>4.4</ele>
        <time>2021-04-18T12:22:32Z</time>
      </trkpt>
      <trkpt lat="49.29812" lon="-0.30242">
        <ele>4.5</ele>
        <time>2021-04-18T12:22:34Z</time>
      </trkpt>
      <trkpt lat="49.29808" lon="-0.30243">
        <ele>4.7</ele>
        <time>2021-04-18T12:22:35Z</time>
      </trkpt>
      <trkpt lat="49.29807" lon="-0.30243">
        <ele>4.7</ele>
        <time>2021-04-18T12:22:36Z</time>
      </trkpt>
      <trkpt lat="49.29805" lon="-0.30245">
        <ele>4.8</ele>
        <time>2021-04-18T12:22:38Z</time>
      </trkpt>
      <trkpt lat="49.29804" lon="-0.30245">
        <ele>4.9</ele>
        <time>2021-04-18T12:22:39Z</time>
      </trkpt>
      <trkpt lat="49.29802" lon="-0.30246">
        <ele>4.9</ele>
        <time>2021-04-18T12:22:40Z</time>
      </trkpt>
      <trkpt lat="49.29801" lon="-0.30247">
        <ele>5</ele>
        <time>2021-04-18T12:22:41Z</time>
      </trkpt>
      <trkpt lat="49.29798" lon="-0.30249">
        <ele>5.1</ele>
        <time>2021-04-18T12:22:43Z</time>
      </trkpt>
      <trkpt lat="49.29797" lon="-0.3025">
        <ele>5.2</ele>
        <time>2021-04-18T12:22:44Z</time>
      </trkpt>
      <trkpt lat="49.29796" lon="-0.30251">
        <ele>5.2</ele>
        <time>2021-04-18T12:22:45Z</time>
      </trkpt>
      <trkpt lat="49.29794" lon="-0.30252">
        <ele>5.2</ele>
        <time>2021-04-18T12:22:47Z</time>
      </trkpt>
      <trkpt lat="49.29791" lon="-0.30254">
        <ele>5.2</ele>
        <time>2021-04-18T12:22:48Z</time>
      </trkpt>
      <trkpt lat="49.2979" lon="-0.30254">
        <ele>5.2</ele>
        <time>2021-04-18T12:22:49Z</time>
      </trkpt>
      <trkpt lat="49.29788" lon="-0.30255">
        <ele>5.2</ele>
        <time>2021-04-18T12:22:51Z</time>
      </trkpt>
      <trkpt lat="49.29786" lon="-0.30257">
        <ele>5.2</ele>
        <time>2021-04-18T12:22:53Z</time>
      </trkpt>
      <trkpt lat="49.29783" lon="-0.30258">
        <ele>5.2</ele>
        <time>2021-04-18T12:22:54Z</time>
      </trkpt>
      <trkpt lat="49.29782" lon="-0.30259">
        <ele>5.2</ele>
        <time>2021-04-18T12:22:55Z</time>
      </trkpt>
      <trkpt lat="49.29781" lon="-0.3026">
        <ele>5.2</ele>
        <time>2021-04-18T12:22:56Z</time>
      </trkpt>
      <trkpt lat="49.29779" lon="-0.30261">
        <ele>5.2</ele>
        <time>2021-04-18T12:22:57Z</time>
      </trkpt>
      <trkpt lat="49.29777" lon="-0.30263">
        <ele>5.2</ele>
        <time>2021-04-18T12:22:58Z</time>
      </trkpt>
      <trkpt lat="49.29776" lon="-0.30263">
        <ele>5.2</ele>
        <time>2021-04-18T12:22:59Z</time>
      </trkpt>
      <trkpt lat="49.29773" lon="-0.30265">
        <ele>5.3</ele>
        <time>2021-04-18T12:23:00Z</time>
      </trkpt>
      <trkpt lat="49.29772" lon="-0.30266">
        <ele>5.3</ele>
        <time>2021-04-18T12:23:02Z</time>
      </trkpt>
      <trkpt lat="49.2977" lon="-0.30267">
        <ele>5.3</ele>
        <time>2021-04-18T12:23:03Z</time>
      </trkpt>
      <trkpt lat="49.29769" lon="-0.30268">
        <ele>5.3</ele>
        <time>2021-04-18T12:23:04Z</time>
      </trkpt>
      <trkpt lat="49.29766" lon="-0.3027">
        <ele>5.3</ele>
        <time>2021-04-18T12:23:06Z</time>
      </trkpt>
      <trkpt lat="49.29765" lon="-0.30271">
        <ele>5.3</ele>
        <time>2021-04-18T12:23:07Z</time>
      </trkpt>
      <trkpt lat="49.29762" lon="-0.30272">
        <ele>5.3</ele>
        <time>2021-04-18T12:23:09Z</time>
      </trkpt>
      <trkpt lat="49.2976" lon="-0.30274">
        <ele>5.3</ele>
        <time>2021-04-18T12:23:10Z</time>
      </trkpt>
      <trkpt lat="49.29758" lon="-0.30275">
        <ele>5.4</ele>
        <time>2021-04-18T12:23:11Z</time>
      </trkpt>
      <trkpt lat="49.29756" lon="-0.30278">
        <ele>5.4</ele>
        <time>2021-04-18T12:23:13Z</time>
      </trkpt>
      <trkpt lat="49.29753" lon="-0.30279">
        <ele>5.4</ele>
        <time>2021-04-18T12:23:15Z</time>
      </trkpt>
      <trkpt lat="49.29751" lon="-0.30281">
        <ele>5.4</ele>
        <time>2021-04-18T12:23:16Z</time>
      </trkpt>
      <trkpt lat="49.29749" lon="-0.30282">
        <ele>5.4</ele>
        <time>2021-04-18T12:23:18Z</time>
      </trkpt>
      <trkpt lat="49.29747" lon="-0.30283">
        <ele>5.4</ele>
        <time>2021-04-18T12:23:19Z</time>
      </trkpt>
      <trkpt lat="49.29746" lon="-0.30284">
        <ele>5.5</ele>
        <time>2021-04-18T12:23:20Z</time>
      </trkpt>
      <trkpt lat="49.29744" lon="-0.30284">
        <ele>5.4</ele>
        <time>2021-04-18T12:23:21Z</time>
      </trkpt>
      <trkpt lat="49.29743" lon="-0.30285">
        <ele>5.4</ele>
        <time>2021-04-18T12:23:22Z</time>
      </trkpt>
      <trkpt lat="49.2974" lon="-0.30286">
        <ele>5.4</ele>
        <time>2021-04-18T12:23:24Z</time>
      </trkpt>
      <trkpt lat="49.29739" lon="-0.30287">
        <ele>5.4</ele>
        <time>2021-04-18T12:23:25Z</time>
      </trkpt>
      <trkpt lat="49.29737" lon="-0.30288">
        <ele>5.4</ele>
        <time>2021-04-18T12:23:26Z</time>
      </trkpt>
      <trkpt lat="49.29736" lon="-0.30289">
        <ele>5.3</ele>
        <time>2021-04-18T12:23:27Z</time>
      </trkpt>
      <trkpt lat="49.29734" lon="-0.30291">
        <ele>5.3</ele>
        <time>2021-04-18T12:23:28Z</time>
      </trkpt>
      <trkpt lat="49.29732" lon="-0.30293">
        <ele>5.3</ele>
        <time>2021-04-18T12:23:30Z</time>
      </trkpt>
      <trkpt lat="49.29731" lon="-0.30294">
        <ele>5.3</ele>
        <time>2021-04-18T12:23:31Z</time>
      </trkpt>
      <trkpt lat="49.29729" lon="-0.30295">
        <ele>5.3</ele>
        <time>2021-04-18T12:23:32Z</time>
      </trkpt>
      <trkpt lat="49.29727" lon="-0.30296">
        <ele>5.3</ele>
        <time>2021-04-18T12:23:33Z</time>
      </trkpt>
      <trkpt lat="49.29725" lon="-0.30298">
        <ele>5.3</ele>
        <time>2021-04-18T12:23:35Z</time>
      </trkpt>
      <trkpt lat="49.29723" lon="-0.30299">
        <ele>5.3</ele>
        <time>2021-04-18T12:23:36Z</time>
      </trkpt>
      <trkpt lat="49.29721" lon="-0.30301">
        <ele>5.2</ele>
        <time>2021-04-18T12:23:38Z</time>
      </trkpt>
      <trkpt lat="49.29719" lon="-0.30302">
        <ele>5.2</ele>
        <time>2021-04-18T12:23:39Z</time>
      </trkpt>
      <trkpt lat="49.29717" lon="-0.30303">
        <ele>5.2</ele>
        <time>2021-04-18T12:23:40Z</time>
      </trkpt>
      <trkpt lat="49.29715" lon="-0.30304">
        <ele>5.2</ele>
        <time>2021-04-18T12:23:42Z</time>
      </trkpt>
      <trkpt lat="49.29714" lon="-0.30305">
        <ele>5.2</ele>
        <time>2021-04-18T12:23:43Z</time>
      </trkpt>
      <trkpt lat="49.29712" lon="-0.30305">
        <ele>5.2</ele>
        <time>2021-04-18T12:23:45Z</time>
      </trkpt>
      <trkpt lat="49.29711" lon="-0.30306">
        <ele>5.2</ele>
        <time>2021-04-18T12:23:46Z</time>
      </trkpt>
      <trkpt lat="49.29708" lon="-0.30307">
        <ele>5.2</ele>
        <time>2021-04-18T12:23:47Z</time>
      </trkpt>
      <trkpt lat="49.29707" lon="-0.30308">
        <ele>5.2</ele>
        <time>2021-04-18T12:23:49Z</time>
      </trkpt>
      <trkpt lat="49.29704" lon="-0.3031">
        <ele>5.2</ele>
        <time>2021-04-18T12:23:50Z</time>
      </trkpt>
      <trkpt lat="49.29703" lon="-0.30311">
        <ele>5.2</ele>
        <time>2021-04-18T12:23:51Z</time>
      </trkpt>
      <trkpt lat="49.297" lon="-0.30313">
        <ele>5.2</ele>
        <time>2021-04-18T12:23:52Z</time>
      </trkpt>
      <trkpt lat="49.29699" lon="-0.30314">
        <ele>5.2</ele>
        <time>2021-04-18T12:23:53Z</time>
      </trkpt>
      <trkpt lat="49.29696" lon="-0.30316">
        <ele>5.2</ele>
        <time>2021-04-18T12:23:55Z</time>
      </trkpt>
      <trkpt lat="49.29694" lon="-0.30317">
        <ele>5.2</ele>
        <time>2021-04-18T12:23:56Z</time>
      </trkpt>
      <trkpt lat="49.29691" lon="-0.30319">
        <ele>5.1</ele>
        <time>2021-04-18T12:23:58Z</time>
      </trkpt>
      <trkpt lat="49.29688" lon="-0.3032">
        <ele>5.1</ele>
        <time>2021-04-18T12:23:59Z</time>
      </trkpt>
      <trkpt lat="49.29688" lon="-0.30321">
        <ele>5.1</ele>
        <time>2021-04-18T12:24:00Z</time>
      </trkpt>
      <trkpt lat="49.29685" lon="-0.30323">
        <ele>5.1</ele>
        <time>2021-04-18T12:24:01Z</time>
      </trkpt>
      <trkpt lat="49.29684" lon="-0.30324">
        <ele>5.1</ele>
        <time>2021-04-18T12:24:02Z</time>
      </trkpt>
      <trkpt lat="49.29681" lon="-0.30327">
        <ele>5.1</ele>
        <time>2021-04-18T12:24:04Z</time>
      </trkpt>
      <trkpt lat="49.2968" lon="-0.30327">
        <ele>5.1</ele>
        <time>2021-04-18T12:24:05Z</time>
      </trkpt>
      <trkpt lat="49.29678" lon="-0.30329">
        <ele>5</ele>
        <time>2021-04-18T12:24:06Z</time>
      </trkpt>
      <trkpt lat="49.29676" lon="-0.30331">
        <ele>5</ele>
        <time>2021-04-18T12:24:08Z</time>
      </trkpt>
      <trkpt lat="49.29675" lon="-0.30333">
        <ele>5</ele>
        <time>2021-04-18T12:24:09Z</time>
      </trkpt>
      <trkpt lat="49.29674" lon="-0.30335">
        <ele>5</ele>
        <time>2021-04-18T12:24:10Z</time>
      </trkpt>
      <trkpt lat="49.29672" lon="-0.30336">
        <ele>5</ele>
        <time>2021-04-18T12:24:12Z</time>
      </trkpt>
      <trkpt lat="49.29671" lon="-0.30337">
        <ele>5</ele>
        <time>2021-04-18T12:24:13Z</time>
      </trkpt>
      <trkpt lat="49.29668" lon="-0.30341">
        <ele>4.9</ele>
        <time>2021-04-18T12:24:15Z</time>
      </trkpt>
      <trkpt lat="49.29666" lon="-0.30342">
        <ele>4.9</ele>
        <time>2021-04-18T12:24:16Z</time>
      </trkpt>
      <trkpt lat="49.29663" lon="-0.30345">
        <ele>4.9</ele>
        <time>2021-04-18T12:24:18Z</time>
      </trkpt>
      <trkpt lat="49.29662" lon="-0.30346">
        <ele>4.9</ele>
        <time>2021-04-18T12:24:19Z</time>
      </trkpt>
      <trkpt lat="49.2966" lon="-0.30348">
        <ele>4.9</ele>
        <time>2021-04-18T12:24:20Z</time>
      </trkpt>
      <trkpt lat="49.29657" lon="-0.30351">
        <ele>4.9</ele>
        <time>2021-04-18T12:24:22Z</time>
      </trkpt>
      <trkpt lat="49.29656" lon="-0.30351">
        <ele>4.8</ele>
        <time>2021-04-18T12:24:23Z</time>
      </trkpt>
      <trkpt lat="49.29652" lon="-0.30356">
        <ele>4.8</ele>
        <time>2021-04-18T12:24:25Z</time>
      </trkpt>
      <trkpt lat="49.29651" lon="-0.30357">
        <ele>4.8</ele>
        <time>2021-04-18T12:24:26Z</time>
      </trkpt>
      <trkpt lat="49.2965" lon="-0.30358">
        <ele>4.8</ele>
        <time>2021-04-18T12:24:27Z</time>
      </trkpt>
      <trkpt lat="49.29647" lon="-0.3036">
        <ele>4.8</ele>
        <time>2021-04-18T12:24:28Z</time>
      </trkpt>
      <trkpt lat="49.29643" lon="-0.30363">
        <ele>4.8</ele>
        <time>2021-04-18T12:24:30Z</time>
      </trkpt>
      <trkpt lat="49.29642" lon="-0.30364">
        <ele>4.8</ele>
        <time>2021-04-18T12:24:31Z</time>
      </trkpt>
      <trkpt lat="49.2964" lon="-0.30366">
        <ele>4.8</ele>
        <time>2021-04-18T12:24:32Z</time>
      </trkpt>
      <trkpt lat="49.29638" lon="-0.30367">
        <ele>4.7</ele>
        <time>2021-04-18T12:24:33Z</time>
      </trkpt>
      <trkpt lat="49.29636" lon="-0.30369">
        <ele>4.7</ele>
        <time>2021-04-18T12:24:35Z</time>
      </trkpt>
      <trkpt lat="49.29633" lon="-0.30371">
        <ele>4.7</ele>
        <time>2021-04-18T12:24:37Z</time>
      </trkpt>
      <trkpt lat="49.29631" lon="-0.30373">
        <ele>4.7</ele>
        <time>2021-04-18T12:24:38Z</time>
      </trkpt>
      <trkpt lat="49.29628" lon="-0.30375">
        <ele>4.7</ele>
        <time>2021-04-18T12:24:40Z</time>
      </trkpt>
      <trkpt lat="49.29625" lon="-0.30377">
        <ele>4.7</ele>
        <time>2021-04-18T12:24:41Z</time>
      </trkpt>
      <trkpt lat="49.29624" lon="-0.30378">
        <ele>4.7</ele>
        <time>2021-04-18T12:24:42Z</time>
      </trkpt>
      <trkpt lat="49.29623" lon="-0.3038">
        <ele>4.7</ele>
        <time>2021-04-18T12:24:43Z</time>
      </trkpt>
      <trkpt lat="49.2962" lon="-0.30382">
        <ele>4.7</ele>
        <time>2021-04-18T12:24:45Z</time>
      </trkpt>
      <trkpt lat="49.29617" lon="-0.30384">
        <ele>4.7</ele>
        <time>2021-04-18T12:24:46Z</time>
      </trkpt>
      <trkpt lat="49.29616" lon="-0.30385">
        <ele>4.7</ele>
        <time>2021-04-18T12:24:47Z</time>
      </trkpt>
      <trkpt lat="49.29613" lon="-0.30387">
        <ele>4.7</ele>
        <time>2021-04-18T12:24:49Z</time>
      </trkpt>
      <trkpt lat="49.29612" lon="-0.30387">
        <ele>4.7</ele>
        <time>2021-04-18T12:24:50Z</time>
      </trkpt>
      <trkpt lat="49.29607" lon="-0.3039">
        <ele>4.6</ele>
        <time>2021-04-18T12:24:52Z</time>
      </trkpt>
      <trkpt lat="49.29606" lon="-0.30391">
        <ele>4.6</ele>
        <time>2021-04-18T12:24:53Z</time>
      </trkpt>
      <trkpt lat="49.29605" lon="-0.30391">
        <ele>4.6</ele>
        <time>2021-04-18T12:24:54Z</time>
      </trkpt>
      <trkpt lat="49.296" lon="-0.30394">
        <ele>4.6</ele>
        <time>2021-04-18T12:24:56Z</time>
      </trkpt>
      <trkpt lat="49.29599" lon="-0.30395">
        <ele>4.6</ele>
        <time>2021-04-18T12:24:57Z</time>
      </trkpt>
      <trkpt lat="49.29597" lon="-0.30396">
        <ele>4.6</ele>
        <time>2021-04-18T12:24:58Z</time>
      </trkpt>
      <trkpt lat="49.29595" lon="-0.30398">
        <ele>4.6</ele>
        <time>2021-04-18T12:25:00Z</time>
      </trkpt>
      <trkpt lat="49.29594" lon="-0.30398">
        <ele>4.6</ele>
        <time>2021-04-18T12:25:01Z</time>
      </trkpt>
      <trkpt lat="49.29592" lon="-0.30399">
        <ele>4.6</ele>
        <time>2021-04-18T12:25:02Z</time>
      </trkpt>
      <trkpt lat="49.2959" lon="-0.30401">
        <ele>4.6</ele>
        <time>2021-04-18T12:25:04Z</time>
      </trkpt>
      <trkpt lat="49.29588" lon="-0.30403">
        <ele>4.6</ele>
        <time>2021-04-18T12:25:05Z</time>
      </trkpt>
      <trkpt lat="49.29587" lon="-0.30403">
        <ele>4.6</ele>
        <time>2021-04-18T12:25:06Z</time>
      </trkpt>
      <trkpt lat="49.29584" lon="-0.30405">
        <ele>4.6</ele>
        <time>2021-04-18T12:25:07Z</time>
      </trkpt>
      <trkpt lat="49.29583" lon="-0.30406">
        <ele>4.6</ele>
        <time>2021-04-18T12:25:09Z</time>
      </trkpt>
      <trkpt lat="49.2958" lon="-0.30408">
        <ele>4.6</ele>
        <time>2021-04-18T12:25:10Z</time>
      </trkpt>
      <trkpt lat="49.29579" lon="-0.30409">
        <ele>4.6</ele>
        <time>2021-04-18T12:25:11Z</time>
      </trkpt>
      <trkpt lat="49.29576" lon="-0.30411">
        <ele>4.6</ele>
        <time>2021-04-18T12:25:13Z</time>
      </trkpt>
      <trkpt lat="49.29575" lon="-0.30412">
        <ele>4.6</ele>
        <time>2021-04-18T12:25:14Z</time>
      </trkpt>
      <trkpt lat="49.29573" lon="-0.30413">
        <ele>4.6</ele>
        <time>2021-04-18T12:25:15Z</time>
      </trkpt>
      <trkpt lat="49.29572" lon="-0.30414">
        <ele>4.6</ele>
        <time>2021-04-18T12:25:17Z</time>
      </trkpt>
      <trkpt lat="49.29569" lon="-0.30416">
        <ele>4.6</ele>
        <time>2021-04-18T12:25:18Z</time>
      </trkpt>
      <trkpt lat="49.29568" lon="-0.30417">
        <ele>4.6</ele>
        <time>2021-04-18T12:25:19Z</time>
      </trkpt>
      <trkpt lat="49.29567" lon="-0.30417">
        <ele>4.6</ele>
        <time>2021-04-18T12:25:20Z</time>
      </trkpt>
      <trkpt lat="49.29564" lon="-0.30418">
        <ele>4.6</ele>
        <time>2021-04-18T12:25:22Z</time>
      </trkpt>
      <trkpt lat="49.29563" lon="-0.30419">
        <ele>4.6</ele>
        <time>2021-04-18T12:25:23Z</time>
      </trkpt>
      <trkpt lat="49.29561" lon="-0.3042">
        <ele>4.6</ele>
        <time>2021-04-18T12:25:24Z</time>
      </trkpt>
      <trkpt lat="49.29559" lon="-0.3042">
        <ele>4.6</ele>
        <time>2021-04-18T12:25:25Z</time>
      </trkpt>
      <trkpt lat="49.29557" lon="-0.30421">
        <ele>4.5</ele>
        <time>2021-04-18T12:25:26Z</time>
      </trkpt>
      <trkpt lat="49.29555" lon="-0.30422">
        <ele>4.5</ele>
        <time>2021-04-18T12:25:28Z</time>
      </trkpt>
      <trkpt lat="49.29553" lon="-0.30423">
        <ele>4.5</ele>
        <time>2021-04-18T12:25:29Z</time>
      </trkpt>
      <trkpt lat="49.2955" lon="-0.30423">
        <ele>4.5</ele>
        <time>2021-04-18T12:25:31Z</time>
      </trkpt>
      <trkpt lat="49.29547" lon="-0.30425">
        <ele>4.5</ele>
        <time>2021-04-18T12:25:32Z</time>
      </trkpt>
      <trkpt lat="49.29546" lon="-0.30425">
        <ele>4.5</ele>
        <time>2021-04-18T12:25:33Z</time>
      </trkpt>
      <trkpt lat="49.2954" lon="-0.30428">
        <ele>4.5</ele>
        <time>2021-04-18T12:25:36Z</time>
      </trkpt>
      <trkpt lat="49.29539" lon="-0.30429">
        <ele>4.5</ele>
        <time>2021-04-18T12:25:37Z</time>
      </trkpt>
      <trkpt lat="49.29537" lon="-0.30429">
        <ele>4.5</ele>
        <time>2021-04-18T12:25:38Z</time>
      </trkpt>
      <trkpt lat="49.29534" lon="-0.30431">
        <ele>4.5</ele>
        <time>2021-04-18T12:25:40Z</time>
      </trkpt>
      <trkpt lat="49.29533" lon="-0.30432">
        <ele>4.5</ele>
        <time>2021-04-18T12:25:41Z</time>
      </trkpt>
      <trkpt lat="49.2953" lon="-0.30433">
        <ele>4.5</ele>
        <time>2021-04-18T12:25:42Z</time>
      </trkpt>
      <trkpt lat="49.29529" lon="-0.30434">
        <ele>4.5</ele>
        <time>2021-04-18T12:25:43Z</time>
      </trkpt>
      <trkpt lat="49.29527" lon="-0.30436">
        <ele>4.5</ele>
        <time>2021-04-18T12:25:45Z</time>
      </trkpt>
      <trkpt lat="49.29526" lon="-0.30436">
        <ele>4.5</ele>
        <time>2021-04-18T12:25:46Z</time>
      </trkpt>
      <trkpt lat="49.29523" lon="-0.30438">
        <ele>4.5</ele>
        <time>2021-04-18T12:25:47Z</time>
      </trkpt>
      <trkpt lat="49.29522" lon="-0.30439">
        <ele>4.5</ele>
        <time>2021-04-18T12:25:48Z</time>
      </trkpt>
      <trkpt lat="49.29519" lon="-0.3044">
        <ele>4.5</ele>
        <time>2021-04-18T12:25:50Z</time>
      </trkpt>
      <trkpt lat="49.29518" lon="-0.30441">
        <ele>4.5</ele>
        <time>2021-04-18T12:25:51Z</time>
      </trkpt>
      <trkpt lat="49.29515" lon="-0.30443">
        <ele>4.4</ele>
        <time>2021-04-18T12:25:53Z</time>
      </trkpt>
      <trkpt lat="49.29514" lon="-0.30444">
        <ele>4.4</ele>
        <time>2021-04-18T12:25:54Z</time>
      </trkpt>
      <trkpt lat="49.29512" lon="-0.30445">
        <ele>4.4</ele>
        <time>2021-04-18T12:25:55Z</time>
      </trkpt>
      <trkpt lat="49.2951" lon="-0.30446">
        <ele>4.4</ele>
        <time>2021-04-18T12:25:57Z</time>
      </trkpt>
      <trkpt lat="49.29507" lon="-0.30447">
        <ele>4.4</ele>
        <time>2021-04-18T12:25:58Z</time>
      </trkpt>
      <trkpt lat="49.29506" lon="-0.30448">
        <ele>4.4</ele>
        <time>2021-04-18T12:25:59Z</time>
      </trkpt>
      <trkpt lat="49.29505" lon="-0.30449">
        <ele>4.4</ele>
        <time>2021-04-18T12:26:00Z</time>
      </trkpt>
      <trkpt lat="49.29502" lon="-0.30451">
        <ele>4.4</ele>
        <time>2021-04-18T12:26:02Z</time>
      </trkpt>
      <trkpt lat="49.29498" lon="-0.30453">
        <ele>4.4</ele>
        <time>2021-04-18T12:26:04Z</time>
      </trkpt>
      <trkpt lat="49.29497" lon="-0.30454">
        <ele>4.4</ele>
        <time>2021-04-18T12:26:05Z</time>
      </trkpt>
      <trkpt lat="49.29495" lon="-0.30454">
        <ele>4.4</ele>
        <time>2021-04-18T12:26:06Z</time>
      </trkpt>
      <trkpt lat="49.29493" lon="-0.30455">
        <ele>4.4</ele>
        <time>2021-04-18T12:26:07Z</time>
      </trkpt>
      <trkpt lat="49.29491" lon="-0.30456">
        <ele>4.4</ele>
        <time>2021-04-18T12:26:09Z</time>
      </trkpt>
      <trkpt lat="49.29488" lon="-0.30457">
        <ele>4.4</ele>
        <time>2021-04-18T12:26:10Z</time>
      </trkpt>
      <trkpt lat="49.29486" lon="-0.30457">
        <ele>4.4</ele>
        <time>2021-04-18T12:26:11Z</time>
      </trkpt>
      <trkpt lat="49.29483" lon="-0.30459">
        <ele>4.4</ele>
        <time>2021-04-18T12:26:13Z</time>
      </trkpt>
      <trkpt lat="49.29482" lon="-0.30459">
        <ele>4.4</ele>
        <time>2021-04-18T12:26:14Z</time>
      </trkpt>
      <trkpt lat="49.29478" lon="-0.3046">
        <ele>4.4</ele>
        <time>2021-04-18T12:26:16Z</time>
      </trkpt>
      <trkpt lat="49.29478" lon="-0.3046">
        <ele>4.4</ele>
        <time>2021-04-18T12:26:17Z</time>
      </trkpt>
      <trkpt lat="49.29476" lon="-0.30461">
        <ele>4.4</ele>
        <time>2021-04-18T12:26:18Z</time>
      </trkpt>
      <trkpt lat="49.29474" lon="-0.30461">
        <ele>4.4</ele>
        <time>2021-04-18T12:26:19Z</time>
      </trkpt>
      <trkpt lat="49.29471" lon="-0.3046">
        <ele>4.4</ele>
        <time>2021-04-18T12:26:21Z</time>
      </trkpt>
      <trkpt lat="49.29469" lon="-0.30459">
        <ele>4.4</ele>
        <time>2021-04-18T12:26:22Z</time>
      </trkpt>
      <trkpt lat="49.29468" lon="-0.30458">
        <ele>4.4</ele>
        <time>2021-04-18T12:26:23Z</time>
      </trkpt>
      <trkpt lat="49.29464" lon="-0.30455">
        <ele>4.5</ele>
        <time>2021-04-18T12:26:25Z</time>
      </trkpt>
      <trkpt lat="49.29463" lon="-0.30453">
        <ele>4.4</ele>
        <time>2021-04-18T12:26:26Z</time>
      </trkpt>
      <trkpt lat="49.2946" lon="-0.3045">
        <ele>4.4</ele>
        <time>2021-04-18T12:26:27Z</time>
      </trkpt>
      <trkpt lat="49.29459" lon="-0.3045">
        <ele>4.4</ele>
        <time>2021-04-18T12:26:28Z</time>
      </trkpt>
      <trkpt lat="49.29457" lon="-0.30447">
        <ele>4.4</ele>
        <time>2021-04-18T12:26:30Z</time>
      </trkpt>
      <trkpt lat="49.29456" lon="-0.30444">
        <ele>4.3</ele>
        <time>2021-04-18T12:26:31Z</time>
      </trkpt>
      <trkpt lat="49.29454" lon="-0.30441">
        <ele>4.3</ele>
        <time>2021-04-18T12:26:33Z</time>
      </trkpt>
      <trkpt lat="49.29451" lon="-0.30437">
        <ele>4.3</ele>
        <time>2021-04-18T12:26:34Z</time>
      </trkpt>
      <trkpt lat="49.29451" lon="-0.30436">
        <ele>4.3</ele>
        <time>2021-04-18T12:26:35Z</time>
      </trkpt>
      <trkpt lat="49.29448" lon="-0.30432">
        <ele>4.2</ele>
        <time>2021-04-18T12:26:36Z</time>
      </trkpt>
      <trkpt lat="49.29447" lon="-0.30431">
        <ele>4.2</ele>
        <time>2021-04-18T12:26:37Z</time>
      </trkpt>
      <trkpt lat="49.29443" lon="-0.30427">
        <ele>4.2</ele>
        <time>2021-04-18T12:26:39Z</time>
      </trkpt>
      <trkpt lat="49.29442" lon="-0.30426">
        <ele>4.1</ele>
        <time>2021-04-18T12:26:40Z</time>
      </trkpt>
      <trkpt lat="49.29441" lon="-0.30425">
        <ele>4.1</ele>
        <time>2021-04-18T12:26:41Z</time>
      </trkpt>
      <trkpt lat="49.29439" lon="-0.30422">
        <ele>4.1</ele>
        <time>2021-04-18T12:26:42Z</time>
      </trkpt>
      <trkpt lat="49.29437" lon="-0.30419">
        <ele>4.1</ele>
        <time>2021-04-18T12:26:44Z</time>
      </trkpt>
      <trkpt lat="49.29434" lon="-0.30416">
        <ele>4</ele>
        <time>2021-04-18T12:26:46Z</time>
      </trkpt>
      <trkpt lat="49.29432" lon="-0.30412">
        <ele>4</ele>
        <time>2021-04-18T12:26:47Z</time>
      </trkpt>
      <trkpt lat="49.29431" lon="-0.30411">
        <ele>4</ele>
        <time>2021-04-18T12:26:48Z</time>
      </trkpt>
      <trkpt lat="49.29429" lon="-0.30408">
        <ele>4</ele>
        <time>2021-04-18T12:26:49Z</time>
      </trkpt>
      <trkpt lat="49.29427" lon="-0.30405">
        <ele>4</ele>
        <time>2021-04-18T12:26:51Z</time>
      </trkpt>
      <trkpt lat="49.29425" lon="-0.30402">
        <ele>4</ele>
        <time>2021-04-18T12:26:52Z</time>
      </trkpt>
      <trkpt lat="49.29424" lon="-0.30401">
        <ele>4</ele>
        <time>2021-04-18T12:26:53Z</time>
      </trkpt>
      <trkpt lat="49.29422" lon="-0.30396">
        <ele>3.9</ele>
        <time>2021-04-18T12:26:55Z</time>
      </trkpt>
      <trkpt lat="49.2942" lon="-0.30394">
        <ele>3.9</ele>
        <time>2021-04-18T12:26:56Z</time>
      </trkpt>
      <trkpt lat="49.29419" lon="-0.30391">
        <ele>3.9</ele>
        <time>2021-04-18T12:26:58Z</time>
      </trkpt>
      <trkpt lat="49.29416" lon="-0.30388">
        <ele>3.9</ele>
        <time>2021-04-18T12:26:59Z</time>
      </trkpt>
      <trkpt lat="49.29416" lon="-0.30387">
        <ele>3.9</ele>
        <time>2021-04-18T12:27:00Z</time>
      </trkpt>
      <trkpt lat="49.29414" lon="-0.30383">
        <ele>3.9</ele>
        <time>2021-04-18T12:27:02Z</time>
      </trkpt>
      <trkpt lat="49.29413" lon="-0.30381">
        <ele>3.9</ele>
        <time>2021-04-18T12:27:03Z</time>
      </trkpt>
      <trkpt lat="49.29412" lon="-0.30379">
        <ele>3.9</ele>
        <time>2021-04-18T12:27:04Z</time>
      </trkpt>
      <trkpt lat="49.29411" lon="-0.30377">
        <ele>3.9</ele>
        <time>2021-04-18T12:27:05Z</time>
      </trkpt>
      <trkpt lat="49.2941" lon="-0.30373">
        <ele>3.9</ele>
        <time>2021-04-18T12:27:06Z</time>
      </trkpt>
      <trkpt lat="49.29408" lon="-0.30368">
        <ele>3.9</ele>
        <time>2021-04-18T12:27:08Z</time>
      </trkpt>
      <trkpt lat="49.29406" lon="-0.30365">
        <ele>3.9</ele>
        <time>2021-04-18T12:27:09Z</time>
      </trkpt>
      <trkpt lat="49.29404" lon="-0.30358">
        <ele>3.9</ele>
        <time>2021-04-18T12:27:11Z</time>
      </trkpt>
      <trkpt lat="49.29404" lon="-0.30356">
        <ele>3.9</ele>
        <time>2021-04-18T12:27:12Z</time>
      </trkpt>
      <trkpt lat="49.29403" lon="-0.30353">
        <ele>3.9</ele>
        <time>2021-04-18T12:27:13Z</time>
      </trkpt>
      <trkpt lat="49.29402" lon="-0.30349">
        <ele>3.9</ele>
        <time>2021-04-18T12:27:15Z</time>
      </trkpt>
      <trkpt lat="49.29401" lon="-0.30347">
        <ele>3.9</ele>
        <time>2021-04-18T12:27:16Z</time>
      </trkpt>
      <trkpt lat="49.29401" lon="-0.30345">
        <ele>3.9</ele>
        <time>2021-04-18T12:27:17Z</time>
      </trkpt>
      <trkpt lat="49.294" lon="-0.30342">
        <ele>4</ele>
        <time>2021-04-18T12:27:18Z</time>
      </trkpt>
      <trkpt lat="49.29399" lon="-0.3034">
        <ele>4</ele>
        <time>2021-04-18T12:27:19Z</time>
      </trkpt>
      <trkpt lat="49.29397" lon="-0.30337">
        <ele>4</ele>
        <time>2021-04-18T12:27:21Z</time>
      </trkpt>
      <trkpt lat="49.29397" lon="-0.30336">
        <ele>4</ele>
        <time>2021-04-18T12:27:22Z</time>
      </trkpt>
      <trkpt lat="49.29396" lon="-0.30334">
        <ele>4</ele>
        <time>2021-04-18T12:27:23Z</time>
      </trkpt>
      <trkpt lat="49.29396" lon="-0.30331">
        <ele>4</ele>
        <time>2021-04-18T12:27:25Z</time>
      </trkpt>
      <trkpt lat="49.29397" lon="-0.30329">
        <ele>4</ele>
        <time>2021-04-18T12:27:27Z</time>
      </trkpt>
      <trkpt lat="49.29398" lon="-0.30328">
        <ele>4</ele>
        <time>2021-04-18T12:27:28Z</time>
      </trkpt>
      <trkpt lat="49.29399" lon="-0.30326">
        <ele>4</ele>
        <time>2021-04-18T12:27:30Z</time>
      </trkpt>
      <trkpt lat="49.29398" lon="-0.30323">
        <ele>4.1</ele>
        <time>2021-04-18T12:27:32Z</time>
      </trkpt>
      <trkpt lat="49.29398" lon="-0.30322">
        <ele>4.1</ele>
        <time>2021-04-18T12:27:33Z</time>
      </trkpt>
      <trkpt lat="49.29397" lon="-0.30319">
        <ele>4.1</ele>
        <time>2021-04-18T12:27:35Z</time>
      </trkpt>
      <trkpt lat="49.29396" lon="-0.30318">
        <ele>4.1</ele>
        <time>2021-04-18T12:27:36Z</time>
      </trkpt>
      <trkpt lat="49.29395" lon="-0.30316">
        <ele>4.1</ele>
        <time>2021-04-18T12:27:38Z</time>
      </trkpt>
      <trkpt lat="49.29395" lon="-0.30317">
        <ele>4.1</ele>
        <time>2021-04-18T12:27:39Z</time>
      </trkpt>
      <trkpt lat="49.29395" lon="-0.30319">
        <ele>4.1</ele>
        <time>2021-04-18T12:27:42Z</time>
      </trkpt>
      <trkpt lat="49.29395" lon="-0.30319">
        <ele>4.1</ele>
        <time>2021-04-18T12:27:43Z</time>
      </trkpt>
      <trkpt lat="49.29395" lon="-0.30319">
        <ele>4.1</ele>
        <time>2021-04-18T12:27:45Z</time>
      </trkpt>
      <trkpt lat="49.29394" lon="-0.3032">
        <ele>4.1</ele>
        <time>2021-04-18T12:27:47Z</time>
      </trkpt>
      <trkpt lat="49.29394" lon="-0.3032">
        <ele>4.1</ele>
        <time>2021-04-18T12:27:48Z</time>
      </trkpt>
      <trkpt lat="49.29394" lon="-0.3032">
        <ele>4.1</ele>
        <time>2021-04-18T12:27:49Z</time>
      </trkpt>
      <trkpt lat="49.29394" lon="-0.3032">
        <ele>4.1</ele>
        <time>2021-04-18T12:27:51Z</time>
      </trkpt>
      <trkpt lat="49.29394" lon="-0.3032">
        <ele>4.1</ele>
        <time>2021-04-18T12:27:52Z</time>
      </trkpt>
      <trkpt lat="49.29394" lon="-0.3032">
        <ele>4.1</ele>
        <time>2021-04-18T12:27:54Z</time>
      </trkpt>
      <trkpt lat="49.29394" lon="-0.3032">
        <ele>4.1</ele>
        <time>2021-04-18T12:27:55Z</time>
      </trkpt>
      <trkpt lat="49.29394" lon="-0.30319">
        <ele>4.1</ele>
        <time>2021-04-18T12:27:56Z</time>
      </trkpt>
      <trkpt lat="49.29394" lon="-0.30317">
        <ele>4.1</ele>
        <time>2021-04-18T12:27:57Z</time>
      </trkpt>
      <trkpt lat="49.29395" lon="-0.30317">
        <ele>4.1</ele>
        <time>2021-04-18T12:27:59Z</time>
      </trkpt>
      <trkpt lat="49.29399" lon="-0.30324">
        <ele>4.2</ele>
        <time>2021-04-18T12:28:01Z</time>
      </trkpt>
      <trkpt lat="49.294" lon="-0.30325">
        <ele>4.2</ele>
        <time>2021-04-18T12:28:02Z</time>
      </trkpt>
      <trkpt lat="49.29399" lon="-0.30328">
        <ele>4.2</ele>
        <time>2021-04-18T12:28:04Z</time>
      </trkpt>
      <trkpt lat="49.29398" lon="-0.30329">
        <ele>4.2</ele>
        <time>2021-04-18T12:28:05Z</time>
      </trkpt>
      <trkpt lat="49.29395" lon="-0.30334">
        <ele>4.2</ele>
        <time>2021-04-18T12:28:07Z</time>
      </trkpt>
      <trkpt lat="49.29394" lon="-0.30335">
        <ele>4.2</ele>
        <time>2021-04-18T12:28:08Z</time>
      </trkpt>
      <trkpt lat="49.29391" lon="-0.30339">
        <ele>4.2</ele>
        <time>2021-04-18T12:28:10Z</time>
      </trkpt>
      <trkpt lat="49.29388" lon="-0.3034">
        <ele>4.2</ele>
        <time>2021-04-18T12:28:12Z</time>
      </trkpt>
      <trkpt lat="49.29386" lon="-0.30341">
        <ele>4.2</ele>
        <time>2021-04-18T12:28:13Z</time>
      </trkpt>
      <trkpt lat="49.29384" lon="-0.30343">
        <ele>4.2</ele>
        <time>2021-04-18T12:28:15Z</time>
      </trkpt>
      <trkpt lat="49.29382" lon="-0.30344">
        <ele>4.2</ele>
        <time>2021-04-18T12:28:16Z</time>
      </trkpt>
      <trkpt lat="49.2938" lon="-0.30345">
        <ele>4.3</ele>
        <time>2021-04-18T12:28:17Z</time>
      </trkpt>
      <trkpt lat="49.29378" lon="-0.30346">
        <ele>4.3</ele>
        <time>2021-04-18T12:28:18Z</time>
      </trkpt>
      <trkpt lat="49.29376" lon="-0.30347">
        <ele>4.3</ele>
        <time>2021-04-18T12:28:20Z</time>
      </trkpt>
      <trkpt lat="49.29372" lon="-0.30349">
        <ele>4.3</ele>
        <time>2021-04-18T12:28:21Z</time>
      </trkpt>
      <trkpt lat="49.29371" lon="-0.30349">
        <ele>4.3</ele>
        <time>2021-04-18T12:28:22Z</time>
      </trkpt>
      <trkpt lat="49.29367" lon="-0.30351">
        <ele>4.3</ele>
        <time>2021-04-18T12:28:23Z</time>
      </trkpt>
      <trkpt lat="49.29365" lon="-0.30352">
        <ele>4.3</ele>
        <time>2021-04-18T12:28:24Z</time>
      </trkpt>
      <trkpt lat="49.29362" lon="-0.30354">
        <ele>4.3</ele>
        <time>2021-04-18T12:28:26Z</time>
      </trkpt>
      <trkpt lat="49.29359" lon="-0.30356">
        <ele>4.3</ele>
        <time>2021-04-18T12:28:27Z</time>
      </trkpt>
      <trkpt lat="49.29355" lon="-0.30358">
        <ele>4.3</ele>
        <time>2021-04-18T12:28:29Z</time>
      </trkpt>
      <trkpt lat="49.29352" lon="-0.30359">
        <ele>4.3</ele>
        <time>2021-04-18T12:28:30Z</time>
      </trkpt>
      <trkpt lat="49.29349" lon="-0.30361">
        <ele>4.3</ele>
        <time>2021-04-18T12:28:32Z</time>
      </trkpt>
      <trkpt lat="49.29347" lon="-0.30362">
        <ele>4.3</ele>
        <time>2021-04-18T12:28:33Z</time>
      </trkpt>
      <trkpt lat="49.29343" lon="-0.30364">
        <ele>4.3</ele>
        <time>2021-04-18T12:28:35Z</time>
      </trkpt>
      <trkpt lat="49.29341" lon="-0.30366">
        <ele>4.3</ele>
        <time>2021-04-18T12:28:36Z</time>
      </trkpt>
      <trkpt lat="49.2934" lon="-0.30366">
        <ele>4.3</ele>
        <time>2021-04-18T12:28:37Z</time>
      </trkpt>
      <trkpt lat="49.29335" lon="-0.30368">
        <ele>4.2</ele>
        <time>2021-04-18T12:28:39Z</time>
      </trkpt>
      <trkpt lat="49.29334" lon="-0.30369">
        <ele>4.2</ele>
        <time>2021-04-18T12:28:40Z</time>
      </trkpt>
      <trkpt lat="49.29332" lon="-0.3037">
        <ele>4.2</ele>
        <time>2021-04-18T12:28:41Z</time>
      </trkpt>
      <trkpt lat="49.29329" lon="-0.30372">
        <ele>4.2</ele>
        <time>2021-04-18T12:28:43Z</time>
      </trkpt>
      <trkpt lat="49.29328" lon="-0.30373">
        <ele>4.2</ele>
        <time>2021-04-18T12:28:44Z</time>
      </trkpt>
      <trkpt lat="49.29325" lon="-0.30374">
        <ele>4.2</ele>
        <time>2021-04-18T12:28:46Z</time>
      </trkpt>
      <trkpt lat="49.29323" lon="-0.30376">
        <ele>4.3</ele>
        <time>2021-04-18T12:28:47Z</time>
      </trkpt>
      <trkpt lat="49.29321" lon="-0.30377">
        <ele>4.3</ele>
        <time>2021-04-18T12:28:49Z</time>
      </trkpt>
      <trkpt lat="49.29319" lon="-0.30378">
        <ele>4.3</ele>
        <time>2021-04-18T12:28:50Z</time>
      </trkpt>
      <trkpt lat="49.29318" lon="-0.30379">
        <ele>4.3</ele>
        <time>2021-04-18T12:28:51Z</time>
      </trkpt>
      <trkpt lat="49.29315" lon="-0.30381">
        <ele>4.3</ele>
        <time>2021-04-18T12:28:53Z</time>
      </trkpt>
      <trkpt lat="49.29314" lon="-0.30381">
        <ele>4.3</ele>
        <time>2021-04-18T12:28:54Z</time>
      </trkpt>
      <trkpt lat="49.29313" lon="-0.30382">
        <ele>4.3</ele>
        <time>2021-04-18T12:28:55Z</time>
      </trkpt>
      <trkpt lat="49.29311" lon="-0.30382">
        <ele>4.3</ele>
        <time>2021-04-18T12:28:56Z</time>
      </trkpt>
      <trkpt lat="49.2931" lon="-0.30384">
        <ele>4.3</ele>
        <time>2021-04-18T12:28:57Z</time>
      </trkpt>
      <trkpt lat="49.29308" lon="-0.30385">
        <ele>4.4</ele>
        <time>2021-04-18T12:28:59Z</time>
      </trkpt>
      <trkpt lat="49.29306" lon="-0.30385">
        <ele>4.4</ele>
        <time>2021-04-18T12:29:00Z</time>
      </trkpt>
      <trkpt lat="49.29305" lon="-0.30386">
        <ele>4.4</ele>
        <time>2021-04-18T12:29:01Z</time>
      </trkpt>
      <trkpt lat="49.29303" lon="-0.30388">
        <ele>4.4</ele>
        <time>2021-04-18T12:29:02Z</time>
      </trkpt>
      <trkpt lat="49.29302" lon="-0.30389">
        <ele>4.4</ele>
        <time>2021-04-18T12:29:03Z</time>
      </trkpt>
      <trkpt lat="49.29299" lon="-0.30391">
        <ele>4.4</ele>
        <time>2021-04-18T12:29:05Z</time>
      </trkpt>
      <trkpt lat="49.29298" lon="-0.30391">
        <ele>4.4</ele>
        <time>2021-04-18T12:29:06Z</time>
      </trkpt>
      <trkpt lat="49.29297" lon="-0.30392">
        <ele>4.5</ele>
        <time>2021-04-18T12:29:07Z</time>
      </trkpt>
      <trkpt lat="49.29296" lon="-0.30394">
        <ele>4.5</ele>
        <time>2021-04-18T12:29:08Z</time>
      </trkpt>
      <trkpt lat="49.29294" lon="-0.30396">
        <ele>4.5</ele>
        <time>2021-04-18T12:29:09Z</time>
      </trkpt>
      <trkpt lat="49.29291" lon="-0.30397">
        <ele>4.5</ele>
        <time>2021-04-18T12:29:11Z</time>
      </trkpt>
      <trkpt lat="49.2929" lon="-0.30398">
        <ele>4.5</ele>
        <time>2021-04-18T12:29:12Z</time>
      </trkpt>
      <trkpt lat="49.29288" lon="-0.304">
        <ele>4.5</ele>
        <time>2021-04-18T12:29:14Z</time>
      </trkpt>
      <trkpt lat="49.29285" lon="-0.30402">
        <ele>4.6</ele>
        <time>2021-04-18T12:29:15Z</time>
      </trkpt>
      <trkpt lat="49.29284" lon="-0.30402">
        <ele>4.6</ele>
        <time>2021-04-18T12:29:16Z</time>
      </trkpt>
      <trkpt lat="49.29282" lon="-0.30404">
        <ele>4.6</ele>
        <time>2021-04-18T12:29:17Z</time>
      </trkpt>
      <trkpt lat="49.2928" lon="-0.30405">
        <ele>4.6</ele>
        <time>2021-04-18T12:29:19Z</time>
      </trkpt>
      <trkpt lat="49.29278" lon="-0.30406">
        <ele>4.6</ele>
        <time>2021-04-18T12:29:20Z</time>
      </trkpt>
      <trkpt lat="49.29276" lon="-0.30408">
        <ele>4.6</ele>
        <time>2021-04-18T12:29:22Z</time>
      </trkpt>
      <trkpt lat="49.29274" lon="-0.30409">
        <ele>4.6</ele>
        <time>2021-04-18T12:29:23Z</time>
      </trkpt>
      <trkpt lat="49.29271" lon="-0.30411">
        <ele>4.6</ele>
        <time>2021-04-18T12:29:25Z</time>
      </trkpt>
      <trkpt lat="49.29269" lon="-0.30412">
        <ele>4.6</ele>
        <time>2021-04-18T12:29:27Z</time>
      </trkpt>
      <trkpt lat="49.29266" lon="-0.30414">
        <ele>4.6</ele>
        <time>2021-04-18T12:29:29Z</time>
      </trkpt>
      <trkpt lat="49.29264" lon="-0.30415">
        <ele>4.6</ele>
        <time>2021-04-18T12:29:30Z</time>
      </trkpt>
      <trkpt lat="49.29261" lon="-0.30416">
        <ele>4.6</ele>
        <time>2021-04-18T12:29:32Z</time>
      </trkpt>
      <trkpt lat="49.29258" lon="-0.30418">
        <ele>4.6</ele>
        <time>2021-04-18T12:29:33Z</time>
      </trkpt>
      <trkpt lat="49.29254" lon="-0.30419">
        <ele>4.6</ele>
        <time>2021-04-18T12:29:35Z</time>
      </trkpt>
      <trkpt lat="49.29253" lon="-0.30419">
        <ele>4.6</ele>
        <time>2021-04-18T12:29:36Z</time>
      </trkpt>
      <trkpt lat="49.2925" lon="-0.30419">
        <ele>4.6</ele>
        <time>2021-04-18T12:29:38Z</time>
      </trkpt>
      <trkpt lat="49.29248" lon="-0.30418">
        <ele>4.6</ele>
        <time>2021-04-18T12:29:39Z</time>
      </trkpt>
      <trkpt lat="49.29247" lon="-0.30415">
        <ele>4.6</ele>
        <time>2021-04-18T12:29:41Z</time>
      </trkpt>
      <trkpt lat="49.29245" lon="-0.30413">
        <ele>4.6</ele>
        <time>2021-04-18T12:29:42Z</time>
      </trkpt>
      <trkpt lat="49.29243" lon="-0.3041">
        <ele>4.6</ele>
        <time>2021-04-18T12:29:44Z</time>
      </trkpt>
      <trkpt lat="49.29242" lon="-0.30408">
        <ele>4.6</ele>
        <time>2021-04-18T12:29:45Z</time>
      </trkpt>
      <trkpt lat="49.2924" lon="-0.30405">
        <ele>4.6</ele>
        <time>2021-04-18T12:29:47Z</time>
      </trkpt>
      <trkpt lat="49.29239" lon="-0.30403">
        <ele>4.6</ele>
        <time>2021-04-18T12:29:48Z</time>
      </trkpt>
      <trkpt lat="49.29237" lon="-0.30399">
        <ele>4.6</ele>
        <time>2021-04-18T12:29:50Z</time>
      </trkpt>
      <trkpt lat="49.29235" lon="-0.30395">
        <ele>4.6</ele>
        <time>2021-04-18T12:29:51Z</time>
      </trkpt>
      <trkpt lat="49.29233" lon="-0.30391">
        <ele>4.6</ele>
        <time>2021-04-18T12:29:53Z</time>
      </trkpt>
      <trkpt lat="49.29232" lon="-0.3039">
        <ele>4.6</ele>
        <time>2021-04-18T12:29:54Z</time>
      </trkpt>
      <trkpt lat="49.29231" lon="-0.30388">
        <ele>4.6</ele>
        <time>2021-04-18T12:29:55Z</time>
      </trkpt>
      <trkpt lat="49.2923" lon="-0.30385">
        <ele>4.6</ele>
        <time>2021-04-18T12:29:56Z</time>
      </trkpt>
      <trkpt lat="49.29228" lon="-0.30382">
        <ele>4.5</ele>
        <time>2021-04-18T12:29:57Z</time>
      </trkpt>
      <trkpt lat="49.29228" lon="-0.30381">
        <ele>4.5</ele>
        <time>2021-04-18T12:29:58Z</time>
      </trkpt>
      <trkpt lat="49.29226" lon="-0.30377">
        <ele>4.5</ele>
        <time>2021-04-18T12:30:00Z</time>
      </trkpt>
      <trkpt lat="49.29225" lon="-0.30376">
        <ele>4.5</ele>
        <time>2021-04-18T12:30:01Z</time>
      </trkpt>
      <trkpt lat="49.29222" lon="-0.30371">
        <ele>4.5</ele>
        <time>2021-04-18T12:30:03Z</time>
      </trkpt>
      <trkpt lat="49.29221" lon="-0.30368">
        <ele>4.5</ele>
        <time>2021-04-18T12:30:04Z</time>
      </trkpt>
      <trkpt lat="49.2922" lon="-0.30366">
        <ele>4.5</ele>
        <time>2021-04-18T12:30:05Z</time>
      </trkpt>
      <trkpt lat="49.29218" lon="-0.3036">
        <ele>4.5</ele>
        <time>2021-04-18T12:30:07Z</time>
      </trkpt>
      <trkpt lat="49.29217" lon="-0.30358">
        <ele>4.5</ele>
        <time>2021-04-18T12:30:08Z</time>
      </trkpt>
      <trkpt lat="49.29216" lon="-0.30356">
        <ele>4.5</ele>
        <time>2021-04-18T12:30:09Z</time>
      </trkpt>
      <trkpt lat="49.29214" lon="-0.30352">
        <ele>4.5</ele>
        <time>2021-04-18T12:30:11Z</time>
      </trkpt>
      <trkpt lat="49.29213" lon="-0.30349">
        <ele>4.5</ele>
        <time>2021-04-18T12:30:12Z</time>
      </trkpt>
      <trkpt lat="49.29211" lon="-0.30345">
        <ele>4.5</ele>
        <time>2021-04-18T12:30:14Z</time>
      </trkpt>
      <trkpt lat="49.2921" lon="-0.30342">
        <ele>4.5</ele>
        <time>2021-04-18T12:30:15Z</time>
      </trkpt>
      <trkpt lat="49.29209" lon="-0.30338">
        <ele>4.4</ele>
        <time>2021-04-18T12:30:17Z</time>
      </trkpt>
      <trkpt lat="49.29206" lon="-0.30334">
        <ele>4.4</ele>
        <time>2021-04-18T12:30:18Z</time>
      </trkpt>
      <trkpt lat="49.29204" lon="-0.30329">
        <ele>4.4</ele>
        <time>2021-04-18T12:30:20Z</time>
      </trkpt>
      <trkpt lat="49.29204" lon="-0.30327">
        <ele>4.4</ele>
        <time>2021-04-18T12:30:21Z</time>
      </trkpt>
      <trkpt lat="49.29202" lon="-0.30321">
        <ele>4.4</ele>
        <time>2021-04-18T12:30:23Z</time>
      </trkpt>
      <trkpt lat="49.29201" lon="-0.30318">
        <ele>4.3</ele>
        <time>2021-04-18T12:30:24Z</time>
      </trkpt>
      <trkpt lat="49.29201" lon="-0.30316">
        <ele>4.3</ele>
        <time>2021-04-18T12:30:25Z</time>
      </trkpt>
      <trkpt lat="49.29199" lon="-0.30311">
        <ele>4.3</ele>
        <time>2021-04-18T12:30:27Z</time>
      </trkpt>
      <trkpt lat="49.29199" lon="-0.3031">
        <ele>4.3</ele>
        <time>2021-04-18T12:30:28Z</time>
      </trkpt>
      <trkpt lat="49.29198" lon="-0.30307">
        <ele>4.3</ele>
        <time>2021-04-18T12:30:29Z</time>
      </trkpt>
      <trkpt lat="49.29196" lon="-0.30303">
        <ele>4.3</ele>
        <time>2021-04-18T12:30:31Z</time>
      </trkpt>
      <trkpt lat="49.29195" lon="-0.30298">
        <ele>4.3</ele>
        <time>2021-04-18T12:30:32Z</time>
      </trkpt>
      <trkpt lat="49.29194" lon="-0.30297">
        <ele>4.3</ele>
        <time>2021-04-18T12:30:33Z</time>
      </trkpt>
      <trkpt lat="49.29192" lon="-0.30292">
        <ele>4.2</ele>
        <time>2021-04-18T12:30:35Z</time>
      </trkpt>
      <trkpt lat="49.29192" lon="-0.30291">
        <ele>4.2</ele>
        <time>2021-04-18T12:30:36Z</time>
      </trkpt>
      <trkpt lat="49.2919" lon="-0.30287">
        <ele>4.2</ele>
        <time>2021-04-18T12:30:38Z</time>
      </trkpt>
      <trkpt lat="49.29189" lon="-0.30285">
        <ele>4.2</ele>
        <time>2021-04-18T12:30:39Z</time>
      </trkpt>
      <trkpt lat="49.29188" lon="-0.30282">
        <ele>4.2</ele>
        <time>2021-04-18T12:30:40Z</time>
      </trkpt>
      <trkpt lat="49.29188" lon="-0.3028">
        <ele>4.2</ele>
        <time>2021-04-18T12:30:41Z</time>
      </trkpt>
      <trkpt lat="49.29187" lon="-0.30278">
        <ele>4.2</ele>
        <time>2021-04-18T12:30:42Z</time>
      </trkpt>
      <trkpt lat="49.29186" lon="-0.30276">
        <ele>4.2</ele>
        <time>2021-04-18T12:30:43Z</time>
      </trkpt>
      <trkpt lat="49.29186" lon="-0.30273">
        <ele>4.2</ele>
        <time>2021-04-18T12:30:45Z</time>
      </trkpt>
      <trkpt lat="49.29185" lon="-0.30271">
        <ele>4.2</ele>
        <time>2021-04-18T12:30:46Z</time>
      </trkpt>
      <trkpt lat="49.29184" lon="-0.30267">
        <ele>4.2</ele>
        <time>2021-04-18T12:30:48Z</time>
      </trkpt>
      <trkpt lat="49.29184" lon="-0.30265">
        <ele>4.2</ele>
        <time>2021-04-18T12:30:50Z</time>
      </trkpt>
      <trkpt lat="49.29183" lon="-0.30264">
        <ele>4.2</ele>
        <time>2021-04-18T12:30:51Z</time>
      </trkpt>
      <trkpt lat="49.29181" lon="-0.30259">
        <ele>4.2</ele>
        <time>2021-04-18T12:30:53Z</time>
      </trkpt>
      <trkpt lat="49.2918" lon="-0.30256">
        <ele>4.3</ele>
        <time>2021-04-18T12:30:54Z</time>
      </trkpt>
      <trkpt lat="49.29178" lon="-0.30251">
        <ele>4.3</ele>
        <time>2021-04-18T12:30:56Z</time>
      </trkpt>
      <trkpt lat="49.29177" lon="-0.30247">
        <ele>4.3</ele>
        <time>2021-04-18T12:30:58Z</time>
      </trkpt>
      <trkpt lat="49.29175" lon="-0.30242">
        <ele>4.3</ele>
        <time>2021-04-18T12:31:00Z</time>
      </trkpt>
      <trkpt lat="49.29173" lon="-0.30238">
        <ele>4.3</ele>
        <time>2021-04-18T12:31:02Z</time>
      </trkpt>
      <trkpt lat="49.29172" lon="-0.30235">
        <ele>4.3</ele>
        <time>2021-04-18T12:31:03Z</time>
      </trkpt>
      <trkpt lat="49.29171" lon="-0.30232">
        <ele>4.3</ele>
        <time>2021-04-18T12:31:05Z</time>
      </trkpt>
      <trkpt lat="49.29169" lon="-0.30229">
        <ele>4.3</ele>
        <time>2021-04-18T12:31:06Z</time>
      </trkpt>
      <trkpt lat="49.29169" lon="-0.30228">
        <ele>4.3</ele>
        <time>2021-04-18T12:31:07Z</time>
      </trkpt>
      <trkpt lat="49.29166" lon="-0.30224">
        <ele>4.3</ele>
        <time>2021-04-18T12:31:09Z</time>
      </trkpt>
      <trkpt lat="49.29165" lon="-0.30222">
        <ele>4.3</ele>
        <time>2021-04-18T12:31:10Z</time>
      </trkpt>
      <trkpt lat="49.29164" lon="-0.3022">
        <ele>4.3</ele>
        <time>2021-04-18T12:31:11Z</time>
      </trkpt>
      <trkpt lat="49.29162" lon="-0.30216">
        <ele>4.3</ele>
        <time>2021-04-18T12:31:13Z</time>
      </trkpt>
      <trkpt lat="49.29161" lon="-0.30214">
        <ele>4.3</ele>
        <time>2021-04-18T12:31:14Z</time>
      </trkpt>
      <trkpt lat="49.29159" lon="-0.30209">
        <ele>4.3</ele>
        <time>2021-04-18T12:31:16Z</time>
      </trkpt>
      <trkpt lat="49.29158" lon="-0.30205">
        <ele>4.3</ele>
        <time>2021-04-18T12:31:18Z</time>
      </trkpt>
      <trkpt lat="49.29157" lon="-0.30203">
        <ele>4.3</ele>
        <time>2021-04-18T12:31:19Z</time>
      </trkpt>
      <trkpt lat="49.29156" lon="-0.30201">
        <ele>4.3</ele>
        <time>2021-04-18T12:31:20Z</time>
      </trkpt>
      <trkpt lat="49.29155" lon="-0.30199">
        <ele>4.3</ele>
        <time>2021-04-18T12:31:21Z</time>
      </trkpt>
      <trkpt lat="49.29154" lon="-0.30196">
        <ele>4.3</ele>
        <time>2021-04-18T12:31:23Z</time>
      </trkpt>
      <trkpt lat="49.29152" lon="-0.30194">
        <ele>4.3</ele>
        <time>2021-04-18T12:31:25Z</time>
      </trkpt>
      <trkpt lat="49.29152" lon="-0.30193">
        <ele>4.3</ele>
        <time>2021-04-18T12:31:26Z</time>
      </trkpt>
      <trkpt lat="49.2915" lon="-0.30192">
        <ele>4.3</ele>
        <time>2021-04-18T12:31:28Z</time>
      </trkpt>
      <trkpt lat="49.29149" lon="-0.30191">
        <ele>4.3</ele>
        <time>2021-04-18T12:31:29Z</time>
      </trkpt>
      <trkpt lat="49.29148" lon="-0.30188">
        <ele>4.3</ele>
        <time>2021-04-18T12:31:30Z</time>
      </trkpt>
      <trkpt lat="49.29148" lon="-0.30187">
        <ele>4.3</ele>
        <time>2021-04-18T12:31:32Z</time>
      </trkpt>
      <trkpt lat="49.29147" lon="-0.30186">
        <ele>4.3</ele>
        <time>2021-04-18T12:31:33Z</time>
      </trkpt>
      <trkpt lat="49.29146" lon="-0.30184">
        <ele>4.3</ele>
        <time>2021-04-18T12:31:34Z</time>
      </trkpt>
      <trkpt lat="49.29145" lon="-0.30182">
        <ele>4.3</ele>
        <time>2021-04-18T12:31:36Z</time>
      </trkpt>
      <trkpt lat="49.29144" lon="-0.30182">
        <ele>4.3</ele>
        <time>2021-04-18T12:31:37Z</time>
      </trkpt>
      <trkpt lat="49.29143" lon="-0.3018">
        <ele>4.4</ele>
        <time>2021-04-18T12:31:38Z</time>
      </trkpt>
      <trkpt lat="49.29142" lon="-0.30178">
        <ele>4.4</ele>
        <time>2021-04-18T12:31:40Z</time>
      </trkpt>
      <trkpt lat="49.2914" lon="-0.30176">
        <ele>4.4</ele>
        <time>2021-04-18T12:31:41Z</time>
      </trkpt>
      <trkpt lat="49.29139" lon="-0.30173">
        <ele>4.4</ele>
        <time>2021-04-18T12:31:43Z</time>
      </trkpt>
      <trkpt lat="49.29137" lon="-0.3017">
        <ele>4.4</ele>
        <time>2021-04-18T12:31:44Z</time>
      </trkpt>
      <trkpt lat="49.29137" lon="-0.30168">
        <ele>4.4</ele>
        <time>2021-04-18T12:31:45Z</time>
      </trkpt>
      <trkpt lat="49.29135" lon="-0.30165">
        <ele>4.4</ele>
        <time>2021-04-18T12:31:46Z</time>
      </trkpt>
      <trkpt lat="49.29134" lon="-0.30164">
        <ele>4.5</ele>
        <time>2021-04-18T12:31:47Z</time>
      </trkpt>
      <trkpt lat="49.2913" lon="-0.30163">
        <ele>4.5</ele>
        <time>2021-04-18T12:31:49Z</time>
      </trkpt>
      <trkpt lat="49.29129" lon="-0.30163">
        <ele>4.5</ele>
        <time>2021-04-18T12:31:50Z</time>
      </trkpt>
      <trkpt lat="49.29127" lon="-0.30164">
        <ele>4.5</ele>
        <time>2021-04-18T12:31:51Z</time>
      </trkpt>
      <trkpt lat="49.29124" lon="-0.30165">
        <ele>4.5</ele>
        <time>2021-04-18T12:31:53Z</time>
      </trkpt>
      <trkpt lat="49.29123" lon="-0.30165">
        <ele>4.5</ele>
        <time>2021-04-18T12:31:54Z</time>
      </trkpt>
      <trkpt lat="49.29121" lon="-0.30166">
        <ele>4.5</ele>
        <time>2021-04-18T12:31:56Z</time>
      </trkpt>
      <trkpt lat="49.29121" lon="-0.30166">
        <ele>4.5</ele>
        <time>2021-04-18T12:31:57Z</time>
      </trkpt>
      <trkpt lat="49.2912" lon="-0.30166">
        <ele>4.5</ele>
        <time>2021-04-18T12:31:58Z</time>
      </trkpt>
      <trkpt lat="49.29117" lon="-0.30166">
        <ele>4.5</ele>
        <time>2021-04-18T12:32:00Z</time>
      </trkpt>
      <trkpt lat="49.29116" lon="-0.30166">
        <ele>4.5</ele>
        <time>2021-04-18T12:32:01Z</time>
      </trkpt>
      <trkpt lat="49.29115" lon="-0.30165">
        <ele>4.5</ele>
        <time>2021-04-18T12:32:02Z</time>
      </trkpt>
      <trkpt lat="49.29113" lon="-0.30165">
        <ele>4.5</ele>
        <time>2021-04-18T12:32:04Z</time>
      </trkpt>
      <trkpt lat="49.29111" lon="-0.30167">
        <ele>4.5</ele>
        <time>2021-04-18T12:32:05Z</time>
      </trkpt>
      <trkpt lat="49.2911" lon="-0.30168">
        <ele>4.5</ele>
        <time>2021-04-18T12:32:06Z</time>
      </trkpt>
      <trkpt lat="49.29108" lon="-0.3017">
        <ele>4.5</ele>
        <time>2021-04-18T12:32:08Z</time>
      </trkpt>
      <trkpt lat="49.29106" lon="-0.30172">
        <ele>4.5</ele>
        <time>2021-04-18T12:32:09Z</time>
      </trkpt>
      <trkpt lat="49.29103" lon="-0.30174">
        <ele>4.5</ele>
        <time>2021-04-18T12:32:11Z</time>
      </trkpt>
      <trkpt lat="49.29101" lon="-0.30175">
        <ele>4.5</ele>
        <time>2021-04-18T12:32:12Z</time>
      </trkpt>
      <trkpt lat="49.29099" lon="-0.30177">
        <ele>4.6</ele>
        <time>2021-04-18T12:32:14Z</time>
      </trkpt>
      <trkpt lat="49.29096" lon="-0.3018">
        <ele>4.6</ele>
        <time>2021-04-18T12:32:15Z</time>
      </trkpt>
      <trkpt lat="49.29094" lon="-0.30181">
        <ele>4.6</ele>
        <time>2021-04-18T12:32:16Z</time>
      </trkpt>
      <trkpt lat="49.2909" lon="-0.30185">
        <ele>4.6</ele>
        <time>2021-04-18T12:32:18Z</time>
      </trkpt>
      <trkpt lat="49.29089" lon="-0.30186">
        <ele>4.6</ele>
        <time>2021-04-18T12:32:19Z</time>
      </trkpt>
      <trkpt lat="49.29086" lon="-0.30188">
        <ele>4.7</ele>
        <time>2021-04-18T12:32:21Z</time>
      </trkpt>
      <trkpt lat="49.29082" lon="-0.30192">
        <ele>4.7</ele>
        <time>2021-04-18T12:32:23Z</time>
      </trkpt>
      <trkpt lat="49.2908" lon="-0.30194">
        <ele>4.7</ele>
        <time>2021-04-18T12:32:24Z</time>
      </trkpt>
      <trkpt lat="49.29078" lon="-0.30196">
        <ele>4.7</ele>
        <time>2021-04-18T12:32:26Z</time>
      </trkpt>
      <trkpt lat="49.29075" lon="-0.302">
        <ele>4.8</ele>
        <time>2021-04-18T12:32:27Z</time>
      </trkpt>
      <trkpt lat="49.29073" lon="-0.30201">
        <ele>4.8</ele>
        <time>2021-04-18T12:32:28Z</time>
      </trkpt>
      <trkpt lat="49.2907" lon="-0.30204">
        <ele>4.8</ele>
        <time>2021-04-18T12:32:30Z</time>
      </trkpt>
      <trkpt lat="49.29068" lon="-0.30206">
        <ele>4.8</ele>
        <time>2021-04-18T12:32:31Z</time>
      </trkpt>
      <trkpt lat="49.29066" lon="-0.30209">
        <ele>4.9</ele>
        <time>2021-04-18T12:32:33Z</time>
      </trkpt>
      <trkpt lat="49.29064" lon="-0.3021">
        <ele>4.9</ele>
        <time>2021-04-18T12:32:34Z</time>
      </trkpt>
      <trkpt lat="49.29061" lon="-0.30213">
        <ele>4.9</ele>
        <time>2021-04-18T12:32:36Z</time>
      </trkpt>
      <trkpt lat="49.29059" lon="-0.30215">
        <ele>4.9</ele>
        <time>2021-04-18T12:32:37Z</time>
      </trkpt>
      <trkpt lat="49.29057" lon="-0.30217">
        <ele>5</ele>
        <time>2021-04-18T12:32:39Z</time>
      </trkpt>
      <trkpt lat="49.29055" lon="-0.3022">
        <ele>5</ele>
        <time>2021-04-18T12:32:40Z</time>
      </trkpt>
      <trkpt lat="49.29053" lon="-0.30221">
        <ele>5</ele>
        <time>2021-04-18T12:32:41Z</time>
      </trkpt>
      <trkpt lat="49.29051" lon="-0.30224">
        <ele>5.1</ele>
        <time>2021-04-18T12:32:43Z</time>
      </trkpt>
      <trkpt lat="49.29049" lon="-0.30225">
        <ele>5.1</ele>
        <time>2021-04-18T12:32:44Z</time>
      </trkpt>
      <trkpt lat="49.29047" lon="-0.30227">
        <ele>5.1</ele>
        <time>2021-04-18T12:32:46Z</time>
      </trkpt>
      <trkpt lat="49.29045" lon="-0.3023">
        <ele>5.2</ele>
        <time>2021-04-18T12:32:48Z</time>
      </trkpt>
      <trkpt lat="49.29043" lon="-0.30232">
        <ele>5.2</ele>
        <time>2021-04-18T12:32:49Z</time>
      </trkpt>
      <trkpt lat="49.29042" lon="-0.30234">
        <ele>5.2</ele>
        <time>2021-04-18T12:32:51Z</time>
      </trkpt>
      <trkpt lat="49.29039" lon="-0.30237">
        <ele>5.3</ele>
        <time>2021-04-18T12:32:52Z</time>
      </trkpt>
      <trkpt lat="49.29038" lon="-0.30238">
        <ele>5.3</ele>
        <time>2021-04-18T12:32:53Z</time>
      </trkpt>
      <trkpt lat="49.29036" lon="-0.30242">
        <ele>5.4</ele>
        <time>2021-04-18T12:32:55Z</time>
      </trkpt>
      <trkpt lat="49.29035" lon="-0.30243">
        <ele>5.4</ele>
        <time>2021-04-18T12:32:56Z</time>
      </trkpt>
      <trkpt lat="49.29033" lon="-0.30245">
        <ele>5.4</ele>
        <time>2021-04-18T12:32:57Z</time>
      </trkpt>
      <trkpt lat="49.29031" lon="-0.30248">
        <ele>5.5</ele>
        <time>2021-04-18T12:32:59Z</time>
      </trkpt>
      <trkpt lat="49.29029" lon="-0.3025">
        <ele>5.5</ele>
        <time>2021-04-18T12:33:00Z</time>
      </trkpt>
      <trkpt lat="49.29027" lon="-0.30252">
        <ele>5.6</ele>
        <time>2021-04-18T12:33:02Z</time>
      </trkpt>
      <trkpt lat="49.29024" lon="-0.30255">
        <ele>5.7</ele>
        <time>2021-04-18T12:33:03Z</time>
      </trkpt>
      <trkpt lat="49.29023" lon="-0.30256">
        <ele>5.7</ele>
        <time>2021-04-18T12:33:04Z</time>
      </trkpt>
      <trkpt lat="49.29019" lon="-0.3026">
        <ele>5.8</ele>
        <time>2021-04-18T12:33:06Z</time>
      </trkpt>
      <trkpt lat="49.29018" lon="-0.30261">
        <ele>5.8</ele>
        <time>2021-04-18T12:33:08Z</time>
      </trkpt>
      <trkpt lat="49.29016" lon="-0.30262">
        <ele>5.9</ele>
        <time>2021-04-18T12:33:09Z</time>
      </trkpt>
      <trkpt lat="49.29014" lon="-0.30264">
        <ele>5.9</ele>
        <time>2021-04-18T12:33:10Z</time>
      </trkpt>
      <trkpt lat="49.29013" lon="-0.30267">
        <ele>6</ele>
        <time>2021-04-18T12:33:12Z</time>
      </trkpt>
      <trkpt lat="49.29011" lon="-0.30268">
        <ele>6</ele>
        <time>2021-04-18T12:33:13Z</time>
      </trkpt>
      <trkpt lat="49.2901" lon="-0.3027">
        <ele>6</ele>
        <time>2021-04-18T12:33:14Z</time>
      </trkpt>
      <trkpt lat="49.29008" lon="-0.30272">
        <ele>6.1</ele>
        <time>2021-04-18T12:33:15Z</time>
      </trkpt>
      <trkpt lat="49.29006" lon="-0.30274">
        <ele>6.1</ele>
        <time>2021-04-18T12:33:17Z</time>
      </trkpt>
      <trkpt lat="49.29004" lon="-0.30278">
        <ele>6.2</ele>
        <time>2021-04-18T12:33:18Z</time>
      </trkpt>
      <trkpt lat="49.29003" lon="-0.3028">
        <ele>6.3</ele>
        <time>2021-04-18T12:33:19Z</time>
      </trkpt>
      <trkpt lat="49.29001" lon="-0.30284">
        <ele>6.3</ele>
        <time>2021-04-18T12:33:21Z</time>
      </trkpt>
      <trkpt lat="49.29" lon="-0.30286">
        <ele>6.4</ele>
        <time>2021-04-18T12:33:22Z</time>
      </trkpt>
      <trkpt lat="49.28998" lon="-0.30289">
        <ele>6.4</ele>
        <time>2021-04-18T12:33:24Z</time>
      </trkpt>
      <trkpt lat="49.28998" lon="-0.3029">
        <ele>6.4</ele>
        <time>2021-04-18T12:33:25Z</time>
      </trkpt>
      <trkpt lat="49.28996" lon="-0.30293">
        <ele>6.5</ele>
        <time>2021-04-18T12:33:26Z</time>
      </trkpt>
      <trkpt lat="49.28996" lon="-0.30294">
        <ele>6.5</ele>
        <time>2021-04-18T12:33:27Z</time>
      </trkpt>
      <trkpt lat="49.28994" lon="-0.30296">
        <ele>6.5</ele>
        <time>2021-04-18T12:33:29Z</time>
      </trkpt>
      <trkpt lat="49.28993" lon="-0.30298">
        <ele>6.6</ele>
        <time>2021-04-18T12:33:30Z</time>
      </trkpt>
      <trkpt lat="49.28992" lon="-0.30299">
        <ele>6.6</ele>
        <time>2021-04-18T12:33:31Z</time>
      </trkpt>
      <trkpt lat="49.2899" lon="-0.30304">
        <ele>6.7</ele>
        <time>2021-04-18T12:33:33Z</time>
      </trkpt>
      <trkpt lat="49.28988" lon="-0.30307">
        <ele>6.7</ele>
        <time>2021-04-18T12:33:34Z</time>
      </trkpt>
      <trkpt lat="49.28986" lon="-0.3031">
        <ele>6.8</ele>
        <time>2021-04-18T12:33:36Z</time>
      </trkpt>
      <trkpt lat="49.28985" lon="-0.30314">
        <ele>6.8</ele>
        <time>2021-04-18T12:33:37Z</time>
      </trkpt>
      <trkpt lat="49.28984" lon="-0.30316">
        <ele>6.8</ele>
        <time>2021-04-18T12:33:38Z</time>
      </trkpt>
      <trkpt lat="49.28982" lon="-0.3032">
        <ele>6.9</ele>
        <time>2021-04-18T12:33:40Z</time>
      </trkpt>
      <trkpt lat="49.2898" lon="-0.30324">
        <ele>6.9</ele>
        <time>2021-04-18T12:33:41Z</time>
      </trkpt>
      <trkpt lat="49.28978" lon="-0.30328">
        <ele>7</ele>
        <time>2021-04-18T12:33:43Z</time>
      </trkpt>
      <trkpt lat="49.28977" lon="-0.30329">
        <ele>7</ele>
        <time>2021-04-18T12:33:44Z</time>
      </trkpt>
      <trkpt lat="49.28976" lon="-0.30333">
        <ele>7</ele>
        <time>2021-04-18T12:33:45Z</time>
      </trkpt>
      <trkpt lat="49.28975" lon="-0.30336">
        <ele>7.1</ele>
        <time>2021-04-18T12:33:47Z</time>
      </trkpt>
      <trkpt lat="49.28973" lon="-0.30338">
        <ele>7.1</ele>
        <time>2021-04-18T12:33:48Z</time>
      </trkpt>
      <trkpt lat="49.28972" lon="-0.30342">
        <ele>7.1</ele>
        <time>2021-04-18T12:33:50Z</time>
      </trkpt>
      <trkpt lat="49.2897" lon="-0.30346">
        <ele>7.1</ele>
        <time>2021-04-18T12:33:51Z</time>
      </trkpt>
      <trkpt lat="49.2897" lon="-0.30347">
        <ele>7.1</ele>
        <time>2021-04-18T12:33:52Z</time>
      </trkpt>
      <trkpt lat="49.28968" lon="-0.30353">
        <ele>7.2</ele>
        <time>2021-04-18T12:33:54Z</time>
      </trkpt>
      <trkpt lat="49.28967" lon="-0.30355">
        <ele>7.2</ele>
        <time>2021-04-18T12:33:55Z</time>
      </trkpt>
      <trkpt lat="49.28966" lon="-0.30357">
        <ele>7.2</ele>
        <time>2021-04-18T12:33:56Z</time>
      </trkpt>
      <trkpt lat="49.28964" lon="-0.30361">
        <ele>7.2</ele>
        <time>2021-04-18T12:33:58Z</time>
      </trkpt>
      <trkpt lat="49.28964" lon="-0.30362">
        <ele>7.2</ele>
        <time>2021-04-18T12:33:59Z</time>
      </trkpt>
      <trkpt lat="49.28961" lon="-0.30366">
        <ele>7.2</ele>
        <time>2021-04-18T12:34:00Z</time>
      </trkpt>
      <trkpt lat="49.28961" lon="-0.30367">
        <ele>7.2</ele>
        <time>2021-04-18T12:34:01Z</time>
      </trkpt>
      <trkpt lat="49.28959" lon="-0.30371">
        <ele>7.2</ele>
        <time>2021-04-18T12:34:03Z</time>
      </trkpt>
      <trkpt lat="49.28957" lon="-0.30373">
        <ele>7.3</ele>
        <time>2021-04-18T12:34:04Z</time>
      </trkpt>
      <trkpt lat="49.28955" lon="-0.30376">
        <ele>7.3</ele>
        <time>2021-04-18T12:34:06Z</time>
      </trkpt>
      <trkpt lat="49.28953" lon="-0.30379">
        <ele>7.3</ele>
        <time>2021-04-18T12:34:07Z</time>
      </trkpt>
      <trkpt lat="49.28952" lon="-0.3038">
        <ele>7.3</ele>
        <time>2021-04-18T12:34:08Z</time>
      </trkpt>
      <trkpt lat="49.28951" lon="-0.30382">
        <ele>7.3</ele>
        <time>2021-04-18T12:34:09Z</time>
      </trkpt>
      <trkpt lat="49.28949" lon="-0.30385">
        <ele>7.4</ele>
        <time>2021-04-18T12:34:11Z</time>
      </trkpt>
      <trkpt lat="49.28947" lon="-0.30389">
        <ele>7.4</ele>
        <time>2021-04-18T12:34:12Z</time>
      </trkpt>
      <trkpt lat="49.28946" lon="-0.30389">
        <ele>7.4</ele>
        <time>2021-04-18T12:34:13Z</time>
      </trkpt>
      <trkpt lat="49.28944" lon="-0.30393">
        <ele>7.4</ele>
        <time>2021-04-18T12:34:15Z</time>
      </trkpt>
      <trkpt lat="49.28943" lon="-0.30395">
        <ele>7.4</ele>
        <time>2021-04-18T12:34:16Z</time>
      </trkpt>
      <trkpt lat="49.28942" lon="-0.30398">
        <ele>7.5</ele>
        <time>2021-04-18T12:34:18Z</time>
      </trkpt>
      <trkpt lat="49.2894" lon="-0.30402">
        <ele>7.5</ele>
        <time>2021-04-18T12:34:19Z</time>
      </trkpt>
      <trkpt lat="49.28939" lon="-0.30404">
        <ele>7.5</ele>
        <time>2021-04-18T12:34:20Z</time>
      </trkpt>
      <trkpt lat="49.28937" lon="-0.30408">
        <ele>7.5</ele>
        <time>2021-04-18T12:34:22Z</time>
      </trkpt>
      <trkpt lat="49.28936" lon="-0.3041">
        <ele>7.6</ele>
        <time>2021-04-18T12:34:23Z</time>
      </trkpt>
      <trkpt lat="49.28934" lon="-0.30413">
        <ele>7.6</ele>
        <time>2021-04-18T12:34:25Z</time>
      </trkpt>
      <trkpt lat="49.28932" lon="-0.30415">
        <ele>7.6</ele>
        <time>2021-04-18T12:34:26Z</time>
      </trkpt>
      <trkpt lat="49.28931" lon="-0.30417">
        <ele>7.6</ele>
        <time>2021-04-18T12:34:27Z</time>
      </trkpt>
      <trkpt lat="49.2893" lon="-0.30421">
        <ele>7.6</ele>
        <time>2021-04-18T12:34:29Z</time>
      </trkpt>
      <trkpt lat="49.28928" lon="-0.30423">
        <ele>7.7</ele>
        <time>2021-04-18T12:34:30Z</time>
      </trkpt>
      <trkpt lat="49.28926" lon="-0.30426">
        <ele>7.7</ele>
        <time>2021-04-18T12:34:32Z</time>
      </trkpt>
      <trkpt lat="49.28924" lon="-0.3043">
        <ele>7.7</ele>
        <time>2021-04-18T12:34:33Z</time>
      </trkpt>
      <trkpt lat="49.28923" lon="-0.30432">
        <ele>7.7</ele>
        <time>2021-04-18T12:34:34Z</time>
      </trkpt>
      <trkpt lat="49.28921" lon="-0.30436">
        <ele>7.8</ele>
        <time>2021-04-18T12:34:36Z</time>
      </trkpt>
      <trkpt lat="49.2892" lon="-0.30437">
        <ele>7.8</ele>
        <time>2021-04-18T12:34:37Z</time>
      </trkpt>
      <trkpt lat="49.28918" lon="-0.30441">
        <ele>7.8</ele>
        <time>2021-04-18T12:34:38Z</time>
      </trkpt>
      <trkpt lat="49.28917" lon="-0.30442">
        <ele>7.8</ele>
        <time>2021-04-18T12:34:39Z</time>
      </trkpt>
      <trkpt lat="49.28915" lon="-0.30446">
        <ele>7.9</ele>
        <time>2021-04-18T12:34:41Z</time>
      </trkpt>
      <trkpt lat="49.28914" lon="-0.30448">
        <ele>7.9</ele>
        <time>2021-04-18T12:34:42Z</time>
      </trkpt>
      <trkpt lat="49.28913" lon="-0.30452">
        <ele>7.9</ele>
        <time>2021-04-18T12:34:44Z</time>
      </trkpt>
      <trkpt lat="49.28911" lon="-0.30456">
        <ele>7.9</ele>
        <time>2021-04-18T12:34:45Z</time>
      </trkpt>
      <trkpt lat="49.2891" lon="-0.30457">
        <ele>8</ele>
        <time>2021-04-18T12:34:46Z</time>
      </trkpt>
      <trkpt lat="49.28908" lon="-0.30461">
        <ele>8</ele>
        <time>2021-04-18T12:34:48Z</time>
      </trkpt>
      <trkpt lat="49.28907" lon="-0.30463">
        <ele>8</ele>
        <time>2021-04-18T12:34:49Z</time>
      </trkpt>
      <trkpt lat="49.28904" lon="-0.30467">
        <ele>8.1</ele>
        <time>2021-04-18T12:34:51Z</time>
      </trkpt>
      <trkpt lat="49.28903" lon="-0.30468">
        <ele>8.1</ele>
        <time>2021-04-18T12:34:52Z</time>
      </trkpt>
      <trkpt lat="49.28901" lon="-0.30472">
        <ele>8.1</ele>
        <time>2021-04-18T12:34:54Z</time>
      </trkpt>
      <trkpt lat="49.289" lon="-0.30473">
        <ele>8.1</ele>
        <time>2021-04-18T12:34:55Z</time>
      </trkpt>
      <trkpt lat="49.28898" lon="-0.30477">
        <ele>8.1</ele>
        <time>2021-04-18T12:34:57Z</time>
      </trkpt>
      <trkpt lat="49.28897" lon="-0.30478">
        <ele>8.1</ele>
        <time>2021-04-18T12:34:58Z</time>
      </trkpt>
      <trkpt lat="49.28895" lon="-0.30482">
        <ele>8.2</ele>
        <time>2021-04-18T12:35:00Z</time>
      </trkpt>
      <trkpt lat="49.28894" lon="-0.30483">
        <ele>8.2</ele>
        <time>2021-04-18T12:35:01Z</time>
      </trkpt>
      <trkpt lat="49.28893" lon="-0.30485">
        <ele>8.2</ele>
        <time>2021-04-18T12:35:02Z</time>
      </trkpt>
      <trkpt lat="49.28892" lon="-0.30487">
        <ele>8.2</ele>
        <time>2021-04-18T12:35:03Z</time>
      </trkpt>
      <trkpt lat="49.2889" lon="-0.3049">
        <ele>8.2</ele>
        <time>2021-04-18T12:35:05Z</time>
      </trkpt>
      <trkpt lat="49.28888" lon="-0.30493">
        <ele>8.2</ele>
        <time>2021-04-18T12:35:06Z</time>
      </trkpt>
      <trkpt lat="49.28887" lon="-0.30495">
        <ele>8.2</ele>
        <time>2021-04-18T12:35:07Z</time>
      </trkpt>
      <trkpt lat="49.28885" lon="-0.30499">
        <ele>8.2</ele>
        <time>2021-04-18T12:35:09Z</time>
      </trkpt>
      <trkpt lat="49.28883" lon="-0.30502">
        <ele>8.2</ele>
        <time>2021-04-18T12:35:10Z</time>
      </trkpt>
      <trkpt lat="49.28882" lon="-0.30505">
        <ele>8.2</ele>
        <time>2021-04-18T12:35:12Z</time>
      </trkpt>
      <trkpt lat="49.28879" lon="-0.30509">
        <ele>8.3</ele>
        <time>2021-04-18T12:35:13Z</time>
      </trkpt>
      <trkpt lat="49.28878" lon="-0.30511">
        <ele>8.3</ele>
        <time>2021-04-18T12:35:14Z</time>
      </trkpt>
      <trkpt lat="49.28876" lon="-0.30515">
        <ele>8.3</ele>
        <time>2021-04-18T12:35:16Z</time>
      </trkpt>
      <trkpt lat="49.28875" lon="-0.30517">
        <ele>8.3</ele>
        <time>2021-04-18T12:35:17Z</time>
      </trkpt>
      <trkpt lat="49.28873" lon="-0.3052">
        <ele>8.3</ele>
        <time>2021-04-18T12:35:18Z</time>
      </trkpt>
      <trkpt lat="49.28871" lon="-0.30523">
        <ele>8.3</ele>
        <time>2021-04-18T12:35:20Z</time>
      </trkpt>
      <trkpt lat="49.2887" lon="-0.30525">
        <ele>8.3</ele>
        <time>2021-04-18T12:35:21Z</time>
      </trkpt>
      <trkpt lat="49.28869" lon="-0.30529">
        <ele>8.3</ele>
        <time>2021-04-18T12:35:23Z</time>
      </trkpt>
      <trkpt lat="49.28866" lon="-0.30533">
        <ele>8.2</ele>
        <time>2021-04-18T12:35:25Z</time>
      </trkpt>
      <trkpt lat="49.28866" lon="-0.30534">
        <ele>8.2</ele>
        <time>2021-04-18T12:35:26Z</time>
      </trkpt>
      <trkpt lat="49.28864" lon="-0.30537">
        <ele>8.2</ele>
        <time>2021-04-18T12:35:27Z</time>
      </trkpt>
      <trkpt lat="49.28862" lon="-0.30539">
        <ele>8.2</ele>
        <time>2021-04-18T12:35:29Z</time>
      </trkpt>
      <trkpt lat="49.28861" lon="-0.30542">
        <ele>8.2</ele>
        <time>2021-04-18T12:35:30Z</time>
      </trkpt>
      <trkpt lat="49.2886" lon="-0.30544">
        <ele>8.2</ele>
        <time>2021-04-18T12:35:32Z</time>
      </trkpt>
      <trkpt lat="49.28858" lon="-0.30548">
        <ele>8.2</ele>
        <time>2021-04-18T12:35:33Z</time>
      </trkpt>
      <trkpt lat="49.28855" lon="-0.30552">
        <ele>8.2</ele>
        <time>2021-04-18T12:35:35Z</time>
      </trkpt>
      <trkpt lat="49.28855" lon="-0.30553">
        <ele>8.2</ele>
        <time>2021-04-18T12:35:36Z</time>
      </trkpt>
      <trkpt lat="49.28852" lon="-0.30557">
        <ele>8.2</ele>
        <time>2021-04-18T12:35:38Z</time>
      </trkpt>
      <trkpt lat="49.28852" lon="-0.30559">
        <ele>8.2</ele>
        <time>2021-04-18T12:35:39Z</time>
      </trkpt>
      <trkpt lat="49.2885" lon="-0.30562">
        <ele>8.2</ele>
        <time>2021-04-18T12:35:41Z</time>
      </trkpt>
      <trkpt lat="49.28848" lon="-0.30565">
        <ele>8.2</ele>
        <time>2021-04-18T12:35:42Z</time>
      </trkpt>
      <trkpt lat="49.28845" lon="-0.30569">
        <ele>8.2</ele>
        <time>2021-04-18T12:35:44Z</time>
      </trkpt>
      <trkpt lat="49.28844" lon="-0.30571">
        <ele>8.2</ele>
        <time>2021-04-18T12:35:45Z</time>
      </trkpt>
      <trkpt lat="49.28842" lon="-0.30574">
        <ele>8.2</ele>
        <time>2021-04-18T12:35:46Z</time>
      </trkpt>
      <trkpt lat="49.28839" lon="-0.30577">
        <ele>8.2</ele>
        <time>2021-04-18T12:35:48Z</time>
      </trkpt>
      <trkpt lat="49.28837" lon="-0.3058">
        <ele>8.3</ele>
        <time>2021-04-18T12:35:49Z</time>
      </trkpt>
      <trkpt lat="49.28835" lon="-0.30583">
        <ele>8.3</ele>
        <time>2021-04-18T12:35:51Z</time>
      </trkpt>
      <trkpt lat="49.28833" lon="-0.30586">
        <ele>8.3</ele>
        <time>2021-04-18T12:35:52Z</time>
      </trkpt>
      <trkpt lat="49.28832" lon="-0.30587">
        <ele>8.3</ele>
        <time>2021-04-18T12:35:53Z</time>
      </trkpt>
      <trkpt lat="49.28829" lon="-0.30591">
        <ele>8.3</ele>
        <time>2021-04-18T12:35:55Z</time>
      </trkpt>
      <trkpt lat="49.28828" lon="-0.30593">
        <ele>8.3</ele>
        <time>2021-04-18T12:35:56Z</time>
      </trkpt>
      <trkpt lat="49.28827" lon="-0.30595">
        <ele>8.3</ele>
        <time>2021-04-18T12:35:57Z</time>
      </trkpt>
      <trkpt lat="49.28825" lon="-0.30597">
        <ele>8.3</ele>
        <time>2021-04-18T12:35:59Z</time>
      </trkpt>
      <trkpt lat="49.28823" lon="-0.306">
        <ele>8.3</ele>
        <time>2021-04-18T12:36:00Z</time>
      </trkpt>
      <trkpt lat="49.28822" lon="-0.30602">
        <ele>8.3</ele>
        <time>2021-04-18T12:36:02Z</time>
      </trkpt>
      <trkpt lat="49.2882" lon="-0.30605">
        <ele>8.3</ele>
        <time>2021-04-18T12:36:03Z</time>
      </trkpt>
      <trkpt lat="49.28819" lon="-0.30606">
        <ele>8.3</ele>
        <time>2021-04-18T12:36:04Z</time>
      </trkpt>
      <trkpt lat="49.28817" lon="-0.30609">
        <ele>8.3</ele>
        <time>2021-04-18T12:36:05Z</time>
      </trkpt>
      <trkpt lat="49.28816" lon="-0.30612">
        <ele>8.3</ele>
        <time>2021-04-18T12:36:07Z</time>
      </trkpt>
      <trkpt lat="49.28814" lon="-0.30614">
        <ele>8.3</ele>
        <time>2021-04-18T12:36:08Z</time>
      </trkpt>
      <trkpt lat="49.28812" lon="-0.30617">
        <ele>8.3</ele>
        <time>2021-04-18T12:36:10Z</time>
      </trkpt>
      <trkpt lat="49.28811" lon="-0.30619">
        <ele>8.3</ele>
        <time>2021-04-18T12:36:11Z</time>
      </trkpt>
      <trkpt lat="49.28809" lon="-0.30622">
        <ele>8.3</ele>
        <time>2021-04-18T12:36:13Z</time>
      </trkpt>
      <trkpt lat="49.28808" lon="-0.30624">
        <ele>8.3</ele>
        <time>2021-04-18T12:36:14Z</time>
      </trkpt>
      <trkpt lat="49.28806" lon="-0.30627">
        <ele>8.3</ele>
        <time>2021-04-18T12:36:16Z</time>
      </trkpt>
      <trkpt lat="49.28803" lon="-0.30632">
        <ele>8.3</ele>
        <time>2021-04-18T12:36:17Z</time>
      </trkpt>
      <trkpt lat="49.28802" lon="-0.30633">
        <ele>8.3</ele>
        <time>2021-04-18T12:36:18Z</time>
      </trkpt>
      <trkpt lat="49.28801" lon="-0.30637">
        <ele>8.3</ele>
        <time>2021-04-18T12:36:20Z</time>
      </trkpt>
      <trkpt lat="49.28798" lon="-0.30641">
        <ele>8.3</ele>
        <time>2021-04-18T12:36:22Z</time>
      </trkpt>
      <trkpt lat="49.28797" lon="-0.30643">
        <ele>8.3</ele>
        <time>2021-04-18T12:36:23Z</time>
      </trkpt>
      <trkpt lat="49.28795" lon="-0.30646">
        <ele>8.3</ele>
        <time>2021-04-18T12:36:25Z</time>
      </trkpt>
      <trkpt lat="49.28793" lon="-0.30649">
        <ele>8.3</ele>
        <time>2021-04-18T12:36:26Z</time>
      </trkpt>
      <trkpt lat="49.28792" lon="-0.3065">
        <ele>8.3</ele>
        <time>2021-04-18T12:36:27Z</time>
      </trkpt>
      <trkpt lat="49.2879" lon="-0.30653">
        <ele>8.4</ele>
        <time>2021-04-18T12:36:28Z</time>
      </trkpt>
      <trkpt lat="49.28789" lon="-0.30654">
        <ele>8.4</ele>
        <time>2021-04-18T12:36:29Z</time>
      </trkpt>
      <trkpt lat="49.28787" lon="-0.30657">
        <ele>8.4</ele>
        <time>2021-04-18T12:36:31Z</time>
      </trkpt>
      <trkpt lat="49.28785" lon="-0.3066">
        <ele>8.4</ele>
        <time>2021-04-18T12:36:32Z</time>
      </trkpt>
      <trkpt lat="49.28783" lon="-0.30664">
        <ele>8.4</ele>
        <time>2021-04-18T12:36:34Z</time>
      </trkpt>
      <trkpt lat="49.28782" lon="-0.30665">
        <ele>8.4</ele>
        <time>2021-04-18T12:36:35Z</time>
      </trkpt>
      <trkpt lat="49.2878" lon="-0.30669">
        <ele>8.4</ele>
        <time>2021-04-18T12:36:36Z</time>
      </trkpt>
      <trkpt lat="49.28779" lon="-0.3067">
        <ele>8.4</ele>
        <time>2021-04-18T12:36:37Z</time>
      </trkpt>
      <trkpt lat="49.28777" lon="-0.30673">
        <ele>8.4</ele>
        <time>2021-04-18T12:36:39Z</time>
      </trkpt>
      <trkpt lat="49.28776" lon="-0.30674">
        <ele>8.4</ele>
        <time>2021-04-18T12:36:40Z</time>
      </trkpt>
      <trkpt lat="49.28775" lon="-0.30675">
        <ele>8.4</ele>
        <time>2021-04-18T12:36:41Z</time>
      </trkpt>
      <trkpt lat="49.28773" lon="-0.30677">
        <ele>8.4</ele>
        <time>2021-04-18T12:36:42Z</time>
      </trkpt>
      <trkpt lat="49.28772" lon="-0.3068">
        <ele>8.5</ele>
        <time>2021-04-18T12:36:43Z</time>
      </trkpt>
      <trkpt lat="49.2877" lon="-0.30683">
        <ele>8.5</ele>
        <time>2021-04-18T12:36:45Z</time>
      </trkpt>
      <trkpt lat="49.28767" lon="-0.30686">
        <ele>8.5</ele>
        <time>2021-04-18T12:36:46Z</time>
      </trkpt>
      <trkpt lat="49.28767" lon="-0.30687">
        <ele>8.5</ele>
        <time>2021-04-18T12:36:47Z</time>
      </trkpt>
      <trkpt lat="49.28764" lon="-0.3069">
        <ele>8.6</ele>
        <time>2021-04-18T12:36:48Z</time>
      </trkpt>
      <trkpt lat="49.28761" lon="-0.30693">
        <ele>8.6</ele>
        <time>2021-04-18T12:36:50Z</time>
      </trkpt>
      <trkpt lat="49.28761" lon="-0.30694">
        <ele>8.6</ele>
        <time>2021-04-18T12:36:51Z</time>
      </trkpt>
      <trkpt lat="49.28759" lon="-0.30696">
        <ele>8.6</ele>
        <time>2021-04-18T12:36:52Z</time>
      </trkpt>
      <trkpt lat="49.28757" lon="-0.30699">
        <ele>8.7</ele>
        <time>2021-04-18T12:36:54Z</time>
      </trkpt>
      <trkpt lat="49.28756" lon="-0.30702">
        <ele>8.7</ele>
        <time>2021-04-18T12:36:56Z</time>
      </trkpt>
      <trkpt lat="49.28755" lon="-0.30704">
        <ele>8.7</ele>
        <time>2021-04-18T12:36:58Z</time>
      </trkpt>
      <trkpt lat="49.28755" lon="-0.30706">
        <ele>8.7</ele>
        <time>2021-04-18T12:36:59Z</time>
      </trkpt>
      <trkpt lat="49.28753" lon="-0.30709">
        <ele>8.7</ele>
        <time>2021-04-18T12:37:01Z</time>
      </trkpt>
      <trkpt lat="49.28753" lon="-0.30711">
        <ele>8.8</ele>
        <time>2021-04-18T12:37:02Z</time>
      </trkpt>
      <trkpt lat="49.28753" lon="-0.30711">
        <ele>8.8</ele>
        <time>2021-04-18T12:37:04Z</time>
      </trkpt>
      <trkpt lat="49.28753" lon="-0.30712">
        <ele>8.8</ele>
        <time>2021-04-18T12:37:05Z</time>
      </trkpt>
      <trkpt lat="49.28752" lon="-0.30714">
        <ele>8.8</ele>
        <time>2021-04-18T12:37:07Z</time>
      </trkpt>
      <trkpt lat="49.28749" lon="-0.30718">
        <ele>8.8</ele>
        <time>2021-04-18T12:37:08Z</time>
      </trkpt>
      <trkpt lat="49.28749" lon="-0.30719">
        <ele>8.8</ele>
        <time>2021-04-18T12:37:09Z</time>
      </trkpt>
      <trkpt lat="49.28747" lon="-0.30722">
        <ele>8.8</ele>
        <time>2021-04-18T12:37:11Z</time>
      </trkpt>
      <trkpt lat="49.28745" lon="-0.30724">
        <ele>8.8</ele>
        <time>2021-04-18T12:37:12Z</time>
      </trkpt>
      <trkpt lat="49.28744" lon="-0.30726">
        <ele>8.8</ele>
        <time>2021-04-18T12:37:13Z</time>
      </trkpt>
      <trkpt lat="49.28743" lon="-0.30728">
        <ele>8.8</ele>
        <time>2021-04-18T12:37:14Z</time>
      </trkpt>
      <trkpt lat="49.28741" lon="-0.3073">
        <ele>8.9</ele>
        <time>2021-04-18T12:37:16Z</time>
      </trkpt>
      <trkpt lat="49.28738" lon="-0.30734">
        <ele>8.9</ele>
        <time>2021-04-18T12:37:17Z</time>
      </trkpt>
      <trkpt lat="49.28737" lon="-0.30735">
        <ele>8.9</ele>
        <time>2021-04-18T12:37:18Z</time>
      </trkpt>
      <trkpt lat="49.28734" lon="-0.30739">
        <ele>8.9</ele>
        <time>2021-04-18T12:37:20Z</time>
      </trkpt>
      <trkpt lat="49.28733" lon="-0.3074">
        <ele>8.9</ele>
        <time>2021-04-18T12:37:21Z</time>
      </trkpt>
      <trkpt lat="49.2873" lon="-0.30744">
        <ele>8.9</ele>
        <time>2021-04-18T12:37:23Z</time>
      </trkpt>
      <trkpt lat="49.28728" lon="-0.30747">
        <ele>8.9</ele>
        <time>2021-04-18T12:37:24Z</time>
      </trkpt>
      <trkpt lat="49.28726" lon="-0.3075">
        <ele>8.9</ele>
        <time>2021-04-18T12:37:25Z</time>
      </trkpt>
      <trkpt lat="49.28723" lon="-0.30753">
        <ele>8.9</ele>
        <time>2021-04-18T12:37:26Z</time>
      </trkpt>
      <trkpt lat="49.2872" lon="-0.30757">
        <ele>9</ele>
        <time>2021-04-18T12:37:28Z</time>
      </trkpt>
      <trkpt lat="49.28718" lon="-0.30759">
        <ele>9</ele>
        <time>2021-04-18T12:37:29Z</time>
      </trkpt>
      <trkpt lat="49.28716" lon="-0.30763">
        <ele>9</ele>
        <time>2021-04-18T12:37:31Z</time>
      </trkpt>
      <trkpt lat="49.28713" lon="-0.30768">
        <ele>9</ele>
        <time>2021-04-18T12:37:32Z</time>
      </trkpt>
      <trkpt lat="49.28712" lon="-0.3077">
        <ele>9</ele>
        <time>2021-04-18T12:37:33Z</time>
      </trkpt>
      <trkpt lat="49.2871" lon="-0.30774">
        <ele>9</ele>
        <time>2021-04-18T12:37:35Z</time>
      </trkpt>
      <trkpt lat="49.2871" lon="-0.30775">
        <ele>9</ele>
        <time>2021-04-18T12:37:36Z</time>
      </trkpt>
      <trkpt lat="49.28709" lon="-0.30777">
        <ele>9.1</ele>
        <time>2021-04-18T12:37:37Z</time>
      </trkpt>
      <trkpt lat="49.28708" lon="-0.30779">
        <ele>9.1</ele>
        <time>2021-04-18T12:37:38Z</time>
      </trkpt>
      <trkpt lat="49.28706" lon="-0.30782">
        <ele>9.1</ele>
        <time>2021-04-18T12:37:40Z</time>
      </trkpt>
      <trkpt lat="49.28706" lon="-0.30784">
        <ele>9.1</ele>
        <time>2021-04-18T12:37:41Z</time>
      </trkpt>
      <trkpt lat="49.28705" lon="-0.30786">
        <ele>9.1</ele>
        <time>2021-04-18T12:37:42Z</time>
      </trkpt>
      <trkpt lat="49.28704" lon="-0.30789">
        <ele>9.1</ele>
        <time>2021-04-18T12:37:43Z</time>
      </trkpt>
      <trkpt lat="49.28702" lon="-0.30792">
        <ele>9.1</ele>
        <time>2021-04-18T12:37:45Z</time>
      </trkpt>
      <trkpt lat="49.28701" lon="-0.30795">
        <ele>9.1</ele>
        <time>2021-04-18T12:37:46Z</time>
      </trkpt>
      <trkpt lat="49.287" lon="-0.30796">
        <ele>9.1</ele>
        <time>2021-04-18T12:37:47Z</time>
      </trkpt>
      <trkpt lat="49.28698" lon="-0.308">
        <ele>9.1</ele>
        <time>2021-04-18T12:37:49Z</time>
      </trkpt>
      <trkpt lat="49.28697" lon="-0.30802">
        <ele>9.1</ele>
        <time>2021-04-18T12:37:50Z</time>
      </trkpt>
      <trkpt lat="49.28695" lon="-0.30805">
        <ele>9.1</ele>
        <time>2021-04-18T12:37:52Z</time>
      </trkpt>
      <trkpt lat="49.28693" lon="-0.30808">
        <ele>9.1</ele>
        <time>2021-04-18T12:37:53Z</time>
      </trkpt>
      <trkpt lat="49.28692" lon="-0.30809">
        <ele>9.1</ele>
        <time>2021-04-18T12:37:54Z</time>
      </trkpt>
      <trkpt lat="49.2869" lon="-0.30813">
        <ele>9.1</ele>
        <time>2021-04-18T12:37:56Z</time>
      </trkpt>
      <trkpt lat="49.28689" lon="-0.30814">
        <ele>9.1</ele>
        <time>2021-04-18T12:37:57Z</time>
      </trkpt>
      <trkpt lat="49.28686" lon="-0.30817">
        <ele>9.1</ele>
        <time>2021-04-18T12:37:58Z</time>
      </trkpt>
      <trkpt lat="49.28686" lon="-0.30819">
        <ele>9.1</ele>
        <time>2021-04-18T12:37:59Z</time>
      </trkpt>
      <trkpt lat="49.28684" lon="-0.30821">
        <ele>9.1</ele>
        <time>2021-04-18T12:38:00Z</time>
      </trkpt>
      <trkpt lat="49.28682" lon="-0.30823">
        <ele>9.1</ele>
        <time>2021-04-18T12:38:02Z</time>
      </trkpt>
      <trkpt lat="49.28681" lon="-0.30825">
        <ele>9.1</ele>
        <time>2021-04-18T12:38:03Z</time>
      </trkpt>
      <trkpt lat="49.28678" lon="-0.30828">
        <ele>9.1</ele>
        <time>2021-04-18T12:38:05Z</time>
      </trkpt>
      <trkpt lat="49.28676" lon="-0.30831">
        <ele>9.2</ele>
        <time>2021-04-18T12:38:06Z</time>
      </trkpt>
      <trkpt lat="49.28674" lon="-0.30834">
        <ele>9.2</ele>
        <time>2021-04-18T12:38:08Z</time>
      </trkpt>
      <trkpt lat="49.28671" lon="-0.30838">
        <ele>9.2</ele>
        <time>2021-04-18T12:38:09Z</time>
      </trkpt>
      <trkpt lat="49.2867" lon="-0.30839">
        <ele>9.2</ele>
        <time>2021-04-18T12:38:10Z</time>
      </trkpt>
      <trkpt lat="49.28667" lon="-0.30842">
        <ele>9.2</ele>
        <time>2021-04-18T12:38:12Z</time>
      </trkpt>
      <trkpt lat="49.28665" lon="-0.30844">
        <ele>9.2</ele>
        <time>2021-04-18T12:38:13Z</time>
      </trkpt>
      <trkpt lat="49.28663" lon="-0.30846">
        <ele>9.2</ele>
        <time>2021-04-18T12:38:14Z</time>
      </trkpt>
      <trkpt lat="49.28661" lon="-0.30849">
        <ele>9.2</ele>
        <time>2021-04-18T12:38:16Z</time>
      </trkpt>
      <trkpt lat="49.28659" lon="-0.30851">
        <ele>9.2</ele>
        <time>2021-04-18T12:38:18Z</time>
      </trkpt>
      <trkpt lat="49.28658" lon="-0.30853">
        <ele>9.2</ele>
        <time>2021-04-18T12:38:19Z</time>
      </trkpt>
      <trkpt lat="49.28656" lon="-0.30855">
        <ele>9.2</ele>
        <time>2021-04-18T12:38:21Z</time>
      </trkpt>
      <trkpt lat="49.28655" lon="-0.30858">
        <ele>9.2</ele>
        <time>2021-04-18T12:38:22Z</time>
      </trkpt>
      <trkpt lat="49.28653" lon="-0.30859">
        <ele>9.2</ele>
        <time>2021-04-18T12:38:23Z</time>
      </trkpt>
      <trkpt lat="49.28651" lon="-0.30862">
        <ele>9.2</ele>
        <time>2021-04-18T12:38:24Z</time>
      </trkpt>
      <trkpt lat="49.28649" lon="-0.30863">
        <ele>9.2</ele>
        <time>2021-04-18T12:38:26Z</time>
      </trkpt>
      <trkpt lat="49.28648" lon="-0.30864">
        <ele>9.2</ele>
        <time>2021-04-18T12:38:27Z</time>
      </trkpt>
      <trkpt lat="49.28647" lon="-0.30864">
        <ele>9.2</ele>
        <time>2021-04-18T12:38:28Z</time>
      </trkpt>
      <trkpt lat="49.28646" lon="-0.30864">
        <ele>9.2</ele>
        <time>2021-04-18T12:38:29Z</time>
      </trkpt>
      <trkpt lat="49.28645" lon="-0.30865">
        <ele>9.2</ele>
        <time>2021-04-18T12:38:30Z</time>
      </trkpt>
      <trkpt lat="49.28642" lon="-0.30866">
        <ele>9.4</ele>
        <time>2021-04-18T12:38:32Z</time>
      </trkpt>
      <trkpt lat="49.28641" lon="-0.30866">
        <ele>9.4</ele>
        <time>2021-04-18T12:38:33Z</time>
      </trkpt>
      <trkpt lat="49.28638" lon="-0.30866">
        <ele>9.4</ele>
        <time>2021-04-18T12:38:35Z</time>
      </trkpt>
      <trkpt lat="49.28637" lon="-0.30866">
        <ele>9.4</ele>
        <time>2021-04-18T12:38:36Z</time>
      </trkpt>
      <trkpt lat="49.28634" lon="-0.30866">
        <ele>9.5</ele>
        <time>2021-04-18T12:38:37Z</time>
      </trkpt>
      <trkpt lat="49.28633" lon="-0.30865">
        <ele>9.5</ele>
        <time>2021-04-18T12:38:39Z</time>
      </trkpt>
      <trkpt lat="49.28632" lon="-0.30865">
        <ele>9.5</ele>
        <time>2021-04-18T12:38:40Z</time>
      </trkpt>
      <trkpt lat="49.2863" lon="-0.30865">
        <ele>9.6</ele>
        <time>2021-04-18T12:38:41Z</time>
      </trkpt>
      <trkpt lat="49.28627" lon="-0.30863">
        <ele>9.6</ele>
        <time>2021-04-18T12:38:43Z</time>
      </trkpt>
      <trkpt lat="49.28626" lon="-0.30863">
        <ele>9.6</ele>
        <time>2021-04-18T12:38:44Z</time>
      </trkpt>
      <trkpt lat="49.28623" lon="-0.30862">
        <ele>9.7</ele>
        <time>2021-04-18T12:38:46Z</time>
      </trkpt>
      <trkpt lat="49.28622" lon="-0.30862">
        <ele>9.7</ele>
        <time>2021-04-18T12:38:47Z</time>
      </trkpt>
      <trkpt lat="49.28621" lon="-0.30861">
        <ele>9.7</ele>
        <time>2021-04-18T12:38:48Z</time>
      </trkpt>
      <trkpt lat="49.28619" lon="-0.3086">
        <ele>9.7</ele>
        <time>2021-04-18T12:38:49Z</time>
      </trkpt>
      <trkpt lat="49.28617" lon="-0.30858">
        <ele>9.8</ele>
        <time>2021-04-18T12:38:50Z</time>
      </trkpt>
      <trkpt lat="49.28616" lon="-0.30858">
        <ele>9.8</ele>
        <time>2021-04-18T12:38:51Z</time>
      </trkpt>
      <trkpt lat="49.28613" lon="-0.30856">
        <ele>9.8</ele>
        <time>2021-04-18T12:38:53Z</time>
      </trkpt>
      <trkpt lat="49.28612" lon="-0.30855">
        <ele>9.9</ele>
        <time>2021-04-18T12:38:54Z</time>
      </trkpt>
      <trkpt lat="49.28608" lon="-0.30853">
        <ele>9.9</ele>
        <time>2021-04-18T12:38:56Z</time>
      </trkpt>
      <trkpt lat="49.28606" lon="-0.30852">
        <ele>10</ele>
        <time>2021-04-18T12:38:57Z</time>
      </trkpt>
      <trkpt lat="49.28605" lon="-0.3085">
        <ele>10</ele>
        <time>2021-04-18T12:38:58Z</time>
      </trkpt>
      <trkpt lat="49.28602" lon="-0.30848">
        <ele>10</ele>
        <time>2021-04-18T12:39:00Z</time>
      </trkpt>
      <trkpt lat="49.28601" lon="-0.30848">
        <ele>10.1</ele>
        <time>2021-04-18T12:39:01Z</time>
      </trkpt>
      <trkpt lat="49.28599" lon="-0.30847">
        <ele>10.1</ele>
        <time>2021-04-18T12:39:02Z</time>
      </trkpt>
      <trkpt lat="49.28595" lon="-0.30845">
        <ele>10.2</ele>
        <time>2021-04-18T12:39:04Z</time>
      </trkpt>
      <trkpt lat="49.28593" lon="-0.30844">
        <ele>10.2</ele>
        <time>2021-04-18T12:39:05Z</time>
      </trkpt>
      <trkpt lat="49.2859" lon="-0.30842">
        <ele>10.3</ele>
        <time>2021-04-18T12:39:07Z</time>
      </trkpt>
      <trkpt lat="49.28588" lon="-0.30841">
        <ele>10.3</ele>
        <time>2021-04-18T12:39:08Z</time>
      </trkpt>
      <trkpt lat="49.28586" lon="-0.3084">
        <ele>10.3</ele>
        <time>2021-04-18T12:39:10Z</time>
      </trkpt>
      <trkpt lat="49.28583" lon="-0.30838">
        <ele>10.4</ele>
        <time>2021-04-18T12:39:11Z</time>
      </trkpt>
      <trkpt lat="49.28582" lon="-0.30837">
        <ele>10.4</ele>
        <time>2021-04-18T12:39:12Z</time>
      </trkpt>
      <trkpt lat="49.28578" lon="-0.30835">
        <ele>10.5</ele>
        <time>2021-04-18T12:39:14Z</time>
      </trkpt>
      <trkpt lat="49.28576" lon="-0.30834">
        <ele>10.5</ele>
        <time>2021-04-18T12:39:15Z</time>
      </trkpt>
      <trkpt lat="49.28575" lon="-0.30833">
        <ele>10.5</ele>
        <time>2021-04-18T12:39:16Z</time>
      </trkpt>
      <trkpt lat="49.28573" lon="-0.30831">
        <ele>10.6</ele>
        <time>2021-04-18T12:39:18Z</time>
      </trkpt>
      <trkpt lat="49.2857" lon="-0.30829">
        <ele>10.6</ele>
        <time>2021-04-18T12:39:20Z</time>
      </trkpt>
      <trkpt lat="49.28566" lon="-0.30826">
        <ele>10.7</ele>
        <time>2021-04-18T12:39:22Z</time>
      </trkpt>
      <trkpt lat="49.28565" lon="-0.30825">
        <ele>10.7</ele>
        <time>2021-04-18T12:39:23Z</time>
      </trkpt>
      <trkpt lat="49.28564" lon="-0.30824">
        <ele>10.7</ele>
        <time>2021-04-18T12:39:24Z</time>
      </trkpt>
      <trkpt lat="49.28561" lon="-0.30822">
        <ele>10.7</ele>
        <time>2021-04-18T12:39:26Z</time>
      </trkpt>
      <trkpt lat="49.2856" lon="-0.30821">
        <ele>10.8</ele>
        <time>2021-04-18T12:39:27Z</time>
      </trkpt>
      <trkpt lat="49.28557" lon="-0.30819">
        <ele>10.8</ele>
        <time>2021-04-18T12:39:29Z</time>
      </trkpt>
      <trkpt lat="49.28555" lon="-0.30817">
        <ele>10.8</ele>
        <time>2021-04-18T12:39:30Z</time>
      </trkpt>
      <trkpt lat="49.28553" lon="-0.30815">
        <ele>10.8</ele>
        <time>2021-04-18T12:39:32Z</time>
      </trkpt>
      <trkpt lat="49.28551" lon="-0.30813">
        <ele>10.9</ele>
        <time>2021-04-18T12:39:33Z</time>
      </trkpt>
      <trkpt lat="49.28549" lon="-0.30811">
        <ele>10.9</ele>
        <time>2021-04-18T12:39:35Z</time>
      </trkpt>
      <trkpt lat="49.28546" lon="-0.30809">
        <ele>10.9</ele>
        <time>2021-04-18T12:39:36Z</time>
      </trkpt>
      <trkpt lat="49.28545" lon="-0.30808">
        <ele>10.9</ele>
        <time>2021-04-18T12:39:37Z</time>
      </trkpt>
      <trkpt lat="49.28543" lon="-0.30805">
        <ele>10.9</ele>
        <time>2021-04-18T12:39:38Z</time>
      </trkpt>
      <trkpt lat="49.28542" lon="-0.30804">
        <ele>10.9</ele>
        <time>2021-04-18T12:39:39Z</time>
      </trkpt>
      <trkpt lat="49.2854" lon="-0.30802">
        <ele>11</ele>
        <time>2021-04-18T12:39:41Z</time>
      </trkpt>
      <trkpt lat="49.28539" lon="-0.308">
        <ele>11</ele>
        <time>2021-04-18T12:39:42Z</time>
      </trkpt>
      <trkpt lat="49.28537" lon="-0.30798">
        <ele>11</ele>
        <time>2021-04-18T12:39:44Z</time>
      </trkpt>
      <trkpt lat="49.28533" lon="-0.30794">
        <ele>11</ele>
        <time>2021-04-18T12:39:46Z</time>
      </trkpt>
      <trkpt lat="49.28531" lon="-0.30793">
        <ele>11.1</ele>
        <time>2021-04-18T12:39:47Z</time>
      </trkpt>
      <trkpt lat="49.2853" lon="-0.30791">
        <ele>11.1</ele>
        <time>2021-04-18T12:39:48Z</time>
      </trkpt>
      <trkpt lat="49.28527" lon="-0.30789">
        <ele>11.1</ele>
        <time>2021-04-18T12:39:50Z</time>
      </trkpt>
      <trkpt lat="49.28527" lon="-0.30788">
        <ele>11.1</ele>
        <time>2021-04-18T12:39:51Z</time>
      </trkpt>
      <trkpt lat="49.28525" lon="-0.30786">
        <ele>11.1</ele>
        <time>2021-04-18T12:39:52Z</time>
      </trkpt>
      <trkpt lat="49.28524" lon="-0.30785">
        <ele>11.1</ele>
        <time>2021-04-18T12:39:53Z</time>
      </trkpt>
      <trkpt lat="49.28521" lon="-0.30782">
        <ele>11.2</ele>
        <time>2021-04-18T12:39:55Z</time>
      </trkpt>
      <trkpt lat="49.28521" lon="-0.30782">
        <ele>11.2</ele>
        <time>2021-04-18T12:39:56Z</time>
      </trkpt>
      <trkpt lat="49.28519" lon="-0.3078">
        <ele>11.2</ele>
        <time>2021-04-18T12:39:57Z</time>
      </trkpt>
      <trkpt lat="49.28517" lon="-0.30779">
        <ele>11.2</ele>
        <time>2021-04-18T12:39:59Z</time>
      </trkpt>
      <trkpt lat="49.28516" lon="-0.30778">
        <ele>11.2</ele>
        <time>2021-04-18T12:40:00Z</time>
      </trkpt>
      <trkpt lat="49.28514" lon="-0.30777">
        <ele>11.2</ele>
        <time>2021-04-18T12:40:01Z</time>
      </trkpt>
      <trkpt lat="49.28513" lon="-0.30776">
        <ele>11.2</ele>
        <time>2021-04-18T12:40:02Z</time>
      </trkpt>
      <trkpt lat="49.2851" lon="-0.30774">
        <ele>11.3</ele>
        <time>2021-04-18T12:40:04Z</time>
      </trkpt>
      <trkpt lat="49.28509" lon="-0.30773">
        <ele>11.3</ele>
        <time>2021-04-18T12:40:05Z</time>
      </trkpt>
      <trkpt lat="49.28506" lon="-0.30771">
        <ele>11.3</ele>
        <time>2021-04-18T12:40:07Z</time>
      </trkpt>
      <trkpt lat="49.28504" lon="-0.3077">
        <ele>11.3</ele>
        <time>2021-04-18T12:40:08Z</time>
      </trkpt>
      <trkpt lat="49.28503" lon="-0.30769">
        <ele>11.3</ele>
        <time>2021-04-18T12:40:09Z</time>
      </trkpt>
      <trkpt lat="49.28501" lon="-0.30767">
        <ele>11.4</ele>
        <time>2021-04-18T12:40:10Z</time>
      </trkpt>
      <trkpt lat="49.28498" lon="-0.30766">
        <ele>11.4</ele>
        <time>2021-04-18T12:40:12Z</time>
      </trkpt>
      <trkpt lat="49.28495" lon="-0.30764">
        <ele>11.4</ele>
        <time>2021-04-18T12:40:13Z</time>
      </trkpt>
      <trkpt lat="49.28493" lon="-0.30762">
        <ele>11.4</ele>
        <time>2021-04-18T12:40:14Z</time>
      </trkpt>
      <trkpt lat="49.2849" lon="-0.30761">
        <ele>11.4</ele>
        <time>2021-04-18T12:40:16Z</time>
      </trkpt>
      <trkpt lat="49.28488" lon="-0.30759">
        <ele>11.4</ele>
        <time>2021-04-18T12:40:17Z</time>
      </trkpt>
      <trkpt lat="49.28483" lon="-0.30756">
        <ele>11.5</ele>
        <time>2021-04-18T12:40:19Z</time>
      </trkpt>
      <trkpt lat="49.28482" lon="-0.30755">
        <ele>11.5</ele>
        <time>2021-04-18T12:40:20Z</time>
      </trkpt>
      <trkpt lat="49.28481" lon="-0.30754">
        <ele>11.5</ele>
        <time>2021-04-18T12:40:21Z</time>
      </trkpt>
      <trkpt lat="49.28478" lon="-0.30753">
        <ele>11.5</ele>
        <time>2021-04-18T12:40:22Z</time>
      </trkpt>
      <trkpt lat="49.28475" lon="-0.30751">
        <ele>11.5</ele>
        <time>2021-04-18T12:40:24Z</time>
      </trkpt>
      <trkpt lat="49.28474" lon="-0.3075">
        <ele>11.5</ele>
        <time>2021-04-18T12:40:25Z</time>
      </trkpt>
      <trkpt lat="49.28471" lon="-0.30748">
        <ele>11.5</ele>
        <time>2021-04-18T12:40:27Z</time>
      </trkpt>
      <trkpt lat="49.28469" lon="-0.30747">
        <ele>11.5</ele>
        <time>2021-04-18T12:40:28Z</time>
      </trkpt>
      <trkpt lat="49.28467" lon="-0.30745">
        <ele>11.5</ele>
        <time>2021-04-18T12:40:29Z</time>
      </trkpt>
      <trkpt lat="49.28466" lon="-0.30744">
        <ele>11.5</ele>
        <time>2021-04-18T12:40:30Z</time>
      </trkpt>
      <trkpt lat="49.28462" lon="-0.30741">
        <ele>11.5</ele>
        <time>2021-04-18T12:40:32Z</time>
      </trkpt>
      <trkpt lat="49.28461" lon="-0.3074">
        <ele>11.5</ele>
        <time>2021-04-18T12:40:33Z</time>
      </trkpt>
      <trkpt lat="49.28457" lon="-0.30737">
        <ele>11.5</ele>
        <time>2021-04-18T12:40:35Z</time>
      </trkpt>
      <trkpt lat="49.28455" lon="-0.30736">
        <ele>11.5</ele>
        <time>2021-04-18T12:40:36Z</time>
      </trkpt>
      <trkpt lat="49.28454" lon="-0.30735">
        <ele>11.5</ele>
        <time>2021-04-18T12:40:37Z</time>
      </trkpt>
      <trkpt lat="49.2845" lon="-0.30733">
        <ele>11.4</ele>
        <time>2021-04-18T12:40:39Z</time>
      </trkpt>
      <trkpt lat="49.28449" lon="-0.30732">
        <ele>11.4</ele>
        <time>2021-04-18T12:40:40Z</time>
      </trkpt>
      <trkpt lat="49.28445" lon="-0.30729">
        <ele>11.4</ele>
        <time>2021-04-18T12:40:41Z</time>
      </trkpt>
      <trkpt lat="49.28444" lon="-0.30728">
        <ele>11.3</ele>
        <time>2021-04-18T12:40:42Z</time>
      </trkpt>
      <trkpt lat="49.28439" lon="-0.30725">
        <ele>11.3</ele>
        <time>2021-04-18T12:40:44Z</time>
      </trkpt>
      <trkpt lat="49.28438" lon="-0.30723">
        <ele>11.2</ele>
        <time>2021-04-18T12:40:46Z</time>
      </trkpt>
      <trkpt lat="49.28436" lon="-0.30721">
        <ele>11.2</ele>
        <time>2021-04-18T12:40:47Z</time>
      </trkpt>
      <trkpt lat="49.28434" lon="-0.30719">
        <ele>11.1</ele>
        <time>2021-04-18T12:40:48Z</time>
      </trkpt>
      <trkpt lat="49.28431" lon="-0.30716">
        <ele>11.1</ele>
        <time>2021-04-18T12:40:50Z</time>
      </trkpt>
      <trkpt lat="49.2843" lon="-0.30715">
        <ele>11</ele>
        <time>2021-04-18T12:40:51Z</time>
      </trkpt>
      <trkpt lat="49.28427" lon="-0.30712">
        <ele>10.9</ele>
        <time>2021-04-18T12:40:52Z</time>
      </trkpt>
      <trkpt lat="49.28427" lon="-0.30711">
        <ele>10.9</ele>
        <time>2021-04-18T12:40:53Z</time>
      </trkpt>
      <trkpt lat="49.28425" lon="-0.30708">
        <ele>10.9</ele>
        <time>2021-04-18T12:40:55Z</time>
      </trkpt>
      <trkpt lat="49.28423" lon="-0.30706">
        <ele>10.8</ele>
        <time>2021-04-18T12:40:56Z</time>
      </trkpt>
      <trkpt lat="49.28421" lon="-0.30704">
        <ele>10.8</ele>
        <time>2021-04-18T12:40:58Z</time>
      </trkpt>
      <trkpt lat="49.28418" lon="-0.30701">
        <ele>10.7</ele>
        <time>2021-04-18T12:40:59Z</time>
      </trkpt>
      <trkpt lat="49.28417" lon="-0.307">
        <ele>10.7</ele>
        <time>2021-04-18T12:41:00Z</time>
      </trkpt>
      <trkpt lat="49.28415" lon="-0.30696">
        <ele>10.6</ele>
        <time>2021-04-18T12:41:02Z</time>
      </trkpt>
      <trkpt lat="49.28414" lon="-0.30695">
        <ele>10.6</ele>
        <time>2021-04-18T12:41:03Z</time>
      </trkpt>
      <trkpt lat="49.28412" lon="-0.30693">
        <ele>10.5</ele>
        <time>2021-04-18T12:41:04Z</time>
      </trkpt>
      <trkpt lat="49.2841" lon="-0.3069">
        <ele>10.5</ele>
        <time>2021-04-18T12:41:06Z</time>
      </trkpt>
      <trkpt lat="49.28406" lon="-0.30685">
        <ele>10.4</ele>
        <time>2021-04-18T12:41:08Z</time>
      </trkpt>
      <trkpt lat="49.28404" lon="-0.30683">
        <ele>10.4</ele>
        <time>2021-04-18T12:41:10Z</time>
      </trkpt>
      <trkpt lat="49.28402" lon="-0.30681">
        <ele>10.3</ele>
        <time>2021-04-18T12:41:11Z</time>
      </trkpt>
      <trkpt lat="49.28401" lon="-0.30679">
        <ele>10.3</ele>
        <time>2021-04-18T12:41:12Z</time>
      </trkpt>
      <trkpt lat="49.28398" lon="-0.30676">
        <ele>10.3</ele>
        <time>2021-04-18T12:41:14Z</time>
      </trkpt>
      <trkpt lat="49.28397" lon="-0.30675">
        <ele>10.2</ele>
        <time>2021-04-18T12:41:15Z</time>
      </trkpt>
      <trkpt lat="49.28395" lon="-0.30673">
        <ele>10.2</ele>
        <time>2021-04-18T12:41:16Z</time>
      </trkpt>
      <trkpt lat="49.28393" lon="-0.3067">
        <ele>10.2</ele>
        <time>2021-04-18T12:41:18Z</time>
      </trkpt>
      <trkpt lat="49.28391" lon="-0.30667">
        <ele>10.2</ele>
        <time>2021-04-18T12:41:19Z</time>
      </trkpt>
      <trkpt lat="49.2839" lon="-0.30666">
        <ele>10.2</ele>
        <time>2021-04-18T12:41:20Z</time>
      </trkpt>
      <trkpt lat="49.28386" lon="-0.30663">
        <ele>10.1</ele>
        <time>2021-04-18T12:41:22Z</time>
      </trkpt>
      <trkpt lat="49.28384" lon="-0.30661">
        <ele>10.1</ele>
        <time>2021-04-18T12:41:23Z</time>
      </trkpt>
      <trkpt lat="49.28383" lon="-0.3066">
        <ele>10.1</ele>
        <time>2021-04-18T12:41:24Z</time>
      </trkpt>
      <trkpt lat="49.2838" lon="-0.30657">
        <ele>10.1</ele>
        <time>2021-04-18T12:41:26Z</time>
      </trkpt>
      <trkpt lat="49.28379" lon="-0.30655">
        <ele>10.1</ele>
        <time>2021-04-18T12:41:27Z</time>
      </trkpt>
      <trkpt lat="49.28377" lon="-0.30653">
        <ele>10.1</ele>
        <time>2021-04-18T12:41:28Z</time>
      </trkpt>
      <trkpt lat="49.28375" lon="-0.30651">
        <ele>10.1</ele>
        <time>2021-04-18T12:41:30Z</time>
      </trkpt>
      <trkpt lat="49.28372" lon="-0.30648">
        <ele>10.1</ele>
        <time>2021-04-18T12:41:31Z</time>
      </trkpt>
      <trkpt lat="49.28371" lon="-0.30647">
        <ele>10.1</ele>
        <time>2021-04-18T12:41:32Z</time>
      </trkpt>
      <trkpt lat="49.28369" lon="-0.30644">
        <ele>10.1</ele>
        <time>2021-04-18T12:41:34Z</time>
      </trkpt>
      <trkpt lat="49.28368" lon="-0.30643">
        <ele>10.1</ele>
        <time>2021-04-18T12:41:35Z</time>
      </trkpt>
      <trkpt lat="49.28365" lon="-0.30641">
        <ele>10</ele>
        <time>2021-04-18T12:41:37Z</time>
      </trkpt>
      <trkpt lat="49.28363" lon="-0.30639">
        <ele>10</ele>
        <time>2021-04-18T12:41:38Z</time>
      </trkpt>
      <trkpt lat="49.28361" lon="-0.30637">
        <ele>10</ele>
        <time>2021-04-18T12:41:40Z</time>
      </trkpt>
      <trkpt lat="49.2836" lon="-0.30635">
        <ele>10</ele>
        <time>2021-04-18T12:41:41Z</time>
      </trkpt>
      <trkpt lat="49.28358" lon="-0.30633">
        <ele>10</ele>
        <time>2021-04-18T12:41:43Z</time>
      </trkpt>
      <trkpt lat="49.28355" lon="-0.30631">
        <ele>10</ele>
        <time>2021-04-18T12:41:44Z</time>
      </trkpt>
      <trkpt lat="49.28354" lon="-0.3063">
        <ele>10</ele>
        <time>2021-04-18T12:41:45Z</time>
      </trkpt>
      <trkpt lat="49.28351" lon="-0.30628">
        <ele>10</ele>
        <time>2021-04-18T12:41:47Z</time>
      </trkpt>
      <trkpt lat="49.2835" lon="-0.30628">
        <ele>9.9</ele>
        <time>2021-04-18T12:41:48Z</time>
      </trkpt>
      <trkpt lat="49.28348" lon="-0.30627">
        <ele>9.9</ele>
        <time>2021-04-18T12:41:49Z</time>
      </trkpt>
      <trkpt lat="49.28347" lon="-0.30626">
        <ele>9.9</ele>
        <time>2021-04-18T12:41:50Z</time>
      </trkpt>
      <trkpt lat="49.28345" lon="-0.30625">
        <ele>9.9</ele>
        <time>2021-04-18T12:41:52Z</time>
      </trkpt>
      <trkpt lat="49.28344" lon="-0.30624">
        <ele>9.9</ele>
        <time>2021-04-18T12:41:53Z</time>
      </trkpt>
      <trkpt lat="49.28341" lon="-0.30623">
        <ele>9.9</ele>
        <time>2021-04-18T12:41:54Z</time>
      </trkpt>
      <trkpt lat="49.2834" lon="-0.30623">
        <ele>9.9</ele>
        <time>2021-04-18T12:41:56Z</time>
      </trkpt>
      <trkpt lat="49.28339" lon="-0.30623">
        <ele>9.9</ele>
        <time>2021-04-18T12:41:57Z</time>
      </trkpt>
      <trkpt lat="49.28337" lon="-0.30622">
        <ele>9.9</ele>
        <time>2021-04-18T12:41:58Z</time>
      </trkpt>
      <trkpt lat="49.28334" lon="-0.30622">
        <ele>9.9</ele>
        <time>2021-04-18T12:42:00Z</time>
      </trkpt>
      <trkpt lat="49.28333" lon="-0.30622">
        <ele>9.9</ele>
        <time>2021-04-18T12:42:01Z</time>
      </trkpt>
      <trkpt lat="49.28331" lon="-0.30621">
        <ele>9.9</ele>
        <time>2021-04-18T12:42:02Z</time>
      </trkpt>
      <trkpt lat="49.28328" lon="-0.30622">
        <ele>9.9</ele>
        <time>2021-04-18T12:42:04Z</time>
      </trkpt>
      <trkpt lat="49.28326" lon="-0.30622">
        <ele>9.9</ele>
        <time>2021-04-18T12:42:05Z</time>
      </trkpt>
      <trkpt lat="49.28325" lon="-0.30622">
        <ele>9.9</ele>
        <time>2021-04-18T12:42:06Z</time>
      </trkpt>
      <trkpt lat="49.2832" lon="-0.30625">
        <ele>9.9</ele>
        <time>2021-04-18T12:42:08Z</time>
      </trkpt>
      <trkpt lat="49.28319" lon="-0.30625">
        <ele>9.9</ele>
        <time>2021-04-18T12:42:09Z</time>
      </trkpt>
      <trkpt lat="49.28317" lon="-0.30626">
        <ele>9.9</ele>
        <time>2021-04-18T12:42:10Z</time>
      </trkpt>
      <trkpt lat="49.28315" lon="-0.30628">
        <ele>9.9</ele>
        <time>2021-04-18T12:42:11Z</time>
      </trkpt>
      <trkpt lat="49.28312" lon="-0.30629">
        <ele>9.9</ele>
        <time>2021-04-18T12:42:13Z</time>
      </trkpt>
      <trkpt lat="49.28309" lon="-0.3063">
        <ele>9.9</ele>
        <time>2021-04-18T12:42:14Z</time>
      </trkpt>
      <trkpt lat="49.28305" lon="-0.30634">
        <ele>9.9</ele>
        <time>2021-04-18T12:42:16Z</time>
      </trkpt>
      <trkpt lat="49.28303" lon="-0.30635">
        <ele>9.9</ele>
        <time>2021-04-18T12:42:18Z</time>
      </trkpt>
      <trkpt lat="49.28301" lon="-0.30636">
        <ele>9.9</ele>
        <time>2021-04-18T12:42:19Z</time>
      </trkpt>
      <trkpt lat="49.28299" lon="-0.30638">
        <ele>9.9</ele>
        <time>2021-04-18T12:42:20Z</time>
      </trkpt>
      <trkpt lat="49.28296" lon="-0.3064">
        <ele>9.9</ele>
        <time>2021-04-18T12:42:21Z</time>
      </trkpt>
      <trkpt lat="49.28295" lon="-0.30641">
        <ele>9.9</ele>
        <time>2021-04-18T12:42:22Z</time>
      </trkpt>
      <trkpt lat="49.28292" lon="-0.30643">
        <ele>9.9</ele>
        <time>2021-04-18T12:42:24Z</time>
      </trkpt>
      <trkpt lat="49.28291" lon="-0.30644">
        <ele>9.9</ele>
        <time>2021-04-18T12:42:25Z</time>
      </trkpt>
      <trkpt lat="49.28288" lon="-0.30647">
        <ele>9.9</ele>
        <time>2021-04-18T12:42:26Z</time>
      </trkpt>
      <trkpt lat="49.28287" lon="-0.30648">
        <ele>9.9</ele>
        <time>2021-04-18T12:42:27Z</time>
      </trkpt>
      <trkpt lat="49.28285" lon="-0.3065">
        <ele>9.8</ele>
        <time>2021-04-18T12:42:29Z</time>
      </trkpt>
      <trkpt lat="49.28284" lon="-0.30651">
        <ele>9.8</ele>
        <time>2021-04-18T12:42:30Z</time>
      </trkpt>
      <trkpt lat="49.28282" lon="-0.30653">
        <ele>9.8</ele>
        <time>2021-04-18T12:42:31Z</time>
      </trkpt>
      <trkpt lat="49.2828" lon="-0.30655">
        <ele>9.8</ele>
        <time>2021-04-18T12:42:33Z</time>
      </trkpt>
      <trkpt lat="49.28278" lon="-0.30656">
        <ele>9.8</ele>
        <time>2021-04-18T12:42:34Z</time>
      </trkpt>
      <trkpt lat="49.28276" lon="-0.30657">
        <ele>9.8</ele>
        <time>2021-04-18T12:42:36Z</time>
      </trkpt>
      <trkpt lat="49.28273" lon="-0.30658">
        <ele>9.7</ele>
        <time>2021-04-18T12:42:37Z</time>
      </trkpt>
      <trkpt lat="49.28272" lon="-0.30659">
        <ele>9.7</ele>
        <time>2021-04-18T12:42:38Z</time>
      </trkpt>
      <trkpt lat="49.28271" lon="-0.3066">
        <ele>9.7</ele>
        <time>2021-04-18T12:42:40Z</time>
      </trkpt>
      <trkpt lat="49.28269" lon="-0.3066">
        <ele>9.6</ele>
        <time>2021-04-18T12:42:42Z</time>
      </trkpt>
      <trkpt lat="49.28268" lon="-0.3066">
        <ele>9.6</ele>
        <time>2021-04-18T12:42:44Z</time>
      </trkpt>
      <trkpt lat="49.28265" lon="-0.3066">
        <ele>9.5</ele>
        <time>2021-04-18T12:42:46Z</time>
      </trkpt>
      <trkpt lat="49.28262" lon="-0.30661">
        <ele>9.5</ele>
        <time>2021-04-18T12:42:48Z</time>
      </trkpt>
      <trkpt lat="49.2826" lon="-0.30661">
        <ele>9.4</ele>
        <time>2021-04-18T12:42:49Z</time>
      </trkpt>
      <trkpt lat="49.28256" lon="-0.30661">
        <ele>9.3</ele>
        <time>2021-04-18T12:42:51Z</time>
      </trkpt>
      <trkpt lat="49.28252" lon="-0.30661">
        <ele>9.2</ele>
        <time>2021-04-18T12:42:53Z</time>
      </trkpt>
      <trkpt lat="49.28249" lon="-0.3066">
        <ele>9.2</ele>
        <time>2021-04-18T12:42:55Z</time>
      </trkpt>
      <trkpt lat="49.28245" lon="-0.30659">
        <ele>9.1</ele>
        <time>2021-04-18T12:42:57Z</time>
      </trkpt>
      <trkpt lat="49.28241" lon="-0.30659">
        <ele>9</ele>
        <time>2021-04-18T12:42:59Z</time>
      </trkpt>
      <trkpt lat="49.28235" lon="-0.30658">
        <ele>8.8</ele>
        <time>2021-04-18T12:43:00Z</time>
      </trkpt>
      <trkpt lat="49.2823" lon="-0.30658">
        <ele>8.8</ele>
        <time>2021-04-18T12:43:02Z</time>
      </trkpt>
      <trkpt lat="49.28227" lon="-0.30658">
        <ele>8.7</ele>
        <time>2021-04-18T12:43:03Z</time>
      </trkpt>
      <trkpt lat="49.28226" lon="-0.30658">
        <ele>8.7</ele>
        <time>2021-04-18T12:43:04Z</time>
      </trkpt>
      <trkpt lat="49.28223" lon="-0.30657">
        <ele>8.7</ele>
        <time>2021-04-18T12:43:06Z</time>
      </trkpt>
      <trkpt lat="49.28221" lon="-0.30657">
        <ele>8.6</ele>
        <time>2021-04-18T12:43:07Z</time>
      </trkpt>
      <trkpt lat="49.28219" lon="-0.30656">
        <ele>8.6</ele>
        <time>2021-04-18T12:43:08Z</time>
      </trkpt>
      <trkpt lat="49.28217" lon="-0.30656">
        <ele>8.6</ele>
        <time>2021-04-18T12:43:09Z</time>
      </trkpt>
      <trkpt lat="49.28215" lon="-0.30655">
        <ele>8.6</ele>
        <time>2021-04-18T12:43:11Z</time>
      </trkpt>
      <trkpt lat="49.28213" lon="-0.30655">
        <ele>8.5</ele>
        <time>2021-04-18T12:43:12Z</time>
      </trkpt>
      <trkpt lat="49.28212" lon="-0.30654">
        <ele>8.5</ele>
        <time>2021-04-18T12:43:13Z</time>
      </trkpt>
      <trkpt lat="49.28211" lon="-0.30654">
        <ele>8.5</ele>
        <time>2021-04-18T12:43:14Z</time>
      </trkpt>
      <trkpt lat="49.28209" lon="-0.30654">
        <ele>8.5</ele>
        <time>2021-04-18T12:43:16Z</time>
      </trkpt>
      <trkpt lat="49.28208" lon="-0.30655">
        <ele>8.5</ele>
        <time>2021-04-18T12:43:17Z</time>
      </trkpt>
      <trkpt lat="49.28208" lon="-0.30655">
        <ele>8.5</ele>
        <time>2021-04-18T12:43:18Z</time>
      </trkpt>
      <trkpt lat="49.28207" lon="-0.30655">
        <ele>8.5</ele>
        <time>2021-04-18T12:43:20Z</time>
      </trkpt>
      <trkpt lat="49.28206" lon="-0.30656">
        <ele>8.5</ele>
        <time>2021-04-18T12:43:21Z</time>
      </trkpt>
      <trkpt lat="49.28204" lon="-0.30656">
        <ele>8.5</ele>
        <time>2021-04-18T12:43:22Z</time>
      </trkpt>
      <trkpt lat="49.28202" lon="-0.30656">
        <ele>8.5</ele>
        <time>2021-04-18T12:43:24Z</time>
      </trkpt>
      <trkpt lat="49.282" lon="-0.30655">
        <ele>8.4</ele>
        <time>2021-04-18T12:43:25Z</time>
      </trkpt>
      <trkpt lat="49.28197" lon="-0.30654">
        <ele>8.4</ele>
        <time>2021-04-18T12:43:27Z</time>
      </trkpt>
      <trkpt lat="49.28195" lon="-0.30654">
        <ele>8.4</ele>
        <time>2021-04-18T12:43:28Z</time>
      </trkpt>
      <trkpt lat="49.28192" lon="-0.30653">
        <ele>8.4</ele>
        <time>2021-04-18T12:43:30Z</time>
      </trkpt>
      <trkpt lat="49.28187" lon="-0.30652">
        <ele>8.4</ele>
        <time>2021-04-18T12:43:31Z</time>
      </trkpt>
      <trkpt lat="49.28185" lon="-0.30652">
        <ele>8.4</ele>
        <time>2021-04-18T12:43:32Z</time>
      </trkpt>
      <trkpt lat="49.28182" lon="-0.30652">
        <ele>8.4</ele>
        <time>2021-04-18T12:43:34Z</time>
      </trkpt>
      <trkpt lat="49.28178" lon="-0.30651">
        <ele>8.3</ele>
        <time>2021-04-18T12:43:35Z</time>
      </trkpt>
      <trkpt lat="49.28175" lon="-0.30651">
        <ele>8.3</ele>
        <time>2021-04-18T12:43:37Z</time>
      </trkpt>
      <trkpt lat="49.28173" lon="-0.3065">
        <ele>8.3</ele>
        <time>2021-04-18T12:43:38Z</time>
      </trkpt>
      <trkpt lat="49.28169" lon="-0.30649">
        <ele>8.3</ele>
        <time>2021-04-18T12:43:40Z</time>
      </trkpt>
      <trkpt lat="49.28166" lon="-0.30649">
        <ele>8.3</ele>
        <time>2021-04-18T12:43:41Z</time>
      </trkpt>
      <trkpt lat="49.28164" lon="-0.30648">
        <ele>8.3</ele>
        <time>2021-04-18T12:43:43Z</time>
      </trkpt>
      <trkpt lat="49.2816" lon="-0.30648">
        <ele>8.3</ele>
        <time>2021-04-18T12:43:44Z</time>
      </trkpt>
      <trkpt lat="49.28159" lon="-0.30648">
        <ele>8.3</ele>
        <time>2021-04-18T12:43:45Z</time>
      </trkpt>
      <trkpt lat="49.28155" lon="-0.30647">
        <ele>8.3</ele>
        <time>2021-04-18T12:43:46Z</time>
      </trkpt>
      <trkpt lat="49.28154" lon="-0.30646">
        <ele>8.3</ele>
        <time>2021-04-18T12:43:47Z</time>
      </trkpt>
      <trkpt lat="49.2815" lon="-0.30646">
        <ele>8.3</ele>
        <time>2021-04-18T12:43:49Z</time>
      </trkpt>
      <trkpt lat="49.28147" lon="-0.30645">
        <ele>8.3</ele>
        <time>2021-04-18T12:43:50Z</time>
      </trkpt>
      <trkpt lat="49.28144" lon="-0.30644">
        <ele>8.3</ele>
        <time>2021-04-18T12:43:52Z</time>
      </trkpt>
      <trkpt lat="49.28143" lon="-0.30644">
        <ele>8.3</ele>
        <time>2021-04-18T12:43:53Z</time>
      </trkpt>
      <trkpt lat="49.2814" lon="-0.30643">
        <ele>8.3</ele>
        <time>2021-04-18T12:43:55Z</time>
      </trkpt>
      <trkpt lat="49.28139" lon="-0.30643">
        <ele>8.3</ele>
        <time>2021-04-18T12:43:56Z</time>
      </trkpt>
      <trkpt lat="49.28137" lon="-0.30642">
        <ele>8.3</ele>
        <time>2021-04-18T12:43:57Z</time>
      </trkpt>
      <trkpt lat="49.28134" lon="-0.30641">
        <ele>8.3</ele>
        <time>2021-04-18T12:43:59Z</time>
      </trkpt>
      <trkpt lat="49.28132" lon="-0.3064">
        <ele>8.3</ele>
        <time>2021-04-18T12:44:00Z</time>
      </trkpt>
      <trkpt lat="49.28131" lon="-0.3064">
        <ele>8.3</ele>
        <time>2021-04-18T12:44:01Z</time>
      </trkpt>
      <trkpt lat="49.28129" lon="-0.30639">
        <ele>8.3</ele>
        <time>2021-04-18T12:44:02Z</time>
      </trkpt>
      <trkpt lat="49.28126" lon="-0.30638">
        <ele>8.3</ele>
        <time>2021-04-18T12:44:04Z</time>
      </trkpt>
      <trkpt lat="49.28124" lon="-0.30638">
        <ele>8.3</ele>
        <time>2021-04-18T12:44:05Z</time>
      </trkpt>
      <trkpt lat="49.28122" lon="-0.30637">
        <ele>8.3</ele>
        <time>2021-04-18T12:44:07Z</time>
      </trkpt>
      <trkpt lat="49.28119" lon="-0.30637">
        <ele>8.3</ele>
        <time>2021-04-18T12:44:08Z</time>
      </trkpt>
      <trkpt lat="49.28118" lon="-0.30637">
        <ele>8.3</ele>
        <time>2021-04-18T12:44:09Z</time>
      </trkpt>
      <trkpt lat="49.28115" lon="-0.30635">
        <ele>8.3</ele>
        <time>2021-04-18T12:44:11Z</time>
      </trkpt>
      <trkpt lat="49.28114" lon="-0.30635">
        <ele>8.3</ele>
        <time>2021-04-18T12:44:12Z</time>
      </trkpt>
      <trkpt lat="49.28111" lon="-0.30635">
        <ele>8.3</ele>
        <time>2021-04-18T12:44:13Z</time>
      </trkpt>
      <trkpt lat="49.28109" lon="-0.30634">
        <ele>8.3</ele>
        <time>2021-04-18T12:44:15Z</time>
      </trkpt>
      <trkpt lat="49.28106" lon="-0.30634">
        <ele>8.3</ele>
        <time>2021-04-18T12:44:16Z</time>
      </trkpt>
      <trkpt lat="49.28104" lon="-0.30633">
        <ele>8.3</ele>
        <time>2021-04-18T12:44:18Z</time>
      </trkpt>
      <trkpt lat="49.281" lon="-0.30632">
        <ele>8.3</ele>
        <time>2021-04-18T12:44:19Z</time>
      </trkpt>
      <trkpt lat="49.28098" lon="-0.30632">
        <ele>8.3</ele>
        <time>2021-04-18T12:44:20Z</time>
      </trkpt>
      <trkpt lat="49.28095" lon="-0.30632">
        <ele>8.4</ele>
        <time>2021-04-18T12:44:22Z</time>
      </trkpt>
      <trkpt lat="49.28093" lon="-0.30632">
        <ele>8.4</ele>
        <time>2021-04-18T12:44:23Z</time>
      </trkpt>
      <trkpt lat="49.28091" lon="-0.30632">
        <ele>8.4</ele>
        <time>2021-04-18T12:44:24Z</time>
      </trkpt>
      <trkpt lat="49.28089" lon="-0.30632">
        <ele>8.4</ele>
        <time>2021-04-18T12:44:26Z</time>
      </trkpt>
      <trkpt lat="49.28086" lon="-0.30632">
        <ele>8.4</ele>
        <time>2021-04-18T12:44:27Z</time>
      </trkpt>
      <trkpt lat="49.28084" lon="-0.30631">
        <ele>8.4</ele>
        <time>2021-04-18T12:44:29Z</time>
      </trkpt>
      <trkpt lat="49.28081" lon="-0.30631">
        <ele>8.4</ele>
        <time>2021-04-18T12:44:30Z</time>
      </trkpt>
      <trkpt lat="49.28079" lon="-0.30631">
        <ele>8.5</ele>
        <time>2021-04-18T12:44:31Z</time>
      </trkpt>
      <trkpt lat="49.28076" lon="-0.30631">
        <ele>8.5</ele>
        <time>2021-04-18T12:44:33Z</time>
      </trkpt>
      <trkpt lat="49.28074" lon="-0.30631">
        <ele>8.5</ele>
        <time>2021-04-18T12:44:34Z</time>
      </trkpt>
      <trkpt lat="49.28071" lon="-0.3063">
        <ele>8.5</ele>
        <time>2021-04-18T12:44:36Z</time>
      </trkpt>
      <trkpt lat="49.28069" lon="-0.3063">
        <ele>8.5</ele>
        <time>2021-04-18T12:44:37Z</time>
      </trkpt>
      <trkpt lat="49.28066" lon="-0.3063">
        <ele>8.5</ele>
        <time>2021-04-18T12:44:39Z</time>
      </trkpt>
      <trkpt lat="49.28064" lon="-0.3063">
        <ele>8.6</ele>
        <time>2021-04-18T12:44:40Z</time>
      </trkpt>
      <trkpt lat="49.28061" lon="-0.30629">
        <ele>8.6</ele>
        <time>2021-04-18T12:44:42Z</time>
      </trkpt>
      <trkpt lat="49.28058" lon="-0.30629">
        <ele>8.6</ele>
        <time>2021-04-18T12:44:43Z</time>
      </trkpt>
      <trkpt lat="49.28057" lon="-0.30629">
        <ele>8.6</ele>
        <time>2021-04-18T12:44:44Z</time>
      </trkpt>
      <trkpt lat="49.28054" lon="-0.30629">
        <ele>8.7</ele>
        <time>2021-04-18T12:44:46Z</time>
      </trkpt>
      <trkpt lat="49.28052" lon="-0.30629">
        <ele>8.7</ele>
        <time>2021-04-18T12:44:47Z</time>
      </trkpt>
      <trkpt lat="49.2805" lon="-0.3063">
        <ele>8.7</ele>
        <time>2021-04-18T12:44:49Z</time>
      </trkpt>
      <trkpt lat="49.28048" lon="-0.30631">
        <ele>8.7</ele>
        <time>2021-04-18T12:44:50Z</time>
      </trkpt>
      <trkpt lat="49.28046" lon="-0.30633">
        <ele>8.8</ele>
        <time>2021-04-18T12:44:51Z</time>
      </trkpt>
      <trkpt lat="49.28045" lon="-0.30637">
        <ele>8.8</ele>
        <time>2021-04-18T12:44:52Z</time>
      </trkpt>
      <trkpt lat="49.28045" lon="-0.30638">
        <ele>8.8</ele>
        <time>2021-04-18T12:44:53Z</time>
      </trkpt>
      <trkpt lat="49.28045" lon="-0.30642">
        <ele>8.8</ele>
        <time>2021-04-18T12:44:55Z</time>
      </trkpt>
      <trkpt lat="49.28046" lon="-0.30646">
        <ele>8.7</ele>
        <time>2021-04-18T12:44:57Z</time>
      </trkpt>
      <trkpt lat="49.28048" lon="-0.3065">
        <ele>8.7</ele>
        <time>2021-04-18T12:44:58Z</time>
      </trkpt>
      <trkpt lat="49.28049" lon="-0.30651">
        <ele>8.7</ele>
        <time>2021-04-18T12:44:59Z</time>
      </trkpt>
      <trkpt lat="49.2805" lon="-0.30653">
        <ele>8.7</ele>
        <time>2021-04-18T12:45:01Z</time>
      </trkpt>
      <trkpt lat="49.28051" lon="-0.30655">
        <ele>8.7</ele>
        <time>2021-04-18T12:45:02Z</time>
      </trkpt>
      <trkpt lat="49.28054" lon="-0.30658">
        <ele>8.6</ele>
        <time>2021-04-18T12:45:04Z</time>
      </trkpt>
      <trkpt lat="49.28055" lon="-0.30659">
        <ele>8.6</ele>
        <time>2021-04-18T12:45:05Z</time>
      </trkpt>
      <trkpt lat="49.28056" lon="-0.3066">
        <ele>8.6</ele>
        <time>2021-04-18T12:45:06Z</time>
      </trkpt>
      <trkpt lat="49.28058" lon="-0.30662">
        <ele>8.6</ele>
        <time>2021-04-18T12:45:08Z</time>
      </trkpt>
      <trkpt lat="49.2806" lon="-0.30663">
        <ele>8.6</ele>
        <time>2021-04-18T12:45:09Z</time>
      </trkpt>
      <trkpt lat="49.28061" lon="-0.30665">
        <ele>8.6</ele>
        <time>2021-04-18T12:45:10Z</time>
      </trkpt>
      <trkpt lat="49.28063" lon="-0.30668">
        <ele>8.5</ele>
        <time>2021-04-18T12:45:12Z</time>
      </trkpt>
      <trkpt lat="49.28064" lon="-0.30669">
        <ele>8.5</ele>
        <time>2021-04-18T12:45:13Z</time>
      </trkpt>
      <trkpt lat="49.28066" lon="-0.30672">
        <ele>8.5</ele>
        <time>2021-04-18T12:45:14Z</time>
      </trkpt>
      <trkpt lat="49.28069" lon="-0.30675">
        <ele>8.5</ele>
        <time>2021-04-18T12:45:16Z</time>
      </trkpt>
      <trkpt lat="49.2807" lon="-0.30677">
        <ele>8.5</ele>
        <time>2021-04-18T12:45:17Z</time>
      </trkpt>
      <trkpt lat="49.28071" lon="-0.30678">
        <ele>8.5</ele>
        <time>2021-04-18T12:45:18Z</time>
      </trkpt>
      <trkpt lat="49.28073" lon="-0.30681">
        <ele>8.5</ele>
        <time>2021-04-18T12:45:20Z</time>
      </trkpt>
      <trkpt lat="49.28076" lon="-0.30683">
        <ele>8.5</ele>
        <time>2021-04-18T12:45:22Z</time>
      </trkpt>
      <trkpt lat="49.28077" lon="-0.30685">
        <ele>8.5</ele>
        <time>2021-04-18T12:45:23Z</time>
      </trkpt>
      <trkpt lat="49.28079" lon="-0.30687">
        <ele>8.5</ele>
        <time>2021-04-18T12:45:25Z</time>
      </trkpt>
      <trkpt lat="49.28082" lon="-0.30689">
        <ele>8.5</ele>
        <time>2021-04-18T12:45:26Z</time>
      </trkpt>
      <trkpt lat="49.28083" lon="-0.3069">
        <ele>8.5</ele>
        <time>2021-04-18T12:45:27Z</time>
      </trkpt>
      <trkpt lat="49.28084" lon="-0.30691">
        <ele>8.5</ele>
        <time>2021-04-18T12:45:28Z</time>
      </trkpt>
      <trkpt lat="49.28085" lon="-0.30692">
        <ele>8.5</ele>
        <time>2021-04-18T12:45:29Z</time>
      </trkpt>
      <trkpt lat="49.28087" lon="-0.30694">
        <ele>8.5</ele>
        <time>2021-04-18T12:45:30Z</time>
      </trkpt>
      <trkpt lat="49.2809" lon="-0.30697">
        <ele>8.5</ele>
        <time>2021-04-18T12:45:32Z</time>
      </trkpt>
      <trkpt lat="49.28092" lon="-0.30699">
        <ele>8.5</ele>
        <time>2021-04-18T12:45:33Z</time>
      </trkpt>
      <trkpt lat="49.28094" lon="-0.30702">
        <ele>8.5</ele>
        <time>2021-04-18T12:45:35Z</time>
      </trkpt>
      <trkpt lat="49.28095" lon="-0.30703">
        <ele>8.5</ele>
        <time>2021-04-18T12:45:36Z</time>
      </trkpt>
      <trkpt lat="49.28097" lon="-0.30706">
        <ele>8.5</ele>
        <time>2021-04-18T12:45:38Z</time>
      </trkpt>
      <trkpt lat="49.281" lon="-0.30708">
        <ele>8.6</ele>
        <time>2021-04-18T12:45:39Z</time>
      </trkpt>
      <trkpt lat="49.28101" lon="-0.30709">
        <ele>8.6</ele>
        <time>2021-04-18T12:45:40Z</time>
      </trkpt>
      <trkpt lat="49.28103" lon="-0.30712">
        <ele>8.6</ele>
        <time>2021-04-18T12:45:42Z</time>
      </trkpt>
      <trkpt lat="49.28104" lon="-0.30713">
        <ele>8.6</ele>
        <time>2021-04-18T12:45:43Z</time>
      </trkpt>
      <trkpt lat="49.28105" lon="-0.30715">
        <ele>8.7</ele>
        <time>2021-04-18T12:45:44Z</time>
      </trkpt>
      <trkpt lat="49.28108" lon="-0.30718">
        <ele>8.7</ele>
        <time>2021-04-18T12:45:46Z</time>
      </trkpt>
      <trkpt lat="49.28109" lon="-0.3072">
        <ele>8.8</ele>
        <time>2021-04-18T12:45:47Z</time>
      </trkpt>
      <trkpt lat="49.28111" lon="-0.30723">
        <ele>8.8</ele>
        <time>2021-04-18T12:45:49Z</time>
      </trkpt>
      <trkpt lat="49.28113" lon="-0.30726">
        <ele>8.9</ele>
        <time>2021-04-18T12:45:50Z</time>
      </trkpt>
      <trkpt lat="49.28114" lon="-0.30727">
        <ele>8.9</ele>
        <time>2021-04-18T12:45:51Z</time>
      </trkpt>
      <trkpt lat="49.28115" lon="-0.30729">
        <ele>8.9</ele>
        <time>2021-04-18T12:45:52Z</time>
      </trkpt>
      <trkpt lat="49.28117" lon="-0.30732">
        <ele>9</ele>
        <time>2021-04-18T12:45:54Z</time>
      </trkpt>
      <trkpt lat="49.28119" lon="-0.30738">
        <ele>9.1</ele>
        <time>2021-04-18T12:45:56Z</time>
      </trkpt>
      <trkpt lat="49.2812" lon="-0.3074">
        <ele>9.1</ele>
        <time>2021-04-18T12:45:57Z</time>
      </trkpt>
      <trkpt lat="49.28121" lon="-0.30742">
        <ele>9.2</ele>
        <time>2021-04-18T12:45:58Z</time>
      </trkpt>
      <trkpt lat="49.28123" lon="-0.30746">
        <ele>9.2</ele>
        <time>2021-04-18T12:46:00Z</time>
      </trkpt>
      <trkpt lat="49.28125" lon="-0.3075">
        <ele>9.3</ele>
        <time>2021-04-18T12:46:02Z</time>
      </trkpt>
      <trkpt lat="49.28126" lon="-0.30752">
        <ele>9.3</ele>
        <time>2021-04-18T12:46:03Z</time>
      </trkpt>
      <trkpt lat="49.28128" lon="-0.30755">
        <ele>9.4</ele>
        <time>2021-04-18T12:46:05Z</time>
      </trkpt>
      <trkpt lat="49.2813" lon="-0.30759">
        <ele>9.5</ele>
        <time>2021-04-18T12:46:06Z</time>
      </trkpt>
      <trkpt lat="49.28131" lon="-0.3076">
        <ele>9.5</ele>
        <time>2021-04-18T12:46:07Z</time>
      </trkpt>
      <trkpt lat="49.28132" lon="-0.30762">
        <ele>9.5</ele>
        <time>2021-04-18T12:46:08Z</time>
      </trkpt>
      <trkpt lat="49.28135" lon="-0.30765">
        <ele>9.6</ele>
        <time>2021-04-18T12:46:10Z</time>
      </trkpt>
      <trkpt lat="49.28137" lon="-0.30768">
        <ele>9.7</ele>
        <time>2021-04-18T12:46:11Z</time>
      </trkpt>
      <trkpt lat="49.28139" lon="-0.3077">
        <ele>9.8</ele>
        <time>2021-04-18T12:46:12Z</time>
      </trkpt>
      <trkpt lat="49.28141" lon="-0.30773">
        <ele>9.8</ele>
        <time>2021-04-18T12:46:14Z</time>
      </trkpt>
      <trkpt lat="49.28143" lon="-0.30776">
        <ele>9.9</ele>
        <time>2021-04-18T12:46:15Z</time>
      </trkpt>
      <trkpt lat="49.28144" lon="-0.30777">
        <ele>9.9</ele>
        <time>2021-04-18T12:46:16Z</time>
      </trkpt>
      <trkpt lat="49.28146" lon="-0.3078">
        <ele>10</ele>
        <time>2021-04-18T12:46:17Z</time>
      </trkpt>
      <trkpt lat="49.28148" lon="-0.30783">
        <ele>10.1</ele>
        <time>2021-04-18T12:46:19Z</time>
      </trkpt>
      <trkpt lat="49.28149" lon="-0.30784">
        <ele>10.1</ele>
        <time>2021-04-18T12:46:20Z</time>
      </trkpt>
      <trkpt lat="49.2815" lon="-0.30786">
        <ele>10.2</ele>
        <time>2021-04-18T12:46:21Z</time>
      </trkpt>
      <trkpt lat="49.28152" lon="-0.30788">
        <ele>10.2</ele>
        <time>2021-04-18T12:46:22Z</time>
      </trkpt>
      <trkpt lat="49.28154" lon="-0.3079">
        <ele>10.3</ele>
        <time>2021-04-18T12:46:23Z</time>
      </trkpt>
      <trkpt lat="49.28157" lon="-0.30792">
        <ele>10.4</ele>
        <time>2021-04-18T12:46:25Z</time>
      </trkpt>
      <trkpt lat="49.28159" lon="-0.30794">
        <ele>10.5</ele>
        <time>2021-04-18T12:46:26Z</time>
      </trkpt>
      <trkpt lat="49.28163" lon="-0.30797">
        <ele>10.6</ele>
        <time>2021-04-18T12:46:28Z</time>
      </trkpt>
      <trkpt lat="49.28164" lon="-0.30798">
        <ele>10.6</ele>
        <time>2021-04-18T12:46:29Z</time>
      </trkpt>
      <trkpt lat="49.28165" lon="-0.30799">
        <ele>10.6</ele>
        <time>2021-04-18T12:46:30Z</time>
      </trkpt>
      <trkpt lat="49.28169" lon="-0.30802">
        <ele>10.7</ele>
        <time>2021-04-18T12:46:32Z</time>
      </trkpt>
      <trkpt lat="49.2817" lon="-0.30803">
        <ele>10.7</ele>
        <time>2021-04-18T12:46:33Z</time>
      </trkpt>
      <trkpt lat="49.28171" lon="-0.30804">
        <ele>10.7</ele>
        <time>2021-04-18T12:46:34Z</time>
      </trkpt>
      <trkpt lat="49.28174" lon="-0.30807">
        <ele>10.7</ele>
        <time>2021-04-18T12:46:35Z</time>
      </trkpt>
      <trkpt lat="49.28174" lon="-0.30808">
        <ele>10.7</ele>
        <time>2021-04-18T12:46:36Z</time>
      </trkpt>
      <trkpt lat="49.28177" lon="-0.30811">
        <ele>10.8</ele>
        <time>2021-04-18T12:46:38Z</time>
      </trkpt>
      <trkpt lat="49.28177" lon="-0.30812">
        <ele>10.8</ele>
        <time>2021-04-18T12:46:39Z</time>
      </trkpt>
      <trkpt lat="49.28179" lon="-0.30813">
        <ele>10.8</ele>
        <time>2021-04-18T12:46:40Z</time>
      </trkpt>
      <trkpt lat="49.28181" lon="-0.30816">
        <ele>10.8</ele>
        <time>2021-04-18T12:46:42Z</time>
      </trkpt>
      <trkpt lat="49.28182" lon="-0.30818">
        <ele>10.8</ele>
        <time>2021-04-18T12:46:43Z</time>
      </trkpt>
      <trkpt lat="49.28184" lon="-0.3082">
        <ele>10.8</ele>
        <time>2021-04-18T12:46:45Z</time>
      </trkpt>
      <trkpt lat="49.28187" lon="-0.30824">
        <ele>10.8</ele>
        <time>2021-04-18T12:46:46Z</time>
      </trkpt>
      <trkpt lat="49.28188" lon="-0.30825">
        <ele>10.8</ele>
        <time>2021-04-18T12:46:47Z</time>
      </trkpt>
      <trkpt lat="49.2819" lon="-0.30827">
        <ele>10.9</ele>
        <time>2021-04-18T12:46:49Z</time>
      </trkpt>
      <trkpt lat="49.28191" lon="-0.30828">
        <ele>10.9</ele>
        <time>2021-04-18T12:46:50Z</time>
      </trkpt>
      <trkpt lat="49.28193" lon="-0.3083">
        <ele>10.9</ele>
        <time>2021-04-18T12:46:52Z</time>
      </trkpt>
      <trkpt lat="49.28194" lon="-0.30831">
        <ele>10.9</ele>
        <time>2021-04-18T12:46:53Z</time>
      </trkpt>
      <trkpt lat="49.28196" lon="-0.30833">
        <ele>11</ele>
        <time>2021-04-18T12:46:55Z</time>
      </trkpt>
      <trkpt lat="49.28198" lon="-0.30834">
        <ele>11</ele>
        <time>2021-04-18T12:46:56Z</time>
      </trkpt>
      <trkpt lat="49.28201" lon="-0.30836">
        <ele>11</ele>
        <time>2021-04-18T12:46:58Z</time>
      </trkpt>
      <trkpt lat="49.28203" lon="-0.30837">
        <ele>11.1</ele>
        <time>2021-04-18T12:46:59Z</time>
      </trkpt>
      <trkpt lat="49.28204" lon="-0.30837">
        <ele>11.1</ele>
        <time>2021-04-18T12:47:00Z</time>
      </trkpt>
      <trkpt lat="49.28208" lon="-0.30839">
        <ele>11.2</ele>
        <time>2021-04-18T12:47:02Z</time>
      </trkpt>
      <trkpt lat="49.28209" lon="-0.3084">
        <ele>11.2</ele>
        <time>2021-04-18T12:47:03Z</time>
      </trkpt>
      <trkpt lat="49.28211" lon="-0.3084">
        <ele>11.2</ele>
        <time>2021-04-18T12:47:04Z</time>
      </trkpt>
      <trkpt lat="49.28213" lon="-0.30841">
        <ele>11.2</ele>
        <time>2021-04-18T12:47:06Z</time>
      </trkpt>
      <trkpt lat="49.28215" lon="-0.30843">
        <ele>11.3</ele>
        <time>2021-04-18T12:47:08Z</time>
      </trkpt>
      <trkpt lat="49.28216" lon="-0.30844">
        <ele>11.3</ele>
        <time>2021-04-18T12:47:09Z</time>
      </trkpt>
      <trkpt lat="49.28218" lon="-0.30846">
        <ele>11.3</ele>
        <time>2021-04-18T12:47:11Z</time>
      </trkpt>
      <trkpt lat="49.28219" lon="-0.30847">
        <ele>11.3</ele>
        <time>2021-04-18T12:47:12Z</time>
      </trkpt>
      <trkpt lat="49.2822" lon="-0.30849">
        <ele>11.3</ele>
        <time>2021-04-18T12:47:13Z</time>
      </trkpt>
      <trkpt lat="49.28221" lon="-0.30851">
        <ele>11.3</ele>
        <time>2021-04-18T12:47:15Z</time>
      </trkpt>
      <trkpt lat="49.28222" lon="-0.30853">
        <ele>11.3</ele>
        <time>2021-04-18T12:47:16Z</time>
      </trkpt>
      <trkpt lat="49.28223" lon="-0.30855">
        <ele>11.4</ele>
        <time>2021-04-18T12:47:17Z</time>
      </trkpt>
      <trkpt lat="49.28225" lon="-0.30857">
        <ele>11.4</ele>
        <time>2021-04-18T12:47:19Z</time>
      </trkpt>
      <trkpt lat="49.28226" lon="-0.30859">
        <ele>11.4</ele>
        <time>2021-04-18T12:47:20Z</time>
      </trkpt>
      <trkpt lat="49.28227" lon="-0.30862">
        <ele>11.4</ele>
        <time>2021-04-18T12:47:22Z</time>
      </trkpt>
      <trkpt lat="49.2823" lon="-0.30867">
        <ele>11.4</ele>
        <time>2021-04-18T12:47:23Z</time>
      </trkpt>
      <trkpt lat="49.2823" lon="-0.30869">
        <ele>11.4</ele>
        <time>2021-04-18T12:47:24Z</time>
      </trkpt>
      <trkpt lat="49.28232" lon="-0.30872">
        <ele>11.4</ele>
        <time>2021-04-18T12:47:25Z</time>
      </trkpt>
      <trkpt lat="49.28233" lon="-0.30876">
        <ele>11.4</ele>
        <time>2021-04-18T12:47:27Z</time>
      </trkpt>
      <trkpt lat="49.28235" lon="-0.3088">
        <ele>11.4</ele>
        <time>2021-04-18T12:47:28Z</time>
      </trkpt>
      <trkpt lat="49.28236" lon="-0.30882">
        <ele>11.4</ele>
        <time>2021-04-18T12:47:29Z</time>
      </trkpt>
      <trkpt lat="49.28238" lon="-0.30886">
        <ele>11.4</ele>
        <time>2021-04-18T12:47:31Z</time>
      </trkpt>
      <trkpt lat="49.2824" lon="-0.3089">
        <ele>11.4</ele>
        <time>2021-04-18T12:47:32Z</time>
      </trkpt>
      <trkpt lat="49.28242" lon="-0.30895">
        <ele>11.5</ele>
        <time>2021-04-18T12:47:33Z</time>
      </trkpt>
      <trkpt lat="49.28243" lon="-0.30899">
        <ele>11.5</ele>
        <time>2021-04-18T12:47:35Z</time>
      </trkpt>
      <trkpt lat="49.28245" lon="-0.30904">
        <ele>11.5</ele>
        <time>2021-04-18T12:47:36Z</time>
      </trkpt>
      <trkpt lat="49.28247" lon="-0.30908">
        <ele>11.6</ele>
        <time>2021-04-18T12:47:37Z</time>
      </trkpt>
      <trkpt lat="49.28249" lon="-0.30913">
        <ele>11.6</ele>
        <time>2021-04-18T12:47:39Z</time>
      </trkpt>
      <trkpt lat="49.28251" lon="-0.30918">
        <ele>11.7</ele>
        <time>2021-04-18T12:47:40Z</time>
      </trkpt>
      <trkpt lat="49.28251" lon="-0.30919">
        <ele>11.7</ele>
        <time>2021-04-18T12:47:41Z</time>
      </trkpt>
      <trkpt lat="49.28253" lon="-0.30925">
        <ele>11.8</ele>
        <time>2021-04-18T12:47:43Z</time>
      </trkpt>
      <trkpt lat="49.28254" lon="-0.30927">
        <ele>11.8</ele>
        <time>2021-04-18T12:47:44Z</time>
      </trkpt>
      <trkpt lat="49.28255" lon="-0.3093">
        <ele>11.8</ele>
        <time>2021-04-18T12:47:45Z</time>
      </trkpt>
      <trkpt lat="49.28257" lon="-0.30936">
        <ele>11.9</ele>
        <time>2021-04-18T12:47:47Z</time>
      </trkpt>
      <trkpt lat="49.28258" lon="-0.30938">
        <ele>11.9</ele>
        <time>2021-04-18T12:47:48Z</time>
      </trkpt>
      <trkpt lat="49.28258" lon="-0.3094">
        <ele>11.9</ele>
        <time>2021-04-18T12:47:49Z</time>
      </trkpt>
      <trkpt lat="49.2826" lon="-0.30944">
        <ele>11.9</ele>
        <time>2021-04-18T12:47:51Z</time>
      </trkpt>
      <trkpt lat="49.28261" lon="-0.30945">
        <ele>12</ele>
        <time>2021-04-18T12:47:52Z</time>
      </trkpt>
      <trkpt lat="49.28262" lon="-0.30949">
        <ele>12</ele>
        <time>2021-04-18T12:47:53Z</time>
      </trkpt>
      <trkpt lat="49.28263" lon="-0.3095">
        <ele>12</ele>
        <time>2021-04-18T12:47:54Z</time>
      </trkpt>
      <trkpt lat="49.28265" lon="-0.30955">
        <ele>12</ele>
        <time>2021-04-18T12:47:56Z</time>
      </trkpt>
      <trkpt lat="49.28265" lon="-0.30956">
        <ele>12</ele>
        <time>2021-04-18T12:47:57Z</time>
      </trkpt>
      <trkpt lat="49.28266" lon="-0.30958">
        <ele>12</ele>
        <time>2021-04-18T12:47:58Z</time>
      </trkpt>
      <trkpt lat="49.28267" lon="-0.30961">
        <ele>12</ele>
        <time>2021-04-18T12:47:59Z</time>
      </trkpt>
      <trkpt lat="49.28268" lon="-0.30963">
        <ele>12.1</ele>
        <time>2021-04-18T12:48:00Z</time>
      </trkpt>
      <trkpt lat="49.28269" lon="-0.30967">
        <ele>12.1</ele>
        <time>2021-04-18T12:48:02Z</time>
      </trkpt>
      <trkpt lat="49.28271" lon="-0.3097">
        <ele>12.1</ele>
        <time>2021-04-18T12:48:03Z</time>
      </trkpt>
      <trkpt lat="49.28271" lon="-0.30971">
        <ele>12.1</ele>
        <time>2021-04-18T12:48:04Z</time>
      </trkpt>
      <trkpt lat="49.28273" lon="-0.30975">
        <ele>12.1</ele>
        <time>2021-04-18T12:48:05Z</time>
      </trkpt>
      <trkpt lat="49.28273" lon="-0.30976">
        <ele>12.1</ele>
        <time>2021-04-18T12:48:06Z</time>
      </trkpt>
      <trkpt lat="49.28275" lon="-0.30981">
        <ele>12.2</ele>
        <time>2021-04-18T12:48:08Z</time>
      </trkpt>
      <trkpt lat="49.28277" lon="-0.30985">
        <ele>12.2</ele>
        <time>2021-04-18T12:48:10Z</time>
      </trkpt>
      <trkpt lat="49.28278" lon="-0.30988">
        <ele>12.2</ele>
        <time>2021-04-18T12:48:11Z</time>
      </trkpt>
      <trkpt lat="49.2828" lon="-0.30992">
        <ele>12.2</ele>
        <time>2021-04-18T12:48:13Z</time>
      </trkpt>
      <trkpt lat="49.28282" lon="-0.30997">
        <ele>12.2</ele>
        <time>2021-04-18T12:48:14Z</time>
      </trkpt>
      <trkpt lat="49.28282" lon="-0.30999">
        <ele>12.2</ele>
        <time>2021-04-18T12:48:15Z</time>
      </trkpt>
      <trkpt lat="49.28283" lon="-0.31002">
        <ele>12.3</ele>
        <time>2021-04-18T12:48:16Z</time>
      </trkpt>
      <trkpt lat="49.28285" lon="-0.31007">
        <ele>12.3</ele>
        <time>2021-04-18T12:48:18Z</time>
      </trkpt>
      <trkpt lat="49.28286" lon="-0.31011">
        <ele>12.3</ele>
        <time>2021-04-18T12:48:19Z</time>
      </trkpt>
      <trkpt lat="49.28288" lon="-0.31014">
        <ele>12.3</ele>
        <time>2021-04-18T12:48:21Z</time>
      </trkpt>
      <trkpt lat="49.2829" lon="-0.31019">
        <ele>12.3</ele>
        <time>2021-04-18T12:48:22Z</time>
      </trkpt>
      <trkpt lat="49.2829" lon="-0.3102">
        <ele>12.4</ele>
        <time>2021-04-18T12:48:23Z</time>
      </trkpt>
      <trkpt lat="49.28292" lon="-0.31024">
        <ele>12.4</ele>
        <time>2021-04-18T12:48:24Z</time>
      </trkpt>
      <trkpt lat="49.28293" lon="-0.31028">
        <ele>12.4</ele>
        <time>2021-04-18T12:48:26Z</time>
      </trkpt>
      <trkpt lat="49.28294" lon="-0.31031">
        <ele>12.4</ele>
        <time>2021-04-18T12:48:27Z</time>
      </trkpt>
      <trkpt lat="49.28295" lon="-0.31033">
        <ele>12.4</ele>
        <time>2021-04-18T12:48:28Z</time>
      </trkpt>
      <trkpt lat="49.28297" lon="-0.31037">
        <ele>12.5</ele>
        <time>2021-04-18T12:48:30Z</time>
      </trkpt>
      <trkpt lat="49.28297" lon="-0.3104">
        <ele>12.5</ele>
        <time>2021-04-18T12:48:31Z</time>
      </trkpt>
      <trkpt lat="49.28299" lon="-0.31043">
        <ele>12.5</ele>
        <time>2021-04-18T12:48:33Z</time>
      </trkpt>
      <trkpt lat="49.28301" lon="-0.31047">
        <ele>12.5</ele>
        <time>2021-04-18T12:48:34Z</time>
      </trkpt>
      <trkpt lat="49.28301" lon="-0.31048">
        <ele>12.5</ele>
        <time>2021-04-18T12:48:35Z</time>
      </trkpt>
      <trkpt lat="49.28302" lon="-0.31052">
        <ele>12.5</ele>
        <time>2021-04-18T12:48:36Z</time>
      </trkpt>
      <trkpt lat="49.28303" lon="-0.31054">
        <ele>12.5</ele>
        <time>2021-04-18T12:48:37Z</time>
      </trkpt>
      <trkpt lat="49.28304" lon="-0.31057">
        <ele>12.5</ele>
        <time>2021-04-18T12:48:38Z</time>
      </trkpt>
      <trkpt lat="49.28305" lon="-0.3106">
        <ele>12.5</ele>
        <time>2021-04-18T12:48:40Z</time>
      </trkpt>
      <trkpt lat="49.28307" lon="-0.31067">
        <ele>12.6</ele>
        <time>2021-04-18T12:48:42Z</time>
      </trkpt>
      <trkpt lat="49.28308" lon="-0.3107">
        <ele>12.6</ele>
        <time>2021-04-18T12:48:44Z</time>
      </trkpt>
      <trkpt lat="49.28308" lon="-0.31073">
        <ele>12.5</ele>
        <time>2021-04-18T12:48:45Z</time>
      </trkpt>
      <trkpt lat="49.28309" lon="-0.31076">
        <ele>12.5</ele>
        <time>2021-04-18T12:48:46Z</time>
      </trkpt>
      <trkpt lat="49.2831" lon="-0.3108">
        <ele>12.5</ele>
        <time>2021-04-18T12:48:47Z</time>
      </trkpt>
      <trkpt lat="49.28311" lon="-0.31082">
        <ele>12.5</ele>
        <time>2021-04-18T12:48:48Z</time>
      </trkpt>
      <trkpt lat="49.28312" lon="-0.31086">
        <ele>12.5</ele>
        <time>2021-04-18T12:48:50Z</time>
      </trkpt>
      <trkpt lat="49.28313" lon="-0.31091">
        <ele>12.5</ele>
        <time>2021-04-18T12:48:52Z</time>
      </trkpt>
      <trkpt lat="49.28316" lon="-0.31097">
        <ele>12.5</ele>
        <time>2021-04-18T12:48:54Z</time>
      </trkpt>
      <trkpt lat="49.28317" lon="-0.31099">
        <ele>12.5</ele>
        <time>2021-04-18T12:48:55Z</time>
      </trkpt>
      <trkpt lat="49.28317" lon="-0.31101">
        <ele>12.5</ele>
        <time>2021-04-18T12:48:56Z</time>
      </trkpt>
      <trkpt lat="49.28319" lon="-0.31105">
        <ele>12.5</ele>
        <time>2021-04-18T12:48:58Z</time>
      </trkpt>
      <trkpt lat="49.28319" lon="-0.31106">
        <ele>12.5</ele>
        <time>2021-04-18T12:48:59Z</time>
      </trkpt>
      <trkpt lat="49.28321" lon="-0.3111">
        <ele>12.5</ele>
        <time>2021-04-18T12:49:00Z</time>
      </trkpt>
      <trkpt lat="49.28321" lon="-0.31111">
        <ele>12.5</ele>
        <time>2021-04-18T12:49:01Z</time>
      </trkpt>
      <trkpt lat="49.28323" lon="-0.31115">
        <ele>12.5</ele>
        <time>2021-04-18T12:49:03Z</time>
      </trkpt>
      <trkpt lat="49.28323" lon="-0.31117">
        <ele>12.5</ele>
        <time>2021-04-18T12:49:04Z</time>
      </trkpt>
      <trkpt lat="49.28325" lon="-0.31121">
        <ele>12.5</ele>
        <time>2021-04-18T12:49:05Z</time>
      </trkpt>
      <trkpt lat="49.28325" lon="-0.31122">
        <ele>12.5</ele>
        <time>2021-04-18T12:49:06Z</time>
      </trkpt>
      <trkpt lat="49.28327" lon="-0.31127">
        <ele>12.4</ele>
        <time>2021-04-18T12:49:08Z</time>
      </trkpt>
      <trkpt lat="49.28328" lon="-0.31128">
        <ele>12.4</ele>
        <time>2021-04-18T12:49:09Z</time>
      </trkpt>
      <trkpt lat="49.28329" lon="-0.31131">
        <ele>12.4</ele>
        <time>2021-04-18T12:49:10Z</time>
      </trkpt>
      <trkpt lat="49.2833" lon="-0.31135">
        <ele>12.4</ele>
        <time>2021-04-18T12:49:12Z</time>
      </trkpt>
      <trkpt lat="49.28332" lon="-0.31137">
        <ele>12.4</ele>
        <time>2021-04-18T12:49:13Z</time>
      </trkpt>
      <trkpt lat="49.28333" lon="-0.3114">
        <ele>12.4</ele>
        <time>2021-04-18T12:49:15Z</time>
      </trkpt>
      <trkpt lat="49.28335" lon="-0.31144">
        <ele>12.4</ele>
        <time>2021-04-18T12:49:16Z</time>
      </trkpt>
      <trkpt lat="49.28335" lon="-0.31146">
        <ele>12.4</ele>
        <time>2021-04-18T12:49:17Z</time>
      </trkpt>
      <trkpt lat="49.28337" lon="-0.31149">
        <ele>12.3</ele>
        <time>2021-04-18T12:49:18Z</time>
      </trkpt>
      <trkpt lat="49.28339" lon="-0.31153">
        <ele>12.3</ele>
        <time>2021-04-18T12:49:20Z</time>
      </trkpt>
      <trkpt lat="49.2834" lon="-0.31153">
        <ele>12.3</ele>
        <time>2021-04-18T12:49:21Z</time>
      </trkpt>
      <trkpt lat="49.28341" lon="-0.31157">
        <ele>12.3</ele>
        <time>2021-04-18T12:49:23Z</time>
      </trkpt>
      <trkpt lat="49.28342" lon="-0.31159">
        <ele>12.3</ele>
        <time>2021-04-18T12:49:24Z</time>
      </trkpt>
      <trkpt lat="49.28344" lon="-0.31161">
        <ele>12.3</ele>
        <time>2021-04-18T12:49:25Z</time>
      </trkpt>
      <trkpt lat="49.28345" lon="-0.31164">
        <ele>12.3</ele>
        <time>2021-04-18T12:49:27Z</time>
      </trkpt>
      <trkpt lat="49.28347" lon="-0.31168">
        <ele>12.3</ele>
        <time>2021-04-18T12:49:28Z</time>
      </trkpt>
      <trkpt lat="49.28348" lon="-0.31169">
        <ele>12.3</ele>
        <time>2021-04-18T12:49:29Z</time>
      </trkpt>
      <trkpt lat="49.2835" lon="-0.31173">
        <ele>12.3</ele>
        <time>2021-04-18T12:49:31Z</time>
      </trkpt>
      <trkpt lat="49.2835" lon="-0.31174">
        <ele>12.3</ele>
        <time>2021-04-18T12:49:32Z</time>
      </trkpt>
      <trkpt lat="49.28351" lon="-0.31176">
        <ele>12.3</ele>
        <time>2021-04-18T12:49:33Z</time>
      </trkpt>
      <trkpt lat="49.28353" lon="-0.31179">
        <ele>12.3</ele>
        <time>2021-04-18T12:49:35Z</time>
      </trkpt>
      <trkpt lat="49.28355" lon="-0.31183">
        <ele>12.3</ele>
        <time>2021-04-18T12:49:36Z</time>
      </trkpt>
      <trkpt lat="49.28356" lon="-0.31185">
        <ele>12.3</ele>
        <time>2021-04-18T12:49:37Z</time>
      </trkpt>
      <trkpt lat="49.28358" lon="-0.31188">
        <ele>12.3</ele>
        <time>2021-04-18T12:49:38Z</time>
      </trkpt>
      <trkpt lat="49.28359" lon="-0.31192">
        <ele>12.3</ele>
        <time>2021-04-18T12:49:40Z</time>
      </trkpt>
      <trkpt lat="49.2836" lon="-0.31196">
        <ele>12.3</ele>
        <time>2021-04-18T12:49:41Z</time>
      </trkpt>
      <trkpt lat="49.28362" lon="-0.312">
        <ele>12.2</ele>
        <time>2021-04-18T12:49:43Z</time>
      </trkpt>
      <trkpt lat="49.28363" lon="-0.31205">
        <ele>12.2</ele>
        <time>2021-04-18T12:49:45Z</time>
      </trkpt>
      <trkpt lat="49.28365" lon="-0.3121">
        <ele>12.2</ele>
        <time>2021-04-18T12:49:46Z</time>
      </trkpt>
      <trkpt lat="49.28366" lon="-0.31213">
        <ele>12.2</ele>
        <time>2021-04-18T12:49:47Z</time>
      </trkpt>
      <trkpt lat="49.28368" lon="-0.31218">
        <ele>12.2</ele>
        <time>2021-04-18T12:49:49Z</time>
      </trkpt>
      <trkpt lat="49.28369" lon="-0.3122">
        <ele>12.2</ele>
        <time>2021-04-18T12:49:50Z</time>
      </trkpt>
      <trkpt lat="49.2837" lon="-0.31223">
        <ele>12.2</ele>
        <time>2021-04-18T12:49:51Z</time>
      </trkpt>
      <trkpt lat="49.2837" lon="-0.31225">
        <ele>12.2</ele>
        <time>2021-04-18T12:49:52Z</time>
      </trkpt>
      <trkpt lat="49.28372" lon="-0.31227">
        <ele>12.2</ele>
        <time>2021-04-18T12:49:53Z</time>
      </trkpt>
      <trkpt lat="49.28373" lon="-0.3123">
        <ele>12.2</ele>
        <time>2021-04-18T12:49:55Z</time>
      </trkpt>
      <trkpt lat="49.28375" lon="-0.31235">
        <ele>12.2</ele>
        <time>2021-04-18T12:49:56Z</time>
      </trkpt>
      <trkpt lat="49.28375" lon="-0.31236">
        <ele>12.2</ele>
        <time>2021-04-18T12:49:57Z</time>
      </trkpt>
      <trkpt lat="49.28377" lon="-0.31239">
        <ele>12.1</ele>
        <time>2021-04-18T12:49:58Z</time>
      </trkpt>
      <trkpt lat="49.28378" lon="-0.31242">
        <ele>12.1</ele>
        <time>2021-04-18T12:50:00Z</time>
      </trkpt>
      <trkpt lat="49.2838" lon="-0.31246">
        <ele>12.1</ele>
        <time>2021-04-18T12:50:01Z</time>
      </trkpt>
      <trkpt lat="49.2838" lon="-0.31247">
        <ele>12.1</ele>
        <time>2021-04-18T12:50:02Z</time>
      </trkpt>
      <trkpt lat="49.28381" lon="-0.31251">
        <ele>12.1</ele>
        <time>2021-04-18T12:50:04Z</time>
      </trkpt>
      <trkpt lat="49.28382" lon="-0.31252">
        <ele>12</ele>
        <time>2021-04-18T12:50:05Z</time>
      </trkpt>
      <trkpt lat="49.28384" lon="-0.31255">
        <ele>12</ele>
        <time>2021-04-18T12:50:07Z</time>
      </trkpt>
      <trkpt lat="49.28385" lon="-0.31259">
        <ele>12</ele>
        <time>2021-04-18T12:50:08Z</time>
      </trkpt>
      <trkpt lat="49.28386" lon="-0.3126">
        <ele>12</ele>
        <time>2021-04-18T12:50:09Z</time>
      </trkpt>
      <trkpt lat="49.28388" lon="-0.31265">
        <ele>11.9</ele>
        <time>2021-04-18T12:50:11Z</time>
      </trkpt>
      <trkpt lat="49.28388" lon="-0.31266">
        <ele>11.9</ele>
        <time>2021-04-18T12:50:12Z</time>
      </trkpt>
      <trkpt lat="49.28389" lon="-0.31269">
        <ele>11.9</ele>
        <time>2021-04-18T12:50:13Z</time>
      </trkpt>
      <trkpt lat="49.28391" lon="-0.31272">
        <ele>11.8</ele>
        <time>2021-04-18T12:50:15Z</time>
      </trkpt>
      <trkpt lat="49.28392" lon="-0.31276">
        <ele>11.8</ele>
        <time>2021-04-18T12:50:16Z</time>
      </trkpt>
      <trkpt lat="49.28393" lon="-0.31277">
        <ele>11.8</ele>
        <time>2021-04-18T12:50:17Z</time>
      </trkpt>
      <trkpt lat="49.28395" lon="-0.31281">
        <ele>11.7</ele>
        <time>2021-04-18T12:50:18Z</time>
      </trkpt>
      <trkpt lat="49.28397" lon="-0.31286">
        <ele>11.7</ele>
        <time>2021-04-18T12:50:20Z</time>
      </trkpt>
      <trkpt lat="49.28398" lon="-0.31288">
        <ele>11.6</ele>
        <time>2021-04-18T12:50:21Z</time>
      </trkpt>
      <trkpt lat="49.28399" lon="-0.3129">
        <ele>11.6</ele>
        <time>2021-04-18T12:50:22Z</time>
      </trkpt>
      <trkpt lat="49.28401" lon="-0.31293">
        <ele>11.5</ele>
        <time>2021-04-18T12:50:24Z</time>
      </trkpt>
      <trkpt lat="49.28402" lon="-0.31294">
        <ele>11.5</ele>
        <time>2021-04-18T12:50:25Z</time>
      </trkpt>
      <trkpt lat="49.28404" lon="-0.31299">
        <ele>11.4</ele>
        <time>2021-04-18T12:50:27Z</time>
      </trkpt>
      <trkpt lat="49.28405" lon="-0.313">
        <ele>11.4</ele>
        <time>2021-04-18T12:50:28Z</time>
      </trkpt>
      <trkpt lat="49.28406" lon="-0.31302">
        <ele>11.4</ele>
        <time>2021-04-18T12:50:29Z</time>
      </trkpt>
      <trkpt lat="49.28407" lon="-0.31305">
        <ele>11.3</ele>
        <time>2021-04-18T12:50:30Z</time>
      </trkpt>
      <trkpt lat="49.28409" lon="-0.31311">
        <ele>11.2</ele>
        <time>2021-04-18T12:50:32Z</time>
      </trkpt>
      <trkpt lat="49.2841" lon="-0.31313">
        <ele>11.2</ele>
        <time>2021-04-18T12:50:33Z</time>
      </trkpt>
      <trkpt lat="49.28411" lon="-0.31314">
        <ele>11.1</ele>
        <time>2021-04-18T12:50:34Z</time>
      </trkpt>
      <trkpt lat="49.28413" lon="-0.31319">
        <ele>11.1</ele>
        <time>2021-04-18T12:50:35Z</time>
      </trkpt>
      <trkpt lat="49.28413" lon="-0.31321">
        <ele>11</ele>
        <time>2021-04-18T12:50:36Z</time>
      </trkpt>
      <trkpt lat="49.28415" lon="-0.31324">
        <ele>11</ele>
        <time>2021-04-18T12:50:38Z</time>
      </trkpt>
      <trkpt lat="49.28416" lon="-0.31327">
        <ele>10.9</ele>
        <time>2021-04-18T12:50:39Z</time>
      </trkpt>
      <trkpt lat="49.28417" lon="-0.31329">
        <ele>10.9</ele>
        <time>2021-04-18T12:50:40Z</time>
      </trkpt>
      <trkpt lat="49.28419" lon="-0.31335">
        <ele>10.7</ele>
        <time>2021-04-18T12:50:42Z</time>
      </trkpt>
      <trkpt lat="49.28421" lon="-0.31337">
        <ele>10.6</ele>
        <time>2021-04-18T12:50:44Z</time>
      </trkpt>
      <trkpt lat="49.28422" lon="-0.3134">
        <ele>10.6</ele>
        <time>2021-04-18T12:50:45Z</time>
      </trkpt>
      <trkpt lat="49.28423" lon="-0.31342">
        <ele>10.6</ele>
        <time>2021-04-18T12:50:46Z</time>
      </trkpt>
      <trkpt lat="49.28423" lon="-0.31343">
        <ele>10.6</ele>
        <time>2021-04-18T12:50:47Z</time>
      </trkpt>
      <trkpt lat="49.28423" lon="-0.31342">
        <ele>10.6</ele>
        <time>2021-04-18T12:50:49Z</time>
      </trkpt>
      <trkpt lat="49.28424" lon="-0.31341">
        <ele>10.6</ele>
        <time>2021-04-18T12:50:50Z</time>
      </trkpt>
      <trkpt lat="49.28424" lon="-0.3134">
        <ele>10.6</ele>
        <time>2021-04-18T12:50:51Z</time>
      </trkpt>
      <trkpt lat="49.28424" lon="-0.3134">
        <ele>10.6</ele>
        <time>2021-04-18T12:50:52Z</time>
      </trkpt>
      <trkpt lat="49.28425" lon="-0.3134">
        <ele>10.5</ele>
        <time>2021-04-18T12:50:53Z</time>
      </trkpt>
      <trkpt lat="49.28426" lon="-0.31338">
        <ele>10.5</ele>
        <time>2021-04-18T12:50:54Z</time>
      </trkpt>
      <trkpt lat="49.28428" lon="-0.31335">
        <ele>10.5</ele>
        <time>2021-04-18T12:50:56Z</time>
      </trkpt>
      <trkpt lat="49.2843" lon="-0.31331">
        <ele>10.5</ele>
        <time>2021-04-18T12:50:57Z</time>
      </trkpt>
      <trkpt lat="49.2843" lon="-0.31329">
        <ele>10.5</ele>
        <time>2021-04-18T12:50:58Z</time>
      </trkpt>
      <trkpt lat="49.28432" lon="-0.31323">
        <ele>10.5</ele>
        <time>2021-04-18T12:51:00Z</time>
      </trkpt>
      <trkpt lat="49.28433" lon="-0.31321">
        <ele>10.5</ele>
        <time>2021-04-18T12:51:01Z</time>
      </trkpt>
      <trkpt lat="49.28433" lon="-0.3132">
        <ele>10.5</ele>
        <time>2021-04-18T12:51:02Z</time>
      </trkpt>
      <trkpt lat="49.28436" lon="-0.31317">
        <ele>10.4</ele>
        <time>2021-04-18T12:51:04Z</time>
      </trkpt>
      <trkpt lat="49.28437" lon="-0.31315">
        <ele>10.4</ele>
        <time>2021-04-18T12:51:05Z</time>
      </trkpt>
      <trkpt lat="49.28439" lon="-0.31313">
        <ele>10.4</ele>
        <time>2021-04-18T12:51:07Z</time>
      </trkpt>
      <trkpt lat="49.28441" lon="-0.31311">
        <ele>10.4</ele>
        <time>2021-04-18T12:51:08Z</time>
      </trkpt>
      <trkpt lat="49.28442" lon="-0.3131">
        <ele>10.4</ele>
        <time>2021-04-18T12:51:09Z</time>
      </trkpt>
      <trkpt lat="49.28443" lon="-0.31308">
        <ele>10.4</ele>
        <time>2021-04-18T12:51:10Z</time>
      </trkpt>
      <trkpt lat="49.28446" lon="-0.31305">
        <ele>10.3</ele>
        <time>2021-04-18T12:51:12Z</time>
      </trkpt>
      <trkpt lat="49.28448" lon="-0.31303">
        <ele>10.3</ele>
        <time>2021-04-18T12:51:13Z</time>
      </trkpt>
      <trkpt lat="49.2845" lon="-0.31301">
        <ele>10.3</ele>
        <time>2021-04-18T12:51:15Z</time>
      </trkpt>
      <trkpt lat="49.28453" lon="-0.31299">
        <ele>10.2</ele>
        <time>2021-04-18T12:51:16Z</time>
      </trkpt>
      <trkpt lat="49.28455" lon="-0.31297">
        <ele>10.2</ele>
        <time>2021-04-18T12:51:17Z</time>
      </trkpt>
      <trkpt lat="49.28458" lon="-0.31296">
        <ele>10.1</ele>
        <time>2021-04-18T12:51:19Z</time>
      </trkpt>
      <trkpt lat="49.2846" lon="-0.31294">
        <ele>10.1</ele>
        <time>2021-04-18T12:51:20Z</time>
      </trkpt>
      <trkpt lat="49.28464" lon="-0.31292">
        <ele>10</ele>
        <time>2021-04-18T12:51:21Z</time>
      </trkpt>
      <trkpt lat="49.28465" lon="-0.31291">
        <ele>10</ele>
        <time>2021-04-18T12:51:22Z</time>
      </trkpt>
      <trkpt lat="49.28467" lon="-0.31289">
        <ele>9.9</ele>
        <time>2021-04-18T12:51:23Z</time>
      </trkpt>
      <trkpt lat="49.28472" lon="-0.31285">
        <ele>9.9</ele>
        <time>2021-04-18T12:51:25Z</time>
      </trkpt>
      <trkpt lat="49.28474" lon="-0.31283">
        <ele>9.8</ele>
        <time>2021-04-18T12:51:26Z</time>
      </trkpt>
      <trkpt lat="49.28475" lon="-0.31282">
        <ele>9.8</ele>
        <time>2021-04-18T12:51:27Z</time>
      </trkpt>
      <trkpt lat="49.28478" lon="-0.3128">
        <ele>9.7</ele>
        <time>2021-04-18T12:51:29Z</time>
      </trkpt>
      <trkpt lat="49.2848" lon="-0.31279">
        <ele>9.7</ele>
        <time>2021-04-18T12:51:30Z</time>
      </trkpt>
      <trkpt lat="49.28482" lon="-0.31278">
        <ele>9.6</ele>
        <time>2021-04-18T12:51:31Z</time>
      </trkpt>
      <trkpt lat="49.28484" lon="-0.31276">
        <ele>9.6</ele>
        <time>2021-04-18T12:51:33Z</time>
      </trkpt>
      <trkpt lat="49.28488" lon="-0.31273">
        <ele>9.5</ele>
        <time>2021-04-18T12:51:34Z</time>
      </trkpt>
      <trkpt lat="49.28489" lon="-0.31272">
        <ele>9.5</ele>
        <time>2021-04-18T12:51:35Z</time>
      </trkpt>
      <trkpt lat="49.28492" lon="-0.31269">
        <ele>9.4</ele>
        <time>2021-04-18T12:51:37Z</time>
      </trkpt>
      <trkpt lat="49.28494" lon="-0.31268">
        <ele>9.4</ele>
        <time>2021-04-18T12:51:38Z</time>
      </trkpt>
      <trkpt lat="49.28496" lon="-0.31266">
        <ele>9.3</ele>
        <time>2021-04-18T12:51:39Z</time>
      </trkpt>
      <trkpt lat="49.28498" lon="-0.31264">
        <ele>9.2</ele>
        <time>2021-04-18T12:51:41Z</time>
      </trkpt>
      <trkpt lat="49.28501" lon="-0.31261">
        <ele>9.2</ele>
        <time>2021-04-18T12:51:42Z</time>
      </trkpt>
      <trkpt lat="49.28502" lon="-0.3126">
        <ele>9.2</ele>
        <time>2021-04-18T12:51:43Z</time>
      </trkpt>
      <trkpt lat="49.28504" lon="-0.31258">
        <ele>9.1</ele>
        <time>2021-04-18T12:51:44Z</time>
      </trkpt>
      <trkpt lat="49.28506" lon="-0.31257">
        <ele>9.1</ele>
        <time>2021-04-18T12:51:46Z</time>
      </trkpt>
      <trkpt lat="49.28508" lon="-0.31254">
        <ele>9</ele>
        <time>2021-04-18T12:51:47Z</time>
      </trkpt>
      <trkpt lat="49.28509" lon="-0.31254">
        <ele>9</ele>
        <time>2021-04-18T12:51:48Z</time>
      </trkpt>
      <trkpt lat="49.28512" lon="-0.31251">
        <ele>8.9</ele>
        <time>2021-04-18T12:51:49Z</time>
      </trkpt>
      <trkpt lat="49.28513" lon="-0.31249">
        <ele>8.9</ele>
        <time>2021-04-18T12:51:50Z</time>
      </trkpt>
      <trkpt lat="49.28516" lon="-0.31246">
        <ele>8.9</ele>
        <time>2021-04-18T12:51:52Z</time>
      </trkpt>
      <trkpt lat="49.28517" lon="-0.31245">
        <ele>8.8</ele>
        <time>2021-04-18T12:51:53Z</time>
      </trkpt>
      <trkpt lat="49.28518" lon="-0.31244">
        <ele>8.8</ele>
        <time>2021-04-18T12:51:54Z</time>
      </trkpt>
      <trkpt lat="49.2852" lon="-0.31242">
        <ele>8.8</ele>
        <time>2021-04-18T12:51:55Z</time>
      </trkpt>
      <trkpt lat="49.28522" lon="-0.3124">
        <ele>8.7</ele>
        <time>2021-04-18T12:51:57Z</time>
      </trkpt>
      <trkpt lat="49.28523" lon="-0.31239">
        <ele>8.7</ele>
        <time>2021-04-18T12:51:58Z</time>
      </trkpt>
      <trkpt lat="49.28526" lon="-0.31235">
        <ele>8.6</ele>
        <time>2021-04-18T12:52:00Z</time>
      </trkpt>
      <trkpt lat="49.28528" lon="-0.31232">
        <ele>8.6</ele>
        <time>2021-04-18T12:52:01Z</time>
      </trkpt>
      <trkpt lat="49.2853" lon="-0.31229">
        <ele>8.6</ele>
        <time>2021-04-18T12:52:02Z</time>
      </trkpt>
      <trkpt lat="49.28532" lon="-0.31227">
        <ele>8.5</ele>
        <time>2021-04-18T12:52:04Z</time>
      </trkpt>
      <trkpt lat="49.28534" lon="-0.31224">
        <ele>8.5</ele>
        <time>2021-04-18T12:52:05Z</time>
      </trkpt>
      <trkpt lat="49.28535" lon="-0.31223">
        <ele>8.4</ele>
        <time>2021-04-18T12:52:06Z</time>
      </trkpt>
      <trkpt lat="49.28537" lon="-0.3122">
        <ele>8.4</ele>
        <time>2021-04-18T12:52:08Z</time>
      </trkpt>
      <trkpt lat="49.28539" lon="-0.31219">
        <ele>8.4</ele>
        <time>2021-04-18T12:52:09Z</time>
      </trkpt>
      <trkpt lat="49.28541" lon="-0.31216">
        <ele>8.3</ele>
        <time>2021-04-18T12:52:11Z</time>
      </trkpt>
      <trkpt lat="49.28544" lon="-0.31216">
        <ele>8.3</ele>
        <time>2021-04-18T12:52:12Z</time>
      </trkpt>
      <trkpt lat="49.28545" lon="-0.31216">
        <ele>8.3</ele>
        <time>2021-04-18T12:52:13Z</time>
      </trkpt>
      <trkpt lat="49.28548" lon="-0.31218">
        <ele>8.4</ele>
        <time>2021-04-18T12:52:14Z</time>
      </trkpt>
      <trkpt lat="49.28549" lon="-0.31219">
        <ele>8.4</ele>
        <time>2021-04-18T12:52:15Z</time>
      </trkpt>
      <trkpt lat="49.2855" lon="-0.31221">
        <ele>8.4</ele>
        <time>2021-04-18T12:52:16Z</time>
      </trkpt>
      <trkpt lat="49.28552" lon="-0.31223">
        <ele>8.3</ele>
        <time>2021-04-18T12:52:18Z</time>
      </trkpt>
      <trkpt lat="49.28553" lon="-0.31225">
        <ele>8.3</ele>
        <time>2021-04-18T12:52:19Z</time>
      </trkpt>
      <trkpt lat="49.28554" lon="-0.31227">
        <ele>8.2</ele>
        <time>2021-04-18T12:52:20Z</time>
      </trkpt>
      <trkpt lat="49.28556" lon="-0.31229">
        <ele>8.2</ele>
        <time>2021-04-18T12:52:21Z</time>
      </trkpt>
      <trkpt lat="49.28557" lon="-0.31231">
        <ele>8.1</ele>
        <time>2021-04-18T12:52:23Z</time>
      </trkpt>
      <trkpt lat="49.28558" lon="-0.31233">
        <ele>8.1</ele>
        <time>2021-04-18T12:52:24Z</time>
      </trkpt>
      <trkpt lat="49.2856" lon="-0.31237">
        <ele>8</ele>
        <time>2021-04-18T12:52:26Z</time>
      </trkpt>
      <trkpt lat="49.28561" lon="-0.31239">
        <ele>8</ele>
        <time>2021-04-18T12:52:27Z</time>
      </trkpt>
      <trkpt lat="49.28563" lon="-0.31241">
        <ele>8</ele>
        <time>2021-04-18T12:52:29Z</time>
      </trkpt>
      <trkpt lat="49.28565" lon="-0.31245">
        <ele>7.9</ele>
        <time>2021-04-18T12:52:30Z</time>
      </trkpt>
      <trkpt lat="49.28565" lon="-0.31247">
        <ele>7.9</ele>
        <time>2021-04-18T12:52:31Z</time>
      </trkpt>
      <trkpt lat="49.28566" lon="-0.31249">
        <ele>7.9</ele>
        <time>2021-04-18T12:52:33Z</time>
      </trkpt>
      <trkpt lat="49.28567" lon="-0.31251">
        <ele>7.9</ele>
        <time>2021-04-18T12:52:34Z</time>
      </trkpt>
      <trkpt lat="49.28568" lon="-0.31254">
        <ele>7.9</ele>
        <time>2021-04-18T12:52:36Z</time>
      </trkpt>
      <trkpt lat="49.28569" lon="-0.31254">
        <ele>7.8</ele>
        <time>2021-04-18T12:52:37Z</time>
      </trkpt>
      <trkpt lat="49.2857" lon="-0.31255">
        <ele>7.8</ele>
        <time>2021-04-18T12:52:39Z</time>
      </trkpt>
      <trkpt lat="49.2857" lon="-0.31255">
        <ele>7.8</ele>
        <time>2021-04-18T12:52:40Z</time>
      </trkpt>
      <trkpt lat="49.2857" lon="-0.31255">
        <ele>7.8</ele>
        <time>2021-04-18T12:52:41Z</time>
      </trkpt>
      <trkpt lat="49.2857" lon="-0.31256">
        <ele>7.8</ele>
        <time>2021-04-18T12:52:43Z</time>
      </trkpt>
      <trkpt lat="49.28571" lon="-0.31256">
        <ele>7.8</ele>
        <time>2021-04-18T12:52:44Z</time>
      </trkpt>
      <trkpt lat="49.28571" lon="-0.31258">
        <ele>7.8</ele>
        <time>2021-04-18T12:52:45Z</time>
      </trkpt>
      <trkpt lat="49.28572" lon="-0.31259">
        <ele>7.8</ele>
        <time>2021-04-18T12:52:46Z</time>
      </trkpt>
      <trkpt lat="49.28572" lon="-0.31261">
        <ele>7.8</ele>
        <time>2021-04-18T12:52:48Z</time>
      </trkpt>
      <trkpt lat="49.28573" lon="-0.31263">
        <ele>7.8</ele>
        <time>2021-04-18T12:52:49Z</time>
      </trkpt>
      <trkpt lat="49.28574" lon="-0.31266">
        <ele>7.8</ele>
        <time>2021-04-18T12:52:51Z</time>
      </trkpt>
      <trkpt lat="49.28575" lon="-0.31268">
        <ele>7.7</ele>
        <time>2021-04-18T12:52:52Z</time>
      </trkpt>
      <trkpt lat="49.28576" lon="-0.3127">
        <ele>7.7</ele>
        <time>2021-04-18T12:52:53Z</time>
      </trkpt>
      <trkpt lat="49.28578" lon="-0.31274">
        <ele>7.7</ele>
        <time>2021-04-18T12:52:55Z</time>
      </trkpt>
      <trkpt lat="49.28578" lon="-0.31275">
        <ele>7.7</ele>
        <time>2021-04-18T12:52:56Z</time>
      </trkpt>
      <trkpt lat="49.28579" lon="-0.31278">
        <ele>7.7</ele>
        <time>2021-04-18T12:52:57Z</time>
      </trkpt>
      <trkpt lat="49.2858" lon="-0.31281">
        <ele>7.7</ele>
        <time>2021-04-18T12:52:59Z</time>
      </trkpt>
      <trkpt lat="49.28581" lon="-0.31285">
        <ele>7.6</ele>
        <time>2021-04-18T12:53:00Z</time>
      </trkpt>
      <trkpt lat="49.28582" lon="-0.3129">
        <ele>7.6</ele>
        <time>2021-04-18T12:53:02Z</time>
      </trkpt>
      <trkpt lat="49.28583" lon="-0.31292">
        <ele>7.6</ele>
        <time>2021-04-18T12:53:03Z</time>
      </trkpt>
      <trkpt lat="49.28584" lon="-0.31294">
        <ele>7.6</ele>
        <time>2021-04-18T12:53:04Z</time>
      </trkpt>
      <trkpt lat="49.28584" lon="-0.31297">
        <ele>7.5</ele>
        <time>2021-04-18T12:53:05Z</time>
      </trkpt>
      <trkpt lat="49.28586" lon="-0.313">
        <ele>7.5</ele>
        <time>2021-04-18T12:53:07Z</time>
      </trkpt>
      <trkpt lat="49.28586" lon="-0.31302">
        <ele>7.5</ele>
        <time>2021-04-18T12:53:08Z</time>
      </trkpt>
      <trkpt lat="49.28588" lon="-0.31306">
        <ele>7.4</ele>
        <time>2021-04-18T12:53:10Z</time>
      </trkpt>
      <trkpt lat="49.28591" lon="-0.31308">
        <ele>7.4</ele>
        <time>2021-04-18T12:53:11Z</time>
      </trkpt>
      <trkpt lat="49.28595" lon="-0.31309">
        <ele>7</ele>
        <time>2021-04-18T12:53:13Z</time>
      </trkpt>
      <trkpt lat="49.28596" lon="-0.31308">
        <ele>7</ele>
        <time>2021-04-18T12:53:14Z</time>
      </trkpt>
      <trkpt lat="49.28599" lon="-0.31307">
        <ele>7</ele>
        <time>2021-04-18T12:53:16Z</time>
      </trkpt>
      <trkpt lat="49.286" lon="-0.31307">
        <ele>7</ele>
        <time>2021-04-18T12:53:17Z</time>
      </trkpt>
      <trkpt lat="49.28602" lon="-0.31307">
        <ele>7</ele>
        <time>2021-04-18T12:53:18Z</time>
      </trkpt>
      <trkpt lat="49.28604" lon="-0.31307">
        <ele>7</ele>
        <time>2021-04-18T12:53:20Z</time>
      </trkpt>
      <trkpt lat="49.28606" lon="-0.31308">
        <ele>7</ele>
        <time>2021-04-18T12:53:21Z</time>
      </trkpt>
      <trkpt lat="49.28608" lon="-0.3131">
        <ele>7</ele>
        <time>2021-04-18T12:53:23Z</time>
      </trkpt>
      <trkpt lat="49.28609" lon="-0.3131">
        <ele>6.9</ele>
        <time>2021-04-18T12:53:24Z</time>
      </trkpt>
      <trkpt lat="49.28611" lon="-0.3131">
        <ele>6.9</ele>
        <time>2021-04-18T12:53:25Z</time>
      </trkpt>
      <trkpt lat="49.28613" lon="-0.31309">
        <ele>6.9</ele>
        <time>2021-04-18T12:53:27Z</time>
      </trkpt>
      <trkpt lat="49.28616" lon="-0.31308">
        <ele>6.9</ele>
        <time>2021-04-18T12:53:29Z</time>
      </trkpt>
      <trkpt lat="49.28617" lon="-0.31308">
        <ele>6.9</ele>
        <time>2021-04-18T12:53:30Z</time>
      </trkpt>
      <trkpt lat="49.28618" lon="-0.31308">
        <ele>6.9</ele>
        <time>2021-04-18T12:53:31Z</time>
      </trkpt>
      <trkpt lat="49.28622" lon="-0.31307">
        <ele>6.9</ele>
        <time>2021-04-18T12:53:33Z</time>
      </trkpt>
      <trkpt lat="49.28623" lon="-0.31307">
        <ele>6.9</ele>
        <time>2021-04-18T12:53:34Z</time>
      </trkpt>
      <trkpt lat="49.28625" lon="-0.31306">
        <ele>6.9</ele>
        <time>2021-04-18T12:53:35Z</time>
      </trkpt>
      <trkpt lat="49.28627" lon="-0.31305">
        <ele>6.9</ele>
        <time>2021-04-18T12:53:37Z</time>
      </trkpt>
      <trkpt lat="49.2863" lon="-0.31304">
        <ele>6.9</ele>
        <time>2021-04-18T12:53:39Z</time>
      </trkpt>
      <trkpt lat="49.2863" lon="-0.31303">
        <ele>6.9</ele>
        <time>2021-04-18T12:53:40Z</time>
      </trkpt>
      <trkpt lat="49.28631" lon="-0.31302">
        <ele>6.9</ele>
        <time>2021-04-18T12:53:42Z</time>
      </trkpt>
      <trkpt lat="49.28632" lon="-0.31302">
        <ele>6.9</ele>
        <time>2021-04-18T12:53:43Z</time>
      </trkpt>
      <trkpt lat="49.28633" lon="-0.31302">
        <ele>6.9</ele>
        <time>2021-04-18T12:53:44Z</time>
      </trkpt>
      <trkpt lat="49.28634" lon="-0.31302">
        <ele>6.9</ele>
        <time>2021-04-18T12:53:45Z</time>
      </trkpt>
      <trkpt lat="49.28634" lon="-0.31302">
        <ele>6.9</ele>
        <time>2021-04-18T12:53:47Z</time>
      </trkpt>
      <trkpt lat="49.28635" lon="-0.31302">
        <ele>6.9</ele>
        <time>2021-04-18T12:53:48Z</time>
      </trkpt>
      <trkpt lat="49.28636" lon="-0.31302">
        <ele>6.9</ele>
        <time>2021-04-18T12:53:49Z</time>
      </trkpt>
      <trkpt lat="49.28638" lon="-0.31302">
        <ele>6.9</ele>
        <time>2021-04-18T12:53:50Z</time>
      </trkpt>
      <trkpt lat="49.2864" lon="-0.31302">
        <ele>6.9</ele>
        <time>2021-04-18T12:53:52Z</time>
      </trkpt>
      <trkpt lat="49.28642" lon="-0.31302">
        <ele>6.9</ele>
        <time>2021-04-18T12:53:53Z</time>
      </trkpt>
      <trkpt lat="49.28644" lon="-0.31302">
        <ele>6.9</ele>
        <time>2021-04-18T12:53:55Z</time>
      </trkpt>
      <trkpt lat="49.28648" lon="-0.31302">
        <ele>6.9</ele>
        <time>2021-04-18T12:53:56Z</time>
      </trkpt>
      <trkpt lat="49.28648" lon="-0.31302">
        <ele>6.9</ele>
        <time>2021-04-18T12:53:57Z</time>
      </trkpt>
      <trkpt lat="49.28652" lon="-0.31301">
        <ele>6.8</ele>
        <time>2021-04-18T12:53:58Z</time>
      </trkpt>
      <trkpt lat="49.28653" lon="-0.313">
        <ele>6.8</ele>
        <time>2021-04-18T12:53:59Z</time>
      </trkpt>
      <trkpt lat="49.28657" lon="-0.31299">
        <ele>6.8</ele>
        <time>2021-04-18T12:54:01Z</time>
      </trkpt>
      <trkpt lat="49.28658" lon="-0.31299">
        <ele>6.8</ele>
        <time>2021-04-18T12:54:02Z</time>
      </trkpt>
      <trkpt lat="49.28661" lon="-0.31298">
        <ele>6.8</ele>
        <time>2021-04-18T12:54:04Z</time>
      </trkpt>
      <trkpt lat="49.28662" lon="-0.31298">
        <ele>6.8</ele>
        <time>2021-04-18T12:54:05Z</time>
      </trkpt>
      <trkpt lat="49.28665" lon="-0.31298">
        <ele>6.8</ele>
        <time>2021-04-18T12:54:06Z</time>
      </trkpt>
      <trkpt lat="49.28667" lon="-0.31298">
        <ele>6.8</ele>
        <time>2021-04-18T12:54:08Z</time>
      </trkpt>
      <trkpt lat="49.28671" lon="-0.31297">
        <ele>6.8</ele>
        <time>2021-04-18T12:54:10Z</time>
      </trkpt>
      <trkpt lat="49.28673" lon="-0.31296">
        <ele>6.8</ele>
        <time>2021-04-18T12:54:11Z</time>
      </trkpt>
      <trkpt lat="49.28674" lon="-0.31295">
        <ele>6.8</ele>
        <time>2021-04-18T12:54:12Z</time>
      </trkpt>
      <trkpt lat="49.28677" lon="-0.31291">
        <ele>6.7</ele>
        <time>2021-04-18T12:54:14Z</time>
      </trkpt>
      <trkpt lat="49.2868" lon="-0.31289">
        <ele>6.7</ele>
        <time>2021-04-18T12:54:16Z</time>
      </trkpt>
      <trkpt lat="49.28684" lon="-0.31285">
        <ele>6.7</ele>
        <time>2021-04-18T12:54:18Z</time>
      </trkpt>
      <trkpt lat="49.28687" lon="-0.31283">
        <ele>6.7</ele>
        <time>2021-04-18T12:54:19Z</time>
      </trkpt>
      <trkpt lat="49.28689" lon="-0.31281">
        <ele>6.6</ele>
        <time>2021-04-18T12:54:20Z</time>
      </trkpt>
      <trkpt lat="49.28692" lon="-0.31279">
        <ele>6.6</ele>
        <time>2021-04-18T12:54:22Z</time>
      </trkpt>
      <trkpt lat="49.28694" lon="-0.31277">
        <ele>6.6</ele>
        <time>2021-04-18T12:54:23Z</time>
      </trkpt>
      <trkpt lat="49.28697" lon="-0.31275">
        <ele>6.6</ele>
        <time>2021-04-18T12:54:25Z</time>
      </trkpt>
      <trkpt lat="49.28699" lon="-0.31273">
        <ele>6.6</ele>
        <time>2021-04-18T12:54:26Z</time>
      </trkpt>
      <trkpt lat="49.287" lon="-0.31271">
        <ele>6.6</ele>
        <time>2021-04-18T12:54:28Z</time>
      </trkpt>
      <trkpt lat="49.28701" lon="-0.31269">
        <ele>6.6</ele>
        <time>2021-04-18T12:54:29Z</time>
      </trkpt>
      <trkpt lat="49.28703" lon="-0.31267">
        <ele>6.5</ele>
        <time>2021-04-18T12:54:30Z</time>
      </trkpt>
      <trkpt lat="49.28705" lon="-0.31266">
        <ele>6.5</ele>
        <time>2021-04-18T12:54:31Z</time>
      </trkpt>
      <trkpt lat="49.28707" lon="-0.31265">
        <ele>6.5</ele>
        <time>2021-04-18T12:54:33Z</time>
      </trkpt>
      <trkpt lat="49.28708" lon="-0.31264">
        <ele>6.5</ele>
        <time>2021-04-18T12:54:34Z</time>
      </trkpt>
      <trkpt lat="49.2871" lon="-0.31262">
        <ele>6.5</ele>
        <time>2021-04-18T12:54:35Z</time>
      </trkpt>
      <trkpt lat="49.28711" lon="-0.3126">
        <ele>6.5</ele>
        <time>2021-04-18T12:54:37Z</time>
      </trkpt>
      <trkpt lat="49.28714" lon="-0.31257">
        <ele>6.5</ele>
        <time>2021-04-18T12:54:39Z</time>
      </trkpt>
      <trkpt lat="49.28718" lon="-0.31254">
        <ele>6.5</ele>
        <time>2021-04-18T12:54:40Z</time>
      </trkpt>
      <trkpt lat="49.28719" lon="-0.31253">
        <ele>6.5</ele>
        <time>2021-04-18T12:54:41Z</time>
      </trkpt>
      <trkpt lat="49.28722" lon="-0.3125">
        <ele>6.4</ele>
        <time>2021-04-18T12:54:42Z</time>
      </trkpt>
      <trkpt lat="49.28724" lon="-0.3125">
        <ele>6.4</ele>
        <time>2021-04-18T12:54:43Z</time>
      </trkpt>
      <trkpt lat="49.28728" lon="-0.31248">
        <ele>6.4</ele>
        <time>2021-04-18T12:54:45Z</time>
      </trkpt>
      <trkpt lat="49.2873" lon="-0.31247">
        <ele>6.4</ele>
        <time>2021-04-18T12:54:46Z</time>
      </trkpt>
      <trkpt lat="49.28734" lon="-0.31246">
        <ele>6.4</ele>
        <time>2021-04-18T12:54:48Z</time>
      </trkpt>
      <trkpt lat="49.28736" lon="-0.31246">
        <ele>6.4</ele>
        <time>2021-04-18T12:54:49Z</time>
      </trkpt>
      <trkpt lat="49.28739" lon="-0.31245">
        <ele>6.3</ele>
        <time>2021-04-18T12:54:51Z</time>
      </trkpt>
      <trkpt lat="49.28743" lon="-0.31244">
        <ele>6.3</ele>
        <time>2021-04-18T12:54:52Z</time>
      </trkpt>
      <trkpt lat="49.28744" lon="-0.31243">
        <ele>6.3</ele>
        <time>2021-04-18T12:54:53Z</time>
      </trkpt>
      <trkpt lat="49.28748" lon="-0.31242">
        <ele>6.3</ele>
        <time>2021-04-18T12:54:55Z</time>
      </trkpt>
      <trkpt lat="49.2875" lon="-0.31241">
        <ele>6.3</ele>
        <time>2021-04-18T12:54:56Z</time>
      </trkpt>
      <trkpt lat="49.28752" lon="-0.3124">
        <ele>6.3</ele>
        <time>2021-04-18T12:54:57Z</time>
      </trkpt>
      <trkpt lat="49.28755" lon="-0.31239">
        <ele>6.2</ele>
        <time>2021-04-18T12:54:59Z</time>
      </trkpt>
      <trkpt lat="49.28758" lon="-0.31237">
        <ele>6.2</ele>
        <time>2021-04-18T12:55:01Z</time>
      </trkpt>
      <trkpt lat="49.2876" lon="-0.31236">
        <ele>6.2</ele>
        <time>2021-04-18T12:55:02Z</time>
      </trkpt>
      <trkpt lat="49.28762" lon="-0.31235">
        <ele>6.2</ele>
        <time>2021-04-18T12:55:04Z</time>
      </trkpt>
      <trkpt lat="49.28764" lon="-0.31234">
        <ele>6.2</ele>
        <time>2021-04-18T12:55:05Z</time>
      </trkpt>
      <trkpt lat="49.28765" lon="-0.31233">
        <ele>6.2</ele>
        <time>2021-04-18T12:55:06Z</time>
      </trkpt>
      <trkpt lat="49.28767" lon="-0.31233">
        <ele>6.2</ele>
        <time>2021-04-18T12:55:07Z</time>
      </trkpt>
      <trkpt lat="49.28768" lon="-0.31232">
        <ele>6.2</ele>
        <time>2021-04-18T12:55:08Z</time>
      </trkpt>
      <trkpt lat="49.28771" lon="-0.31231">
        <ele>6.1</ele>
        <time>2021-04-18T12:55:09Z</time>
      </trkpt>
      <trkpt lat="49.28773" lon="-0.3123">
        <ele>6.1</ele>
        <time>2021-04-18T12:55:11Z</time>
      </trkpt>
      <trkpt lat="49.28775" lon="-0.31229">
        <ele>6.1</ele>
        <time>2021-04-18T12:55:12Z</time>
      </trkpt>
      <trkpt lat="49.28777" lon="-0.31228">
        <ele>6.1</ele>
        <time>2021-04-18T12:55:14Z</time>
      </trkpt>
      <trkpt lat="49.2878" lon="-0.31226">
        <ele>6.1</ele>
        <time>2021-04-18T12:55:15Z</time>
      </trkpt>
      <trkpt lat="49.28783" lon="-0.31224">
        <ele>6</ele>
        <time>2021-04-18T12:55:17Z</time>
      </trkpt>
      <trkpt lat="49.28784" lon="-0.31224">
        <ele>6</ele>
        <time>2021-04-18T12:55:18Z</time>
      </trkpt>
      <trkpt lat="49.28787" lon="-0.31222">
        <ele>6</ele>
        <time>2021-04-18T12:55:20Z</time>
      </trkpt>
      <trkpt lat="49.28789" lon="-0.31221">
        <ele>6</ele>
        <time>2021-04-18T12:55:21Z</time>
      </trkpt>
      <trkpt lat="49.28792" lon="-0.31219">
        <ele>6</ele>
        <time>2021-04-18T12:55:23Z</time>
      </trkpt>
      <trkpt lat="49.28795" lon="-0.31218">
        <ele>5.9</ele>
        <time>2021-04-18T12:55:24Z</time>
      </trkpt>
      <trkpt lat="49.28796" lon="-0.31217">
        <ele>5.9</ele>
        <time>2021-04-18T12:55:25Z</time>
      </trkpt>
      <trkpt lat="49.288" lon="-0.31216">
        <ele>5.9</ele>
        <time>2021-04-18T12:55:27Z</time>
      </trkpt>
      <trkpt lat="49.28801" lon="-0.31216">
        <ele>5.9</ele>
        <time>2021-04-18T12:55:28Z</time>
      </trkpt>
      <trkpt lat="49.28804" lon="-0.31215">
        <ele>5.9</ele>
        <time>2021-04-18T12:55:30Z</time>
      </trkpt>
      <trkpt lat="49.28807" lon="-0.31214">
        <ele>5.9</ele>
        <time>2021-04-18T12:55:32Z</time>
      </trkpt>
      <trkpt lat="49.2881" lon="-0.31213">
        <ele>5.9</ele>
        <time>2021-04-18T12:55:33Z</time>
      </trkpt>
      <trkpt lat="49.28812" lon="-0.31212">
        <ele>5.9</ele>
        <time>2021-04-18T12:55:35Z</time>
      </trkpt>
      <trkpt lat="49.28816" lon="-0.31212">
        <ele>5.9</ele>
        <time>2021-04-18T12:55:36Z</time>
      </trkpt>
      <trkpt lat="49.28817" lon="-0.31211">
        <ele>5.9</ele>
        <time>2021-04-18T12:55:37Z</time>
      </trkpt>
      <trkpt lat="49.2882" lon="-0.31212">
        <ele>5.9</ele>
        <time>2021-04-18T12:55:39Z</time>
      </trkpt>
      <trkpt lat="49.28821" lon="-0.31212">
        <ele>5.9</ele>
        <time>2021-04-18T12:55:40Z</time>
      </trkpt>
      <trkpt lat="49.28824" lon="-0.31212">
        <ele>5.9</ele>
        <time>2021-04-18T12:55:42Z</time>
      </trkpt>
      <trkpt lat="49.28826" lon="-0.31213">
        <ele>5.9</ele>
        <time>2021-04-18T12:55:43Z</time>
      </trkpt>
      <trkpt lat="49.28829" lon="-0.31214">
        <ele>5.9</ele>
        <time>2021-04-18T12:55:45Z</time>
      </trkpt>
      <trkpt lat="49.28833" lon="-0.31215">
        <ele>6</ele>
        <time>2021-04-18T12:55:47Z</time>
      </trkpt>
      <trkpt lat="49.28835" lon="-0.31215">
        <ele>6</ele>
        <time>2021-04-18T12:55:48Z</time>
      </trkpt>
      <trkpt lat="49.28836" lon="-0.31215">
        <ele>6</ele>
        <time>2021-04-18T12:55:49Z</time>
      </trkpt>
      <trkpt lat="49.28839" lon="-0.31216">
        <ele>6</ele>
        <time>2021-04-18T12:55:50Z</time>
      </trkpt>
      <trkpt lat="49.28842" lon="-0.31217">
        <ele>6</ele>
        <time>2021-04-18T12:55:52Z</time>
      </trkpt>
      <trkpt lat="49.28843" lon="-0.31217">
        <ele>6</ele>
        <time>2021-04-18T12:55:53Z</time>
      </trkpt>
      <trkpt lat="49.28845" lon="-0.31217">
        <ele>6</ele>
        <time>2021-04-18T12:55:54Z</time>
      </trkpt>
      <trkpt lat="49.28847" lon="-0.31217">
        <ele>6</ele>
        <time>2021-04-18T12:55:56Z</time>
      </trkpt>
      <trkpt lat="49.2885" lon="-0.31218">
        <ele>6</ele>
        <time>2021-04-18T12:55:57Z</time>
      </trkpt>
      <trkpt lat="49.28851" lon="-0.31218">
        <ele>6.1</ele>
        <time>2021-04-18T12:55:58Z</time>
      </trkpt>
      <trkpt lat="49.28854" lon="-0.31218">
        <ele>6.1</ele>
        <time>2021-04-18T12:56:00Z</time>
      </trkpt>
      <trkpt lat="49.28855" lon="-0.31218">
        <ele>6.1</ele>
        <time>2021-04-18T12:56:01Z</time>
      </trkpt>
      <trkpt lat="49.28858" lon="-0.31218">
        <ele>6.1</ele>
        <time>2021-04-18T12:56:02Z</time>
      </trkpt>
      <trkpt lat="49.28859" lon="-0.31218">
        <ele>6.1</ele>
        <time>2021-04-18T12:56:03Z</time>
      </trkpt>
      <trkpt lat="49.28861" lon="-0.31218">
        <ele>6.1</ele>
        <time>2021-04-18T12:56:04Z</time>
      </trkpt>
      <trkpt lat="49.28864" lon="-0.31217">
        <ele>6.1</ele>
        <time>2021-04-18T12:56:06Z</time>
      </trkpt>
      <trkpt lat="49.28865" lon="-0.31217">
        <ele>6.1</ele>
        <time>2021-04-18T12:56:07Z</time>
      </trkpt>
      <trkpt lat="49.28868" lon="-0.31217">
        <ele>6.2</ele>
        <time>2021-04-18T12:56:09Z</time>
      </trkpt>
      <trkpt lat="49.28871" lon="-0.31216">
        <ele>6.2</ele>
        <time>2021-04-18T12:56:10Z</time>
      </trkpt>
      <trkpt lat="49.28873" lon="-0.31216">
        <ele>6.2</ele>
        <time>2021-04-18T12:56:12Z</time>
      </trkpt>
      <trkpt lat="49.28876" lon="-0.31215">
        <ele>6.2</ele>
        <time>2021-04-18T12:56:13Z</time>
      </trkpt>
      <trkpt lat="49.28877" lon="-0.31215">
        <ele>6.2</ele>
        <time>2021-04-18T12:56:14Z</time>
      </trkpt>
      <trkpt lat="49.2888" lon="-0.31214">
        <ele>6.2</ele>
        <time>2021-04-18T12:56:16Z</time>
      </trkpt>
      <trkpt lat="49.28882" lon="-0.31213">
        <ele>6.2</ele>
        <time>2021-04-18T12:56:17Z</time>
      </trkpt>
      <trkpt lat="49.28885" lon="-0.31212">
        <ele>6.2</ele>
        <time>2021-04-18T12:56:19Z</time>
      </trkpt>
      <trkpt lat="49.28887" lon="-0.31211">
        <ele>6.3</ele>
        <time>2021-04-18T12:56:20Z</time>
      </trkpt>
      <trkpt lat="49.28888" lon="-0.31211">
        <ele>6.3</ele>
        <time>2021-04-18T12:56:21Z</time>
      </trkpt>
      <trkpt lat="49.28891" lon="-0.31211">
        <ele>6.3</ele>
        <time>2021-04-18T12:56:22Z</time>
      </trkpt>
      <trkpt lat="49.28894" lon="-0.3121">
        <ele>6.3</ele>
        <time>2021-04-18T12:56:24Z</time>
      </trkpt>
      <trkpt lat="49.28897" lon="-0.3121">
        <ele>6.3</ele>
        <time>2021-04-18T12:56:25Z</time>
      </trkpt>
      <trkpt lat="49.28899" lon="-0.3121">
        <ele>6.4</ele>
        <time>2021-04-18T12:56:26Z</time>
      </trkpt>
      <trkpt lat="49.28901" lon="-0.31212">
        <ele>6.4</ele>
        <time>2021-04-18T12:56:28Z</time>
      </trkpt>
      <trkpt lat="49.28903" lon="-0.31215">
        <ele>6.4</ele>
        <time>2021-04-18T12:56:29Z</time>
      </trkpt>
      <trkpt lat="49.28904" lon="-0.31218">
        <ele>6.4</ele>
        <time>2021-04-18T12:56:31Z</time>
      </trkpt>
      <trkpt lat="49.28906" lon="-0.31225">
        <ele>6.4</ele>
        <time>2021-04-18T12:56:33Z</time>
      </trkpt>
      <trkpt lat="49.28906" lon="-0.31228">
        <ele>6.4</ele>
        <time>2021-04-18T12:56:34Z</time>
      </trkpt>
      <trkpt lat="49.28907" lon="-0.31231">
        <ele>6.4</ele>
        <time>2021-04-18T12:56:35Z</time>
      </trkpt>
      <trkpt lat="49.28908" lon="-0.31237">
        <ele>6.4</ele>
        <time>2021-04-18T12:56:37Z</time>
      </trkpt>
      <trkpt lat="49.28908" lon="-0.31239">
        <ele>6.4</ele>
        <time>2021-04-18T12:56:38Z</time>
      </trkpt>
      <trkpt lat="49.28909" lon="-0.31245">
        <ele>6.5</ele>
        <time>2021-04-18T12:56:39Z</time>
      </trkpt>
      <trkpt lat="49.2891" lon="-0.31246">
        <ele>6.5</ele>
        <time>2021-04-18T12:56:40Z</time>
      </trkpt>
      <trkpt lat="49.2891" lon="-0.31251">
        <ele>6.5</ele>
        <time>2021-04-18T12:56:42Z</time>
      </trkpt>
      <trkpt lat="49.28911" lon="-0.31254">
        <ele>6.5</ele>
        <time>2021-04-18T12:56:43Z</time>
      </trkpt>
      <trkpt lat="49.28911" lon="-0.31258">
        <ele>6.6</ele>
        <time>2021-04-18T12:56:45Z</time>
      </trkpt>
      <trkpt lat="49.28913" lon="-0.31265">
        <ele>6.6</ele>
        <time>2021-04-18T12:56:46Z</time>
      </trkpt>
      <trkpt lat="49.28913" lon="-0.31267">
        <ele>6.6</ele>
        <time>2021-04-18T12:56:47Z</time>
      </trkpt>
      <trkpt lat="49.28914" lon="-0.31273">
        <ele>6.6</ele>
        <time>2021-04-18T12:56:49Z</time>
      </trkpt>
      <trkpt lat="49.28914" lon="-0.31274">
        <ele>6.6</ele>
        <time>2021-04-18T12:56:50Z</time>
      </trkpt>
      <trkpt lat="49.28915" lon="-0.31279">
        <ele>6.7</ele>
        <time>2021-04-18T12:56:51Z</time>
      </trkpt>
      <trkpt lat="49.28915" lon="-0.3128">
        <ele>6.7</ele>
        <time>2021-04-18T12:56:52Z</time>
      </trkpt>
      <trkpt lat="49.28916" lon="-0.31286">
        <ele>6.7</ele>
        <time>2021-04-18T12:56:54Z</time>
      </trkpt>
      <trkpt lat="49.28916" lon="-0.31287">
        <ele>6.7</ele>
        <time>2021-04-18T12:56:55Z</time>
      </trkpt>
      <trkpt lat="49.28917" lon="-0.31292">
        <ele>6.7</ele>
        <time>2021-04-18T12:56:56Z</time>
      </trkpt>
      <trkpt lat="49.28917" lon="-0.31294">
        <ele>6.7</ele>
        <time>2021-04-18T12:56:57Z</time>
      </trkpt>
      <trkpt lat="49.28919" lon="-0.313">
        <ele>6.7</ele>
        <time>2021-04-18T12:56:59Z</time>
      </trkpt>
      <trkpt lat="49.28919" lon="-0.31301">
        <ele>6.7</ele>
        <time>2021-04-18T12:57:00Z</time>
      </trkpt>
      <trkpt lat="49.2892" lon="-0.31307">
        <ele>6.7</ele>
        <time>2021-04-18T12:57:01Z</time>
      </trkpt>
      <trkpt lat="49.2892" lon="-0.31309">
        <ele>6.7</ele>
        <time>2021-04-18T12:57:02Z</time>
      </trkpt>
      <trkpt lat="49.28921" lon="-0.31315">
        <ele>6.7</ele>
        <time>2021-04-18T12:57:04Z</time>
      </trkpt>
      <trkpt lat="49.28921" lon="-0.31317">
        <ele>6.7</ele>
        <time>2021-04-18T12:57:05Z</time>
      </trkpt>
      <trkpt lat="49.28922" lon="-0.31319">
        <ele>6.7</ele>
        <time>2021-04-18T12:57:06Z</time>
      </trkpt>
      <trkpt lat="49.28922" lon="-0.31325">
        <ele>6.7</ele>
        <time>2021-04-18T12:57:08Z</time>
      </trkpt>
      <trkpt lat="49.28921" lon="-0.31327">
        <ele>6.7</ele>
        <time>2021-04-18T12:57:09Z</time>
      </trkpt>
      <trkpt lat="49.28921" lon="-0.3133">
        <ele>6.7</ele>
        <time>2021-04-18T12:57:10Z</time>
      </trkpt>
      <trkpt lat="49.2892" lon="-0.31333">
        <ele>6.7</ele>
        <time>2021-04-18T12:57:12Z</time>
      </trkpt>
      <trkpt lat="49.2892" lon="-0.31337">
        <ele>6.7</ele>
        <time>2021-04-18T12:57:13Z</time>
      </trkpt>
      <trkpt lat="49.28919" lon="-0.31339">
        <ele>6.7</ele>
        <time>2021-04-18T12:57:14Z</time>
      </trkpt>
      <trkpt lat="49.28918" lon="-0.31343">
        <ele>6.7</ele>
        <time>2021-04-18T12:57:15Z</time>
      </trkpt>
      <trkpt lat="49.28918" lon="-0.31345">
        <ele>6.7</ele>
        <time>2021-04-18T12:57:16Z</time>
      </trkpt>
      <trkpt lat="49.28917" lon="-0.3135">
        <ele>6.8</ele>
        <time>2021-04-18T12:57:18Z</time>
      </trkpt>
      <trkpt lat="49.28916" lon="-0.31351">
        <ele>6.8</ele>
        <time>2021-04-18T12:57:19Z</time>
      </trkpt>
      <trkpt lat="49.28915" lon="-0.31355">
        <ele>6.8</ele>
        <time>2021-04-18T12:57:21Z</time>
      </trkpt>
      <trkpt lat="49.28915" lon="-0.31357">
        <ele>6.8</ele>
        <time>2021-04-18T12:57:22Z</time>
      </trkpt>
      <trkpt lat="49.28914" lon="-0.31362">
        <ele>6.8</ele>
        <time>2021-04-18T12:57:23Z</time>
      </trkpt>
      <trkpt lat="49.28914" lon="-0.31363">
        <ele>6.8</ele>
        <time>2021-04-18T12:57:24Z</time>
      </trkpt>
      <trkpt lat="49.28913" lon="-0.31366">
        <ele>6.8</ele>
        <time>2021-04-18T12:57:25Z</time>
      </trkpt>
      <trkpt lat="49.28913" lon="-0.3137">
        <ele>6.8</ele>
        <time>2021-04-18T12:57:27Z</time>
      </trkpt>
      <trkpt lat="49.28912" lon="-0.31373">
        <ele>6.8</ele>
        <time>2021-04-18T12:57:28Z</time>
      </trkpt>
      <trkpt lat="49.28912" lon="-0.31375">
        <ele>6.9</ele>
        <time>2021-04-18T12:57:29Z</time>
      </trkpt>
      <trkpt lat="49.2891" lon="-0.3138">
        <ele>6.9</ele>
        <time>2021-04-18T12:57:31Z</time>
      </trkpt>
      <trkpt lat="49.2891" lon="-0.31382">
        <ele>6.9</ele>
        <time>2021-04-18T12:57:32Z</time>
      </trkpt>
      <trkpt lat="49.28909" lon="-0.31387">
        <ele>6.9</ele>
        <time>2021-04-18T12:57:34Z</time>
      </trkpt>
      <trkpt lat="49.28908" lon="-0.3139">
        <ele>6.9</ele>
        <time>2021-04-18T12:57:35Z</time>
      </trkpt>
      <trkpt lat="49.28908" lon="-0.31394">
        <ele>6.9</ele>
        <time>2021-04-18T12:57:37Z</time>
      </trkpt>
      <trkpt lat="49.28906" lon="-0.31398">
        <ele>7</ele>
        <time>2021-04-18T12:57:38Z</time>
      </trkpt>
      <trkpt lat="49.28906" lon="-0.31401">
        <ele>7</ele>
        <time>2021-04-18T12:57:39Z</time>
      </trkpt>
      <trkpt lat="49.28904" lon="-0.31404">
        <ele>7</ele>
        <time>2021-04-18T12:57:41Z</time>
      </trkpt>
      <trkpt lat="49.28904" lon="-0.31407">
        <ele>7.1</ele>
        <time>2021-04-18T12:57:42Z</time>
      </trkpt>
      <trkpt lat="49.28903" lon="-0.31409">
        <ele>7.1</ele>
        <time>2021-04-18T12:57:43Z</time>
      </trkpt>
      <trkpt lat="49.28902" lon="-0.31414">
        <ele>7.1</ele>
        <time>2021-04-18T12:57:45Z</time>
      </trkpt>
      <trkpt lat="49.28902" lon="-0.31415">
        <ele>7.1</ele>
        <time>2021-04-18T12:57:46Z</time>
      </trkpt>
      <trkpt lat="49.28902" lon="-0.31419">
        <ele>7.2</ele>
        <time>2021-04-18T12:57:47Z</time>
      </trkpt>
      <trkpt lat="49.28902" lon="-0.31424">
        <ele>7.2</ele>
        <time>2021-04-18T12:57:49Z</time>
      </trkpt>
      <trkpt lat="49.28902" lon="-0.31425">
        <ele>7.3</ele>
        <time>2021-04-18T12:57:50Z</time>
      </trkpt>
      <trkpt lat="49.28903" lon="-0.3143">
        <ele>7.3</ele>
        <time>2021-04-18T12:57:51Z</time>
      </trkpt>
      <trkpt lat="49.28904" lon="-0.31432">
        <ele>7.3</ele>
        <time>2021-04-18T12:57:52Z</time>
      </trkpt>
      <trkpt lat="49.28905" lon="-0.31436">
        <ele>7.4</ele>
        <time>2021-04-18T12:57:54Z</time>
      </trkpt>
      <trkpt lat="49.28905" lon="-0.31438">
        <ele>7.4</ele>
        <time>2021-04-18T12:57:55Z</time>
      </trkpt>
      <trkpt lat="49.28907" lon="-0.31443">
        <ele>7.5</ele>
        <time>2021-04-18T12:57:57Z</time>
      </trkpt>
      <trkpt lat="49.28907" lon="-0.31444">
        <ele>7.5</ele>
        <time>2021-04-18T12:57:58Z</time>
      </trkpt>
      <trkpt lat="49.28909" lon="-0.31449">
        <ele>7.5</ele>
        <time>2021-04-18T12:58:00Z</time>
      </trkpt>
      <trkpt lat="49.28909" lon="-0.31451">
        <ele>7.6</ele>
        <time>2021-04-18T12:58:01Z</time>
      </trkpt>
      <trkpt lat="49.28911" lon="-0.31454">
        <ele>7.6</ele>
        <time>2021-04-18T12:58:02Z</time>
      </trkpt>
      <trkpt lat="49.28913" lon="-0.31458">
        <ele>7.6</ele>
        <time>2021-04-18T12:58:04Z</time>
      </trkpt>
      <trkpt lat="49.28914" lon="-0.3146">
        <ele>7.7</ele>
        <time>2021-04-18T12:58:05Z</time>
      </trkpt>
      <trkpt lat="49.28915" lon="-0.31463">
        <ele>7.7</ele>
        <time>2021-04-18T12:58:06Z</time>
      </trkpt>
      <trkpt lat="49.28916" lon="-0.31467">
        <ele>7.7</ele>
        <time>2021-04-18T12:58:08Z</time>
      </trkpt>
      <trkpt lat="49.28917" lon="-0.31469">
        <ele>7.7</ele>
        <time>2021-04-18T12:58:09Z</time>
      </trkpt>
      <trkpt lat="49.28919" lon="-0.31472">
        <ele>7.8</ele>
        <time>2021-04-18T12:58:11Z</time>
      </trkpt>
      <trkpt lat="49.28921" lon="-0.31476">
        <ele>7.8</ele>
        <time>2021-04-18T12:58:12Z</time>
      </trkpt>
      <trkpt lat="49.28922" lon="-0.31478">
        <ele>7.9</ele>
        <time>2021-04-18T12:58:14Z</time>
      </trkpt>
      <trkpt lat="49.28923" lon="-0.3148">
        <ele>7.9</ele>
        <time>2021-04-18T12:58:15Z</time>
      </trkpt>
      <trkpt lat="49.28925" lon="-0.31483">
        <ele>7.9</ele>
        <time>2021-04-18T12:58:16Z</time>
      </trkpt>
      <trkpt lat="49.28926" lon="-0.31486">
        <ele>7.9</ele>
        <time>2021-04-18T12:58:18Z</time>
      </trkpt>
      <trkpt lat="49.28928" lon="-0.31488">
        <ele>8</ele>
        <time>2021-04-18T12:58:19Z</time>
      </trkpt>
      <trkpt lat="49.28929" lon="-0.31491">
        <ele>8</ele>
        <time>2021-04-18T12:58:21Z</time>
      </trkpt>
      <trkpt lat="49.28931" lon="-0.31495">
        <ele>8</ele>
        <time>2021-04-18T12:58:22Z</time>
      </trkpt>
      <trkpt lat="49.28932" lon="-0.31496">
        <ele>8.1</ele>
        <time>2021-04-18T12:58:23Z</time>
      </trkpt>
      <trkpt lat="49.28934" lon="-0.315">
        <ele>8.1</ele>
        <time>2021-04-18T12:58:25Z</time>
      </trkpt>
      <trkpt lat="49.28935" lon="-0.31502">
        <ele>8.1</ele>
        <time>2021-04-18T12:58:26Z</time>
      </trkpt>
      <trkpt lat="49.28937" lon="-0.31505">
        <ele>8.1</ele>
        <time>2021-04-18T12:58:27Z</time>
      </trkpt>
      <trkpt lat="49.28938" lon="-0.31508">
        <ele>8.2</ele>
        <time>2021-04-18T12:58:29Z</time>
      </trkpt>
      <trkpt lat="49.2894" lon="-0.31512">
        <ele>8.2</ele>
        <time>2021-04-18T12:58:31Z</time>
      </trkpt>
      <trkpt lat="49.28941" lon="-0.31515">
        <ele>8.2</ele>
        <time>2021-04-18T12:58:32Z</time>
      </trkpt>
      <trkpt lat="49.28943" lon="-0.31518">
        <ele>8.2</ele>
        <time>2021-04-18T12:58:34Z</time>
      </trkpt>
      <trkpt lat="49.28944" lon="-0.31523">
        <ele>8.2</ele>
        <time>2021-04-18T12:58:35Z</time>
      </trkpt>
      <trkpt lat="49.28944" lon="-0.31524">
        <ele>8.2</ele>
        <time>2021-04-18T12:58:36Z</time>
      </trkpt>
      <trkpt lat="49.28946" lon="-0.31527">
        <ele>8.2</ele>
        <time>2021-04-18T12:58:37Z</time>
      </trkpt>
      <trkpt lat="49.28947" lon="-0.3153">
        <ele>8.3</ele>
        <time>2021-04-18T12:58:39Z</time>
      </trkpt>
      <trkpt lat="49.28948" lon="-0.31534">
        <ele>8.3</ele>
        <time>2021-04-18T12:58:40Z</time>
      </trkpt>
      <trkpt lat="49.2895" lon="-0.31537">
        <ele>8.3</ele>
        <time>2021-04-18T12:58:42Z</time>
      </trkpt>
      <trkpt lat="49.28951" lon="-0.3154">
        <ele>8.3</ele>
        <time>2021-04-18T12:58:43Z</time>
      </trkpt>
      <trkpt lat="49.28952" lon="-0.31543">
        <ele>8.3</ele>
        <time>2021-04-18T12:58:45Z</time>
      </trkpt>
      <trkpt lat="49.28954" lon="-0.31547">
        <ele>8.3</ele>
        <time>2021-04-18T12:58:46Z</time>
      </trkpt>
      <trkpt lat="49.28955" lon="-0.31549">
        <ele>8.3</ele>
        <time>2021-04-18T12:58:47Z</time>
      </trkpt>
      <trkpt lat="49.28956" lon="-0.31553">
        <ele>8.4</ele>
        <time>2021-04-18T12:58:49Z</time>
      </trkpt>
      <trkpt lat="49.28957" lon="-0.31555">
        <ele>8.4</ele>
        <time>2021-04-18T12:58:50Z</time>
      </trkpt>
      <trkpt lat="49.28957" lon="-0.31558">
        <ele>8.4</ele>
        <time>2021-04-18T12:58:51Z</time>
      </trkpt>
      <trkpt lat="49.28958" lon="-0.31561">
        <ele>8.4</ele>
        <time>2021-04-18T12:58:53Z</time>
      </trkpt>
      <trkpt lat="49.28959" lon="-0.31564">
        <ele>8.4</ele>
        <time>2021-04-18T12:58:54Z</time>
      </trkpt>
      <trkpt lat="49.28961" lon="-0.31568">
        <ele>8.5</ele>
        <time>2021-04-18T12:58:56Z</time>
      </trkpt>
      <trkpt lat="49.28962" lon="-0.31572">
        <ele>8.5</ele>
        <time>2021-04-18T12:58:57Z</time>
      </trkpt>
      <trkpt lat="49.28963" lon="-0.31574">
        <ele>8.5</ele>
        <time>2021-04-18T12:58:58Z</time>
      </trkpt>
      <trkpt lat="49.28965" lon="-0.31578">
        <ele>8.5</ele>
        <time>2021-04-18T12:59:00Z</time>
      </trkpt>
      <trkpt lat="49.28965" lon="-0.3158">
        <ele>8.6</ele>
        <time>2021-04-18T12:59:01Z</time>
      </trkpt>
      <trkpt lat="49.28966" lon="-0.31582">
        <ele>8.6</ele>
        <time>2021-04-18T12:59:02Z</time>
      </trkpt>
      <trkpt lat="49.28967" lon="-0.31586">
        <ele>8.6</ele>
        <time>2021-04-18T12:59:04Z</time>
      </trkpt>
      <trkpt lat="49.28968" lon="-0.31588">
        <ele>8.6</ele>
        <time>2021-04-18T12:59:05Z</time>
      </trkpt>
      <trkpt lat="49.28969" lon="-0.31591">
        <ele>8.7</ele>
        <time>2021-04-18T12:59:06Z</time>
      </trkpt>
      <trkpt lat="49.28971" lon="-0.31597">
        <ele>8.7</ele>
        <time>2021-04-18T12:59:08Z</time>
      </trkpt>
      <trkpt lat="49.28971" lon="-0.31599">
        <ele>8.8</ele>
        <time>2021-04-18T12:59:09Z</time>
      </trkpt>
      <trkpt lat="49.28972" lon="-0.31601">
        <ele>8.8</ele>
        <time>2021-04-18T12:59:10Z</time>
      </trkpt>
      <trkpt lat="49.28973" lon="-0.31604">
        <ele>8.8</ele>
        <time>2021-04-18T12:59:11Z</time>
      </trkpt>
      <trkpt lat="49.28974" lon="-0.31608">
        <ele>8.9</ele>
        <time>2021-04-18T12:59:13Z</time>
      </trkpt>
      <trkpt lat="49.28975" lon="-0.31611">
        <ele>8.9</ele>
        <time>2021-04-18T12:59:14Z</time>
      </trkpt>
      <trkpt lat="49.28976" lon="-0.31615">
        <ele>8.9</ele>
        <time>2021-04-18T12:59:16Z</time>
      </trkpt>
      <trkpt lat="49.28977" lon="-0.31618">
        <ele>9</ele>
        <time>2021-04-18T12:59:17Z</time>
      </trkpt>
      <trkpt lat="49.28978" lon="-0.31621">
        <ele>9</ele>
        <time>2021-04-18T12:59:19Z</time>
      </trkpt>
      <trkpt lat="49.28979" lon="-0.31625">
        <ele>9</ele>
        <time>2021-04-18T12:59:20Z</time>
      </trkpt>
      <trkpt lat="49.28979" lon="-0.31626">
        <ele>9</ele>
        <time>2021-04-18T12:59:21Z</time>
      </trkpt>
      <trkpt lat="49.28981" lon="-0.31631">
        <ele>9</ele>
        <time>2021-04-18T12:59:23Z</time>
      </trkpt>
      <trkpt lat="49.28982" lon="-0.31632">
        <ele>9</ele>
        <time>2021-04-18T12:59:24Z</time>
      </trkpt>
      <trkpt lat="49.28982" lon="-0.31634">
        <ele>9</ele>
        <time>2021-04-18T12:59:25Z</time>
      </trkpt>
      <trkpt lat="49.28983" lon="-0.31636">
        <ele>9</ele>
        <time>2021-04-18T12:59:26Z</time>
      </trkpt>
      <trkpt lat="49.28986" lon="-0.31639">
        <ele>9.1</ele>
        <time>2021-04-18T12:59:28Z</time>
      </trkpt>
      <trkpt lat="49.28987" lon="-0.3164">
        <ele>9.1</ele>
        <time>2021-04-18T12:59:29Z</time>
      </trkpt>
      <trkpt lat="49.28989" lon="-0.31642">
        <ele>9.1</ele>
        <time>2021-04-18T12:59:31Z</time>
      </trkpt>
      <trkpt lat="49.28992" lon="-0.31643">
        <ele>9.1</ele>
        <time>2021-04-18T12:59:32Z</time>
      </trkpt>
      <trkpt lat="49.28994" lon="-0.31644">
        <ele>9.1</ele>
        <time>2021-04-18T12:59:33Z</time>
      </trkpt>
      <trkpt lat="49.28997" lon="-0.31646">
        <ele>9.1</ele>
        <time>2021-04-18T12:59:35Z</time>
      </trkpt>
      <trkpt lat="49.28998" lon="-0.31646">
        <ele>9.1</ele>
        <time>2021-04-18T12:59:36Z</time>
      </trkpt>
      <trkpt lat="49.29" lon="-0.31647">
        <ele>9.1</ele>
        <time>2021-04-18T12:59:37Z</time>
      </trkpt>
      <trkpt lat="49.29002" lon="-0.31648">
        <ele>9.1</ele>
        <time>2021-04-18T12:59:39Z</time>
      </trkpt>
      <trkpt lat="49.29004" lon="-0.31649">
        <ele>9.1</ele>
        <time>2021-04-18T12:59:40Z</time>
      </trkpt>
      <trkpt lat="49.29006" lon="-0.31651">
        <ele>9.1</ele>
        <time>2021-04-18T12:59:42Z</time>
      </trkpt>
      <trkpt lat="49.29009" lon="-0.31653">
        <ele>9.1</ele>
        <time>2021-04-18T12:59:43Z</time>
      </trkpt>
      <trkpt lat="49.2901" lon="-0.31654">
        <ele>9.1</ele>
        <time>2021-04-18T12:59:44Z</time>
      </trkpt>
      <trkpt lat="49.29013" lon="-0.31656">
        <ele>9.1</ele>
        <time>2021-04-18T12:59:45Z</time>
      </trkpt>
      <trkpt lat="49.29013" lon="-0.31656">
        <ele>9.1</ele>
        <time>2021-04-18T12:59:46Z</time>
      </trkpt>
      <trkpt lat="49.29016" lon="-0.31659">
        <ele>9.1</ele>
        <time>2021-04-18T12:59:47Z</time>
      </trkpt>
      <trkpt lat="49.29017" lon="-0.31659">
        <ele>9.1</ele>
        <time>2021-04-18T12:59:48Z</time>
      </trkpt>
      <trkpt lat="49.29019" lon="-0.31661">
        <ele>9.1</ele>
        <time>2021-04-18T12:59:50Z</time>
      </trkpt>
      <trkpt lat="49.29022" lon="-0.31664">
        <ele>9.2</ele>
        <time>2021-04-18T12:59:52Z</time>
      </trkpt>
      <trkpt lat="49.29024" lon="-0.31666">
        <ele>9.2</ele>
        <time>2021-04-18T12:59:53Z</time>
      </trkpt>
      <trkpt lat="49.29025" lon="-0.31667">
        <ele>9.2</ele>
        <time>2021-04-18T12:59:54Z</time>
      </trkpt>
      <trkpt lat="49.29027" lon="-0.31669">
        <ele>9.2</ele>
        <time>2021-04-18T12:59:55Z</time>
      </trkpt>
      <trkpt lat="49.29029" lon="-0.31671">
        <ele>9.2</ele>
        <time>2021-04-18T12:59:57Z</time>
      </trkpt>
      <trkpt lat="49.29032" lon="-0.31674">
        <ele>9.2</ele>
        <time>2021-04-18T12:59:58Z</time>
      </trkpt>
      <trkpt lat="49.29033" lon="-0.31675">
        <ele>9.2</ele>
        <time>2021-04-18T12:59:59Z</time>
      </trkpt>
      <trkpt lat="49.29035" lon="-0.31677">
        <ele>9.2</ele>
        <time>2021-04-18T13:00:00Z</time>
      </trkpt>
      <trkpt lat="49.29036" lon="-0.31679">
        <ele>9.2</ele>
        <time>2021-04-18T13:00:01Z</time>
      </trkpt>
      <trkpt lat="49.29038" lon="-0.31681">
        <ele>9.2</ele>
        <time>2021-04-18T13:00:03Z</time>
      </trkpt>
      <trkpt lat="49.2904" lon="-0.31683">
        <ele>9.2</ele>
        <time>2021-04-18T13:00:04Z</time>
      </trkpt>
      <trkpt lat="49.29041" lon="-0.31685">
        <ele>9.2</ele>
        <time>2021-04-18T13:00:06Z</time>
      </trkpt>
      <trkpt lat="49.29044" lon="-0.31688">
        <ele>9.3</ele>
        <time>2021-04-18T13:00:07Z</time>
      </trkpt>
      <trkpt lat="49.29045" lon="-0.31689">
        <ele>9.3</ele>
        <time>2021-04-18T13:00:08Z</time>
      </trkpt>
      <trkpt lat="49.29047" lon="-0.3169">
        <ele>9.3</ele>
        <time>2021-04-18T13:00:09Z</time>
      </trkpt>
      <trkpt lat="49.29049" lon="-0.31693">
        <ele>9.4</ele>
        <time>2021-04-18T13:00:11Z</time>
      </trkpt>
      <trkpt lat="49.29051" lon="-0.31695">
        <ele>9.4</ele>
        <time>2021-04-18T13:00:12Z</time>
      </trkpt>
      <trkpt lat="49.29053" lon="-0.31697">
        <ele>9.5</ele>
        <time>2021-04-18T13:00:14Z</time>
      </trkpt>
      <trkpt lat="49.29054" lon="-0.31698">
        <ele>9.5</ele>
        <time>2021-04-18T13:00:15Z</time>
      </trkpt>
      <trkpt lat="49.29055" lon="-0.317">
        <ele>9.5</ele>
        <time>2021-04-18T13:00:16Z</time>
      </trkpt>
      <trkpt lat="49.29058" lon="-0.31703">
        <ele>9.6</ele>
        <time>2021-04-18T13:00:18Z</time>
      </trkpt>
      <trkpt lat="49.29059" lon="-0.31704">
        <ele>9.6</ele>
        <time>2021-04-18T13:00:19Z</time>
      </trkpt>
      <trkpt lat="49.2906" lon="-0.31707">
        <ele>9.6</ele>
        <time>2021-04-18T13:00:20Z</time>
      </trkpt>
      <trkpt lat="49.29062" lon="-0.3171">
        <ele>9.7</ele>
        <time>2021-04-18T13:00:22Z</time>
      </trkpt>
      <trkpt lat="49.29063" lon="-0.31712">
        <ele>9.7</ele>
        <time>2021-04-18T13:00:23Z</time>
      </trkpt>
      <trkpt lat="49.29065" lon="-0.31714">
        <ele>9.8</ele>
        <time>2021-04-18T13:00:25Z</time>
      </trkpt>
      <trkpt lat="49.29067" lon="-0.31716">
        <ele>9.8</ele>
        <time>2021-04-18T13:00:26Z</time>
      </trkpt>
      <trkpt lat="49.29069" lon="-0.31717">
        <ele>9.8</ele>
        <time>2021-04-18T13:00:28Z</time>
      </trkpt>
      <trkpt lat="49.2907" lon="-0.31719">
        <ele>9.9</ele>
        <time>2021-04-18T13:00:29Z</time>
      </trkpt>
      <trkpt lat="49.29072" lon="-0.3172">
        <ele>9.9</ele>
        <time>2021-04-18T13:00:31Z</time>
      </trkpt>
      <trkpt lat="49.29076" lon="-0.31723">
        <ele>10</ele>
        <time>2021-04-18T13:00:32Z</time>
      </trkpt>
      <trkpt lat="49.29077" lon="-0.31724">
        <ele>10</ele>
        <time>2021-04-18T13:00:33Z</time>
      </trkpt>
      <trkpt lat="49.2908" lon="-0.31727">
        <ele>10.1</ele>
        <time>2021-04-18T13:00:35Z</time>
      </trkpt>
      <trkpt lat="49.29082" lon="-0.31729">
        <ele>10.1</ele>
        <time>2021-04-18T13:00:36Z</time>
      </trkpt>
      <trkpt lat="49.29084" lon="-0.31731">
        <ele>10.2</ele>
        <time>2021-04-18T13:00:38Z</time>
      </trkpt>
      <trkpt lat="49.29085" lon="-0.31732">
        <ele>10.2</ele>
        <time>2021-04-18T13:00:39Z</time>
      </trkpt>
      <trkpt lat="49.29086" lon="-0.31734">
        <ele>10.2</ele>
        <time>2021-04-18T13:00:40Z</time>
      </trkpt>
      <trkpt lat="49.29088" lon="-0.31735">
        <ele>10.2</ele>
        <time>2021-04-18T13:00:41Z</time>
      </trkpt>
      <trkpt lat="49.2909" lon="-0.31737">
        <ele>10.3</ele>
        <time>2021-04-18T13:00:43Z</time>
      </trkpt>
      <trkpt lat="49.29092" lon="-0.31739">
        <ele>10.3</ele>
        <time>2021-04-18T13:00:44Z</time>
      </trkpt>
      <trkpt lat="49.29094" lon="-0.31742">
        <ele>10.4</ele>
        <time>2021-04-18T13:00:46Z</time>
      </trkpt>
      <trkpt lat="49.29095" lon="-0.31744">
        <ele>10.4</ele>
        <time>2021-04-18T13:00:47Z</time>
      </trkpt>
      <trkpt lat="49.29097" lon="-0.31746">
        <ele>10.4</ele>
        <time>2021-04-18T13:00:49Z</time>
      </trkpt>
      <trkpt lat="49.291" lon="-0.31749">
        <ele>10.5</ele>
        <time>2021-04-18T13:00:50Z</time>
      </trkpt>
      <trkpt lat="49.29101" lon="-0.31751">
        <ele>10.5</ele>
        <time>2021-04-18T13:00:51Z</time>
      </trkpt>
      <trkpt lat="49.29103" lon="-0.31753">
        <ele>10.6</ele>
        <time>2021-04-18T13:00:53Z</time>
      </trkpt>
      <trkpt lat="49.29105" lon="-0.31754">
        <ele>10.6</ele>
        <time>2021-04-18T13:00:55Z</time>
      </trkpt>
      <trkpt lat="49.29106" lon="-0.31756">
        <ele>10.6</ele>
        <time>2021-04-18T13:00:56Z</time>
      </trkpt>
      <trkpt lat="49.29108" lon="-0.31757">
        <ele>10.7</ele>
        <time>2021-04-18T13:00:57Z</time>
      </trkpt>
      <trkpt lat="49.29109" lon="-0.31758">
        <ele>10.7</ele>
        <time>2021-04-18T13:00:58Z</time>
      </trkpt>
      <trkpt lat="49.29111" lon="-0.3176">
        <ele>10.7</ele>
        <time>2021-04-18T13:01:00Z</time>
      </trkpt>
      <trkpt lat="49.29115" lon="-0.31763">
        <ele>10.8</ele>
        <time>2021-04-18T13:01:01Z</time>
      </trkpt>
      <trkpt lat="49.29117" lon="-0.31765">
        <ele>10.9</ele>
        <time>2021-04-18T13:01:05Z</time>
      </trkpt>
      <trkpt lat="49.29119" lon="-0.31767">
        <ele>10.9</ele>
        <time>2021-04-18T13:01:06Z</time>
      </trkpt>
      <trkpt lat="49.29121" lon="-0.31769">
        <ele>11</ele>
        <time>2021-04-18T13:01:07Z</time>
      </trkpt>
      <trkpt lat="49.29124" lon="-0.31773">
        <ele>11</ele>
        <time>2021-04-18T13:01:09Z</time>
      </trkpt>
      <trkpt lat="49.29125" lon="-0.31774">
        <ele>11.1</ele>
        <time>2021-04-18T13:01:10Z</time>
      </trkpt>
      <trkpt lat="49.29127" lon="-0.31777">
        <ele>11.1</ele>
        <time>2021-04-18T13:01:12Z</time>
      </trkpt>
      <trkpt lat="49.29129" lon="-0.3178">
        <ele>11.2</ele>
        <time>2021-04-18T13:01:13Z</time>
      </trkpt>
      <trkpt lat="49.29131" lon="-0.31783">
        <ele>11.2</ele>
        <time>2021-04-18T13:01:15Z</time>
      </trkpt>
      <trkpt lat="49.29133" lon="-0.31784">
        <ele>11.3</ele>
        <time>2021-04-18T13:01:16Z</time>
      </trkpt>
      <trkpt lat="49.29135" lon="-0.31787">
        <ele>11.3</ele>
        <time>2021-04-18T13:01:18Z</time>
      </trkpt>
      <trkpt lat="49.29137" lon="-0.3179">
        <ele>11.4</ele>
        <time>2021-04-18T13:01:19Z</time>
      </trkpt>
      <trkpt lat="49.29138" lon="-0.31791">
        <ele>11.4</ele>
        <time>2021-04-18T13:01:20Z</time>
      </trkpt>
      <trkpt lat="49.29141" lon="-0.31795">
        <ele>11.5</ele>
        <time>2021-04-18T13:01:22Z</time>
      </trkpt>
      <trkpt lat="49.29142" lon="-0.31797">
        <ele>11.5</ele>
        <time>2021-04-18T13:01:23Z</time>
      </trkpt>
      <trkpt lat="49.29144" lon="-0.31799">
        <ele>11.6</ele>
        <time>2021-04-18T13:01:25Z</time>
      </trkpt>
      <trkpt lat="49.29146" lon="-0.31802">
        <ele>11.6</ele>
        <time>2021-04-18T13:01:26Z</time>
      </trkpt>
      <trkpt lat="49.29148" lon="-0.31805">
        <ele>11.7</ele>
        <time>2021-04-18T13:01:28Z</time>
      </trkpt>
      <trkpt lat="49.2915" lon="-0.31807">
        <ele>11.7</ele>
        <time>2021-04-18T13:01:29Z</time>
      </trkpt>
      <trkpt lat="49.29153" lon="-0.31809">
        <ele>11.7</ele>
        <time>2021-04-18T13:01:31Z</time>
      </trkpt>
      <trkpt lat="49.29156" lon="-0.31812">
        <ele>11.8</ele>
        <time>2021-04-18T13:01:32Z</time>
      </trkpt>
      <trkpt lat="49.29157" lon="-0.31813">
        <ele>11.8</ele>
        <time>2021-04-18T13:01:33Z</time>
      </trkpt>
      <trkpt lat="49.29159" lon="-0.31815">
        <ele>11.9</ele>
        <time>2021-04-18T13:01:34Z</time>
      </trkpt>
      <trkpt lat="49.29162" lon="-0.31818">
        <ele>11.9</ele>
        <time>2021-04-18T13:01:36Z</time>
      </trkpt>
      <trkpt lat="49.29163" lon="-0.31819">
        <ele>11.9</ele>
        <time>2021-04-18T13:01:37Z</time>
      </trkpt>
      <trkpt lat="49.29166" lon="-0.31822">
        <ele>12</ele>
        <time>2021-04-18T13:01:39Z</time>
      </trkpt>
      <trkpt lat="49.29168" lon="-0.31824">
        <ele>12</ele>
        <time>2021-04-18T13:01:40Z</time>
      </trkpt>
      <trkpt lat="49.2917" lon="-0.31826">
        <ele>12</ele>
        <time>2021-04-18T13:01:42Z</time>
      </trkpt>
      <trkpt lat="49.29172" lon="-0.31829">
        <ele>12.1</ele>
        <time>2021-04-18T13:01:43Z</time>
      </trkpt>
      <trkpt lat="49.29173" lon="-0.3183">
        <ele>12.1</ele>
        <time>2021-04-18T13:01:44Z</time>
      </trkpt>
      <trkpt lat="49.29177" lon="-0.31835">
        <ele>12.1</ele>
        <time>2021-04-18T13:01:46Z</time>
      </trkpt>
      <trkpt lat="49.29178" lon="-0.31836">
        <ele>12.1</ele>
        <time>2021-04-18T13:01:47Z</time>
      </trkpt>
      <trkpt lat="49.29179" lon="-0.31838">
        <ele>12.2</ele>
        <time>2021-04-18T13:01:48Z</time>
      </trkpt>
      <trkpt lat="49.29182" lon="-0.31841">
        <ele>12.2</ele>
        <time>2021-04-18T13:01:50Z</time>
      </trkpt>
      <trkpt lat="49.29183" lon="-0.31842">
        <ele>12.2</ele>
        <time>2021-04-18T13:01:51Z</time>
      </trkpt>
      <trkpt lat="49.29186" lon="-0.31846">
        <ele>12.3</ele>
        <time>2021-04-18T13:01:53Z</time>
      </trkpt>
      <trkpt lat="49.29187" lon="-0.31847">
        <ele>12.3</ele>
        <time>2021-04-18T13:01:54Z</time>
      </trkpt>
      <trkpt lat="49.29189" lon="-0.31848">
        <ele>12.3</ele>
        <time>2021-04-18T13:01:55Z</time>
      </trkpt>
      <trkpt lat="49.29192" lon="-0.31852">
        <ele>12.4</ele>
        <time>2021-04-18T13:01:57Z</time>
      </trkpt>
      <trkpt lat="49.29193" lon="-0.31853">
        <ele>12.4</ele>
        <time>2021-04-18T13:01:58Z</time>
      </trkpt>
      <trkpt lat="49.29194" lon="-0.31854">
        <ele>12.4</ele>
        <time>2021-04-18T13:01:59Z</time>
      </trkpt>
      <trkpt lat="49.29197" lon="-0.31857">
        <ele>12.4</ele>
        <time>2021-04-18T13:02:01Z</time>
      </trkpt>
      <trkpt lat="49.29198" lon="-0.31858">
        <ele>12.4</ele>
        <time>2021-04-18T13:02:02Z</time>
      </trkpt>
      <trkpt lat="49.292" lon="-0.3186">
        <ele>12.4</ele>
        <time>2021-04-18T13:02:04Z</time>
      </trkpt>
      <trkpt lat="49.29202" lon="-0.31863">
        <ele>12.5</ele>
        <time>2021-04-18T13:02:05Z</time>
      </trkpt>
      <trkpt lat="49.29203" lon="-0.31864">
        <ele>12.5</ele>
        <time>2021-04-18T13:02:06Z</time>
      </trkpt>
      <trkpt lat="49.29206" lon="-0.31866">
        <ele>12.5</ele>
        <time>2021-04-18T13:02:07Z</time>
      </trkpt>
      <trkpt lat="49.29207" lon="-0.31868">
        <ele>12.5</ele>
        <time>2021-04-18T13:02:08Z</time>
      </trkpt>
      <trkpt lat="49.2921" lon="-0.31871">
        <ele>12.5</ele>
        <time>2021-04-18T13:02:10Z</time>
      </trkpt>
      <trkpt lat="49.29212" lon="-0.31872">
        <ele>12.5</ele>
        <time>2021-04-18T13:02:11Z</time>
      </trkpt>
      <trkpt lat="49.29214" lon="-0.31875">
        <ele>12.5</ele>
        <time>2021-04-18T13:02:13Z</time>
      </trkpt>
      <trkpt lat="49.29215" lon="-0.31876">
        <ele>12.6</ele>
        <time>2021-04-18T13:02:14Z</time>
      </trkpt>
      <trkpt lat="49.29217" lon="-0.31878">
        <ele>12.6</ele>
        <time>2021-04-18T13:02:15Z</time>
      </trkpt>
      <trkpt lat="49.29219" lon="-0.31879">
        <ele>12.6</ele>
        <time>2021-04-18T13:02:17Z</time>
      </trkpt>
      <trkpt lat="49.29221" lon="-0.31881">
        <ele>12.6</ele>
        <time>2021-04-18T13:02:18Z</time>
      </trkpt>
      <trkpt lat="49.29222" lon="-0.31882">
        <ele>12.6</ele>
        <time>2021-04-18T13:02:19Z</time>
      </trkpt>
      <trkpt lat="49.29225" lon="-0.31885">
        <ele>12.6</ele>
        <time>2021-04-18T13:02:21Z</time>
      </trkpt>
      <trkpt lat="49.29226" lon="-0.31886">
        <ele>12.6</ele>
        <time>2021-04-18T13:02:22Z</time>
      </trkpt>
      <trkpt lat="49.29229" lon="-0.3189">
        <ele>12.6</ele>
        <time>2021-04-18T13:02:24Z</time>
      </trkpt>
      <trkpt lat="49.2923" lon="-0.31891">
        <ele>12.7</ele>
        <time>2021-04-18T13:02:25Z</time>
      </trkpt>
      <trkpt lat="49.29232" lon="-0.31893">
        <ele>12.7</ele>
        <time>2021-04-18T13:02:26Z</time>
      </trkpt>
      <trkpt lat="49.29234" lon="-0.31895">
        <ele>12.7</ele>
        <time>2021-04-18T13:02:28Z</time>
      </trkpt>
      <trkpt lat="49.29236" lon="-0.31898">
        <ele>12.7</ele>
        <time>2021-04-18T13:02:29Z</time>
      </trkpt>
      <trkpt lat="49.29237" lon="-0.31899">
        <ele>12.7</ele>
        <time>2021-04-18T13:02:30Z</time>
      </trkpt>
      <trkpt lat="49.2924" lon="-0.31902">
        <ele>12.8</ele>
        <time>2021-04-18T13:02:31Z</time>
      </trkpt>
      <trkpt lat="49.29242" lon="-0.31903">
        <ele>12.8</ele>
        <time>2021-04-18T13:02:32Z</time>
      </trkpt>
      <trkpt lat="49.29245" lon="-0.31907">
        <ele>12.8</ele>
        <time>2021-04-18T13:02:34Z</time>
      </trkpt>
      <trkpt lat="49.29246" lon="-0.31908">
        <ele>12.9</ele>
        <time>2021-04-18T13:02:35Z</time>
      </trkpt>
      <trkpt lat="49.29248" lon="-0.31909">
        <ele>12.9</ele>
        <time>2021-04-18T13:02:36Z</time>
      </trkpt>
      <trkpt lat="49.29251" lon="-0.31912">
        <ele>12.9</ele>
        <time>2021-04-18T13:02:37Z</time>
      </trkpt>
      <trkpt lat="49.29252" lon="-0.31913">
        <ele>12.9</ele>
        <time>2021-04-18T13:02:38Z</time>
      </trkpt>
      <trkpt lat="49.29255" lon="-0.31915">
        <ele>12.9</ele>
        <time>2021-04-18T13:02:40Z</time>
      </trkpt>
      <trkpt lat="49.29255" lon="-0.31916">
        <ele>12.9</ele>
        <time>2021-04-18T13:02:41Z</time>
      </trkpt>
      <trkpt lat="49.29257" lon="-0.31918">
        <ele>13</ele>
        <time>2021-04-18T13:02:42Z</time>
      </trkpt>
      <trkpt lat="49.2926" lon="-0.3192">
        <ele>13</ele>
        <time>2021-04-18T13:02:44Z</time>
      </trkpt>
      <trkpt lat="49.29261" lon="-0.31922">
        <ele>13</ele>
        <time>2021-04-18T13:02:45Z</time>
      </trkpt>
      <trkpt lat="49.29263" lon="-0.31924">
        <ele>13</ele>
        <time>2021-04-18T13:02:47Z</time>
      </trkpt>
      <trkpt lat="49.29266" lon="-0.31926">
        <ele>13</ele>
        <time>2021-04-18T13:02:48Z</time>
      </trkpt>
      <trkpt lat="49.29267" lon="-0.31927">
        <ele>13</ele>
        <time>2021-04-18T13:02:49Z</time>
      </trkpt>
      <trkpt lat="49.2927" lon="-0.31929">
        <ele>13</ele>
        <time>2021-04-18T13:02:51Z</time>
      </trkpt>
      <trkpt lat="49.29271" lon="-0.3193">
        <ele>13</ele>
        <time>2021-04-18T13:02:52Z</time>
      </trkpt>
      <trkpt lat="49.29272" lon="-0.31932">
        <ele>13</ele>
        <time>2021-04-18T13:02:53Z</time>
      </trkpt>
      <trkpt lat="49.29275" lon="-0.31934">
        <ele>13</ele>
        <time>2021-04-18T13:02:55Z</time>
      </trkpt>
      <trkpt lat="49.29276" lon="-0.31936">
        <ele>13</ele>
        <time>2021-04-18T13:02:56Z</time>
      </trkpt>
      <trkpt lat="49.29277" lon="-0.31937">
        <ele>13</ele>
        <time>2021-04-18T13:02:57Z</time>
      </trkpt>
      <trkpt lat="49.2928" lon="-0.3194">
        <ele>13</ele>
        <time>2021-04-18T13:02:59Z</time>
      </trkpt>
      <trkpt lat="49.29281" lon="-0.31941">
        <ele>13</ele>
        <time>2021-04-18T13:03:00Z</time>
      </trkpt>
      <trkpt lat="49.29284" lon="-0.31944">
        <ele>13</ele>
        <time>2021-04-18T13:03:01Z</time>
      </trkpt>
      <trkpt lat="49.29285" lon="-0.31945">
        <ele>13</ele>
        <time>2021-04-18T13:03:02Z</time>
      </trkpt>
      <trkpt lat="49.29288" lon="-0.31949">
        <ele>12.9</ele>
        <time>2021-04-18T13:03:04Z</time>
      </trkpt>
      <trkpt lat="49.2929" lon="-0.31951">
        <ele>12.9</ele>
        <time>2021-04-18T13:03:05Z</time>
      </trkpt>
      <trkpt lat="49.29291" lon="-0.31952">
        <ele>12.9</ele>
        <time>2021-04-18T13:03:06Z</time>
      </trkpt>
      <trkpt lat="49.29294" lon="-0.31956">
        <ele>12.9</ele>
        <time>2021-04-18T13:03:08Z</time>
      </trkpt>
      <trkpt lat="49.29295" lon="-0.31957">
        <ele>12.9</ele>
        <time>2021-04-18T13:03:09Z</time>
      </trkpt>
      <trkpt lat="49.29296" lon="-0.31959">
        <ele>12.9</ele>
        <time>2021-04-18T13:03:10Z</time>
      </trkpt>
      <trkpt lat="49.29298" lon="-0.31961">
        <ele>12.9</ele>
        <time>2021-04-18T13:03:11Z</time>
      </trkpt>
      <trkpt lat="49.29301" lon="-0.31965">
        <ele>12.9</ele>
        <time>2021-04-18T13:03:13Z</time>
      </trkpt>
      <trkpt lat="49.29303" lon="-0.31968">
        <ele>12.9</ele>
        <time>2021-04-18T13:03:14Z</time>
      </trkpt>
      <trkpt lat="49.29306" lon="-0.31972">
        <ele>12.8</ele>
        <time>2021-04-18T13:03:16Z</time>
      </trkpt>
      <trkpt lat="49.29308" lon="-0.31973">
        <ele>12.8</ele>
        <time>2021-04-18T13:03:18Z</time>
      </trkpt>
      <trkpt lat="49.29309" lon="-0.31975">
        <ele>12.8</ele>
        <time>2021-04-18T13:03:19Z</time>
      </trkpt>
      <trkpt lat="49.29311" lon="-0.31977">
        <ele>12.8</ele>
        <time>2021-04-18T13:03:20Z</time>
      </trkpt>
      <trkpt lat="49.29314" lon="-0.31979">
        <ele>12.8</ele>
        <time>2021-04-18T13:03:22Z</time>
      </trkpt>
      <trkpt lat="49.29315" lon="-0.31981">
        <ele>12.8</ele>
        <time>2021-04-18T13:03:23Z</time>
      </trkpt>
      <trkpt lat="49.29316" lon="-0.31982">
        <ele>12.8</ele>
        <time>2021-04-18T13:03:24Z</time>
      </trkpt>
      <trkpt lat="49.29318" lon="-0.31984">
        <ele>12.8</ele>
        <time>2021-04-18T13:03:26Z</time>
      </trkpt>
      <trkpt lat="49.2932" lon="-0.31986">
        <ele>12.8</ele>
        <time>2021-04-18T13:03:27Z</time>
      </trkpt>
      <trkpt lat="49.29321" lon="-0.31987">
        <ele>12.8</ele>
        <time>2021-04-18T13:03:28Z</time>
      </trkpt>
      <trkpt lat="49.29324" lon="-0.3199">
        <ele>12.8</ele>
        <time>2021-04-18T13:03:30Z</time>
      </trkpt>
      <trkpt lat="49.29325" lon="-0.3199">
        <ele>12.8</ele>
        <time>2021-04-18T13:03:31Z</time>
      </trkpt>
      <trkpt lat="49.29326" lon="-0.31992">
        <ele>12.7</ele>
        <time>2021-04-18T13:03:32Z</time>
      </trkpt>
      <trkpt lat="49.29328" lon="-0.31993">
        <ele>12.7</ele>
        <time>2021-04-18T13:03:33Z</time>
      </trkpt>
      <trkpt lat="49.29331" lon="-0.31995">
        <ele>12.7</ele>
        <time>2021-04-18T13:03:34Z</time>
      </trkpt>
      <trkpt lat="49.29332" lon="-0.31996">
        <ele>12.7</ele>
        <time>2021-04-18T13:03:35Z</time>
      </trkpt>
      <trkpt lat="49.29334" lon="-0.31999">
        <ele>12.7</ele>
        <time>2021-04-18T13:03:37Z</time>
      </trkpt>
      <trkpt lat="49.29335" lon="-0.32">
        <ele>12.7</ele>
        <time>2021-04-18T13:03:38Z</time>
      </trkpt>
      <trkpt lat="49.29338" lon="-0.32002">
        <ele>12.7</ele>
        <time>2021-04-18T13:03:39Z</time>
      </trkpt>
      <trkpt lat="49.29339" lon="-0.32003">
        <ele>12.7</ele>
        <time>2021-04-18T13:03:40Z</time>
      </trkpt>
      <trkpt lat="49.29341" lon="-0.32006">
        <ele>12.7</ele>
        <time>2021-04-18T13:03:42Z</time>
      </trkpt>
      <trkpt lat="49.29342" lon="-0.32007">
        <ele>12.6</ele>
        <time>2021-04-18T13:03:43Z</time>
      </trkpt>
      <trkpt lat="49.29343" lon="-0.32008">
        <ele>12.6</ele>
        <time>2021-04-18T13:03:44Z</time>
      </trkpt>
      <trkpt lat="49.29345" lon="-0.3201">
        <ele>12.6</ele>
        <time>2021-04-18T13:03:45Z</time>
      </trkpt>
      <trkpt lat="49.29347" lon="-0.32013">
        <ele>12.6</ele>
        <time>2021-04-18T13:03:47Z</time>
      </trkpt>
      <trkpt lat="49.29349" lon="-0.32015">
        <ele>12.6</ele>
        <time>2021-04-18T13:03:48Z</time>
      </trkpt>
      <trkpt lat="49.29351" lon="-0.32018">
        <ele>12.6</ele>
        <time>2021-04-18T13:03:50Z</time>
      </trkpt>
      <trkpt lat="49.29353" lon="-0.3202">
        <ele>12.6</ele>
        <time>2021-04-18T13:03:51Z</time>
      </trkpt>
      <trkpt lat="49.29354" lon="-0.32021">
        <ele>12.6</ele>
        <time>2021-04-18T13:03:52Z</time>
      </trkpt>
      <trkpt lat="49.29356" lon="-0.32023">
        <ele>12.6</ele>
        <time>2021-04-18T13:03:53Z</time>
      </trkpt>
      <trkpt lat="49.29357" lon="-0.32025">
        <ele>12.6</ele>
        <time>2021-04-18T13:03:55Z</time>
      </trkpt>
      <trkpt lat="49.2936" lon="-0.32027">
        <ele>12.6</ele>
        <time>2021-04-18T13:03:56Z</time>
      </trkpt>
      <trkpt lat="49.29362" lon="-0.32029">
        <ele>12.6</ele>
        <time>2021-04-18T13:03:58Z</time>
      </trkpt>
      <trkpt lat="49.29363" lon="-0.32032">
        <ele>12.6</ele>
        <time>2021-04-18T13:03:59Z</time>
      </trkpt>
      <trkpt lat="49.29366" lon="-0.32035">
        <ele>12.6</ele>
        <time>2021-04-18T13:04:01Z</time>
      </trkpt>
      <trkpt lat="49.29369" lon="-0.32039">
        <ele>12.5</ele>
        <time>2021-04-18T13:04:02Z</time>
      </trkpt>
      <trkpt lat="49.2937" lon="-0.3204">
        <ele>12.5</ele>
        <time>2021-04-18T13:04:03Z</time>
      </trkpt>
      <trkpt lat="49.29372" lon="-0.32044">
        <ele>12.5</ele>
        <time>2021-04-18T13:04:05Z</time>
      </trkpt>
      <trkpt lat="49.29373" lon="-0.32045">
        <ele>12.5</ele>
        <time>2021-04-18T13:04:06Z</time>
      </trkpt>
      <trkpt lat="49.29376" lon="-0.32049">
        <ele>12.5</ele>
        <time>2021-04-18T13:04:07Z</time>
      </trkpt>
      <trkpt lat="49.29377" lon="-0.32051">
        <ele>12.5</ele>
        <time>2021-04-18T13:04:08Z</time>
      </trkpt>
      <trkpt lat="49.29379" lon="-0.32054">
        <ele>12.6</ele>
        <time>2021-04-18T13:04:10Z</time>
      </trkpt>
      <trkpt lat="49.2938" lon="-0.32057">
        <ele>12.6</ele>
        <time>2021-04-18T13:04:11Z</time>
      </trkpt>
      <trkpt lat="49.29382" lon="-0.3206">
        <ele>12.6</ele>
        <time>2021-04-18T13:04:13Z</time>
      </trkpt>
      <trkpt lat="49.29385" lon="-0.32064">
        <ele>12.6</ele>
        <time>2021-04-18T13:04:14Z</time>
      </trkpt>
      <trkpt lat="49.29385" lon="-0.32065">
        <ele>12.6</ele>
        <time>2021-04-18T13:04:15Z</time>
      </trkpt>
      <trkpt lat="49.29387" lon="-0.32069">
        <ele>12.6</ele>
        <time>2021-04-18T13:04:17Z</time>
      </trkpt>
      <trkpt lat="49.29388" lon="-0.3207">
        <ele>12.6</ele>
        <time>2021-04-18T13:04:18Z</time>
      </trkpt>
      <trkpt lat="49.2939" lon="-0.32075">
        <ele>12.6</ele>
        <time>2021-04-18T13:04:20Z</time>
      </trkpt>
      <trkpt lat="49.29391" lon="-0.32076">
        <ele>12.6</ele>
        <time>2021-04-18T13:04:21Z</time>
      </trkpt>
      <trkpt lat="49.29393" lon="-0.32079">
        <ele>12.6</ele>
        <time>2021-04-18T13:04:22Z</time>
      </trkpt>
      <trkpt lat="49.29394" lon="-0.32082">
        <ele>12.6</ele>
        <time>2021-04-18T13:04:24Z</time>
      </trkpt>
      <trkpt lat="49.29396" lon="-0.32084">
        <ele>12.7</ele>
        <time>2021-04-18T13:04:25Z</time>
      </trkpt>
      <trkpt lat="49.29397" lon="-0.32087">
        <ele>12.7</ele>
        <time>2021-04-18T13:04:27Z</time>
      </trkpt>
      <trkpt lat="49.29399" lon="-0.3209">
        <ele>12.7</ele>
        <time>2021-04-18T13:04:28Z</time>
      </trkpt>
      <trkpt lat="49.294" lon="-0.32092">
        <ele>12.7</ele>
        <time>2021-04-18T13:04:29Z</time>
      </trkpt>
      <trkpt lat="49.29402" lon="-0.32096">
        <ele>12.7</ele>
        <time>2021-04-18T13:04:31Z</time>
      </trkpt>
      <trkpt lat="49.29402" lon="-0.32097">
        <ele>12.7</ele>
        <time>2021-04-18T13:04:32Z</time>
      </trkpt>
      <trkpt lat="49.29403" lon="-0.321">
        <ele>12.8</ele>
        <time>2021-04-18T13:04:33Z</time>
      </trkpt>
      <trkpt lat="49.29405" lon="-0.32104">
        <ele>12.8</ele>
        <time>2021-04-18T13:04:35Z</time>
      </trkpt>
      <trkpt lat="49.29407" lon="-0.32108">
        <ele>12.8</ele>
        <time>2021-04-18T13:04:37Z</time>
      </trkpt>
      <trkpt lat="49.29409" lon="-0.32113">
        <ele>12.8</ele>
        <time>2021-04-18T13:04:38Z</time>
      </trkpt>
      <trkpt lat="49.29409" lon="-0.32115">
        <ele>12.8</ele>
        <time>2021-04-18T13:04:39Z</time>
      </trkpt>
      <trkpt lat="49.29412" lon="-0.32119">
        <ele>12.9</ele>
        <time>2021-04-18T13:04:41Z</time>
      </trkpt>
      <trkpt lat="49.29413" lon="-0.3212">
        <ele>12.9</ele>
        <time>2021-04-18T13:04:42Z</time>
      </trkpt>
      <trkpt lat="49.29414" lon="-0.32123">
        <ele>12.9</ele>
        <time>2021-04-18T13:04:43Z</time>
      </trkpt>
      <trkpt lat="49.29416" lon="-0.32126">
        <ele>12.9</ele>
        <time>2021-04-18T13:04:45Z</time>
      </trkpt>
      <trkpt lat="49.29418" lon="-0.3213">
        <ele>12.9</ele>
        <time>2021-04-18T13:04:46Z</time>
      </trkpt>
      <trkpt lat="49.29419" lon="-0.32131">
        <ele>13</ele>
        <time>2021-04-18T13:04:47Z</time>
      </trkpt>
      <trkpt lat="49.29422" lon="-0.32134">
        <ele>13</ele>
        <time>2021-04-18T13:04:49Z</time>
      </trkpt>
      <trkpt lat="49.29424" lon="-0.32136">
        <ele>13</ele>
        <time>2021-04-18T13:04:50Z</time>
      </trkpt>
      <trkpt lat="49.29427" lon="-0.32138">
        <ele>13</ele>
        <time>2021-04-18T13:04:52Z</time>
      </trkpt>
      <trkpt lat="49.29428" lon="-0.32138">
        <ele>13</ele>
        <time>2021-04-18T13:04:53Z</time>
      </trkpt>
      <trkpt lat="49.29431" lon="-0.32141">
        <ele>13</ele>
        <time>2021-04-18T13:04:55Z</time>
      </trkpt>
      <trkpt lat="49.29431" lon="-0.32141">
        <ele>13</ele>
        <time>2021-04-18T13:04:56Z</time>
      </trkpt>
      <trkpt lat="49.29432" lon="-0.32141">
        <ele>13.1</ele>
        <time>2021-04-18T13:04:57Z</time>
      </trkpt>
      <trkpt lat="49.29434" lon="-0.3214">
        <ele>13.1</ele>
        <time>2021-04-18T13:04:59Z</time>
      </trkpt>
      <trkpt lat="49.29434" lon="-0.32138">
        <ele>13.1</ele>
        <time>2021-04-18T13:05:01Z</time>
      </trkpt>
      <trkpt lat="49.29432" lon="-0.32134">
        <ele>13.1</ele>
        <time>2021-04-18T13:05:03Z</time>
      </trkpt>
      <trkpt lat="49.29431" lon="-0.32133">
        <ele>13.1</ele>
        <time>2021-04-18T13:05:05Z</time>
      </trkpt>
      <trkpt lat="49.2943" lon="-0.32132">
        <ele>13.1</ele>
        <time>2021-04-18T13:05:07Z</time>
      </trkpt>
      <trkpt lat="49.2943" lon="-0.32132">
        <ele>13.1</ele>
        <time>2021-04-18T13:05:08Z</time>
      </trkpt>
      <trkpt lat="49.29429" lon="-0.32131">
        <ele>13.1</ele>
        <time>2021-04-18T13:05:09Z</time>
      </trkpt>
      <trkpt lat="49.29428" lon="-0.32131">
        <ele>13.1</ele>
        <time>2021-04-18T13:05:11Z</time>
      </trkpt>
      <trkpt lat="49.29427" lon="-0.32135">
        <ele>13.1</ele>
        <time>2021-04-18T13:05:13Z</time>
      </trkpt>
      <trkpt lat="49.29426" lon="-0.3214">
        <ele>13.2</ele>
        <time>2021-04-18T13:05:15Z</time>
      </trkpt>
      <trkpt lat="49.29427" lon="-0.32146">
        <ele>13.2</ele>
        <time>2021-04-18T13:05:16Z</time>
      </trkpt>
      <trkpt lat="49.29428" lon="-0.32151">
        <ele>13.2</ele>
        <time>2021-04-18T13:05:17Z</time>
      </trkpt>
      <trkpt lat="49.2943" lon="-0.32154">
        <ele>13.2</ele>
        <time>2021-04-18T13:05:19Z</time>
      </trkpt>
      <trkpt lat="49.29432" lon="-0.32157">
        <ele>13.2</ele>
        <time>2021-04-18T13:05:20Z</time>
      </trkpt>
      <trkpt lat="49.29435" lon="-0.32159">
        <ele>13.2</ele>
        <time>2021-04-18T13:05:21Z</time>
      </trkpt>
      <trkpt lat="49.29437" lon="-0.32161">
        <ele>13.2</ele>
        <time>2021-04-18T13:05:23Z</time>
      </trkpt>
      <trkpt lat="49.29439" lon="-0.32163">
        <ele>13.1</ele>
        <time>2021-04-18T13:05:24Z</time>
      </trkpt>
      <trkpt lat="49.29442" lon="-0.32165">
        <ele>13.1</ele>
        <time>2021-04-18T13:05:26Z</time>
      </trkpt>
      <trkpt lat="49.29444" lon="-0.32167">
        <ele>13.1</ele>
        <time>2021-04-18T13:05:27Z</time>
      </trkpt>
      <trkpt lat="49.29446" lon="-0.3217">
        <ele>13.1</ele>
        <time>2021-04-18T13:05:28Z</time>
      </trkpt>
      <trkpt lat="49.29449" lon="-0.32173">
        <ele>13.1</ele>
        <time>2021-04-18T13:05:30Z</time>
      </trkpt>
      <trkpt lat="49.29452" lon="-0.32176">
        <ele>13.1</ele>
        <time>2021-04-18T13:05:31Z</time>
      </trkpt>
      <trkpt lat="49.29454" lon="-0.32178">
        <ele>13.1</ele>
        <time>2021-04-18T13:05:32Z</time>
      </trkpt>
      <trkpt lat="49.29457" lon="-0.32181">
        <ele>13.1</ele>
        <time>2021-04-18T13:05:34Z</time>
      </trkpt>
      <trkpt lat="49.29459" lon="-0.32185">
        <ele>13.1</ele>
        <time>2021-04-18T13:05:36Z</time>
      </trkpt>
      <trkpt lat="49.29462" lon="-0.3219">
        <ele>13</ele>
        <time>2021-04-18T13:05:38Z</time>
      </trkpt>
      <trkpt lat="49.29465" lon="-0.32194">
        <ele>13</ele>
        <time>2021-04-18T13:05:39Z</time>
      </trkpt>
      <trkpt lat="49.29466" lon="-0.32195">
        <ele>13</ele>
        <time>2021-04-18T13:05:40Z</time>
      </trkpt>
      <trkpt lat="49.29468" lon="-0.32198">
        <ele>13</ele>
        <time>2021-04-18T13:05:41Z</time>
      </trkpt>
      <trkpt lat="49.29468" lon="-0.32199">
        <ele>13</ele>
        <time>2021-04-18T13:05:42Z</time>
      </trkpt>
      <trkpt lat="49.29469" lon="-0.32201">
        <ele>13</ele>
        <time>2021-04-18T13:05:43Z</time>
      </trkpt>
      <trkpt lat="49.2947" lon="-0.32202">
        <ele>13</ele>
        <time>2021-04-18T13:05:44Z</time>
      </trkpt>
      <trkpt lat="49.29471" lon="-0.32204">
        <ele>13</ele>
        <time>2021-04-18T13:05:45Z</time>
      </trkpt>
      <trkpt lat="49.29473" lon="-0.32207">
        <ele>13</ele>
        <time>2021-04-18T13:05:47Z</time>
      </trkpt>
      <trkpt lat="49.29474" lon="-0.32209">
        <ele>13</ele>
        <time>2021-04-18T13:05:48Z</time>
      </trkpt>
      <trkpt lat="49.29475" lon="-0.3221">
        <ele>12.9</ele>
        <time>2021-04-18T13:05:49Z</time>
      </trkpt>
      <trkpt lat="49.29477" lon="-0.32213">
        <ele>12.9</ele>
        <time>2021-04-18T13:05:50Z</time>
      </trkpt>
      <trkpt lat="49.29479" lon="-0.32215">
        <ele>12.9</ele>
        <time>2021-04-18T13:05:52Z</time>
      </trkpt>
      <trkpt lat="49.2948" lon="-0.32217">
        <ele>12.9</ele>
        <time>2021-04-18T13:05:53Z</time>
      </trkpt>
      <trkpt lat="49.29483" lon="-0.32221">
        <ele>12.9</ele>
        <time>2021-04-18T13:05:55Z</time>
      </trkpt>
      <trkpt lat="49.29485" lon="-0.32223">
        <ele>12.9</ele>
        <time>2021-04-18T13:05:56Z</time>
      </trkpt>
      <trkpt lat="49.29487" lon="-0.32226">
        <ele>12.9</ele>
        <time>2021-04-18T13:05:58Z</time>
      </trkpt>
      <trkpt lat="49.29489" lon="-0.32229">
        <ele>12.9</ele>
        <time>2021-04-18T13:06:00Z</time>
      </trkpt>
      <trkpt lat="49.29491" lon="-0.32233">
        <ele>12.9</ele>
        <time>2021-04-18T13:06:01Z</time>
      </trkpt>
      <trkpt lat="49.29494" lon="-0.32236">
        <ele>12.8</ele>
        <time>2021-04-18T13:06:03Z</time>
      </trkpt>
      <trkpt lat="49.29496" lon="-0.32239">
        <ele>12.8</ele>
        <time>2021-04-18T13:06:04Z</time>
      </trkpt>
      <trkpt lat="49.29498" lon="-0.32243">
        <ele>12.8</ele>
        <time>2021-04-18T13:06:06Z</time>
      </trkpt>
      <trkpt lat="49.29499" lon="-0.32244">
        <ele>12.8</ele>
        <time>2021-04-18T13:06:07Z</time>
      </trkpt>
      <trkpt lat="49.29502" lon="-0.32248">
        <ele>12.8</ele>
        <time>2021-04-18T13:06:09Z</time>
      </trkpt>
      <trkpt lat="49.29503" lon="-0.3225">
        <ele>12.8</ele>
        <time>2021-04-18T13:06:10Z</time>
      </trkpt>
      <trkpt lat="49.29504" lon="-0.32251">
        <ele>12.8</ele>
        <time>2021-04-18T13:06:11Z</time>
      </trkpt>
      <trkpt lat="49.29506" lon="-0.32254">
        <ele>12.7</ele>
        <time>2021-04-18T13:06:12Z</time>
      </trkpt>
      <trkpt lat="49.29509" lon="-0.32257">
        <ele>12.7</ele>
        <time>2021-04-18T13:06:14Z</time>
      </trkpt>
      <trkpt lat="49.2951" lon="-0.32258">
        <ele>12.7</ele>
        <time>2021-04-18T13:06:15Z</time>
      </trkpt>
      <trkpt lat="49.29512" lon="-0.32261">
        <ele>12.7</ele>
        <time>2021-04-18T13:06:16Z</time>
      </trkpt>
      <trkpt lat="49.29514" lon="-0.32263">
        <ele>12.7</ele>
        <time>2021-04-18T13:06:18Z</time>
      </trkpt>
      <trkpt lat="49.29515" lon="-0.32265">
        <ele>12.7</ele>
        <time>2021-04-18T13:06:19Z</time>
      </trkpt>
      <trkpt lat="49.29517" lon="-0.32267">
        <ele>12.6</ele>
        <time>2021-04-18T13:06:21Z</time>
      </trkpt>
      <trkpt lat="49.2952" lon="-0.3227">
        <ele>12.6</ele>
        <time>2021-04-18T13:06:22Z</time>
      </trkpt>
      <trkpt lat="49.2952" lon="-0.32271">
        <ele>12.6</ele>
        <time>2021-04-18T13:06:23Z</time>
      </trkpt>
      <trkpt lat="49.29523" lon="-0.32274">
        <ele>12.6</ele>
        <time>2021-04-18T13:06:25Z</time>
      </trkpt>
      <trkpt lat="49.29524" lon="-0.32275">
        <ele>12.6</ele>
        <time>2021-04-18T13:06:26Z</time>
      </trkpt>
      <trkpt lat="49.29525" lon="-0.32277">
        <ele>12.6</ele>
        <time>2021-04-18T13:06:27Z</time>
      </trkpt>
      <trkpt lat="49.29527" lon="-0.32279">
        <ele>12.6</ele>
        <time>2021-04-18T13:06:29Z</time>
      </trkpt>
      <trkpt lat="49.29531" lon="-0.32284">
        <ele>12.6</ele>
        <time>2021-04-18T13:06:31Z</time>
      </trkpt>
      <trkpt lat="49.29532" lon="-0.32285">
        <ele>12.6</ele>
        <time>2021-04-18T13:06:33Z</time>
      </trkpt>
      <trkpt lat="49.29534" lon="-0.32287">
        <ele>12.6</ele>
        <time>2021-04-18T13:06:34Z</time>
      </trkpt>
      <trkpt lat="49.29535" lon="-0.32289">
        <ele>12.6</ele>
        <time>2021-04-18T13:06:35Z</time>
      </trkpt>
      <trkpt lat="49.29538" lon="-0.32293">
        <ele>12.6</ele>
        <time>2021-04-18T13:06:37Z</time>
      </trkpt>
      <trkpt lat="49.29539" lon="-0.32294">
        <ele>12.6</ele>
        <time>2021-04-18T13:06:38Z</time>
      </trkpt>
      <trkpt lat="49.2954" lon="-0.32296">
        <ele>12.6</ele>
        <time>2021-04-18T13:06:39Z</time>
      </trkpt>
      <trkpt lat="49.29542" lon="-0.32298">
        <ele>12.6</ele>
        <time>2021-04-18T13:06:41Z</time>
      </trkpt>
      <trkpt lat="49.29543" lon="-0.323">
        <ele>12.6</ele>
        <time>2021-04-18T13:06:42Z</time>
      </trkpt>
      <trkpt lat="49.29545" lon="-0.32303">
        <ele>12.6</ele>
        <time>2021-04-18T13:06:44Z</time>
      </trkpt>
      <trkpt lat="49.29546" lon="-0.32306">
        <ele>12.5</ele>
        <time>2021-04-18T13:06:45Z</time>
      </trkpt>
      <trkpt lat="49.29547" lon="-0.32307">
        <ele>12.5</ele>
        <time>2021-04-18T13:06:46Z</time>
      </trkpt>
      <trkpt lat="49.29548" lon="-0.3231">
        <ele>12.5</ele>
        <time>2021-04-18T13:06:47Z</time>
      </trkpt>
      <trkpt lat="49.29551" lon="-0.32313">
        <ele>12.5</ele>
        <time>2021-04-18T13:06:49Z</time>
      </trkpt>
      <trkpt lat="49.29552" lon="-0.32315">
        <ele>12.5</ele>
        <time>2021-04-18T13:06:50Z</time>
      </trkpt>
      <trkpt lat="49.29554" lon="-0.32319">
        <ele>12.5</ele>
        <time>2021-04-18T13:06:52Z</time>
      </trkpt>
      <trkpt lat="49.29555" lon="-0.32321">
        <ele>12.5</ele>
        <time>2021-04-18T13:06:53Z</time>
      </trkpt>
      <trkpt lat="49.29556" lon="-0.32324">
        <ele>12.4</ele>
        <time>2021-04-18T13:06:55Z</time>
      </trkpt>
      <trkpt lat="49.29559" lon="-0.32327">
        <ele>12.4</ele>
        <time>2021-04-18T13:06:56Z</time>
      </trkpt>
      <trkpt lat="49.2956" lon="-0.32329">
        <ele>12.4</ele>
        <time>2021-04-18T13:06:57Z</time>
      </trkpt>
      <trkpt lat="49.29563" lon="-0.32328">
        <ele>12.4</ele>
        <time>2021-04-18T13:06:59Z</time>
      </trkpt>
      <trkpt lat="49.29564" lon="-0.32327">
        <ele>12.4</ele>
        <time>2021-04-18T13:07:00Z</time>
      </trkpt>
      <trkpt lat="49.29567" lon="-0.32324">
        <ele>12.4</ele>
        <time>2021-04-18T13:07:02Z</time>
      </trkpt>
      <trkpt lat="49.29568" lon="-0.32323">
        <ele>12.4</ele>
        <time>2021-04-18T13:07:03Z</time>
      </trkpt>
      <trkpt lat="49.2957" lon="-0.32319">
        <ele>12.5</ele>
        <time>2021-04-18T13:07:05Z</time>
      </trkpt>
      <trkpt lat="49.2957" lon="-0.32317">
        <ele>12.5</ele>
        <time>2021-04-18T13:07:06Z</time>
      </trkpt>
      <trkpt lat="49.29573" lon="-0.32314">
        <ele>12.5</ele>
        <time>2021-04-18T13:07:08Z</time>
      </trkpt>
      <trkpt lat="49.29573" lon="-0.32313">
        <ele>12.5</ele>
        <time>2021-04-18T13:07:09Z</time>
      </trkpt>
      <trkpt lat="49.29576" lon="-0.3231">
        <ele>12.5</ele>
        <time>2021-04-18T13:07:11Z</time>
      </trkpt>
      <trkpt lat="49.29576" lon="-0.3231">
        <ele>12.5</ele>
        <time>2021-04-18T13:07:12Z</time>
      </trkpt>
      <trkpt lat="49.29579" lon="-0.32307">
        <ele>12.5</ele>
        <time>2021-04-18T13:07:13Z</time>
      </trkpt>
      <trkpt lat="49.2958" lon="-0.32305">
        <ele>12.5</ele>
        <time>2021-04-18T13:07:15Z</time>
      </trkpt>
      <trkpt lat="49.29581" lon="-0.32304">
        <ele>12.5</ele>
        <time>2021-04-18T13:07:16Z</time>
      </trkpt>
      <trkpt lat="49.29582" lon="-0.32303">
        <ele>12.5</ele>
        <time>2021-04-18T13:07:17Z</time>
      </trkpt>
      <trkpt lat="49.29584" lon="-0.323">
        <ele>12.5</ele>
        <time>2021-04-18T13:07:19Z</time>
      </trkpt>
      <trkpt lat="49.29585" lon="-0.32297">
        <ele>12.5</ele>
        <time>2021-04-18T13:07:21Z</time>
      </trkpt>
      <trkpt lat="49.29588" lon="-0.32294">
        <ele>12.6</ele>
        <time>2021-04-18T13:07:22Z</time>
      </trkpt>
      <trkpt lat="49.29589" lon="-0.32293">
        <ele>12.6</ele>
        <time>2021-04-18T13:07:23Z</time>
      </trkpt>
      <trkpt lat="49.29591" lon="-0.32289">
        <ele>12.6</ele>
        <time>2021-04-18T13:07:25Z</time>
      </trkpt>
      <trkpt lat="49.29592" lon="-0.32288">
        <ele>12.5</ele>
        <time>2021-04-18T13:07:26Z</time>
      </trkpt>
      <trkpt lat="49.29595" lon="-0.32284">
        <ele>12.5</ele>
        <time>2021-04-18T13:07:28Z</time>
      </trkpt>
      <trkpt lat="49.29596" lon="-0.32282">
        <ele>12.5</ele>
        <time>2021-04-18T13:07:29Z</time>
      </trkpt>
      <trkpt lat="49.29598" lon="-0.32279">
        <ele>12.5</ele>
        <time>2021-04-18T13:07:31Z</time>
      </trkpt>
      <trkpt lat="49.29599" lon="-0.32278">
        <ele>12.5</ele>
        <time>2021-04-18T13:07:32Z</time>
      </trkpt>
      <trkpt lat="49.296" lon="-0.32276">
        <ele>12.5</ele>
        <time>2021-04-18T13:07:33Z</time>
      </trkpt>
      <trkpt lat="49.29601" lon="-0.32275">
        <ele>12.5</ele>
        <time>2021-04-18T13:07:34Z</time>
      </trkpt>
      <trkpt lat="49.29603" lon="-0.32272">
        <ele>12.5</ele>
        <time>2021-04-18T13:07:35Z</time>
      </trkpt>
      <trkpt lat="49.29605" lon="-0.3227">
        <ele>12.5</ele>
        <time>2021-04-18T13:07:37Z</time>
      </trkpt>
      <trkpt lat="49.29606" lon="-0.32267">
        <ele>12.4</ele>
        <time>2021-04-18T13:07:38Z</time>
      </trkpt>
      <trkpt lat="49.29607" lon="-0.32263">
        <ele>12.4</ele>
        <time>2021-04-18T13:07:40Z</time>
      </trkpt>
      <trkpt lat="49.29607" lon="-0.3226">
        <ele>12.4</ele>
        <time>2021-04-18T13:07:42Z</time>
      </trkpt>
      <trkpt lat="49.29607" lon="-0.32259">
        <ele>12.4</ele>
        <time>2021-04-18T13:07:43Z</time>
      </trkpt>
      <trkpt lat="49.29608" lon="-0.32257">
        <ele>12.4</ele>
        <time>2021-04-18T13:07:44Z</time>
      </trkpt>
      <trkpt lat="49.29608" lon="-0.32255">
        <ele>12.4</ele>
        <time>2021-04-18T13:07:45Z</time>
      </trkpt>
      <trkpt lat="49.2961" lon="-0.32251">
        <ele>12.4</ele>
        <time>2021-04-18T13:07:47Z</time>
      </trkpt>
      <trkpt lat="49.29612" lon="-0.32248">
        <ele>12.3</ele>
        <time>2021-04-18T13:07:49Z</time>
      </trkpt>
      <trkpt lat="49.29613" lon="-0.32246">
        <ele>12.3</ele>
        <time>2021-04-18T13:07:50Z</time>
      </trkpt>
      <trkpt lat="49.29615" lon="-0.32243">
        <ele>12.3</ele>
        <time>2021-04-18T13:07:52Z</time>
      </trkpt>
      <trkpt lat="49.29616" lon="-0.32241">
        <ele>12.3</ele>
        <time>2021-04-18T13:07:53Z</time>
      </trkpt>
      <trkpt lat="49.29618" lon="-0.32238">
        <ele>12.3</ele>
        <time>2021-04-18T13:07:55Z</time>
      </trkpt>
      <trkpt lat="49.29619" lon="-0.32235">
        <ele>12.2</ele>
        <time>2021-04-18T13:07:56Z</time>
      </trkpt>
      <trkpt lat="49.2962" lon="-0.32233">
        <ele>12.2</ele>
        <time>2021-04-18T13:07:57Z</time>
      </trkpt>
      <trkpt lat="49.29622" lon="-0.32231">
        <ele>12.2</ele>
        <time>2021-04-18T13:07:59Z</time>
      </trkpt>
      <trkpt lat="49.29623" lon="-0.3223">
        <ele>12.2</ele>
        <time>2021-04-18T13:08:00Z</time>
      </trkpt>
      <trkpt lat="49.29624" lon="-0.32228">
        <ele>12.1</ele>
        <time>2021-04-18T13:08:01Z</time>
      </trkpt>
      <trkpt lat="49.29626" lon="-0.32225">
        <ele>12.1</ele>
        <time>2021-04-18T13:08:03Z</time>
      </trkpt>
      <trkpt lat="49.29627" lon="-0.32223">
        <ele>12.1</ele>
        <time>2021-04-18T13:08:04Z</time>
      </trkpt>
      <trkpt lat="49.29628" lon="-0.3222">
        <ele>12</ele>
        <time>2021-04-18T13:08:05Z</time>
      </trkpt>
      <trkpt lat="49.29629" lon="-0.32217">
        <ele>12</ele>
        <time>2021-04-18T13:08:06Z</time>
      </trkpt>
      <trkpt lat="49.29631" lon="-0.32212">
        <ele>11.9</ele>
        <time>2021-04-18T13:08:08Z</time>
      </trkpt>
      <trkpt lat="49.29631" lon="-0.32211">
        <ele>11.9</ele>
        <time>2021-04-18T13:08:09Z</time>
      </trkpt>
      <trkpt lat="49.29633" lon="-0.32206">
        <ele>11.9</ele>
        <time>2021-04-18T13:08:10Z</time>
      </trkpt>
      <trkpt lat="49.29634" lon="-0.32204">
        <ele>11.8</ele>
        <time>2021-04-18T13:08:11Z</time>
      </trkpt>
      <trkpt lat="49.29636" lon="-0.322">
        <ele>11.8</ele>
        <time>2021-04-18T13:08:12Z</time>
      </trkpt>
      <trkpt lat="49.29638" lon="-0.32196">
        <ele>11.7</ele>
        <time>2021-04-18T13:08:14Z</time>
      </trkpt>
      <trkpt lat="49.2964" lon="-0.32191">
        <ele>11.6</ele>
        <time>2021-04-18T13:08:16Z</time>
      </trkpt>
      <trkpt lat="49.29642" lon="-0.32188">
        <ele>11.6</ele>
        <time>2021-04-18T13:08:17Z</time>
      </trkpt>
      <trkpt lat="49.29644" lon="-0.32185">
        <ele>11.6</ele>
        <time>2021-04-18T13:08:19Z</time>
      </trkpt>
      <trkpt lat="49.29647" lon="-0.32182">
        <ele>11.5</ele>
        <time>2021-04-18T13:08:20Z</time>
      </trkpt>
      <trkpt lat="49.29647" lon="-0.32181">
        <ele>11.5</ele>
        <time>2021-04-18T13:08:21Z</time>
      </trkpt>
      <trkpt lat="49.29649" lon="-0.32178">
        <ele>11.4</ele>
        <time>2021-04-18T13:08:22Z</time>
      </trkpt>
      <trkpt lat="49.29652" lon="-0.32175">
        <ele>11.4</ele>
        <time>2021-04-18T13:08:24Z</time>
      </trkpt>
      <trkpt lat="49.29654" lon="-0.32171">
        <ele>11.3</ele>
        <time>2021-04-18T13:08:25Z</time>
      </trkpt>
      <trkpt lat="49.29656" lon="-0.32167">
        <ele>11.2</ele>
        <time>2021-04-18T13:08:27Z</time>
      </trkpt>
      <trkpt lat="49.29657" lon="-0.32166">
        <ele>11.2</ele>
        <time>2021-04-18T13:08:28Z</time>
      </trkpt>
      <trkpt lat="49.29659" lon="-0.32163">
        <ele>11.2</ele>
        <time>2021-04-18T13:08:30Z</time>
      </trkpt>
      <trkpt lat="49.2966" lon="-0.32161">
        <ele>11.1</ele>
        <time>2021-04-18T13:08:31Z</time>
      </trkpt>
      <trkpt lat="49.29661" lon="-0.3216">
        <ele>11.1</ele>
        <time>2021-04-18T13:08:32Z</time>
      </trkpt>
      <trkpt lat="49.29662" lon="-0.32156">
        <ele>11.1</ele>
        <time>2021-04-18T13:08:34Z</time>
      </trkpt>
      <trkpt lat="49.29664" lon="-0.32153">
        <ele>11</ele>
        <time>2021-04-18T13:08:35Z</time>
      </trkpt>
      <trkpt lat="49.29665" lon="-0.32152">
        <ele>11</ele>
        <time>2021-04-18T13:08:36Z</time>
      </trkpt>
      <trkpt lat="49.29666" lon="-0.32148">
        <ele>11</ele>
        <time>2021-04-18T13:08:37Z</time>
      </trkpt>
      <trkpt lat="49.29668" lon="-0.32143">
        <ele>10.9</ele>
        <time>2021-04-18T13:08:39Z</time>
      </trkpt>
      <trkpt lat="49.29669" lon="-0.32142">
        <ele>10.9</ele>
        <time>2021-04-18T13:08:40Z</time>
      </trkpt>
      <trkpt lat="49.2967" lon="-0.32139">
        <ele>10.8</ele>
        <time>2021-04-18T13:08:41Z</time>
      </trkpt>
      <trkpt lat="49.29672" lon="-0.32136">
        <ele>10.8</ele>
        <time>2021-04-18T13:08:43Z</time>
      </trkpt>
      <trkpt lat="49.29673" lon="-0.32132">
        <ele>10.7</ele>
        <time>2021-04-18T13:08:44Z</time>
      </trkpt>
      <trkpt lat="49.29674" lon="-0.32131">
        <ele>10.7</ele>
        <time>2021-04-18T13:08:45Z</time>
      </trkpt>
      <trkpt lat="49.29676" lon="-0.32126">
        <ele>10.7</ele>
        <time>2021-04-18T13:08:47Z</time>
      </trkpt>
      <trkpt lat="49.29677" lon="-0.32123">
        <ele>10.6</ele>
        <time>2021-04-18T13:08:48Z</time>
      </trkpt>
      <trkpt lat="49.29679" lon="-0.3212">
        <ele>10.6</ele>
        <time>2021-04-18T13:08:50Z</time>
      </trkpt>
      <trkpt lat="49.29681" lon="-0.32118">
        <ele>10.6</ele>
        <time>2021-04-18T13:08:51Z</time>
      </trkpt>
      <trkpt lat="49.29682" lon="-0.32115">
        <ele>10.5</ele>
        <time>2021-04-18T13:08:53Z</time>
      </trkpt>
      <trkpt lat="49.29685" lon="-0.32111">
        <ele>10.5</ele>
        <time>2021-04-18T13:08:54Z</time>
      </trkpt>
      <trkpt lat="49.29686" lon="-0.3211">
        <ele>10.5</ele>
        <time>2021-04-18T13:08:55Z</time>
      </trkpt>
      <trkpt lat="49.29688" lon="-0.32107">
        <ele>10.4</ele>
        <time>2021-04-18T13:08:57Z</time>
      </trkpt>
      <trkpt lat="49.29689" lon="-0.32105">
        <ele>10.4</ele>
        <time>2021-04-18T13:08:58Z</time>
      </trkpt>
      <trkpt lat="49.29691" lon="-0.32102">
        <ele>10.4</ele>
        <time>2021-04-18T13:09:00Z</time>
      </trkpt>
      <trkpt lat="49.29693" lon="-0.32099">
        <ele>10.4</ele>
        <time>2021-04-18T13:09:01Z</time>
      </trkpt>
      <trkpt lat="49.29695" lon="-0.32096">
        <ele>10.3</ele>
        <time>2021-04-18T13:09:03Z</time>
      </trkpt>
      <trkpt lat="49.29697" lon="-0.32092">
        <ele>10.3</ele>
        <time>2021-04-18T13:09:04Z</time>
      </trkpt>
      <trkpt lat="49.29698" lon="-0.32091">
        <ele>10.3</ele>
        <time>2021-04-18T13:09:05Z</time>
      </trkpt>
      <trkpt lat="49.29699" lon="-0.32088">
        <ele>10.3</ele>
        <time>2021-04-18T13:09:06Z</time>
      </trkpt>
      <trkpt lat="49.29702" lon="-0.32085">
        <ele>10.2</ele>
        <time>2021-04-18T13:09:08Z</time>
      </trkpt>
      <trkpt lat="49.29703" lon="-0.32082">
        <ele>10.2</ele>
        <time>2021-04-18T13:09:09Z</time>
      </trkpt>
      <trkpt lat="49.29705" lon="-0.3208">
        <ele>10.2</ele>
        <time>2021-04-18T13:09:11Z</time>
      </trkpt>
      <trkpt lat="49.29707" lon="-0.32077">
        <ele>10.2</ele>
        <time>2021-04-18T13:09:12Z</time>
      </trkpt>
      <trkpt lat="49.29708" lon="-0.32076">
        <ele>10.1</ele>
        <time>2021-04-18T13:09:13Z</time>
      </trkpt>
      <trkpt lat="49.2971" lon="-0.32073">
        <ele>10.1</ele>
        <time>2021-04-18T13:09:15Z</time>
      </trkpt>
      <trkpt lat="49.29711" lon="-0.32073">
        <ele>10.1</ele>
        <time>2021-04-18T13:09:16Z</time>
      </trkpt>
      <trkpt lat="49.29713" lon="-0.3207">
        <ele>10.1</ele>
        <time>2021-04-18T13:09:17Z</time>
      </trkpt>
      <trkpt lat="49.29713" lon="-0.32068">
        <ele>10.1</ele>
        <time>2021-04-18T13:09:18Z</time>
      </trkpt>
      <trkpt lat="49.29716" lon="-0.32065">
        <ele>10</ele>
        <time>2021-04-18T13:09:19Z</time>
      </trkpt>
      <trkpt lat="49.29716" lon="-0.32064">
        <ele>10</ele>
        <time>2021-04-18T13:09:20Z</time>
      </trkpt>
      <trkpt lat="49.29719" lon="-0.3206">
        <ele>10</ele>
        <time>2021-04-18T13:09:22Z</time>
      </trkpt>
      <trkpt lat="49.29719" lon="-0.32059">
        <ele>10</ele>
        <time>2021-04-18T13:09:23Z</time>
      </trkpt>
      <trkpt lat="49.2972" lon="-0.32058">
        <ele>10</ele>
        <time>2021-04-18T13:09:24Z</time>
      </trkpt>
      <trkpt lat="49.29721" lon="-0.32056">
        <ele>9.9</ele>
        <time>2021-04-18T13:09:25Z</time>
      </trkpt>
      <trkpt lat="49.29723" lon="-0.32053">
        <ele>9.9</ele>
        <time>2021-04-18T13:09:26Z</time>
      </trkpt>
      <trkpt lat="49.29724" lon="-0.32049">
        <ele>9.9</ele>
        <time>2021-04-18T13:09:28Z</time>
      </trkpt>
      <trkpt lat="49.29725" lon="-0.32047">
        <ele>9.8</ele>
        <time>2021-04-18T13:09:29Z</time>
      </trkpt>
      <trkpt lat="49.29727" lon="-0.32044">
        <ele>9.8</ele>
        <time>2021-04-18T13:09:31Z</time>
      </trkpt>
      <trkpt lat="49.29729" lon="-0.3204">
        <ele>9.8</ele>
        <time>2021-04-18T13:09:32Z</time>
      </trkpt>
      <trkpt lat="49.29729" lon="-0.32039">
        <ele>9.8</ele>
        <time>2021-04-18T13:09:33Z</time>
      </trkpt>
      <trkpt lat="49.29731" lon="-0.32035">
        <ele>9.7</ele>
        <time>2021-04-18T13:09:35Z</time>
      </trkpt>
      <trkpt lat="49.29732" lon="-0.32034">
        <ele>9.7</ele>
        <time>2021-04-18T13:09:36Z</time>
      </trkpt>
      <trkpt lat="49.29734" lon="-0.3203">
        <ele>9.7</ele>
        <time>2021-04-18T13:09:37Z</time>
      </trkpt>
      <trkpt lat="49.29735" lon="-0.32029">
        <ele>9.7</ele>
        <time>2021-04-18T13:09:38Z</time>
      </trkpt>
      <trkpt lat="49.29737" lon="-0.32025">
        <ele>9.6</ele>
        <time>2021-04-18T13:09:40Z</time>
      </trkpt>
      <trkpt lat="49.29739" lon="-0.32022">
        <ele>9.6</ele>
        <time>2021-04-18T13:09:41Z</time>
      </trkpt>
      <trkpt lat="49.29741" lon="-0.32019">
        <ele>9.6</ele>
        <time>2021-04-18T13:09:43Z</time>
      </trkpt>
      <trkpt lat="49.29743" lon="-0.32015">
        <ele>9.5</ele>
        <time>2021-04-18T13:09:44Z</time>
      </trkpt>
      <trkpt lat="49.29743" lon="-0.32014">
        <ele>9.5</ele>
        <time>2021-04-18T13:09:45Z</time>
      </trkpt>
      <trkpt lat="49.29745" lon="-0.32011">
        <ele>9.5</ele>
        <time>2021-04-18T13:09:46Z</time>
      </trkpt>
      <trkpt lat="49.29746" lon="-0.32007">
        <ele>9.4</ele>
        <time>2021-04-18T13:09:48Z</time>
      </trkpt>
      <trkpt lat="49.29748" lon="-0.32005">
        <ele>9.4</ele>
        <time>2021-04-18T13:09:49Z</time>
      </trkpt>
      <trkpt lat="49.2975" lon="-0.32002">
        <ele>9.4</ele>
        <time>2021-04-18T13:09:51Z</time>
      </trkpt>
      <trkpt lat="49.29752" lon="-0.31999">
        <ele>9.3</ele>
        <time>2021-04-18T13:09:52Z</time>
      </trkpt>
      <trkpt lat="49.29752" lon="-0.31998">
        <ele>9.3</ele>
        <time>2021-04-18T13:09:53Z</time>
      </trkpt>
      <trkpt lat="49.29755" lon="-0.31995">
        <ele>9.3</ele>
        <time>2021-04-18T13:09:55Z</time>
      </trkpt>
      <trkpt lat="49.29755" lon="-0.31994">
        <ele>9.3</ele>
        <time>2021-04-18T13:09:56Z</time>
      </trkpt>
      <trkpt lat="49.29757" lon="-0.31991">
        <ele>9.2</ele>
        <time>2021-04-18T13:09:57Z</time>
      </trkpt>
      <trkpt lat="49.29759" lon="-0.31989">
        <ele>9.2</ele>
        <time>2021-04-18T13:09:59Z</time>
      </trkpt>
      <trkpt lat="49.29761" lon="-0.31986">
        <ele>9.1</ele>
        <time>2021-04-18T13:10:00Z</time>
      </trkpt>
      <trkpt lat="49.29762" lon="-0.31985">
        <ele>9.1</ele>
        <time>2021-04-18T13:10:01Z</time>
      </trkpt>
      <trkpt lat="49.29764" lon="-0.31981">
        <ele>9.1</ele>
        <time>2021-04-18T13:10:03Z</time>
      </trkpt>
      <trkpt lat="49.29765" lon="-0.3198">
        <ele>9</ele>
        <time>2021-04-18T13:10:04Z</time>
      </trkpt>
      <trkpt lat="49.29766" lon="-0.31978">
        <ele>9</ele>
        <time>2021-04-18T13:10:05Z</time>
      </trkpt>
      <trkpt lat="49.29767" lon="-0.31976">
        <ele>9</ele>
        <time>2021-04-18T13:10:07Z</time>
      </trkpt>
      <trkpt lat="49.29768" lon="-0.31974">
        <ele>8.9</ele>
        <time>2021-04-18T13:10:08Z</time>
      </trkpt>
      <trkpt lat="49.2977" lon="-0.31972">
        <ele>8.9</ele>
        <time>2021-04-18T13:10:09Z</time>
      </trkpt>
      <trkpt lat="49.29771" lon="-0.3197">
        <ele>8.9</ele>
        <time>2021-04-18T13:10:11Z</time>
      </trkpt>
      <trkpt lat="49.29772" lon="-0.31967">
        <ele>8.8</ele>
        <time>2021-04-18T13:10:13Z</time>
      </trkpt>
      <trkpt lat="49.29773" lon="-0.31965">
        <ele>8.8</ele>
        <time>2021-04-18T13:10:14Z</time>
      </trkpt>
      <trkpt lat="49.29774" lon="-0.31963">
        <ele>8.8</ele>
        <time>2021-04-18T13:10:15Z</time>
      </trkpt>
      <trkpt lat="49.29776" lon="-0.3196">
        <ele>8.7</ele>
        <time>2021-04-18T13:10:16Z</time>
      </trkpt>
      <trkpt lat="49.29777" lon="-0.31958">
        <ele>8.7</ele>
        <time>2021-04-18T13:10:17Z</time>
      </trkpt>
      <trkpt lat="49.29779" lon="-0.31956">
        <ele>8.6</ele>
        <time>2021-04-18T13:10:18Z</time>
      </trkpt>
      <trkpt lat="49.29781" lon="-0.31952">
        <ele>8.6</ele>
        <time>2021-04-18T13:10:20Z</time>
      </trkpt>
      <trkpt lat="49.29784" lon="-0.31949">
        <ele>8.5</ele>
        <time>2021-04-18T13:10:22Z</time>
      </trkpt>
      <trkpt lat="49.29786" lon="-0.31946">
        <ele>8.5</ele>
        <time>2021-04-18T13:10:23Z</time>
      </trkpt>
      <trkpt lat="49.29789" lon="-0.31941">
        <ele>8.4</ele>
        <time>2021-04-18T13:10:25Z</time>
      </trkpt>
      <trkpt lat="49.2979" lon="-0.31939">
        <ele>8.4</ele>
        <time>2021-04-18T13:10:26Z</time>
      </trkpt>
      <trkpt lat="49.29791" lon="-0.31937">
        <ele>8.4</ele>
        <time>2021-04-18T13:10:27Z</time>
      </trkpt>
      <trkpt lat="49.29793" lon="-0.31935">
        <ele>8.4</ele>
        <time>2021-04-18T13:10:28Z</time>
      </trkpt>
      <trkpt lat="49.29795" lon="-0.31931">
        <ele>8.3</ele>
        <time>2021-04-18T13:10:30Z</time>
      </trkpt>
      <trkpt lat="49.29796" lon="-0.31929">
        <ele>8.3</ele>
        <time>2021-04-18T13:10:31Z</time>
      </trkpt>
      <trkpt lat="49.29799" lon="-0.31925">
        <ele>8.2</ele>
        <time>2021-04-18T13:10:33Z</time>
      </trkpt>
      <trkpt lat="49.29801" lon="-0.31922">
        <ele>8.2</ele>
        <time>2021-04-18T13:10:34Z</time>
      </trkpt>
      <trkpt lat="49.29802" lon="-0.31921">
        <ele>8.2</ele>
        <time>2021-04-18T13:10:35Z</time>
      </trkpt>
      <trkpt lat="49.29805" lon="-0.31917">
        <ele>8.1</ele>
        <time>2021-04-18T13:10:37Z</time>
      </trkpt>
      <trkpt lat="49.29806" lon="-0.31915">
        <ele>8.1</ele>
        <time>2021-04-18T13:10:38Z</time>
      </trkpt>
      <trkpt lat="49.29808" lon="-0.31912">
        <ele>8.1</ele>
        <time>2021-04-18T13:10:39Z</time>
      </trkpt>
      <trkpt lat="49.29809" lon="-0.31911">
        <ele>8.1</ele>
        <time>2021-04-18T13:10:40Z</time>
      </trkpt>
      <trkpt lat="49.2981" lon="-0.31908">
        <ele>8.1</ele>
        <time>2021-04-18T13:10:41Z</time>
      </trkpt>
      <trkpt lat="49.29814" lon="-0.31903">
        <ele>8</ele>
        <time>2021-04-18T13:10:43Z</time>
      </trkpt>
      <trkpt lat="49.29815" lon="-0.31901">
        <ele>8</ele>
        <time>2021-04-18T13:10:44Z</time>
      </trkpt>
      <trkpt lat="49.29816" lon="-0.319">
        <ele>8</ele>
        <time>2021-04-18T13:10:45Z</time>
      </trkpt>
      <trkpt lat="49.29819" lon="-0.31897">
        <ele>8</ele>
        <time>2021-04-18T13:10:46Z</time>
      </trkpt>
      <trkpt lat="49.29821" lon="-0.31894">
        <ele>7.9</ele>
        <time>2021-04-18T13:10:48Z</time>
      </trkpt>
      <trkpt lat="49.29823" lon="-0.31892">
        <ele>7.9</ele>
        <time>2021-04-18T13:10:49Z</time>
      </trkpt>
      <trkpt lat="49.29825" lon="-0.31888">
        <ele>7.9</ele>
        <time>2021-04-18T13:10:51Z</time>
      </trkpt>
      <trkpt lat="49.29827" lon="-0.31884">
        <ele>7.8</ele>
        <time>2021-04-18T13:10:52Z</time>
      </trkpt>
      <trkpt lat="49.29828" lon="-0.31883">
        <ele>7.8</ele>
        <time>2021-04-18T13:10:53Z</time>
      </trkpt>
      <trkpt lat="49.29831" lon="-0.31879">
        <ele>7.8</ele>
        <time>2021-04-18T13:10:55Z</time>
      </trkpt>
      <trkpt lat="49.29831" lon="-0.31878">
        <ele>7.8</ele>
        <time>2021-04-18T13:10:56Z</time>
      </trkpt>
      <trkpt lat="49.29833" lon="-0.31876">
        <ele>7.8</ele>
        <time>2021-04-18T13:10:57Z</time>
      </trkpt>
      <trkpt lat="49.29835" lon="-0.31872">
        <ele>7.8</ele>
        <time>2021-04-18T13:10:59Z</time>
      </trkpt>
      <trkpt lat="49.29837" lon="-0.31868">
        <ele>7.8</ele>
        <time>2021-04-18T13:11:00Z</time>
      </trkpt>
      <trkpt lat="49.29838" lon="-0.31867">
        <ele>7.8</ele>
        <time>2021-04-18T13:11:01Z</time>
      </trkpt>
      <trkpt lat="49.2984" lon="-0.31862">
        <ele>7.7</ele>
        <time>2021-04-18T13:11:03Z</time>
      </trkpt>
      <trkpt lat="49.29841" lon="-0.31861">
        <ele>7.7</ele>
        <time>2021-04-18T13:11:04Z</time>
      </trkpt>
      <trkpt lat="49.29842" lon="-0.31858">
        <ele>7.7</ele>
        <time>2021-04-18T13:11:05Z</time>
      </trkpt>
      <trkpt lat="49.29844" lon="-0.31855">
        <ele>7.7</ele>
        <time>2021-04-18T13:11:07Z</time>
      </trkpt>
      <trkpt lat="49.29846" lon="-0.31853">
        <ele>7.7</ele>
        <time>2021-04-18T13:11:08Z</time>
      </trkpt>
      <trkpt lat="49.29847" lon="-0.31851">
        <ele>7.7</ele>
        <time>2021-04-18T13:11:10Z</time>
      </trkpt>
      <trkpt lat="49.2985" lon="-0.31847">
        <ele>7.7</ele>
        <time>2021-04-18T13:11:11Z</time>
      </trkpt>
      <trkpt lat="49.29851" lon="-0.31846">
        <ele>7.7</ele>
        <time>2021-04-18T13:11:12Z</time>
      </trkpt>
      <trkpt lat="49.29852" lon="-0.31844">
        <ele>7.6</ele>
        <time>2021-04-18T13:11:13Z</time>
      </trkpt>
      <trkpt lat="49.29854" lon="-0.31841">
        <ele>7.6</ele>
        <time>2021-04-18T13:11:15Z</time>
      </trkpt>
      <trkpt lat="49.29856" lon="-0.31839">
        <ele>7.6</ele>
        <time>2021-04-18T13:11:16Z</time>
      </trkpt>
      <trkpt lat="49.29858" lon="-0.31836">
        <ele>7.6</ele>
        <time>2021-04-18T13:11:18Z</time>
      </trkpt>
      <trkpt lat="49.2986" lon="-0.31832">
        <ele>7.5</ele>
        <time>2021-04-18T13:11:19Z</time>
      </trkpt>
      <trkpt lat="49.29861" lon="-0.3183">
        <ele>7.5</ele>
        <time>2021-04-18T13:11:20Z</time>
      </trkpt>
      <trkpt lat="49.29863" lon="-0.31827">
        <ele>7.5</ele>
        <time>2021-04-18T13:11:22Z</time>
      </trkpt>
      <trkpt lat="49.29864" lon="-0.31825">
        <ele>7.5</ele>
        <time>2021-04-18T13:11:23Z</time>
      </trkpt>
      <trkpt lat="49.29865" lon="-0.31823">
        <ele>7.5</ele>
        <time>2021-04-18T13:11:24Z</time>
      </trkpt>
      <trkpt lat="49.29867" lon="-0.3182">
        <ele>7.5</ele>
        <time>2021-04-18T13:11:26Z</time>
      </trkpt>
      <trkpt lat="49.29868" lon="-0.31818">
        <ele>7.4</ele>
        <time>2021-04-18T13:11:27Z</time>
      </trkpt>
      <trkpt lat="49.2987" lon="-0.31816">
        <ele>7.4</ele>
        <time>2021-04-18T13:11:29Z</time>
      </trkpt>
      <trkpt lat="49.29872" lon="-0.31812">
        <ele>7.4</ele>
        <time>2021-04-18T13:11:30Z</time>
      </trkpt>
      <trkpt lat="49.29873" lon="-0.3181">
        <ele>7.4</ele>
        <time>2021-04-18T13:11:31Z</time>
      </trkpt>
      <trkpt lat="49.29876" lon="-0.31807">
        <ele>7.4</ele>
        <time>2021-04-18T13:11:33Z</time>
      </trkpt>
      <trkpt lat="49.29877" lon="-0.31806">
        <ele>7.4</ele>
        <time>2021-04-18T13:11:34Z</time>
      </trkpt>
      <trkpt lat="49.29879" lon="-0.31803">
        <ele>7.3</ele>
        <time>2021-04-18T13:11:35Z</time>
      </trkpt>
      <trkpt lat="49.29879" lon="-0.31802">
        <ele>7.3</ele>
        <time>2021-04-18T13:11:36Z</time>
      </trkpt>
      <trkpt lat="49.2988" lon="-0.31799">
        <ele>7.3</ele>
        <time>2021-04-18T13:11:38Z</time>
      </trkpt>
      <trkpt lat="49.29879" lon="-0.31797">
        <ele>7.4</ele>
        <time>2021-04-18T13:11:39Z</time>
      </trkpt>
      <trkpt lat="49.29878" lon="-0.31795">
        <ele>7.4</ele>
        <time>2021-04-18T13:11:40Z</time>
      </trkpt>
      <trkpt lat="49.29877" lon="-0.31792">
        <ele>7.5</ele>
        <time>2021-04-18T13:11:42Z</time>
      </trkpt>
      <trkpt lat="49.29875" lon="-0.31789">
        <ele>7.6</ele>
        <time>2021-04-18T13:11:44Z</time>
      </trkpt>
      <trkpt lat="49.29874" lon="-0.31787">
        <ele>7.6</ele>
        <time>2021-04-18T13:11:45Z</time>
      </trkpt>
      <trkpt lat="49.29873" lon="-0.31786">
        <ele>7.6</ele>
        <time>2021-04-18T13:11:46Z</time>
      </trkpt>
      <trkpt lat="49.2987" lon="-0.31784">
        <ele>7.7</ele>
        <time>2021-04-18T13:11:48Z</time>
      </trkpt>
      <trkpt lat="49.29868" lon="-0.31782">
        <ele>7.8</ele>
        <time>2021-04-18T13:11:49Z</time>
      </trkpt>
      <trkpt lat="49.29867" lon="-0.31782">
        <ele>7.8</ele>
        <time>2021-04-18T13:11:50Z</time>
      </trkpt>
      <trkpt lat="49.29864" lon="-0.31778">
        <ele>7.9</ele>
        <time>2021-04-18T13:11:52Z</time>
      </trkpt>
      <trkpt lat="49.2986" lon="-0.31775">
        <ele>8.1</ele>
        <time>2021-04-18T13:11:54Z</time>
      </trkpt>
      <trkpt lat="49.29857" lon="-0.31772">
        <ele>8.2</ele>
        <time>2021-04-18T13:11:56Z</time>
      </trkpt>
      <trkpt lat="49.29855" lon="-0.3177">
        <ele>8.2</ele>
        <time>2021-04-18T13:11:57Z</time>
      </trkpt>
      <trkpt lat="49.29852" lon="-0.31768">
        <ele>8.3</ele>
        <time>2021-04-18T13:11:59Z</time>
      </trkpt>
      <trkpt lat="49.29848" lon="-0.31765">
        <ele>8.5</ele>
        <time>2021-04-18T13:12:01Z</time>
      </trkpt>
      <trkpt lat="49.29844" lon="-0.31762">
        <ele>8.6</ele>
        <time>2021-04-18T13:12:02Z</time>
      </trkpt>
      <trkpt lat="49.29842" lon="-0.31761">
        <ele>8.6</ele>
        <time>2021-04-18T13:12:03Z</time>
      </trkpt>
      <trkpt lat="49.2984" lon="-0.31759">
        <ele>8.7</ele>
        <time>2021-04-18T13:12:04Z</time>
      </trkpt>
      <trkpt lat="49.29836" lon="-0.31757">
        <ele>8.8</ele>
        <time>2021-04-18T13:12:06Z</time>
      </trkpt>
      <trkpt lat="49.29834" lon="-0.31756">
        <ele>8.8</ele>
        <time>2021-04-18T13:12:07Z</time>
      </trkpt>
      <trkpt lat="49.29831" lon="-0.31753">
        <ele>8.9</ele>
        <time>2021-04-18T13:12:09Z</time>
      </trkpt>
      <trkpt lat="49.2983" lon="-0.31752">
        <ele>9</ele>
        <time>2021-04-18T13:12:10Z</time>
      </trkpt>
      <trkpt lat="49.29826" lon="-0.31749">
        <ele>9.1</ele>
        <time>2021-04-18T13:12:12Z</time>
      </trkpt>
      <trkpt lat="49.29825" lon="-0.31748">
        <ele>9.1</ele>
        <time>2021-04-18T13:12:13Z</time>
      </trkpt>
      <trkpt lat="49.29822" lon="-0.31746">
        <ele>9.2</ele>
        <time>2021-04-18T13:12:15Z</time>
      </trkpt>
      <trkpt lat="49.29821" lon="-0.31744">
        <ele>9.2</ele>
        <time>2021-04-18T13:12:16Z</time>
      </trkpt>
      <trkpt lat="49.29818" lon="-0.31741">
        <ele>9.3</ele>
        <time>2021-04-18T13:12:18Z</time>
      </trkpt>
      <trkpt lat="49.29816" lon="-0.31739">
        <ele>9.4</ele>
        <time>2021-04-18T13:12:19Z</time>
      </trkpt>
      <trkpt lat="49.29812" lon="-0.31736">
        <ele>9.5</ele>
        <time>2021-04-18T13:12:21Z</time>
      </trkpt>
      <trkpt lat="49.29811" lon="-0.31735">
        <ele>9.5</ele>
        <time>2021-04-18T13:12:22Z</time>
      </trkpt>
      <trkpt lat="49.29808" lon="-0.31733">
        <ele>9.6</ele>
        <time>2021-04-18T13:12:24Z</time>
      </trkpt>
      <trkpt lat="49.29805" lon="-0.31731">
        <ele>9.6</ele>
        <time>2021-04-18T13:12:26Z</time>
      </trkpt>
      <trkpt lat="49.29803" lon="-0.31729">
        <ele>9.7</ele>
        <time>2021-04-18T13:12:28Z</time>
      </trkpt>
      <trkpt lat="49.29801" lon="-0.31727">
        <ele>9.7</ele>
        <time>2021-04-18T13:12:30Z</time>
      </trkpt>
      <trkpt lat="49.29798" lon="-0.31724">
        <ele>9.8</ele>
        <time>2021-04-18T13:12:32Z</time>
      </trkpt>
      <trkpt lat="49.29798" lon="-0.31723">
        <ele>9.8</ele>
        <time>2021-04-18T13:12:33Z</time>
      </trkpt>
      <trkpt lat="49.29795" lon="-0.3172">
        <ele>9.9</ele>
        <time>2021-04-18T13:12:34Z</time>
      </trkpt>
      <trkpt lat="49.29794" lon="-0.31719">
        <ele>9.9</ele>
        <time>2021-04-18T13:12:35Z</time>
      </trkpt>
      <trkpt lat="49.2979" lon="-0.31715">
        <ele>9.9</ele>
        <time>2021-04-18T13:12:37Z</time>
      </trkpt>
      <trkpt lat="49.29787" lon="-0.31712">
        <ele>10</ele>
        <time>2021-04-18T13:12:39Z</time>
      </trkpt>
      <trkpt lat="49.29783" lon="-0.31709">
        <ele>10</ele>
        <time>2021-04-18T13:12:41Z</time>
      </trkpt>
      <trkpt lat="49.29781" lon="-0.31706">
        <ele>10.1</ele>
        <time>2021-04-18T13:12:43Z</time>
      </trkpt>
      <trkpt lat="49.2978" lon="-0.31705">
        <ele>10.1</ele>
        <time>2021-04-18T13:12:45Z</time>
      </trkpt>
      <trkpt lat="49.29779" lon="-0.31704">
        <ele>10.1</ele>
        <time>2021-04-18T13:12:46Z</time>
      </trkpt>
      <trkpt lat="49.29778" lon="-0.31703">
        <ele>10.1</ele>
        <time>2021-04-18T13:12:47Z</time>
      </trkpt>
      <trkpt lat="49.29775" lon="-0.31701">
        <ele>10.2</ele>
        <time>2021-04-18T13:12:49Z</time>
      </trkpt>
      <trkpt lat="49.29772" lon="-0.317">
        <ele>10.2</ele>
        <time>2021-04-18T13:12:50Z</time>
      </trkpt>
      <trkpt lat="49.29771" lon="-0.31699">
        <ele>10.2</ele>
        <time>2021-04-18T13:12:51Z</time>
      </trkpt>
      <trkpt lat="49.29769" lon="-0.31697">
        <ele>10.2</ele>
        <time>2021-04-18T13:12:52Z</time>
      </trkpt>
      <trkpt lat="49.29765" lon="-0.31693">
        <ele>10.3</ele>
        <time>2021-04-18T13:12:54Z</time>
      </trkpt>
      <trkpt lat="49.29763" lon="-0.31691">
        <ele>10.3</ele>
        <time>2021-04-18T13:12:55Z</time>
      </trkpt>
      <trkpt lat="49.29759" lon="-0.31688">
        <ele>10.4</ele>
        <time>2021-04-18T13:12:57Z</time>
      </trkpt>
      <trkpt lat="49.29755" lon="-0.31686">
        <ele>10.4</ele>
        <time>2021-04-18T13:12:59Z</time>
      </trkpt>
      <trkpt lat="49.29753" lon="-0.31684">
        <ele>10.5</ele>
        <time>2021-04-18T13:13:00Z</time>
      </trkpt>
      <trkpt lat="49.2975" lon="-0.31682">
        <ele>10.5</ele>
        <time>2021-04-18T13:13:02Z</time>
      </trkpt>
      <trkpt lat="49.29748" lon="-0.3168">
        <ele>10.5</ele>
        <time>2021-04-18T13:13:03Z</time>
      </trkpt>
      <trkpt lat="49.29747" lon="-0.31679">
        <ele>10.5</ele>
        <time>2021-04-18T13:13:04Z</time>
      </trkpt>
      <trkpt lat="49.29745" lon="-0.31678">
        <ele>10.6</ele>
        <time>2021-04-18T13:13:06Z</time>
      </trkpt>
      <trkpt lat="49.29742" lon="-0.31676">
        <ele>10.6</ele>
        <time>2021-04-18T13:13:08Z</time>
      </trkpt>
      <trkpt lat="49.29738" lon="-0.31673">
        <ele>10.6</ele>
        <time>2021-04-18T13:13:10Z</time>
      </trkpt>
      <trkpt lat="49.29737" lon="-0.31672">
        <ele>10.7</ele>
        <time>2021-04-18T13:13:11Z</time>
      </trkpt>
      <trkpt lat="49.29735" lon="-0.31671">
        <ele>10.7</ele>
        <time>2021-04-18T13:13:12Z</time>
      </trkpt>
      <trkpt lat="49.29733" lon="-0.31668">
        <ele>10.7</ele>
        <time>2021-04-18T13:13:14Z</time>
      </trkpt>
      <trkpt lat="49.29731" lon="-0.31667">
        <ele>10.7</ele>
        <time>2021-04-18T13:13:15Z</time>
      </trkpt>
      <trkpt lat="49.29727" lon="-0.31664">
        <ele>10.8</ele>
        <time>2021-04-18T13:13:17Z</time>
      </trkpt>
      <trkpt lat="49.29724" lon="-0.31662">
        <ele>10.8</ele>
        <time>2021-04-18T13:13:19Z</time>
      </trkpt>
      <trkpt lat="49.29721" lon="-0.31659">
        <ele>10.8</ele>
        <time>2021-04-18T13:13:21Z</time>
      </trkpt>
      <trkpt lat="49.2972" lon="-0.31658">
        <ele>10.8</ele>
        <time>2021-04-18T13:13:22Z</time>
      </trkpt>
      <trkpt lat="49.29718" lon="-0.31656">
        <ele>10.9</ele>
        <time>2021-04-18T13:13:23Z</time>
      </trkpt>
      <trkpt lat="49.29714" lon="-0.31654">
        <ele>10.9</ele>
        <time>2021-04-18T13:13:25Z</time>
      </trkpt>
      <trkpt lat="49.29712" lon="-0.31653">
        <ele>10.9</ele>
        <time>2021-04-18T13:13:27Z</time>
      </trkpt>
      <trkpt lat="49.29711" lon="-0.31652">
        <ele>10.9</ele>
        <time>2021-04-18T13:13:28Z</time>
      </trkpt>
      <trkpt lat="49.29708" lon="-0.3165">
        <ele>10.9</ele>
        <time>2021-04-18T13:13:30Z</time>
      </trkpt>
      <trkpt lat="49.29706" lon="-0.31649">
        <ele>10.9</ele>
        <time>2021-04-18T13:13:32Z</time>
      </trkpt>
      <trkpt lat="49.29703" lon="-0.31648">
        <ele>11</ele>
        <time>2021-04-18T13:13:33Z</time>
      </trkpt>
      <trkpt lat="49.29702" lon="-0.31648">
        <ele>11</ele>
        <time>2021-04-18T13:13:34Z</time>
      </trkpt>
      <trkpt lat="49.29698" lon="-0.31646">
        <ele>11</ele>
        <time>2021-04-18T13:13:36Z</time>
      </trkpt>
      <trkpt lat="49.29695" lon="-0.31645">
        <ele>11</ele>
        <time>2021-04-18T13:13:38Z</time>
      </trkpt>
      <trkpt lat="49.29694" lon="-0.31644">
        <ele>11</ele>
        <time>2021-04-18T13:13:39Z</time>
      </trkpt>
      <trkpt lat="49.2969" lon="-0.31642">
        <ele>11</ele>
        <time>2021-04-18T13:13:41Z</time>
      </trkpt>
      <trkpt lat="49.29686" lon="-0.31641">
        <ele>11</ele>
        <time>2021-04-18T13:13:43Z</time>
      </trkpt>
      <trkpt lat="49.29684" lon="-0.31639">
        <ele>11</ele>
        <time>2021-04-18T13:13:44Z</time>
      </trkpt>
      <trkpt lat="49.29683" lon="-0.31639">
        <ele>11</ele>
        <time>2021-04-18T13:13:45Z</time>
      </trkpt>
      <trkpt lat="49.2968" lon="-0.31637">
        <ele>11</ele>
        <time>2021-04-18T13:13:47Z</time>
      </trkpt>
      <trkpt lat="49.29677" lon="-0.31636">
        <ele>11</ele>
        <time>2021-04-18T13:13:49Z</time>
      </trkpt>
      <trkpt lat="49.29676" lon="-0.31635">
        <ele>11</ele>
        <time>2021-04-18T13:13:50Z</time>
      </trkpt>
      <trkpt lat="49.29672" lon="-0.31633">
        <ele>11</ele>
        <time>2021-04-18T13:13:52Z</time>
      </trkpt>
      <trkpt lat="49.29669" lon="-0.31631">
        <ele>10.9</ele>
        <time>2021-04-18T13:13:54Z</time>
      </trkpt>
      <trkpt lat="49.29667" lon="-0.3163">
        <ele>10.9</ele>
        <time>2021-04-18T13:13:55Z</time>
      </trkpt>
      <trkpt lat="49.29663" lon="-0.31628">
        <ele>10.9</ele>
        <time>2021-04-18T13:13:57Z</time>
      </trkpt>
      <trkpt lat="49.29662" lon="-0.31627">
        <ele>10.9</ele>
        <time>2021-04-18T13:13:58Z</time>
      </trkpt>
      <trkpt lat="49.2966" lon="-0.31626">
        <ele>10.9</ele>
        <time>2021-04-18T13:13:59Z</time>
      </trkpt>
    </trkseg>
  </trk>
</gpx>